ECMWFFLT2_850_thetae_000.txt.gz
Theta_e
325 324 324 325 324 323 325 325 322 325 330 329 322 320 323 323 320 321 323 326 329 330 333 337 338 337 338 337 338 338 340 346 349 349 352 354 354 355 355 355 354 352 351 350 349 350 351 350 349 351 353 350 346 349 351 346 345 348 349 348 350 350 349
324 326 325 325 326 326 325 322 323 328 330 330 326 321 321 322 320 321 322 323 325 324 327 335 336 334 335 336 336 336 337 343 349 350 351 353 353 354 355 356 354 350 347 343 343 347 350 351 350 348 347 346 344 344 346 346 344 345 347 346 347 348 347
324 326 325 323 324 327 327 326 329 328 323 324 325 322 321 321 320 321 321 322 323 322 325 331 335 334 334 335 335 335 335 342 349 349 351 353 353 353 354 356 356 353 347 342 342 347 349 350 351 347 343 343 344 343 343 344 346 344 344 348 348 343 342
324 324 322 319 321 325 326 327 330 329 325 324 324 323 323 321 320 321 320 321 322 325 330 333 335 336 336 335 336 336 334 340 348 349 351 352 352 353 354 355 357 357 350 345 344 347 348 351 351 348 346 346 347 346 343 343 347 345 343 349 349 342 339
322 320 321 320 321 323 323 322 323 324 326 326 325 325 324 322 320 320 320 319 321 328 336 335 335 336 336 336 336 336 336 335 340 347 351 352 353 354 354 355 356 356 353 349 347 347 349 351 353 351 350 351 351 352 349 347 349 351 349 349 347 340 338
318 319 323 324 323 325 324 322 322 323 325 324 322 322 323 323 321 320 321 318 321 330 337 335 335 335 334 335 335 335 336 335 334 342 350 352 354 355 355 355 354 354 354 351 349 350 349 351 354 353 352 353 354 355 356 355 354 355 356 355 348 338 336
321 322 325 324 324 324 325 325 325 326 326 323 319 319 321 322 321 321 321 319 322 332 338 335 335 335 333 335 336 334 335 335 333 339 349 352 355 356 356 355 354 353 354 353 351 353 353 353 355 354 354 355 355 356 358 360 360 357 358 359 353 341 335
325 325 325 324 325 324 323 324 326 326 325 325 323 324 325 322 320 321 321 319 323 333 340 338 336 337 335 333 335 335 336 339 338 344 352 353 354 357 355 354 354 352 352 354 354 355 357 355 353 353 353 355 357 358 359 360 362 361 358 359 358 347 335
322 323 323 322 323 323 322 322 325 326 326 327 326 326 327 323 321 322 321 318 323 334 339 339 337 336 334 334 335 335 338 343 342 349 356 352 351 356 356 353 354 353 353 354 354 357 358 356 351 349 350 353 357 359 361 361 361 362 360 359 360 357 346
320 320 319 319 320 322 323 323 324 324 325 326 325 323 322 321 323 324 322 319 325 334 336 335 335 333 333 335 336 333 338 344 346 352 356 353 352 356 356 355 355 355 356 358 356 356 355 353 351 349 348 349 354 357 360 361 361 363 363 359 360 362 358
321 321 323 325 325 322 321 321 322 323 324 325 324 322 319 322 323 322 325 327 326 330 335 335 334 333 333 334 335 333 335 342 349 356 356 352 354 356 356 357 357 358 361 360 358 354 351 350 351 350 350 350 351 353 355 357 360 360 361 362 363 361 358
325 326 327 327 327 324 321 322 321 322 324 324 322 320 320 325 322 319 329 335 327 327 334 335 334 335 334 333 334 333 333 335 343 354 355 351 353 355 357 357 356 360 364 362 358 354 351 350 351 351 352 352 350 350 349 351 355 356 357 361 362 357 355
327 327 327 327 327 326 325 324 323 322 323 323 322 321 323 326 322 320 330 336 329 329 333 333 334 335 333 334 333 332 334 331 334 352 358 354 354 355 356 354 351 355 361 361 357 354 351 351 353 353 352 351 350 349 349 348 350 353 355 357 358 358 359
327 327 327 327 326 325 325 325 325 324 324 324 323 323 324 325 324 325 330 333 332 333 333 332 334 334 332 334 332 331 333 331 334 352 360 356 354 355 352 350 347 347 350 352 354 353 351 350 353 352 350 349 349 348 348 347 348 351 355 358 360 363 362
327 329 329 328 327 326 324 324 326 325 325 324 323 324 325 325 325 326 326 328 330 332 333 333 333 333 333 332 332 332 333 332 334 348 357 355 355 356 349 346 350 350 345 345 349 349 346 347 349 351 350 349 349 350 351 349 349 353 358 361 363 364 364
325 328 328 327 328 326 323 322 324 325 323 323 323 324 326 325 324 325 324 323 326 330 333 333 332 333 333 332 333 332 332 335 340 348 357 357 356 358 354 350 353 353 346 344 345 344 344 348 351 350 349 348 349 354 358 359 359 360 361 364 365 365 365
325 328 328 326 325 323 320 321 324 325 324 325 325 325 326 327 326 325 323 323 327 331 331 330 331 331 331 331 333 333 338 348 353 353 355 356 358 360 359 357 356 355 355 356 354 352 356 359 358 354 355 357 356 359 362 363 364 364 363 365 365 365 364
325 327 327 326 324 320 321 325 327 327 326 325 325 324 326 327 328 327 327 329 331 331 330 330 331 331 334 337 340 343 346 349 349 349 350 353 357 359 358 360 358 356 358 359 356 356 360 362 362 362 364 364 361 361 361 360 360 361 361 363 365 364 362
325 327 328 326 323 322 326 329 328 327 327 326 326 327 327 327 327 328 330 330 331 331 331 332 334 339 345 345 344 344 342 341 342 345 347 351 355 355 357 359 358 355 355 355 354 356 359 360 360 361 361 360 358 359 358 355 355 356 356 359 362 361 359
327 327 326 325 325 327 328 330 330 328 328 327 325 324 326 327 327 328 328 329 330 331 331 335 340 344 345 344 342 340 338 339 341 341 344 349 351 352 353 353 352 352 352 352 351 352 354 355 355 354 355 357 360 360 355 348 347 348 348 352 356 355 354
328 326 324 325 327 327 328 331 333 332 332 333 330 326 326 328 328 328 329 330 330 327 330 340 343 341 340 340 340 341 341 342 342 341 344 348 349 351 353 352 349 348 348 348 348 348 349 348 348 350 353 356 355 350 344 337 335 337 340 343 346 348 350
328 327 326 328 327 325 329 334 337 336 335 338 339 332 327 329 329 328 329 331 330 330 336 342 342 338 337 335 336 344 346 344 343 342 343 346 350 353 354 351 348 347 347 348 346 348 350 347 341 341 343 343 339 335 332 331 330 333 335 337 342 347 349
327 327 327 328 326 328 335 338 336 336 335 337 338 330 325 328 333 332 331 331 331 334 339 343 342 338 333 331 337 348 348 347 346 345 344 346 349 352 351 349 347 347 348 348 347 350 350 343 336 335 334 333 332 331 332 332 332 333 335 337 340 342 342
327 327 327 327 327 332 338 336 333 334 336 337 334 325 323 332 339 338 336 335 336 340 343 341 340 337 334 336 345 348 348 351 351 350 349 349 349 352 352 351 349 347 346 348 350 350 344 336 333 334 333 333 333 333 334 335 334 335 336 336 337 336 336
326 326 326 326 329 334 336 334 333 336 336 334 329 325 331 342 345 342 342 339 340 343 343 339 341 344 346 348 349 348 349 353 353 352 352 352 353 354 353 348 346 345 344 345 345 342 337 335 336 336 335 336 336 335 335 335 334 335 335 335 335 334 336
325 326 327 326 329 334 335 333 334 335 333 331 331 335 343 346 343 342 342 340 341 343 343 344 347 349 349 350 350 351 352 353 354 353 353 353 353 351 347 344 345 346 344 340 338 338 337 338 338 338 338 338 337 336 335 333 333 333 334 335 335 334 338
327 327 329 329 331 334 334 334 336 336 334 335 338 342 344 344 343 344 344 343 345 345 345 347 347 347 347 349 350 351 350 350 350 350 349 349 348 344 340 340 344 345 342 338 338 338 339 339 338 338 338 338 337 335 333 332 333 332 332 334 335 335 340
327 327 330 332 333 334 333 334 337 338 337 338 340 341 342 342 344 345 345 345 345 344 344 344 343 343 344 345 346 346 345 344 345 345 344 342 340 340 339 339 340 339 337 336 336 337 338 340 339 338 337 336 336 336 336 335 335 334 335 335 336 339 343
331 330 333 334 333 333 333 334 335 336 335 336 337 338 340 340 339 340 341 342 342 343 343 342 342 343 343 343 344 343 342 343 343 343 343 341 339 339 339 339 339 337 335 334 335 335 335 336 336 337 337 336 338 338 339 339 339 338 338 338 339 343 345
333 332 334 333 333 333 333 332 332 333 334 336 337 338 338 338 339 341 342 341 340 342 343 342 342 343 344 345 345 344 344 345 343 339 340 342 342 339 336 335 338 339 335 333 333 334 334 333 333 334 334 334 336 338 338 339 340 341 341 340 339 342 343
331 331 332 332 333 333 333 332 332 332 333 334 336 337 338 338 339 341 343 344 343 343 344 345 344 344 344 345 346 345 345 345 343 338 336 336 336 336 333 331 334 335 334 332 331 332 332 332 334 335 333 332 335 339 341 342 344 345 343 341 341 342 344
332 334 333 332 331 331 332 332 332 332 332 332 333 335 335 336 336 337 339 340 341 342 343 343 344 344 344 343 343 342 343 343 342 339 336 335 334 334 332 331 331 332 332 331 330 331 332 332 334 336 335 335 337 341 346 349 349 347 345 344 345 346 346
334 335 332 330 329 329 330 330 331 331 331 330 331 331 332 332 332 332 333 333 334 336 336 336 336 337 339 338 337 335 337 340 340 339 338 337 335 333 331 330 329 330 330 329 329 330 332 333 335 336 337 339 342 348 352 353 352 350 348 347 347 347 346
333 333 332 331 332 332 330 328 328 329 330 329 328 329 330 330 330 329 329 329 330 330 330 330 329 330 331 332 330 329 331 333 335 336 336 335 333 333 332 330 329 329 328 328 329 330 331 333 335 336 338 342 347 352 354 353 353 352 350 349 348 347 347
332 332 332 331 332 332 329 325 324 326 328 328 328 327 327 328 328 329 328 328 328 328 328 328 328 328 329 327 326 326 326 327 329 331 332 332 334 334 332 330 330 330 329 329 329 330 331 333 334 336 339 342 347 351 353 354 354 352 350 348 347 346 346
331 332 332 330 330 329 327 325 323 323 324 325 325 325 325 325 325 326 327 328 327 327 327 327 327 327 328 326 324 323 322 322 324 326 327 329 332 333 331 330 329 330 331 332 332 331 332 333 334 337 340 342 344 348 351 352 352 351 349 346 345 344 344
331 332 331 329 328 326 325 324 323 323 322 322 321 322 322 322 321 321 322 325 326 325 324 324 323 323 324 324 324 324 323 322 321 321 321 323 326 328 329 329 329 330 330 332 333 334 336 338 338 339 339 341 342 346 349 349 348 346 345 344 344 343 342

ECMWFFLT2_850_thetae_003.txt.gz
Theta_e
328 326 326 327 325 323 325 325 322 325 331 329 322 320 323 323 321 323 322 323 328 331 334 337 337 337 338 338 338 338 339 338 339 338 339 347 351 349 348 352 354 355 355 356 357 357 357 356 356 356 356 355 355 357 359 359 359 361 362 360 358 358 359
327 327 326 326 326 326 324 321 323 328 331 330 325 321 321 322 320 322 322 321 323 324 327 335 338 337 337 339 338 338 338 338 338 338 336 342 348 349 349 351 355 356 355 355 357 356 356 356 356 356 356 355 356 357 359 359 360 361 362 362 360 358 358
327 329 326 324 325 327 326 325 328 328 323 322 324 321 320 321 320 321 321 321 322 322 325 333 338 337 337 338 338 337 338 338 337 339 339 339 342 346 350 353 356 358 356 355 356 356 355 355 355 357 357 357 358 358 358 359 360 361 361 361 360 360 358
327 327 325 320 321 325 326 327 329 328 325 323 323 323 321 320 320 321 321 320 321 325 331 335 337 339 338 337 339 338 337 338 338 338 339 338 342 348 351 353 356 360 358 355 355 355 355 354 355 357 358 357 358 359 358 358 360 362 362 361 361 361 360
325 323 323 322 322 323 322 321 322 324 326 325 325 324 322 321 320 320 321 320 321 329 336 338 337 340 338 336 338 338 337 337 337 337 337 338 344 348 350 352 357 360 358 356 355 354 354 355 357 358 356 354 355 357 358 356 358 362 362 360 360 361 361
320 322 326 327 325 326 324 321 321 323 325 323 321 321 322 322 320 320 321 320 322 331 337 337 337 338 336 336 337 336 337 337 336 337 337 338 344 347 348 351 355 358 359 356 354 353 353 353 356 356 353 352 353 356 357 355 356 360 360 358 359 361 361
323 325 327 327 326 327 326 325 324 325 326 323 319 319 321 322 320 321 322 319 324 335 339 337 337 338 336 336 337 337 337 337 337 336 336 338 344 347 349 349 352 356 358 356 354 353 351 351 352 353 352 352 352 354 356 354 354 356 356 354 356 360 362
326 327 327 327 327 327 325 325 326 325 325 325 324 325 325 322 320 321 321 318 324 334 340 338 337 338 337 336 338 338 337 336 336 335 338 343 345 346 349 349 350 353 357 357 354 352 350 347 349 352 352 351 351 352 352 352 352 353 352 351 353 357 362
322 322 323 323 324 325 323 324 326 326 326 327 327 328 327 323 321 322 321 318 323 333 340 339 337 337 336 336 337 337 336 337 336 336 340 343 343 349 354 353 352 354 356 357 355 352 349 345 347 351 352 351 350 350 349 349 351 351 350 350 350 354 361
318 318 319 319 321 323 323 324 325 326 327 326 324 323 322 322 323 324 322 320 326 336 340 337 337 337 336 337 337 336 336 335 335 336 339 339 339 345 354 358 357 355 356 357 355 352 349 346 346 350 352 351 349 349 349 348 349 350 352 352 350 351 359
321 321 323 326 325 322 320 321 323 325 326 326 325 321 318 321 323 322 325 328 327 331 337 336 337 337 336 337 335 335 337 336 335 336 336 339 341 348 357 360 360 359 357 357 357 353 351 349 348 349 352 352 349 348 350 349 348 351 354 354 350 348 354
327 327 329 329 327 323 321 322 322 323 325 326 324 320 321 326 321 318 330 337 328 328 336 338 336 337 337 336 336 336 335 334 335 336 336 339 345 356 364 362 360 361 359 357 357 357 355 353 351 351 353 355 352 349 351 351 350 353 354 353 351 349 351
328 330 329 329 328 327 325 324 323 323 324 323 322 322 325 328 322 320 331 337 330 330 335 334 336 337 336 336 336 336 335 334 334 335 337 341 349 358 364 364 363 362 360 359 359 359 360 356 355 355 356 357 356 352 352 353 353 353 353 352 354 353 351
328 329 329 329 328 327 326 326 325 326 325 324 323 324 326 327 326 326 331 334 333 334 334 333 336 336 335 336 336 334 336 335 334 334 335 337 346 353 355 359 363 362 360 361 360 361 364 362 360 362 360 359 358 356 356 357 356 355 353 355 358 356 353
325 328 329 329 328 326 324 325 327 327 327 325 324 324 325 325 326 327 330 330 331 333 334 335 335 335 335 336 336 336 336 335 334 335 334 334 337 339 340 350 361 363 363 365 366 367 368 366 365 365 363 362 362 361 362 362 360 357 356 359 362 360 358
322 327 329 328 328 327 323 323 326 326 325 325 325 326 327 325 324 326 325 323 327 333 334 334 334 335 335 335 337 337 336 335 335 334 333 334 334 334 338 348 360 364 364 367 372 372 370 368 367 366 366 366 365 364 365 364 363 360 360 363 364 362 360
323 328 329 328 327 325 322 323 326 327 327 327 327 327 328 327 326 324 322 322 328 332 332 332 333 334 335 335 336 336 336 336 337 334 335 336 332 335 344 348 356 364 366 369 374 374 371 369 369 367 367 368 367 366 366 366 365 363 363 366 367 365 363
324 328 329 328 326 323 324 327 329 329 328 327 328 327 328 330 328 327 326 327 330 331 330 330 332 334 334 335 335 335 336 337 336 336 335 333 331 339 348 349 352 361 366 368 371 374 373 369 369 370 370 370 369 368 367 368 366 364 366 369 370 369 367
326 328 329 327 324 326 329 331 331 330 329 330 329 329 329 329 329 329 329 329 329 330 331 330 331 332 332 333 334 334 335 334 334 335 333 334 340 347 351 351 353 361 366 365 368 373 372 369 370 371 371 372 370 367 367 369 368 366 368 371 371 368 366
327 327 327 327 328 330 332 333 331 329 331 330 328 329 331 330 329 329 329 330 331 330 331 331 331 330 330 331 331 334 337 336 335 335 333 337 345 349 351 355 357 360 361 362 366 369 369 368 370 371 372 372 368 365 367 370 370 369 370 371 370 368 366
329 326 324 327 328 328 330 333 334 333 334 333 331 330 333 334 333 332 329 329 330 329 330 331 332 331 331 331 332 335 338 338 339 339 337 337 340 343 347 354 358 358 358 362 368 370 369 369 370 372 372 369 367 368 370 372 372 372 371 371 369 368 366
329 326 324 326 325 324 328 334 337 336 335 335 336 333 333 334 334 333 330 330 331 331 330 330 332 333 332 332 335 337 336 335 337 341 341 337 336 340 347 352 358 360 361 364 368 368 369 369 370 371 371 371 371 371 371 373 373 372 371 370 369 368 366
327 326 325 326 325 327 335 338 337 335 335 336 335 330 327 331 332 332 330 329 329 330 330 331 331 331 332 332 335 336 334 332 335 340 341 339 337 343 348 352 359 362 361 363 366 367 368 369 370 371 370 370 371 370 372 373 371 371 371 367 364 364 361
326 326 326 325 326 332 340 338 334 334 336 336 333 326 327 336 341 340 339 337 333 330 330 333 332 331 332 332 333 336 334 335 342 345 344 341 340 344 347 352 359 362 362 364 365 366 366 366 367 368 368 370 371 371 373 372 369 372 369 358 350 351 350
325 325 325 326 327 333 338 336 334 334 335 333 329 327 333 343 345 344 344 344 341 336 330 331 332 332 333 332 337 344 345 346 349 348 346 345 345 347 352 356 361 363 363 364 363 363 364 364 365 367 368 369 371 370 370 370 369 367 359 343 336 337 337
324 325 325 324 326 334 338 335 334 335 333 330 331 335 341 343 342 343 342 342 342 339 333 331 332 332 333 334 338 343 347 352 354 351 349 349 348 350 355 358 360 361 360 360 361 361 363 363 365 367 369 370 371 370 369 367 361 350 338 333 333 335 336
325 323 322 322 326 334 337 334 334 336 335 335 338 341 341 341 342 345 344 343 343 339 333 331 331 332 333 337 340 342 347 353 354 352 351 351 352 356 360 359 360 360 360 362 365 365 365 364 365 367 365 362 362 361 360 354 343 334 332 333 334 335 337
324 320 321 325 330 334 336 335 336 337 338 339 340 340 340 341 343 345 345 345 343 340 336 335 336 338 337 340 344 347 350 353 354 354 356 357 357 359 359 358 359 360 360 362 363 361 358 356 355 352 345 339 341 347 349 344 335 332 333 334 334 336 337
328 326 329 333 336 336 336 336 337 337 338 338 337 338 342 343 343 345 346 345 344 344 344 343 342 345 345 345 346 347 350 352 354 355 356 355 354 354 355 358 361 362 362 363 362 361 359 356 352 346 337 337 346 354 354 348 338 333 333 334 334 335 336
335 336 337 336 336 336 335 335 336 336 336 337 338 340 342 342 343 344 344 344 346 346 346 346 345 346 347 347 345 345 346 347 348 349 349 348 348 349 351 353 356 357 359 360 361 362 362 360 357 353 350 349 350 350 347 342 336 334 335 334 335 338 343
335 337 339 337 336 337 335 335 335 336 336 338 339 341 341 341 341 341 340 341 344 346 345 346 346 346 347 350 350 349 350 349 349 350 351 349 347 347 347 347 348 350 352 353 353 353 353 352 350 350 352 352 344 338 337 337 336 336 336 335 340 347 350
334 336 338 336 336 336 336 336 336 336 335 335 337 337 337 337 337 337 337 337 338 341 341 341 342 343 344 346 348 349 350 351 351 352 353 354 351 347 345 345 346 347 348 349 350 352 353 353 350 347 348 347 340 337 339 338 336 337 340 343 347 350 350
336 336 335 334 334 334 333 333 333 334 334 334 334 334 333 334 334 334 333 334 335 336 336 335 335 337 337 339 343 345 346 349 351 351 352 353 352 350 346 343 343 346 348 349 349 349 351 352 351 349 349 349 347 348 350 349 346 345 347 349 350 349 349
335 335 334 333 333 332 331 331 331 332 332 332 332 332 332 332 332 331 331 331 332 332 332 332 332 333 333 334 335 336 339 342 346 348 347 348 350 350 349 345 342 340 341 341 340 342 346 347 347 348 351 353 353 353 354 354 351 351 351 350 349 348 347
335 333 334 333 333 332 331 330 329 329 329 329 329 330 330 330 330 330 330 330 330 330 330 331 331 332 332 332 331 331 332 334 339 343 344 345 347 348 349 349 347 343 339 336 334 336 341 343 346 351 354 355 354 353 353 353 352 352 351 349 348 348 347
334 334 334 332 331 331 330 329 326 325 325 326 326 326 326 327 328 328 328 328 328 328 328 328 329 330 331 330 330 329 327 328 331 335 338 340 343 344 346 348 348 347 346 344 342 341 340 338 342 348 350 351 352 352 351 352 352 350 349 349 349 348 347
333 333 332 331 330 329 329 327 325 323 323 325 325 323 322 323 325 326 326 326 326 326 326 325 325 326 326 327 329 329 327 325 325 327 331 334 336 338 342 343 342 343 346 347 347 347 344 342 344 345 345 346 350 351 350 351 351 350 350 350 349 348 347

ECMWFFLT2_850_thetae_006.txt.gz
Theta_e
330 328 327 328 326 323 325 324 321 323 329 328 321 319 321 321 319 322 322 323 328 332 335 337 339 339 340 341 341 340 343 345 342 343 342 345 352 353 351 352 351 349 349 349 350 352 356 358 357 357 357 357 358 357 358 360 360 359 358 356 354 354 354
330 330 328 327 328 326 323 320 322 326 328 328 324 320 320 319 318 321 322 321 323 324 328 335 339 338 340 340 340 340 342 343 343 342 341 348 352 350 349 349 350 350 350 350 353 355 357 356 355 355 357 357 357 357 358 359 359 360 359 358 355 354 354
329 331 328 326 326 329 325 324 327 326 320 319 322 320 320 318 318 320 320 321 322 322 326 334 336 338 338 340 343 342 339 343 343 341 345 348 349 348 347 348 349 351 351 352 353 354 356 356 354 354 356 356 356 356 357 359 359 359 360 359 357 354 353
329 328 326 321 322 326 326 325 328 327 321 320 321 321 320 318 318 321 320 320 321 326 331 335 337 340 341 339 343 345 338 340 341 340 347 348 346 346 347 346 347 350 351 353 353 354 357 358 356 356 358 357 357 357 357 359 359 358 360 361 358 355 354
327 324 325 324 323 325 323 321 321 322 324 324 322 321 321 320 320 320 320 318 321 329 337 338 339 343 340 340 344 346 342 338 339 340 345 348 347 347 347 346 347 350 353 353 353 354 358 360 357 356 358 358 357 357 357 359 360 360 362 362 359 354 354
323 323 327 329 327 327 325 322 320 321 322 321 319 319 320 321 321 320 320 319 322 331 340 339 339 341 339 339 341 343 340 338 339 338 340 346 350 348 347 345 347 351 353 353 352 354 357 359 358 358 357 357 357 357 357 358 361 362 362 363 359 355 354
326 328 331 329 327 329 328 325 325 324 324 321 317 317 319 319 320 321 321 319 323 334 342 340 339 343 340 338 340 341 339 338 339 338 337 343 348 346 344 343 344 348 351 352 353 355 357 359 359 358 357 358 357 356 357 358 361 362 362 362 361 358 356
329 330 331 331 330 329 327 326 327 326 324 323 322 323 324 320 318 320 320 319 323 333 346 345 343 345 340 338 341 341 338 338 337 337 339 342 343 342 342 344 346 349 351 352 353 353 354 357 358 359 358 358 358 357 356 358 359 361 361 362 362 360 358
324 325 326 326 328 328 326 326 328 326 325 326 325 325 326 322 320 320 320 319 323 332 348 348 341 339 338 337 339 337 338 340 337 338 345 346 345 346 347 347 348 349 350 352 353 353 354 356 357 358 358 358 358 357 356 357 358 359 360 361 361 361 360
320 320 320 321 323 325 325 327 327 327 327 325 322 321 320 320 323 325 321 320 327 335 344 345 340 338 341 341 339 337 338 338 339 347 351 348 349 348 347 346 343 343 345 346 347 350 352 356 357 357 357 357 359 358 358 358 357 358 360 361 362 361 361
321 323 325 327 327 324 322 324 326 326 327 327 325 319 316 319 324 324 326 328 330 335 339 340 340 339 340 343 339 339 341 338 342 352 352 349 348 346 344 344 342 342 345 344 343 345 349 353 357 357 356 357 359 358 358 358 357 356 359 361 361 360 360
326 328 331 330 329 325 323 324 324 325 327 326 324 319 319 324 321 318 330 341 333 332 338 339 343 343 344 344 342 339 341 339 341 346 349 349 350 348 347 347 344 343 345 345 344 346 348 352 356 357 357 357 358 356 355 357 357 355 356 359 359 357 358
327 330 330 330 329 328 326 326 325 325 326 325 323 322 324 328 322 319 333 346 337 333 336 337 340 344 342 341 338 338 338 339 338 339 342 348 350 353 355 353 349 346 346 347 345 346 350 354 357 356 357 358 357 354 353 354 355 355 355 355 355 353 356
327 329 330 330 331 328 327 327 327 326 327 325 324 325 326 328 327 326 334 342 340 336 334 335 337 339 338 337 337 338 337 337 338 338 338 340 342 346 355 360 359 356 354 355 353 353 355 357 357 356 355 355 354 353 354 353 353 353 354 354 354 352 353
325 328 329 328 329 328 327 327 328 327 327 326 324 326 326 326 328 328 330 334 335 336 335 337 337 338 339 341 340 339 337 336 337 336 337 337 334 336 348 356 359 358 357 358 361 362 361 359 356 354 352 353 353 352 353 352 351 351 351 352 351 350 350
322 327 329 327 328 329 326 325 328 327 325 325 325 326 327 325 327 328 326 325 329 334 336 334 335 337 340 342 341 340 339 338 337 337 335 335 336 338 341 345 349 353 355 354 355 360 362 360 357 354 352 351 352 353 352 351 350 349 350 351 350 350 350
322 326 328 328 327 324 322 324 328 329 328 328 326 327 328 327 327 325 322 323 331 337 337 335 335 336 337 339 338 336 338 338 337 339 336 335 337 339 339 338 342 348 354 353 352 355 359 359 358 355 352 350 351 352 351 350 349 349 349 351 350 351 351
321 325 327 327 324 320 322 328 330 330 330 329 328 327 328 329 328 327 326 329 334 335 335 335 337 338 338 338 337 335 336 338 340 339 337 336 336 337 340 341 340 345 354 358 356 354 356 359 359 357 355 352 351 352 352 351 350 350 351 352 351 352 353
322 324 327 323 320 323 328 332 332 332 330 329 330 329 330 330 331 330 330 331 333 334 333 333 336 338 334 334 336 336 334 335 338 338 337 337 336 336 338 342 346 351 358 363 363 361 359 360 361 360 358 354 353 353 354 354 351 350 352 353 354 354 353
323 323 323 321 323 328 332 334 333 333 331 332 329 329 330 330 330 331 335 336 336 335 334 332 331 332 331 330 332 333 332 332 334 335 336 337 337 335 336 341 349 355 357 359 363 364 362 360 361 362 362 360 358 357 357 356 354 352 351 354 356 355 354
325 322 321 324 327 328 331 333 334 333 334 334 332 329 331 334 332 334 337 338 337 339 340 337 331 328 331 333 331 329 330 330 332 332 333 334 335 335 336 336 343 350 351 350 356 361 361 359 358 361 365 365 364 362 360 359 359 356 354 356 359 358 357
325 323 322 325 325 325 329 333 335 334 334 335 337 334 334 337 334 334 336 337 339 342 341 341 339 334 332 335 334 331 329 329 331 331 331 333 333 334 336 335 338 346 347 345 350 356 360 359 358 360 365 367 367 365 364 364 363 361 360 360 361 361 361
326 324 323 324 324 326 333 336 336 335 334 336 336 331 330 336 339 339 340 340 341 341 340 341 344 342 337 334 331 331 330 331 331 330 331 332 333 333 335 334 337 344 346 344 347 353 358 359 360 362 366 369 369 367 366 366 366 366 365 363 363 364 363
328 326 325 325 326 332 339 337 334 335 336 336 334 326 328 340 345 342 343 343 344 344 344 343 344 345 343 341 335 330 330 331 331 331 330 332 333 334 336 335 335 341 346 350 353 355 357 359 362 366 367 369 370 369 368 368 368 369 368 366 365 366 367
327 328 326 326 328 336 341 336 335 337 336 334 329 326 334 344 345 342 344 344 344 346 347 345 345 345 343 340 336 333 330 329 333 336 339 339 339 336 337 336 333 339 348 354 355 356 357 358 363 368 370 371 372 371 369 370 369 370 371 370 369 369 369
325 327 328 326 328 335 339 337 336 336 333 330 331 336 343 346 342 342 345 347 348 350 350 351 351 349 346 341 337 334 332 333 338 343 345 344 342 340 339 339 339 344 354 357 355 358 363 365 366 369 371 372 373 371 370 372 373 372 373 372 370 370 370
325 324 326 325 327 333 337 337 337 335 334 335 339 343 344 341 342 344 347 349 350 348 348 350 351 351 351 348 343 336 333 333 341 347 348 346 343 340 339 344 351 356 360 359 358 362 367 369 370 372 372 372 372 371 372 373 372 371 371 372 370 368 366
324 321 324 327 331 334 336 338 338 336 338 341 342 342 343 344 347 348 349 349 347 346 347 348 348 349 350 349 349 348 344 340 344 348 347 344 341 337 335 343 355 363 363 362 362 365 368 370 371 372 372 373 373 373 373 371 370 370 370 369 366 361 357
328 328 332 335 337 337 336 338 339 337 338 340 339 341 346 348 348 346 347 347 344 343 343 345 346 348 349 349 349 350 351 348 346 348 346 344 343 343 343 346 354 360 362 364 365 366 368 368 369 370 371 373 373 371 371 370 369 367 365 363 360 356 353
338 340 340 337 336 337 335 336 337 337 339 340 341 343 344 345 344 343 342 343 343 341 341 343 345 347 348 348 347 347 349 348 347 349 350 347 348 352 354 354 354 357 361 362 363 365 366 366 368 369 370 371 371 369 369 367 362 357 357 359 359 356 355
340 342 342 338 337 339 337 335 335 335 337 339 342 342 341 340 339 338 337 338 339 338 338 340 341 343 344 346 347 348 349 347 346 347 348 350 354 355 353 354 356 357 358 359 359 362 365 366 367 368 368 368 367 365 364 359 351 345 348 351 351 350 350
338 340 340 338 338 338 337 336 336 336 336 337 337 338 337 336 336 336 335 335 335 334 334 335 335 337 339 340 342 345 347 348 348 348 348 350 352 349 347 350 356 356 355 356 355 355 357 360 362 363 364 364 362 359 353 346 339 337 338 337 338 341 342
339 340 338 337 337 337 336 335 336 335 335 335 334 334 334 334 333 333 333 333 333 333 332 332 333 333 334 335 337 339 342 345 346 347 347 347 349 350 350 352 355 356 355 355 355 356 357 360 362 363 362 361 359 353 343 335 333 334 336 339 342 344 345
339 340 338 337 338 336 334 334 333 332 332 332 332 332 332 332 332 331 330 330 330 330 330 330 331 331 331 332 333 333 336 340 342 343 345 344 346 348 347 344 345 349 349 350 352 354 358 360 360 359 357 357 356 349 340 335 335 335 339 343 345 346 348
336 336 336 336 336 334 332 331 330 329 329 329 329 329 329 329 329 329 329 328 327 325 326 327 329 330 330 330 331 330 331 335 338 342 345 346 347 348 346 343 345 348 348 347 349 350 352 355 357 356 354 355 355 351 344 341 340 339 340 343 345 348 351
334 335 335 334 334 332 331 330 329 328 327 327 327 328 327 327 327 327 327 325 323 321 321 323 325 326 327 328 329 329 329 331 334 339 343 345 346 348 350 350 350 352 350 348 349 350 352 354 354 354 353 353 352 350 347 345 344 342 339 342 347 350 351
333 334 333 332 332 331 330 330 329 327 326 325 325 325 325 326 327 328 328 327 325 323 322 322 321 321 322 325 328 329 329 330 331 333 336 341 343 345 348 349 350 351 352 351 352 353 354 354 354 353 354 353 352 352 351 349 347 344 343 346 349 349 349

ECMWFFLT2_850_thetae_009.txt.gz
Theta_e
329 328 329 329 326 323 324 323 320 322 327 327 322 321 324 322 322 323 321 323 332 335 338 341 341 341 341 341 342 342 342 343 344 344 346 346 347 347 348 349 349 349 350 350 351 352 353 354 355 356 356 356 356 356 356 357 358 357 357 357 356 355 356
328 328 328 330 328 326 324 320 321 326 327 328 325 320 321 322 321 322 321 321 326 327 330 338 341 341 340 341 342 342 341 343 343 344 345 347 348 349 349 349 349 349 350 350 351 352 352 354 355 356 356 356 355 355 355 357 357 358 358 357 357 356 356
328 329 327 327 328 329 326 323 325 326 321 321 323 321 320 321 321 320 321 322 324 326 331 336 337 341 342 341 342 342 343 344 344 344 345 347 349 350 350 350 350 350 350 350 351 352 353 354 354 355 356 355 355 355 355 356 357 358 358 357 358 357 356
328 328 325 322 324 327 327 326 326 326 323 321 322 321 320 320 321 321 322 321 323 331 340 342 341 342 342 342 343 342 341 343 344 344 345 347 347 348 350 350 350 350 350 350 351 351 352 353 353 354 355 354 354 354 355 357 358 358 358 358 358 358 357
327 324 325 324 324 325 324 322 321 322 323 324 323 321 320 320 321 323 324 320 323 338 346 345 346 346 342 341 344 343 340 341 344 345 345 346 346 346 348 349 350 351 351 350 350 350 351 352 353 353 353 354 354 354 355 357 358 358 359 358 358 358 358
322 324 328 329 327 326 324 322 320 321 321 321 319 319 320 319 319 322 323 320 327 343 344 341 345 347 345 343 343 344 341 339 342 344 344 345 345 346 347 348 349 349 350 349 349 350 351 351 352 353 354 355 355 355 356 356 358 358 358 359 358 358 358
325 329 331 329 328 328 327 325 324 324 323 320 316 318 322 320 318 321 321 320 331 348 344 342 345 344 343 342 342 344 341 339 341 343 342 343 344 346 347 347 348 349 348 347 347 349 350 350 351 353 355 356 356 357 357 357 358 358 358 359 359 358 358
328 330 330 330 330 329 326 326 326 325 324 321 320 324 329 324 319 322 321 318 328 343 343 345 351 350 344 339 339 342 340 338 340 341 341 343 343 346 347 347 349 348 348 348 349 349 350 350 351 353 355 357 358 358 358 357 357 358 358 359 359 359 359
323 326 328 327 326 327 326 326 326 326 326 325 322 325 328 324 320 323 322 319 328 342 344 346 351 352 349 342 338 339 337 338 339 339 342 344 345 346 347 348 349 349 348 350 350 350 351 352 353 354 356 357 357 357 357 357 357 358 358 359 360 359 359
319 320 322 323 323 324 326 327 327 326 326 325 322 320 321 324 326 325 321 321 333 346 340 335 340 343 346 348 342 338 337 337 338 339 343 345 346 346 347 347 347 347 348 350 351 351 352 353 354 355 356 356 356 356 356 356 357 358 358 359 360 360 359
322 323 326 330 329 324 322 325 326 327 327 325 324 319 317 323 329 327 327 329 333 341 342 337 335 337 342 350 352 348 345 344 343 341 343 346 347 346 347 347 346 346 348 349 350 351 351 352 354 355 356 356 357 356 356 356 356 357 358 359 360 360 360
327 331 333 334 332 326 323 324 325 326 328 326 324 320 318 323 322 322 334 342 331 331 341 341 340 343 346 350 354 352 348 350 351 347 344 346 347 346 347 346 346 346 346 348 349 350 351 352 354 357 358 357 357 357 357 357 357 357 357 358 360 360 360
327 330 331 331 332 330 327 327 326 326 327 326 323 322 324 327 323 320 333 347 340 335 335 336 345 357 355 346 343 345 346 350 352 349 347 348 346 347 348 347 347 348 347 349 351 351 352 352 354 357 358 357 358 357 357 357 356 357 357 357 359 360 360
327 328 329 329 329 329 328 328 328 328 328 327 325 326 326 328 329 327 330 343 351 348 339 336 342 350 350 342 336 337 343 348 351 351 349 349 348 348 350 349 348 348 348 350 352 352 353 354 355 358 358 358 358 357 357 357 357 357 357 357 359 360 361
325 326 328 328 327 328 326 326 329 328 327 327 325 327 328 327 330 333 331 336 345 350 347 344 341 338 339 341 340 336 337 343 349 351 349 348 349 349 349 350 348 346 345 345 348 350 352 354 355 357 358 358 358 358 358 357 357 356 356 357 359 360 360
326 327 328 327 327 327 323 324 328 327 326 326 325 326 328 327 329 333 331 329 333 343 348 345 341 341 345 352 349 340 335 338 346 351 350 347 348 348 347 348 344 340 338 340 344 348 349 351 353 353 355 357 357 358 358 357 357 357 356 356 358 359 359
326 328 327 326 325 323 320 323 328 329 329 328 328 328 329 329 328 329 331 335 340 349 352 346 343 343 346 351 347 340 336 337 339 345 349 347 348 349 345 343 342 338 336 340 344 346 346 347 349 350 353 357 358 358 358 357 357 356 356 357 357 358 359
325 328 329 328 323 319 321 327 329 331 332 329 329 329 329 330 329 327 331 340 342 343 347 348 348 345 339 338 339 335 335 337 335 338 342 343 347 349 344 340 341 341 341 345 347 346 345 347 347 348 350 353 355 356 357 357 357 357 357 357 357 358 358
327 331 330 326 323 323 327 333 332 330 331 331 332 334 332 332 333 332 331 333 337 341 343 342 342 340 336 332 334 334 334 334 334 335 336 336 341 346 346 344 343 344 347 350 348 343 343 347 349 349 349 350 353 355 357 357 357 357 357 357 357 357 357
327 329 328 324 327 331 334 336 334 333 335 334 331 331 336 337 337 339 342 342 346 350 345 340 338 336 334 334 333 330 331 332 333 335 335 336 336 340 346 349 350 350 352 351 347 341 341 346 349 350 351 351 353 355 356 357 357 356 357 356 356 356 356
326 325 325 326 327 330 333 335 336 337 340 341 341 339 341 343 342 343 348 350 350 348 343 341 340 334 339 347 342 333 332 333 332 333 332 333 334 335 339 346 351 354 353 350 347 345 345 346 348 350 352 353 355 356 356 357 357 356 355 354 354 355 355
332 326 323 326 325 324 330 336 337 337 337 341 351 350 345 347 346 344 349 352 351 351 349 344 339 339 352 360 350 341 340 339 336 334 332 330 331 331 331 334 339 345 347 345 344 346 348 348 348 349 352 354 356 356 356 356 356 355 354 354 353 353 354
336 329 323 323 322 326 339 344 337 332 335 339 343 342 341 350 351 345 348 352 352 353 352 347 347 357 364 359 351 347 346 343 339 337 334 332 332 330 329 331 332 333 338 339 340 341 345 348 350 350 352 354 356 356 356 355 355 354 353 353 352 351 351
334 332 327 324 325 335 347 344 335 332 336 339 339 335 339 352 353 347 349 352 351 352 351 351 357 365 365 359 355 352 346 342 340 337 335 335 336 334 330 330 331 333 336 337 339 340 341 342 346 349 351 355 357 356 355 354 354 353 353 352 352 351 350
329 332 332 328 332 346 350 339 335 335 336 339 337 336 345 352 350 348 349 349 350 350 350 352 357 357 355 354 353 348 342 341 342 340 340 341 340 340 338 336 334 334 339 342 341 342 343 344 347 351 354 358 358 357 355 355 353 352 352 351 351 350 350
328 329 335 334 335 345 346 337 335 336 340 343 341 343 350 351 347 349 348 346 349 349 348 351 353 352 351 351 349 347 344 344 345 345 344 343 341 340 342 345 344 340 341 347 349 346 342 338 341 348 353 357 359 358 357 355 354 353 352 352 352 351 352
332 330 336 339 340 342 340 340 346 349 351 351 348 346 348 348 347 348 346 346 348 348 349 350 350 349 350 350 349 348 345 345 348 348 346 345 344 342 340 345 355 358 356 357 359 359 355 351 351 355 358 357 357 358 359 357 355 355 355 354 353 353 356
336 333 334 337 339 341 338 341 350 351 350 349 348 346 345 345 346 345 343 344 347 347 347 347 346 347 348 347 348 348 347 346 347 347 347 345 344 343 340 339 350 361 364 365 364 362 361 362 363 363 364 366 365 361 359 359 359 358 358 358 360 361 362
337 336 335 336 336 338 339 340 345 346 345 345 344 342 342 342 342 342 340 341 343 344 344 343 344 345 345 346 347 347 347 348 347 348 350 348 345 346 344 339 340 345 352 359 363 364 363 363 362 360 362 365 366 366 365 365 365 366 367 367 367 367 367
334 334 335 337 336 335 336 340 343 343 342 341 339 338 338 337 338 338 338 338 339 340 340 342 343 342 343 344 345 346 347 348 347 348 350 349 348 348 347 345 342 341 341 343 349 359 363 363 363 363 362 363 363 363 368 371 370 371 372 370 367 366 366
335 336 337 338 336 334 335 339 341 340 338 338 337 336 336 336 335 335 336 337 337 337 338 339 339 339 342 343 343 344 346 346 347 349 349 350 350 349 349 349 348 348 348 345 344 350 356 358 361 362 362 364 364 361 363 368 370 371 370 365 362 361 361
336 338 339 337 335 334 333 336 338 337 336 335 335 334 334 333 333 333 333 334 334 335 335 335 336 337 339 341 342 343 343 344 344 344 345 347 350 351 350 350 349 349 351 351 351 352 354 357 360 360 361 364 362 358 357 358 362 366 366 363 363 361 358
335 338 339 337 338 337 333 332 334 334 333 333 332 332 331 330 330 330 330 331 332 331 331 332 333 334 335 337 339 340 341 342 342 343 343 344 347 350 351 351 350 350 349 350 352 352 353 357 359 358 358 360 359 356 353 350 351 354 355 356 358 357 355
336 338 337 335 337 338 334 330 330 331 331 331 330 329 328 328 328 328 328 328 329 329 329 330 331 331 331 332 334 335 338 341 343 345 345 343 342 346 349 351 352 351 350 351 352 352 353 356 357 355 354 354 352 350 346 342 341 343 343 346 351 353 354
333 334 332 332 334 335 331 328 329 329 328 328 328 326 325 325 325 326 326 326 326 326 328 328 329 330 330 330 330 331 334 338 341 344 346 345 345 346 347 349 351 352 352 353 353 354 355 355 355 354 352 349 348 345 340 336 336 337 341 349 355 356 355
330 330 330 331 333 332 328 327 328 329 328 328 328 327 326 326 325 324 323 322 322 323 325 327 329 329 329 330 330 330 331 334 336 338 341 344 347 348 348 349 350 350 352 354 352 353 354 354 355 354 348 344 345 343 338 340 343 343 348 356 358 355 354
328 328 329 331 332 330 327 327 328 328 329 329 330 329 328 328 327 325 323 322 321 321 322 324 326 328 328 329 330 330 331 331 332 334 336 339 343 345 348 349 349 349 350 350 351 351 351 353 357 356 349 347 349 347 344 348 353 353 353 355 353 351 352

ECMWFFLT2_850_thetae_012.txt.gz
Theta_e
327 325 328 325 323 323 323 321 318 322 328 325 323 326 326 321 320 324 325 328 338 339 337 340 340 340 342 342 342 341 341 342 342 342 343 343 344 344 344 346 347 348 349 349 349 350 351 351 351 351 351 351 352 352 352 352 352 352 352 352 352 352 351
326 325 327 326 326 327 323 318 320 325 327 325 324 321 320 320 320 323 322 321 326 328 334 346 344 341 343 342 343 342 341 342 341 342 343 342 344 345 344 345 345 347 349 348 350 350 350 351 351 351 352 352 352 352 352 352 352 352 352 352 353 352 352
326 327 325 325 326 325 324 323 324 326 322 319 322 321 319 320 319 320 322 323 324 324 333 346 341 341 344 341 343 344 342 343 341 342 343 343 344 345 345 346 345 346 348 348 349 350 350 351 351 351 352 353 353 353 353 353 352 352 352 352 353 353 353
326 327 325 322 323 324 326 325 324 327 324 318 320 321 322 322 320 321 321 321 326 333 342 345 338 341 343 340 342 344 342 342 341 341 343 343 344 345 345 346 346 346 347 347 348 349 350 351 351 352 353 353 354 354 353 354 353 353 353 353 354 354 354
324 324 324 323 323 323 324 322 321 322 321 321 321 321 322 324 326 328 323 318 328 347 352 347 341 340 340 339 341 342 341 342 341 342 343 343 344 345 345 347 347 346 347 347 347 348 349 351 351 353 353 353 354 354 354 354 354 354 354 354 354 354 354
320 322 327 327 326 326 323 322 322 320 321 322 318 317 321 321 324 331 327 319 326 344 346 343 344 341 340 339 339 340 340 340 341 342 342 343 344 344 344 345 346 347 347 347 347 348 350 351 352 353 353 354 354 354 355 355 355 355 355 355 355 354 354
323 326 328 326 326 327 326 326 325 324 324 321 316 320 327 322 321 329 328 319 325 341 347 344 344 343 338 335 335 338 338 338 341 342 342 343 344 345 345 345 346 347 347 347 348 348 350 350 351 352 353 354 354 354 355 355 355 355 355 355 355 354 353
324 325 327 328 327 327 325 326 326 325 324 321 324 335 338 325 319 324 323 317 322 341 351 344 342 343 337 333 333 336 336 337 340 341 341 343 343 344 346 345 346 347 346 348 348 349 350 350 351 352 353 353 354 354 355 355 355 356 356 356 355 354 354
321 322 322 323 324 325 325 326 327 326 326 323 325 334 333 324 322 323 320 316 325 348 353 339 337 339 339 340 336 333 335 336 338 341 342 342 343 344 345 345 346 347 347 348 348 349 350 350 351 352 353 354 354 354 355 355 356 356 356 356 356 355 355
319 318 319 323 326 324 323 327 325 324 326 323 320 322 320 321 327 325 320 322 334 350 347 335 333 333 336 342 336 334 336 335 337 341 342 342 343 343 344 345 345 347 347 348 349 349 350 350 351 352 352 353 353 354 355 355 356 357 356 356 356 356 355
320 319 323 334 335 324 320 324 324 324 326 323 323 321 316 323 329 322 326 337 336 335 338 335 333 331 330 334 337 340 340 335 336 340 340 343 343 342 344 344 345 346 348 348 349 349 350 351 352 352 352 353 354 354 355 355 356 356 356 356 356 356 357
324 324 326 332 332 324 321 324 323 323 325 323 322 319 319 329 326 315 330 347 333 329 343 342 335 334 333 338 348 349 343 337 337 338 339 342 342 342 344 344 344 347 347 348 349 349 350 351 351 352 352 352 353 354 354 355 355 356 356 356 357 357 357
325 325 326 327 328 328 326 326 323 323 325 322 321 320 323 330 323 315 334 352 337 335 344 340 337 341 340 345 349 346 344 343 341 339 339 341 342 342 344 343 345 346 346 348 349 349 350 350 351 352 352 352 353 353 353 354 354 355 356 356 357 357 358
326 325 327 326 326 327 326 326 326 324 324 323 322 324 325 328 325 324 340 353 346 344 345 339 336 334 333 337 337 339 346 347 343 341 340 339 341 342 343 344 344 345 346 347 348 348 349 349 350 351 351 352 352 353 353 354 354 354 355 356 357 357 358
325 324 325 327 326 326 325 326 327 325 325 324 323 324 325 326 326 326 334 339 340 345 354 351 335 328 333 338 337 341 349 347 344 344 342 341 342 343 342 344 345 346 346 347 347 348 349 348 349 349 349 349 350 352 354 354 354 355 355 356 357 357 358
326 325 324 325 326 325 323 324 327 326 324 324 323 325 327 326 327 329 329 329 331 339 352 353 337 334 346 350 341 339 346 348 346 345 344 343 342 343 344 344 345 346 346 347 348 348 348 348 348 348 348 349 349 351 352 353 354 355 356 357 358 358 358
327 326 325 324 323 322 320 322 326 327 326 327 325 326 329 329 332 332 327 329 339 343 343 346 340 336 347 350 339 336 344 349 347 343 343 345 342 343 345 344 345 346 346 347 348 348 348 348 348 348 348 348 349 350 351 352 354 355 357 357 358 358 358
326 325 326 326 321 318 320 325 329 328 328 329 326 326 330 327 329 332 330 334 346 346 339 342 342 335 338 341 336 334 340 345 347 346 343 342 342 342 344 343 344 346 346 346 347 347 347 347 345 346 346 347 347 348 350 353 355 356 357 357 357 357 357
328 328 327 324 319 320 326 332 332 330 329 331 332 336 340 339 336 342 346 344 344 346 343 337 335 334 336 340 342 340 338 338 342 346 346 345 345 344 343 344 344 345 346 347 346 346 346 345 344 345 346 347 347 349 351 354 355 356 356 356 356 357 357
330 329 327 325 325 329 334 334 330 331 331 331 336 343 346 348 347 350 352 350 349 351 345 334 331 333 336 341 344 343 342 339 337 339 343 344 345 345 344 342 341 344 345 345 345 345 343 343 344 345 346 346 348 350 353 354 355 356 356 356 356 356 356
332 329 328 330 330 330 336 337 333 336 336 331 337 345 346 349 350 348 348 352 353 352 346 337 332 332 339 351 352 345 343 343 337 337 338 337 340 344 346 345 342 339 340 343 344 344 342 344 344 343 344 346 347 350 353 354 356 356 356 357 357 357 357
334 330 330 331 327 326 333 337 336 338 341 338 342 350 351 353 351 348 351 356 356 358 358 346 334 335 352 364 358 349 346 344 338 337 339 337 336 338 341 346 347 343 341 343 343 341 341 342 343 341 342 346 348 351 353 355 356 356 356 357 356 356 356
333 331 330 329 326 330 336 337 336 336 336 338 346 352 354 356 352 347 352 357 357 360 363 354 349 359 371 364 355 351 348 346 340 337 340 341 341 338 336 340 345 345 346 345 344 345 342 340 340 341 345 349 352 353 354 355 356 357 357 356 356 356 356
332 331 332 332 332 335 337 335 335 334 334 337 341 344 348 355 351 346 350 355 354 350 349 352 363 373 372 362 355 350 345 343 340 339 339 340 341 343 341 338 338 340 343 344 344 344 342 338 338 340 344 350 353 353 353 354 355 356 355 354 354 354 354
333 332 335 339 338 337 336 335 335 336 335 333 335 338 347 352 348 346 347 348 349 347 345 352 360 359 356 355 352 346 342 340 340 340 341 340 340 343 347 348 344 338 336 339 343 345 345 344 344 345 345 347 348 348 349 351 352 352 351 351 351 351 353
335 332 336 341 341 337 334 333 335 337 334 334 339 343 349 347 344 347 347 346 349 349 348 351 352 349 349 349 348 346 345 343 341 340 341 339 338 339 343 349 351 349 342 337 341 350 354 353 353 355 355 353 350 350 350 351 351 350 350 351 351 351 353
337 333 335 340 342 339 334 333 338 342 340 341 345 347 346 345 345 346 346 347 348 348 347 347 347 346 347 346 345 345 344 344 344 343 341 340 339 339 339 343 351 358 359 350 345 350 355 357 359 360 361 360 357 354 353 353 353 354 354 355 355 355 355
337 334 334 338 338 336 334 334 337 340 340 343 346 344 343 343 344 344 345 346 346 345 345 345 345 344 344 343 344 343 343 344 344 343 341 339 338 338 339 340 343 351 359 359 357 356 357 359 360 360 362 364 362 360 358 356 355 355 355 355 356 356 356
336 335 335 337 336 334 333 334 335 336 337 340 341 341 341 340 341 342 342 342 343 344 343 343 344 344 344 344 343 343 343 345 345 344 345 343 341 339 339 340 339 341 346 351 357 359 360 361 362 362 362 363 363 363 362 359 357 356 355 355 355 355 355
335 334 333 334 334 333 332 333 334 334 334 335 336 337 338 338 338 340 340 340 341 342 342 343 344 343 343 344 344 344 344 345 345 346 346 347 347 347 345 344 343 342 342 343 346 349 352 355 358 362 363 362 363 365 366 364 363 360 356 355 354 354 353
334 334 334 334 334 332 330 331 332 331 331 331 332 333 335 335 335 335 336 337 338 339 340 342 341 340 341 342 343 343 344 344 344 345 346 347 348 349 349 349 348 346 346 346 345 345 346 345 346 350 352 351 349 352 357 358 358 359 359 358 357 356 354
334 336 335 332 332 330 328 329 330 329 328 329 329 330 331 331 332 333 334 334 335 336 337 337 337 338 339 340 342 343 344 343 342 342 344 346 348 349 349 349 349 348 348 347 347 348 348 347 345 344 343 341 338 339 346 350 352 358 362 363 362 360 358
336 337 334 332 334 333 329 328 329 328 327 327 327 328 328 328 329 332 332 333 334 334 335 336 337 337 336 338 340 342 344 344 344 343 344 345 347 349 350 350 349 349 348 347 347 348 349 349 349 348 346 345 345 346 353 358 360 361 362 363 364 362 360
339 337 332 331 336 336 331 328 329 328 327 327 327 327 327 327 327 329 331 331 332 333 333 334 335 335 334 335 337 339 342 343 343 345 346 346 346 348 349 350 350 350 349 349 349 349 351 352 352 352 351 350 350 350 351 353 355 356 358 361 362 361 362
337 333 329 330 334 333 329 328 329 328 327 327 327 326 326 326 326 328 330 330 331 331 331 332 333 333 333 334 335 336 338 339 340 342 345 346 347 348 349 350 351 351 351 351 351 352 352 353 353 354 354 354 353 354 354 354 354 354 355 358 362 363 362
332 328 327 329 331 331 329 328 328 327 326 326 326 325 324 325 325 326 328 329 329 329 330 330 331 332 332 332 334 335 335 337 339 341 343 346 347 348 348 350 351 351 351 351 351 352 351 349 348 350 352 354 354 353 355 356 357 358 359 360 361 359 356
328 326 326 327 329 328 328 329 329 328 326 325 325 325 324 324 325 325 325 326 327 327 329 329 329 330 330 331 332 333 334 336 338 340 343 346 348 347 348 348 349 351 351 351 352 352 351 347 345 344 346 349 349 349 351 353 354 356 357 356 354 352 350

ECMWFFLT2_850_thetae_015.txt.gz
Theta_e
324 323 324 324 322 323 322 319 318 321 326 325 320 322 327 323 320 323 325 328 333 333 335 338 336 338 340 340 340 340 339 340 340 339 338 338 340 342 344 346 346 346 347 347 347 347 347 347 348 348 348 347 348 349 350 350 350 351 351 351 351 350 350
323 323 323 324 323 324 322 318 319 323 324 323 321 318 318 318 318 322 324 323 323 326 334 343 340 339 341 341 341 340 339 340 339 339 339 338 339 341 342 345 345 346 347 347 347 347 347 347 347 347 347 347 348 348 349 349 349 350 350 350 350 349 350
323 324 322 322 323 323 322 321 322 324 321 318 320 320 317 317 317 319 324 325 324 325 333 340 338 339 343 341 341 341 340 339 338 339 341 339 339 339 340 343 345 346 346 346 347 347 347 347 347 347 347 347 349 349 348 348 348 348 349 349 349 349 349
323 325 322 319 321 322 323 323 322 325 324 318 319 322 321 319 318 319 322 322 321 326 336 341 339 342 344 341 342 343 340 339 338 338 340 340 340 340 339 341 343 344 346 346 346 346 346 347 347 347 348 348 349 349 349 349 348 348 349 349 349 349 349
321 322 323 321 321 322 321 320 318 319 322 320 319 321 322 322 321 322 321 317 321 335 343 342 342 346 345 342 342 342 339 338 339 339 340 340 341 341 340 340 342 343 345 345 345 346 346 347 347 348 349 349 349 349 349 349 349 350 350 349 349 349 350
318 321 325 324 324 324 322 320 319 318 319 320 318 317 320 321 321 326 323 315 322 340 341 337 342 348 347 344 342 342 339 337 339 339 339 341 341 341 341 341 341 342 343 344 345 346 347 347 348 348 348 349 349 350 350 350 350 350 349 349 349 350 350
320 323 326 325 324 325 324 323 322 322 322 320 316 315 319 321 320 326 327 318 322 338 338 335 343 346 341 335 336 339 337 336 340 340 339 341 341 341 342 342 342 342 342 343 344 346 347 347 348 348 349 349 349 350 350 350 350 350 350 349 350 350 351
323 324 325 325 325 325 324 323 324 322 321 321 320 322 326 323 319 322 324 317 322 338 341 337 340 343 337 330 329 334 334 334 339 339 339 341 340 341 342 342 343 342 342 343 344 345 347 347 348 348 348 349 349 350 350 351 350 350 350 350 350 351 351
320 321 323 322 323 323 323 325 325 323 323 323 322 327 327 321 320 323 321 316 324 347 350 339 338 341 339 334 330 330 332 335 337 338 340 341 340 341 341 341 343 343 343 343 344 345 346 347 348 348 349 349 350 350 351 350 350 350 350 351 351 352 352
319 319 321 323 326 324 322 325 325 322 325 322 320 322 320 320 324 323 319 321 333 349 347 337 336 337 337 336 331 329 332 333 335 337 338 340 341 341 341 342 342 343 343 343 344 345 345 346 348 348 349 350 350 351 351 350 351 351 351 352 352 352 352
325 323 324 328 331 325 319 323 324 323 325 323 322 320 317 324 330 321 324 336 336 333 336 337 337 337 334 335 334 331 331 332 333 335 336 338 340 340 341 342 342 342 343 344 344 344 345 345 347 348 349 350 350 351 351 351 351 351 351 352 353 353 353
325 324 324 323 325 323 320 322 323 322 325 324 322 319 320 331 327 316 331 350 334 327 342 344 340 339 338 337 335 330 328 330 332 334 334 336 338 339 341 341 342 343 342 343 345 345 345 346 346 348 349 350 350 351 351 351 352 352 352 353 353 353 353
320 320 322 322 323 324 322 323 323 322 325 323 321 321 325 332 323 316 335 348 332 333 349 346 344 344 338 334 330 326 328 331 331 333 334 335 336 338 340 340 341 343 342 343 344 344 346 346 346 347 349 350 351 351 351 352 352 352 352 353 353 353 354
319 319 321 322 323 323 322 323 324 323 324 323 323 324 325 327 324 323 337 343 333 334 341 340 339 335 329 328 327 327 331 333 334 335 334 334 335 336 339 340 341 342 342 343 344 344 345 346 346 347 348 349 351 351 351 352 351 352 353 353 354 354 354
320 319 321 322 322 323 323 322 323 323 324 323 323 324 325 326 324 325 335 339 335 334 338 338 332 324 325 330 330 330 331 331 337 341 337 335 336 336 337 339 340 342 342 343 344 345 345 346 346 347 347 348 349 350 351 351 351 352 353 354 354 354 353
320 319 320 320 320 324 324 323 324 323 322 323 323 323 325 325 324 326 328 328 330 336 338 335 333 331 335 340 334 329 330 331 336 341 341 338 337 336 338 339 340 341 341 342 344 345 345 346 347 347 348 348 349 350 351 350 351 352 353 354 354 353 353
320 319 318 319 322 326 324 323 324 323 323 324 323 324 327 326 325 325 323 323 328 333 333 332 335 337 337 339 334 329 332 335 337 342 344 341 338 337 337 339 340 341 342 341 343 344 345 346 347 347 348 348 348 349 350 350 351 352 353 354 353 353 353
320 317 317 321 327 327 325 325 327 325 325 326 322 323 325 324 325 326 323 325 328 329 330 332 333 334 334 337 339 337 336 337 338 343 346 342 340 338 337 339 340 340 341 342 342 343 344 344 346 346 348 348 348 348 349 350 352 352 353 353 353 353 354
319 318 320 328 334 333 327 327 329 327 324 324 329 338 342 341 340 336 330 329 330 330 331 329 330 336 339 341 344 344 341 338 338 342 344 344 343 341 339 339 340 340 342 342 342 343 344 344 345 347 348 348 348 348 350 351 351 351 352 351 352 352 353
319 321 325 330 334 332 327 327 332 336 337 332 331 338 347 352 356 351 340 338 346 345 336 331 334 340 342 344 346 346 344 341 338 337 340 342 343 343 343 341 340 341 341 341 342 343 343 344 345 346 348 348 348 349 350 350 351 351 351 351 352 352 353
320 322 326 329 329 328 332 336 336 336 340 338 332 332 340 352 355 353 348 351 360 352 338 334 337 339 342 346 348 346 346 344 341 340 340 339 340 341 342 343 343 343 342 342 343 343 343 344 345 346 347 347 348 349 350 350 351 351 351 352 352 352 353
323 324 328 331 331 332 336 337 333 332 334 335 333 333 340 352 353 349 351 353 353 346 337 334 336 339 346 355 352 345 345 345 342 343 344 343 341 339 338 341 343 344 344 344 343 344 345 345 345 345 346 347 348 348 349 350 350 351 352 352 351 350 351
326 329 332 333 332 336 339 334 332 332 332 334 335 332 336 351 353 348 352 356 354 348 337 332 336 343 352 363 360 350 346 345 343 342 344 344 344 342 340 340 340 342 345 345 345 345 345 345 346 346 346 346 347 348 348 349 349 350 350 350 349 350 349
329 332 333 333 333 338 338 332 331 333 333 334 332 328 336 352 351 345 350 355 355 348 337 336 347 354 352 357 358 349 344 345 344 341 341 341 341 342 342 341 340 340 342 345 346 347 346 345 346 347 347 348 347 347 348 348 349 349 348 348 348 349 348
333 332 333 333 334 337 335 331 332 334 334 332 326 329 341 350 347 344 346 347 347 344 340 344 356 357 350 350 350 346 344 346 344 342 342 341 340 341 340 341 343 341 340 341 343 345 346 346 347 347 348 349 349 348 349 348 348 347 345 346 347 347 348
333 334 335 333 333 334 332 331 333 335 336 334 332 337 343 344 343 346 347 346 346 345 344 346 350 349 347 347 346 344 343 342 341 340 340 339 339 341 339 340 341 342 342 342 341 341 342 345 346 347 348 349 349 350 351 349 347 345 346 347 347 347 349
332 333 334 332 334 335 333 332 335 337 338 338 336 339 343 344 344 345 345 345 346 345 345 346 347 346 346 344 343 341 339 337 337 337 336 335 336 337 338 340 339 338 341 342 342 342 343 345 348 348 348 348 348 350 351 350 349 350 350 351 350 351 352
334 334 333 334 336 334 332 333 336 335 333 332 333 337 342 342 342 342 342 343 344 345 345 345 344 344 344 343 342 341 339 337 336 335 334 334 334 334 334 338 338 338 340 342 342 342 341 343 348 350 351 351 349 348 349 349 350 352 353 353 353 353 354
334 334 335 336 335 332 330 332 334 332 331 331 331 333 335 335 337 339 340 340 342 344 344 343 343 343 343 343 343 342 341 340 338 337 336 334 335 334 335 337 339 340 342 343 345 345 343 342 344 348 353 355 354 353 351 349 350 352 352 353 354 355 355
334 334 334 334 332 330 329 330 330 330 331 332 331 330 330 330 333 336 337 338 339 341 341 341 342 342 342 342 343 342 343 342 341 340 339 337 336 337 338 339 342 343 343 344 346 348 350 350 350 351 355 357 358 358 357 356 355 354 353 353 353 353 355
333 334 334 333 332 330 328 328 329 329 330 331 331 331 330 330 331 332 334 336 337 338 340 340 341 341 342 342 341 341 342 342 342 342 342 340 340 339 338 340 342 344 345 346 346 347 348 351 353 356 359 361 361 361 361 361 360 359 358 357 355 354 354
332 333 333 331 330 328 327 328 328 329 329 330 330 332 332 332 331 331 331 333 334 336 338 339 341 342 343 342 342 342 342 342 343 343 344 345 344 342 342 342 342 342 343 344 345 346 346 346 347 349 353 357 360 361 362 362 362 362 361 360 359 358 357
333 333 331 329 330 329 328 328 328 328 328 329 329 330 332 331 330 331 331 331 333 334 335 338 341 342 341 342 343 343 343 343 343 344 345 346 346 345 345 344 344 345 345 344 344 344 345 346 347 346 347 348 350 352 356 359 362 363 363 363 362 361 361
333 333 330 330 332 332 328 327 327 327 327 327 328 329 330 329 329 330 330 331 332 333 334 336 338 339 339 341 342 343 344 344 345 344 345 345 346 346 346 346 347 348 347 347 347 347 346 347 347 347 348 347 346 345 347 351 355 359 361 362 362 362 361
333 331 328 329 332 331 328 327 327 327 326 328 328 328 329 329 328 329 330 331 331 332 333 334 336 337 337 339 341 343 344 345 346 346 346 346 346 347 347 347 348 349 349 349 348 348 348 348 348 349 349 350 350 350 350 350 352 355 357 359 358 358 358
330 327 326 328 330 329 327 328 328 326 325 327 327 326 327 328 328 328 329 330 330 330 331 331 333 335 336 338 339 341 343 345 347 347 347 347 347 347 348 349 349 350 350 349 348 348 349 348 347 347 348 350 351 352 353 353 354 355 357 359 358 358 357
327 327 326 326 327 327 328 329 328 326 324 325 326 326 326 326 326 327 328 329 329 329 329 328 329 331 333 335 337 339 341 343 345 346 347 347 346 347 348 348 349 350 350 349 350 350 347 344 342 342 344 347 349 350 352 353 353 354 356 357 357 357 357

ECMWFFLT2_850_thetae_018.txt.gz
Theta_e
323 323 324 322 322 323 320 319 319 320 323 322 320 321 323 319 317 322 325 327 331 330 331 338 334 331 334 336 337 336 335 337 337 336 338 339 341 342 344 345 345 346 346 346 347 346 346 346 345 345 344 343 345 344 345 345 343 344 345 346 347 347 348
321 320 323 323 322 324 321 318 319 321 322 322 320 317 318 318 317 321 324 324 325 324 331 341 339 334 335 337 339 339 335 336 336 336 337 338 339 340 342 344 344 345 346 345 346 346 346 346 345 344 343 342 344 344 344 344 343 343 344 345 346 347 348
322 320 321 322 321 321 321 321 322 323 321 320 319 318 318 319 318 320 324 328 325 323 330 339 337 336 338 337 338 339 338 337 336 336 337 337 338 339 339 342 343 344 345 345 346 346 345 346 345 344 343 343 344 344 344 344 343 341 342 344 346 347 348
321 321 321 319 319 320 321 322 321 323 323 319 319 321 321 321 320 320 324 324 321 324 334 338 338 339 340 337 338 339 338 337 337 337 338 338 337 338 338 340 342 342 344 345 345 346 345 346 346 345 345 345 345 345 345 345 344 343 345 346 347 348 348
319 320 321 320 321 321 319 319 318 319 321 320 319 320 321 321 320 321 322 318 318 330 339 338 339 343 340 337 338 339 336 335 337 337 338 339 338 338 338 338 340 341 342 344 344 345 345 345 345 346 346 346 346 345 346 345 345 345 346 346 347 348 348
318 320 323 321 322 322 320 320 319 318 319 320 318 318 319 320 320 325 323 314 318 336 340 334 339 345 343 338 336 337 335 333 336 338 337 339 339 339 339 338 339 340 341 342 343 344 345 345 346 346 346 346 346 346 346 346 346 345 344 344 345 347 348
320 322 323 321 322 322 322 322 321 320 321 320 317 318 320 320 320 326 325 317 322 338 339 334 342 346 340 334 332 334 333 331 334 337 337 338 339 339 340 339 338 339 340 341 343 344 345 345 345 346 346 346 346 346 347 346 347 345 344 344 344 346 348
324 323 324 324 324 323 321 322 322 320 320 320 319 322 325 323 319 321 323 318 320 337 343 337 336 338 331 326 328 330 330 331 334 335 336 338 338 338 340 339 339 339 339 340 342 343 345 345 345 346 346 346 346 346 347 347 347 345 344 344 345 346 347
320 318 322 321 322 324 321 321 323 320 321 321 319 323 325 322 319 321 321 316 321 345 355 341 333 334 333 328 326 326 329 330 331 333 334 337 337 337 339 339 339 339 339 340 341 342 344 344 345 346 345 346 346 346 347 347 346 346 345 346 346 347 347
320 321 324 322 323 326 323 322 323 322 321 320 319 320 319 319 324 324 319 321 335 352 349 337 334 336 337 333 326 324 327 329 329 332 333 334 336 336 338 338 339 339 339 340 340 340 342 343 345 345 345 346 346 346 347 346 346 346 346 346 347 347 348
324 324 324 322 322 323 322 323 325 324 321 320 320 318 317 322 329 322 319 326 334 336 334 336 339 336 336 338 332 325 326 327 328 330 331 333 335 335 337 338 338 339 340 340 340 340 341 342 344 344 345 345 346 346 346 346 347 347 347 347 347 348 348
321 319 319 319 319 320 321 322 324 323 322 321 320 317 319 328 326 318 324 333 327 327 336 339 340 340 340 343 337 327 325 327 329 330 330 332 334 334 336 338 338 339 339 340 341 340 340 341 342 344 345 345 345 345 346 346 347 347 347 347 348 348 348
317 316 317 318 318 320 321 321 322 322 322 322 319 318 324 329 322 317 328 336 328 329 340 341 341 344 341 338 333 327 325 327 328 329 329 331 331 331 333 335 337 339 339 340 341 340 341 341 341 343 344 345 345 346 346 346 347 347 347 347 348 348 348
317 316 317 318 318 319 319 319 320 321 322 322 320 321 324 325 324 323 331 336 332 330 336 340 338 332 327 328 327 324 325 327 326 328 329 328 329 330 330 331 334 336 338 339 340 340 342 341 341 342 343 344 345 345 346 346 346 347 347 348 348 348 348
318 317 318 318 317 317 317 318 320 321 322 323 321 321 323 323 324 325 327 331 332 332 337 338 330 321 322 327 327 325 325 326 327 328 329 329 330 331 330 330 332 333 336 338 339 340 341 341 342 342 342 343 344 345 346 346 346 347 347 348 348 348 348
318 318 317 316 315 317 319 320 323 324 324 326 324 322 323 324 324 325 324 323 327 333 336 335 328 325 330 333 326 322 323 325 326 327 328 330 330 329 330 331 333 333 334 337 339 340 340 341 342 342 343 343 343 344 345 345 346 347 347 348 348 348 349
321 319 315 315 318 320 322 322 323 325 325 325 325 323 325 325 323 324 322 321 327 334 334 333 331 332 334 333 325 321 324 326 327 327 328 329 328 327 330 333 336 336 335 335 337 338 339 341 341 342 342 343 343 344 344 344 346 347 347 348 348 349 350
324 321 316 318 323 324 323 322 323 327 331 329 326 324 324 326 325 324 325 325 329 332 331 331 331 330 330 329 329 331 333 332 331 331 330 330 329 329 332 337 340 340 338 336 336 337 339 340 340 342 343 342 343 343 344 345 346 347 347 348 348 349 350
323 322 320 323 327 325 321 320 324 331 334 332 332 331 324 322 324 323 325 329 329 330 330 328 326 327 331 334 338 341 341 338 335 335 333 333 335 335 337 340 340 340 340 338 336 337 338 339 341 342 343 343 344 344 345 345 346 347 348 348 348 349 350
322 324 324 325 325 321 320 325 329 333 335 334 340 344 333 328 333 330 325 327 332 333 328 322 321 329 336 341 344 344 343 341 337 336 335 336 337 338 339 340 340 340 341 340 339 338 338 339 341 342 343 343 344 345 345 346 346 347 348 348 349 349 350
321 323 323 323 323 324 329 336 334 333 335 334 338 345 340 336 343 344 332 327 332 334 327 321 324 334 340 344 346 344 344 343 340 340 340 339 339 340 340 340 341 340 340 340 341 340 339 339 340 341 342 343 344 345 345 346 347 348 348 348 349 349 350
320 321 321 324 327 329 334 337 331 330 333 332 332 338 339 338 341 344 344 340 338 338 337 332 333 338 342 346 347 344 344 345 344 346 346 344 343 343 341 340 341 340 341 341 341 341 341 340 340 341 342 343 344 345 346 346 347 348 348 348 349 350 350
320 320 321 324 326 330 335 335 330 330 334 333 332 335 339 339 337 339 345 349 343 337 341 341 338 337 340 348 350 346 344 344 345 347 349 349 350 348 344 342 340 339 340 341 342 343 343 342 341 341 342 343 344 345 346 347 347 348 348 348 348 349 348
319 320 322 324 326 330 335 334 331 332 334 332 333 336 337 337 336 338 342 345 342 334 332 337 340 338 339 342 345 345 344 342 342 344 345 347 349 350 349 346 343 340 339 339 342 344 345 345 344 343 343 343 345 345 346 346 347 347 347 347 347 348 348
318 320 321 325 329 333 335 333 331 333 334 332 332 335 336 333 335 339 340 341 343 338 331 333 339 342 340 339 341 344 345 343 342 342 342 342 343 344 346 346 345 344 342 341 342 344 346 346 346 345 345 344 345 346 347 347 347 346 346 346 347 348 349
319 323 324 325 329 332 334 334 332 332 336 337 334 332 332 332 334 337 338 339 341 341 337 338 342 343 342 343 344 344 343 340 340 340 339 339 340 340 341 342 344 347 347 345 344 344 344 346 346 346 346 345 345 346 346 347 347 346 347 349 349 350 351
321 326 326 326 328 329 331 336 337 335 337 338 334 330 331 332 332 332 335 337 339 340 341 341 342 343 344 344 343 341 338 337 336 336 335 335 335 336 337 338 340 345 348 350 351 349 347 346 346 347 347 347 347 347 347 347 347 347 348 349 349 350 351
324 327 328 328 330 330 330 336 340 336 333 333 331 330 331 332 332 331 332 334 336 339 341 340 340 340 341 343 342 340 339 337 334 334 333 332 332 333 333 335 338 340 343 348 353 355 355 353 350 349 349 349 348 348 348 348 348 348 348 349 349 350 350
323 327 330 331 331 330 330 332 333 332 331 330 330 329 330 331 332 333 332 333 334 337 339 340 340 340 340 341 343 340 338 336 334 333 332 331 332 332 333 334 336 338 340 343 346 350 355 357 357 356 355 353 352 351 350 349 349 349 349 349 349 349 349
321 324 329 331 330 330 330 330 329 329 330 330 329 328 329 330 331 331 332 334 335 335 337 339 340 340 340 341 342 342 340 339 338 336 335 334 334 333 332 331 332 335 339 340 341 344 348 352 355 358 359 359 358 356 355 354 353 352 351 350 351 351 350
320 324 330 332 331 329 329 328 327 326 327 329 329 328 329 330 331 331 332 335 337 338 339 340 339 340 341 342 342 343 343 342 341 339 338 338 337 336 335 333 332 333 333 335 337 340 342 344 347 350 354 357 359 360 359 359 359 357 356 353 352 352 353
320 323 327 330 329 326 326 325 324 324 326 329 329 328 329 330 331 331 332 335 339 340 341 340 341 341 341 342 342 343 344 345 344 343 342 342 342 341 340 339 337 337 335 336 337 338 340 342 342 344 346 349 351 353 356 358 360 361 360 358 355 354 353
316 317 321 327 329 328 327 326 324 323 326 329 329 329 329 330 330 332 334 335 337 339 340 341 341 342 342 342 343 344 344 345 345 344 344 344 343 343 343 343 342 341 342 342 342 341 342 342 342 343 344 344 345 346 347 350 353 356 359 360 359 357 355
314 316 321 327 331 330 328 328 325 323 324 328 329 329 330 330 329 331 333 334 336 338 338 339 341 342 342 343 344 345 346 346 346 345 345 345 345 345 346 345 344 344 344 344 345 345 345 344 344 344 343 343 344 344 345 345 347 349 353 355 357 358 357
317 318 320 323 327 329 328 327 324 322 325 329 330 329 330 330 329 330 332 333 334 336 336 337 339 341 342 343 344 345 345 346 346 346 346 345 346 347 347 347 346 345 343 342 342 342 342 341 340 340 341 342 343 344 344 345 346 346 347 349 350 352 354
318 318 318 320 324 327 327 327 326 326 327 329 329 329 330 329 329 330 331 331 331 332 333 335 338 340 342 342 343 344 344 345 345 346 346 346 347 347 348 348 347 344 341 339 338 339 339 338 338 338 338 339 341 343 344 345 346 347 348 348 348 349 349
316 316 318 321 324 326 327 327 327 327 328 329 329 329 328 328 328 329 329 329 329 329 330 332 336 338 340 341 341 342 343 343 344 345 345 346 346 346 347 347 347 345 341 338 337 340 341 340 340 340 340 339 340 341 341 342 343 344 345 346 346 347 347

ECMWFFLT2_850_thetae_021.txt.gz
Theta_e
322 323 323 322 322 321 320 320 319 320 323 321 317 317 320 318 316 318 319 319 321 324 327 330 330 330 331 332 335 338 339 340 341 342 344 345 347 347 348 348 347 347 347 346 345 344 342 342 341 342 341 340 339 338 337 337 337 340 341 342 342 342 341
322 323 323 322 322 323 320 318 320 322 323 322 319 318 318 317 315 317 317 316 317 319 321 329 332 330 330 331 332 335 339 340 340 341 342 342 344 346 346 346 346 347 347 346 346 345 344 342 341 341 340 339 339 339 338 336 336 336 338 339 341 342 342
321 322 323 321 321 323 321 321 323 322 319 319 320 318 317 316 316 317 317 317 317 317 319 327 331 332 332 333 333 334 336 339 340 340 340 340 341 344 345 345 346 346 346 346 345 345 345 344 342 341 340 341 341 341 340 339 337 336 336 336 338 340 341
321 321 322 319 319 321 321 321 322 322 320 320 321 319 317 317 316 316 317 317 316 319 323 325 329 333 335 335 337 336 335 338 341 339 339 339 339 340 341 343 344 344 345 345 345 345 345 344 343 342 341 342 341 341 341 341 340 340 340 339 338 338 339
319 320 321 321 321 320 319 319 319 320 320 320 321 320 317 317 317 317 317 316 316 323 328 326 326 333 336 338 340 340 337 337 339 338 337 337 337 336 338 340 342 343 344 345 345 345 345 345 345 344 344 343 343 342 342 341 342 342 342 342 341 339 338
317 319 322 323 324 323 321 320 319 319 319 319 318 319 319 317 317 318 317 315 316 324 330 329 327 330 333 337 339 338 338 338 338 337 334 335 336 335 336 337 339 341 342 343 344 346 345 346 346 346 346 345 344 343 343 342 342 343 343 343 343 342 341
319 320 322 321 322 323 323 322 322 322 321 319 317 317 319 317 317 319 318 316 319 327 334 332 331 332 332 335 337 337 337 336 336 335 333 335 337 337 337 337 338 340 340 340 343 345 345 345 345 345 346 346 345 344 344 343 343 343 343 343 343 342 343
322 321 322 322 320 321 321 322 323 322 321 321 319 322 323 319 317 318 318 317 319 328 338 337 333 334 332 332 336 336 337 336 334 333 333 334 335 336 337 338 338 338 339 340 341 343 344 344 345 345 345 345 345 345 345 344 344 343 343 344 343 343 343
320 320 320 320 319 320 321 323 324 322 322 322 321 325 326 320 318 319 318 317 320 329 340 337 332 332 332 331 332 332 334 335 333 332 331 331 333 334 336 337 337 337 338 339 339 341 342 343 344 345 344 345 345 345 345 345 344 344 345 344 344 343 343
321 321 321 319 320 321 321 322 323 323 323 322 320 322 321 319 322 322 318 318 322 330 336 334 332 332 333 335 334 331 331 330 330 330 330 330 331 332 334 335 336 337 337 338 338 339 340 342 343 344 344 344 345 345 345 344 345 345 345 345 345 344 344
322 322 322 320 319 320 321 321 322 323 323 324 323 319 318 322 324 321 321 323 324 325 332 338 338 334 334 339 338 335 332 328 327 328 328 329 329 330 332 333 335 337 337 338 338 338 339 340 341 342 343 344 344 344 344 344 345 346 346 346 345 345 345
318 317 318 317 317 319 320 320 321 322 323 324 324 320 323 329 323 317 324 331 326 324 330 338 343 341 341 344 344 339 334 328 327 328 327 328 329 329 330 331 333 335 336 337 338 338 338 339 340 341 342 342 342 343 343 344 345 345 345 345 345 345 345
315 314 315 316 317 318 319 319 320 321 321 322 322 322 325 329 323 318 327 336 330 327 326 329 337 343 343 342 340 335 330 328 327 327 327 328 328 329 329 329 331 332 334 336 337 337 338 339 339 340 341 342 342 342 343 344 344 344 345 344 345 345 345
314 314 314 316 317 317 317 318 318 319 319 320 321 322 324 325 324 323 327 332 331 329 327 325 329 334 334 332 331 328 327 328 328 326 327 327 327 328 328 329 329 330 331 332 334 336 338 338 339 340 340 341 341 342 343 343 344 344 344 344 345 345 345
315 314 314 315 316 316 316 317 318 318 319 320 320 322 323 324 325 326 325 327 328 329 329 329 330 331 330 330 331 329 326 327 327 327 327 327 328 328 327 328 329 329 329 330 332 335 336 337 338 339 339 340 341 342 343 343 343 344 344 344 344 344 345
314 314 314 314 315 316 316 317 319 319 320 321 322 323 324 324 325 326 325 324 326 328 329 329 330 331 331 332 334 332 328 327 326 326 327 327 327 327 327 327 327 328 329 329 331 333 333 335 337 338 339 340 340 341 342 342 343 343 344 344 344 344 344
314 314 313 314 315 317 318 318 320 322 322 324 324 324 324 325 325 325 325 324 326 330 331 329 329 330 331 333 333 330 328 327 326 326 327 327 327 327 327 327 327 327 327 329 332 335 335 335 335 336 338 339 340 341 341 342 343 344 343 343 343 344 345
313 313 313 314 316 318 319 319 321 324 327 329 331 330 330 329 326 324 325 326 328 331 331 330 330 330 331 332 331 328 327 326 326 326 326 326 326 327 327 327 327 327 327 328 331 335 338 337 335 336 338 339 339 340 341 342 344 344 344 344 344 345 345
312 313 314 316 318 320 319 319 323 328 330 332 334 335 335 333 331 330 328 325 327 330 331 332 332 330 329 332 332 331 328 328 328 328 328 328 327 328 327 328 327 327 327 328 328 333 339 338 336 336 337 338 339 340 341 342 342 343 344 344 345 346 346
312 313 314 316 319 318 315 320 328 332 332 333 335 335 335 335 335 336 335 333 331 330 329 329 329 329 330 333 335 334 332 332 332 331 331 330 329 329 328 327 327 328 328 328 329 335 339 339 337 336 337 338 339 340 341 341 341 342 343 344 345 346 346
312 312 312 315 317 315 314 323 331 331 332 334 335 334 335 336 337 338 340 341 341 340 338 332 328 330 333 335 338 337 334 334 334 333 333 332 331 330 330 328 329 329 330 331 334 338 341 340 338 337 336 338 339 340 341 341 342 343 343 344 345 345 345
312 312 312 314 314 314 319 327 330 330 332 334 333 334 336 336 336 337 338 341 342 343 345 341 333 332 333 333 336 337 335 336 338 336 335 335 335 335 333 332 332 333 334 335 338 341 341 340 339 338 337 338 339 340 341 341 342 343 343 344 344 344 345
313 312 311 312 312 316 325 332 329 329 333 334 333 333 334 335 335 336 337 338 339 341 344 344 339 333 329 329 333 335 335 338 341 340 340 342 342 342 339 338 337 338 338 338 339 342 343 341 341 339 338 339 339 340 341 341 342 343 343 343 344 344 345
313 314 313 312 312 317 325 330 329 331 335 335 333 331 333 334 334 335 337 337 339 341 343 343 340 335 332 336 341 341 340 342 344 345 348 350 350 348 345 343 342 340 340 339 341 342 343 343 342 341 340 340 340 340 341 342 342 343 342 343 343 344 345
312 313 314 314 314 317 321 326 330 335 335 333 331 331 333 335 334 335 336 337 338 339 340 342 342 340 342 344 344 344 344 344 345 347 350 353 354 352 347 344 343 342 340 341 342 343 344 344 344 343 342 342 341 341 342 342 342 343 343 344 344 345 346
312 313 314 315 316 319 324 328 332 333 329 327 330 333 334 334 335 335 335 337 338 337 337 341 343 341 341 342 344 345 344 343 344 345 347 350 353 355 353 349 345 343 342 342 343 344 345 345 345 345 344 343 343 343 343 344 344 344 344 345 345 345 346
313 313 313 314 317 322 328 331 331 330 327 329 333 335 335 334 334 334 335 336 336 335 335 339 341 341 340 341 343 343 342 342 343 343 344 346 349 353 355 355 351 348 345 343 343 344 344 345 346 346 346 345 345 345 345 345 345 345 346 346 346 347 347
314 314 314 316 321 324 326 328 332 333 332 334 334 334 334 334 334 333 333 334 334 334 335 337 339 340 340 340 341 341 341 342 342 343 344 345 346 348 351 354 355 352 349 346 346 346 346 346 346 346 346 346 346 346 346 346 346 346 347 347 348 348 348
315 315 315 317 320 321 321 324 330 333 333 333 333 333 333 334 332 332 332 332 332 334 335 337 337 338 339 339 340 341 341 342 342 343 344 344 345 346 348 350 353 352 352 351 351 351 352 352 349 348 347 347 347 347 347 347 347 347 347 348 348 349 349
313 314 316 316 317 319 320 324 329 331 332 332 332 332 332 332 331 331 331 332 332 333 335 337 338 338 339 340 340 341 342 342 343 344 344 344 345 345 345 347 348 349 350 351 352 353 356 357 356 355 354 351 350 349 349 349 348 348 348 348 348 348 349
312 313 315 317 319 321 321 322 326 330 331 331 331 331 331 331 331 330 331 332 333 334 335 337 338 338 339 340 341 341 342 342 343 344 344 345 345 344 344 345 346 346 346 347 347 348 351 354 356 357 358 358 357 356 356 356 355 354 353 352 351 350 350
312 312 314 315 317 317 316 316 321 326 330 331 331 330 330 330 331 331 331 332 333 334 334 335 338 339 339 339 340 341 342 343 343 343 343 344 345 345 345 345 346 346 345 344 344 344 345 347 348 350 352 353 354 355 356 357 358 359 359 359 357 354 351
311 311 313 314 315 315 315 316 318 323 328 330 329 329 330 331 331 331 331 332 332 334 334 335 336 337 338 339 340 341 343 344 344 343 343 343 344 345 345 346 346 346 345 343 343 342 343 343 343 344 344 345 346 346 347 348 350 352 355 358 359 358 356
311 311 313 315 317 319 322 322 321 323 327 329 328 328 329 330 331 331 332 331 332 334 336 336 335 335 337 339 339 340 343 344 344 343 344 344 344 344 344 345 346 345 344 342 341 340 340 341 341 341 342 342 342 342 343 343 343 344 346 349 351 354 355
311 312 313 314 315 317 319 319 318 319 323 327 328 328 329 330 330 331 331 331 332 333 334 336 337 337 337 338 338 339 341 343 343 343 344 344 344 343 343 344 345 344 344 343 342 341 340 339 339 340 340 340 341 341 341 342 342 343 343 343 344 345 346
310 311 311 312 313 314 315 317 318 318 321 325 328 327 327 328 329 330 330 330 329 330 332 334 337 338 338 339 338 338 340 342 343 343 343 343 344 344 343 343 343 344 344 344 345 345 344 342 340 340 340 341 341 341 342 342 342 341 341 339 339 338 338
311 311 311 312 313 314 315 316 317 316 318 323 327 326 326 327 327 327 328 328 327 328 329 333 336 338 339 340 340 339 338 340 342 342 341 342 343 344 344 344 344 344 344 344 344 345 345 344 342 341 341 341 340 340 340 339 338 336 336 335 333 333 333

ECMWFFLT2_850_thetae_024.txt.gz
Theta_e
324 324 324 325 323 322 323 322 320 321 324 323 319 317 319 318 317 319 319 320 323 324 327 329 330 331 331 332 333 332 334 335 335 340 344 347 349 351 353 355 356 357 357 358 357 355 354 352 350 349 345 342 340 339 337 337 337 338 338 338 339 340 340
324 325 324 325 325 325 323 320 321 324 325 324 320 318 318 318 316 317 317 317 319 320 322 329 330 329 330 331 332 333 335 336 338 341 345 347 348 350 352 354 356 357 357 358 357 356 353 349 346 346 344 341 340 339 337 336 335 336 336 337 337 338 338
323 326 324 322 324 326 324 323 325 324 320 319 320 318 317 316 316 316 315 315 317 317 321 328 330 329 329 330 331 333 333 335 338 340 343 346 347 349 352 354 355 356 356 357 357 355 353 349 345 343 344 344 342 339 338 336 335 334 334 335 335 336 336
324 324 322 320 321 324 325 325 326 324 321 320 320 319 318 316 316 317 316 315 317 320 325 328 330 331 331 331 332 332 332 333 336 337 339 343 347 348 350 352 354 355 355 355 355 355 354 354 351 348 349 348 345 342 340 338 336 335 334 334 334 334 335
323 322 322 322 322 323 322 322 321 322 323 322 321 320 318 317 316 317 317 316 317 323 328 328 328 331 331 331 332 332 332 332 333 335 336 339 346 348 348 351 352 354 354 354 354 355 355 355 355 354 354 352 350 348 345 341 339 338 335 333 333 333 334
320 321 324 325 325 324 323 322 321 321 321 320 319 319 319 317 316 316 317 316 318 325 329 329 328 329 329 330 331 331 333 334 332 334 334 337 345 348 348 350 350 352 354 353 354 354 354 355 355 355 355 354 353 352 348 344 344 342 338 336 334 333 333
322 324 326 325 325 326 325 323 324 325 323 320 317 317 319 319 317 317 317 316 320 327 330 328 329 328 328 329 331 331 332 332 332 333 333 337 347 349 348 348 349 350 352 354 354 353 354 354 354 355 355 354 352 350 349 350 349 345 342 341 337 333 333
324 324 325 326 326 326 324 324 325 325 323 322 321 321 322 320 317 317 316 315 320 328 330 330 329 329 329 329 330 331 331 331 332 332 335 342 349 350 347 345 346 347 349 352 352 353 354 353 352 354 355 354 353 350 350 350 348 346 346 346 343 338 335
322 321 322 323 324 325 324 324 325 325 325 325 324 323 323 321 319 318 317 315 320 329 334 334 332 330 329 330 330 330 332 332 332 333 339 346 348 348 347 346 345 345 347 349 348 350 352 350 351 353 353 354 354 352 352 350 348 348 348 349 347 343 339
320 320 320 320 321 323 323 325 326 325 325 325 323 321 319 319 321 321 318 317 322 330 333 332 330 330 330 331 331 331 331 332 335 338 343 347 347 346 345 345 345 345 346 347 345 345 346 348 350 351 351 353 354 354 353 352 352 352 351 350 349 346 343
322 323 324 323 324 323 320 322 325 325 326 326 324 320 318 320 322 320 321 322 323 327 330 330 330 330 330 331 331 330 331 335 339 341 341 341 342 344 342 341 341 343 343 343 342 341 342 346 350 350 350 351 352 353 354 353 353 354 353 352 350 347 345
322 323 323 322 324 324 321 322 323 324 325 325 323 320 321 324 321 318 324 328 324 325 330 330 330 330 330 331 330 330 333 336 337 339 339 337 337 341 342 339 337 337 337 338 338 338 341 346 349 350 351 351 350 351 353 354 353 353 354 354 351 350 347
320 320 320 320 323 324 323 324 324 324 325 324 323 323 324 326 323 320 327 330 327 328 330 330 330 331 330 330 330 329 331 333 333 334 336 335 333 336 342 344 340 334 334 335 334 335 337 342 347 349 350 351 350 350 352 353 353 353 354 354 352 350 349
319 319 319 320 322 322 322 323 324 324 325 324 324 324 325 327 326 327 330 331 330 331 330 329 330 330 329 329 330 329 329 330 330 330 331 332 331 329 336 344 340 332 331 331 331 332 333 336 342 346 349 350 350 351 351 353 352 353 353 353 352 350 349
319 319 319 319 320 321 321 321 323 323 323 324 324 325 325 326 327 328 328 328 330 331 330 330 330 330 330 329 329 329 330 329 329 330 329 329 331 329 331 338 335 328 328 328 328 330 330 329 334 340 343 345 347 350 352 352 352 352 352 353 351 349 349
319 318 318 319 319 319 319 319 321 322 322 322 323 324 325 325 325 326 325 325 327 329 329 329 329 330 329 329 329 329 329 329 329 330 330 330 332 330 332 338 337 327 327 329 327 328 328 329 331 333 337 342 345 348 351 352 352 352 352 352 350 348 349
318 318 317 317 318 318 319 320 322 322 323 324 324 324 326 326 326 326 324 325 327 330 329 329 329 330 329 329 330 329 329 331 330 330 331 331 332 330 331 340 341 333 329 329 329 328 328 328 329 330 335 339 340 342 347 352 354 353 353 353 350 348 349
318 317 317 317 318 318 320 323 324 324 323 324 324 323 325 326 326 326 327 328 330 330 330 330 331 331 330 330 330 329 330 333 333 333 332 332 334 334 332 336 339 335 330 328 328 329 328 329 333 335 337 337 338 342 347 351 351 351 352 353 352 349 347
317 317 317 318 319 320 322 326 327 325 325 326 326 328 329 329 328 328 328 329 329 330 330 331 331 330 330 330 330 331 333 333 335 336 335 333 334 336 337 337 337 332 328 327 328 328 328 330 333 337 339 342 345 347 350 349 347 347 350 351 351 349 346
317 317 318 319 320 321 321 325 327 327 329 330 329 328 328 330 332 333 333 333 333 334 335 336 336 335 334 332 332 333 334 334 335 335 333 334 336 341 344 341 335 330 327 329 329 328 328 329 332 336 341 346 349 350 351 350 348 347 347 348 349 347 345
317 317 316 318 320 319 320 323 327 329 330 331 329 327 329 334 337 338 339 340 339 339 340 344 345 344 341 337 333 330 330 331 333 336 336 338 340 343 341 336 332 330 329 329 329 329 330 330 332 338 343 347 349 349 351 352 352 349 346 346 346 345 343
316 316 316 318 318 318 320 323 327 330 330 332 332 329 331 337 339 339 341 342 341 343 344 346 348 347 342 336 333 336 338 337 339 343 346 345 344 342 338 334 333 334 332 331 331 331 332 333 335 338 343 346 347 348 350 353 354 353 347 343 342 342 342
314 316 317 317 317 319 323 325 327 329 328 331 332 326 327 337 341 339 340 341 341 344 346 346 348 346 339 333 337 348 352 351 351 352 353 352 348 343 340 338 337 336 334 334 334 335 336 336 339 340 341 344 346 347 348 351 354 355 349 343 343 343 344
314 315 316 316 316 319 324 326 327 328 329 331 330 325 327 337 341 339 341 341 341 344 345 344 345 345 342 340 346 350 349 350 351 351 351 350 347 344 344 343 341 339 340 338 340 344 343 339 340 341 339 341 344 345 346 348 352 355 351 346 345 344 344
313 314 315 316 316 319 322 323 325 328 327 324 324 325 331 339 339 339 341 342 341 343 343 343 344 345 346 348 347 347 347 348 351 351 350 348 348 348 348 347 344 344 344 342 343 346 344 340 341 341 338 340 342 344 344 344 347 352 352 347 343 342 343
313 314 314 314 315 318 321 320 320 323 321 320 325 331 336 339 339 340 341 341 342 343 342 342 342 342 344 344 344 345 346 348 350 350 348 349 350 351 351 350 349 349 348 344 343 344 343 342 343 342 340 340 341 341 342 342 343 348 352 351 346 343 342
313 314 314 314 315 319 322 322 322 323 323 326 333 337 337 337 339 341 341 341 342 341 340 340 341 340 342 343 343 344 345 346 348 348 348 350 351 351 352 352 352 352 351 347 344 344 345 345 344 343 342 341 341 341 343 344 346 351 356 356 353 350 346
315 314 314 315 317 320 322 322 323 326 328 331 335 336 335 336 338 339 341 341 340 339 339 339 340 340 341 342 342 343 344 344 346 347 348 349 350 351 351 352 352 352 353 352 348 346 345 345 346 349 349 345 344 344 344 343 346 350 353 353 352 350 348
316 315 315 317 318 319 319 320 323 326 327 328 331 333 335 337 337 338 340 340 339 338 338 339 340 341 341 341 341 342 343 344 345 346 347 348 349 350 351 351 352 353 354 354 353 351 350 347 346 349 350 347 345 345 345 343 343 345 346 346 346 347 347
314 315 316 316 317 318 318 319 321 323 323 323 326 330 333 335 336 337 338 339 339 338 337 338 340 341 341 341 342 343 343 344 344 345 346 347 348 349 350 351 352 353 353 354 354 353 352 351 349 349 347 346 345 345 345 345 345 345 346 346 346 347 347
313 314 315 315 317 317 318 318 319 320 319 321 325 329 332 334 335 336 337 338 339 338 338 338 339 340 341 342 343 343 343 344 344 345 346 347 348 348 349 349 350 352 352 353 353 353 353 352 353 352 351 351 350 349 349 348 347 347 347 347 347 348 349
312 313 314 314 315 315 315 316 316 316 317 319 323 326 329 332 334 335 336 338 339 339 338 338 339 340 340 341 342 343 343 343 345 345 345 346 347 348 348 349 349 350 350 350 351 352 352 352 353 354 354 354 354 355 355 355 355 355 353 351 349 349 349
312 312 313 314 314 315 315 315 316 317 319 320 323 325 327 329 332 334 335 337 338 339 338 338 339 338 339 339 340 342 343 343 344 345 346 346 347 347 348 348 348 348 348 348 349 349 349 350 351 351 351 352 354 355 356 357 359 360 359 358 357 354 354
311 311 313 314 315 315 316 317 318 318 319 319 320 323 326 327 329 333 335 335 337 339 338 338 339 338 338 339 339 340 341 342 343 345 346 346 346 347 347 346 346 346 346 346 347 347 347 348 348 348 349 349 350 352 353 354 356 358 359 360 360 359 359
311 312 313 314 314 314 315 316 316 316 317 317 318 321 324 324 325 330 333 334 336 339 338 337 338 339 338 339 340 341 341 341 342 343 344 345 346 346 346 346 346 346 346 346 346 346 346 346 346 347 348 348 348 350 351 352 354 355 354 353 352 353 352
312 312 312 312 313 314 313 314 314 315 316 317 318 319 321 321 322 327 331 332 334 338 338 337 338 339 340 340 341 342 341 341 342 343 343 344 345 345 345 346 346 347 347 347 346 346 346 346 346 347 348 348 348 348 348 348 350 350 348 345 345 344 341
312 312 312 312 312 313 313 313 314 315 315 317 317 318 319 320 321 325 329 332 333 336 337 337 338 339 340 341 341 342 341 341 342 342 343 344 344 344 344 345 345 346 346 347 347 346 346 346 346 346 347 347 347 346 343 340 340 340 339 339 339 336 334

ECMWFFLT2_850_thetae_027.txt.gz
Theta_e
327 327 326 328 327 324 326 324 321 323 327 325 319 319 321 319 317 319 319 319 323 327 329 332 333 333 333 334 334 336 338 339 337 339 345 343 340 344 346 351 356 358 360 362 363 362 363 363 362 362 361 358 357 356 351 345 340 339 338 338 339 337 337
328 328 327 327 327 328 325 320 321 326 327 325 322 319 320 320 318 319 319 318 320 321 323 330 333 332 333 334 333 335 336 339 338 337 342 341 339 341 343 348 357 358 359 362 364 363 363 363 363 362 362 359 355 351 348 343 340 339 338 338 338 338 338
326 329 327 324 326 328 327 324 326 325 320 319 321 319 319 319 318 318 318 319 320 320 323 329 332 331 332 333 333 334 334 335 337 336 338 340 340 342 343 348 355 360 359 360 364 363 362 363 363 363 362 362 360 354 348 343 339 336 337 338 338 338 338
326 327 325 320 321 326 327 326 328 326 321 320 320 320 320 319 318 318 318 317 318 322 328 331 333 334 333 334 334 335 334 334 336 335 337 338 340 341 342 343 350 358 360 360 362 362 362 363 364 363 363 362 361 358 353 348 343 338 336 337 338 338 338
324 323 324 322 322 324 323 323 323 323 323 323 322 321 320 319 318 318 318 317 317 325 331 333 334 335 333 333 334 334 335 335 336 337 337 337 339 341 341 342 348 357 360 359 361 361 360 362 363 364 363 363 362 361 358 352 348 343 339 338 336 336 337
321 322 326 326 325 325 324 323 323 323 323 321 320 319 319 319 318 317 318 317 319 327 332 331 333 334 333 332 334 333 335 335 336 337 338 338 341 341 342 344 348 354 359 359 359 361 360 360 363 363 363 363 362 361 360 357 355 350 344 338 334 334 335
324 327 328 327 326 327 326 325 326 328 326 321 317 317 318 319 317 318 318 316 321 330 333 331 331 333 333 333 333 334 334 334 334 337 338 338 340 341 341 343 345 348 355 358 358 359 360 360 362 363 363 363 362 362 362 359 358 356 351 345 338 333 333
327 328 327 328 327 327 325 325 327 328 326 324 323 323 323 320 317 317 317 316 321 330 333 331 330 330 331 333 333 334 334 334 334 335 337 338 339 340 341 342 344 346 351 357 358 358 360 360 360 362 363 363 363 362 362 361 359 357 355 355 351 340 332
322 323 324 324 324 326 324 326 327 326 328 328 327 326 326 322 319 319 317 315 321 330 335 332 331 330 330 331 332 332 334 335 334 334 339 343 345 344 344 343 346 347 349 356 357 357 359 359 359 361 361 362 363 362 362 361 360 360 358 359 360 352 337
319 319 321 321 322 323 325 326 327 327 327 327 325 323 321 320 321 322 318 316 324 332 335 333 331 331 330 332 332 332 334 334 335 339 341 344 347 347 347 346 347 347 349 355 358 357 359 359 358 360 360 362 362 361 362 361 359 360 360 359 361 358 349
322 324 326 328 326 323 321 324 326 326 327 328 326 322 319 320 322 322 322 323 326 330 333 332 331 331 332 333 332 333 334 336 338 339 338 340 345 349 349 348 349 348 349 354 359 359 358 360 358 358 359 360 360 360 360 360 359 360 361 360 360 361 358
328 331 329 328 328 325 322 323 325 326 327 327 325 321 322 325 321 318 327 332 327 328 332 332 331 332 333 333 334 335 336 336 335 336 334 337 344 348 349 349 350 352 352 353 358 361 359 357 358 358 358 358 359 360 359 358 359 360 359 361 361 361 362
329 331 327 326 328 328 327 326 324 326 327 325 324 323 326 329 323 320 329 333 329 331 333 332 332 333 334 333 333 334 334 334 333 332 333 334 338 342 347 350 352 352 354 354 354 360 360 357 358 358 357 357 358 358 359 359 358 358 359 360 360 361 363
328 329 327 327 327 327 328 328 327 328 327 326 326 325 328 328 327 328 332 332 331 332 333 331 333 334 332 332 333 332 332 333 331 332 333 331 333 336 342 352 353 349 350 350 345 349 355 356 358 359 356 357 357 358 358 358 357 357 357 359 360 361 362
326 326 326 326 325 325 326 326 328 328 327 326 327 327 327 328 327 330 334 332 332 333 333 334 333 335 334 333 333 333 332 332 331 332 331 331 334 333 333 343 351 348 347 344 335 335 340 343 350 356 358 358 357 356 358 357 357 356 356 357 359 360 361
322 324 325 325 325 325 324 324 327 327 325 326 327 327 328 328 327 329 330 330 332 334 334 335 334 334 334 333 334 332 332 331 330 331 333 332 332 334 332 334 342 347 351 348 342 338 338 338 341 346 351 356 357 356 356 356 357 356 355 357 359 359 360
322 323 324 323 323 323 321 323 326 327 327 328 327 328 329 329 330 328 328 329 335 336 334 333 333 332 331 332 333 333 331 333 333 332 333 334 332 334 335 333 333 340 347 351 351 352 351 350 350 347 348 352 355 355 355 356 355 356 355 356 357 360 360
320 322 323 322 321 320 322 326 327 327 328 328 327 327 329 329 329 329 330 331 333 332 332 332 333 332 333 334 334 333 333 332 333 333 333 335 335 334 335 335 336 337 340 345 349 348 346 346 347 349 352 353 354 354 355 355 356 355 356 356 356 358 360
320 321 321 320 319 321 325 327 328 327 327 326 327 327 327 328 328 327 329 330 330 331 332 333 334 334 334 333 333 333 333 332 333 334 335 335 335 335 334 338 345 350 350 350 351 351 348 346 344 345 348 352 354 355 355 355 355 356 355 356 356 357 358
321 321 320 320 322 324 325 327 327 328 328 327 326 325 326 327 328 328 329 329 328 331 332 332 335 334 336 337 337 336 335 332 330 330 330 332 333 333 335 342 350 352 346 343 345 343 340 342 345 344 344 347 352 354 355 355 356 356 355 356 355 356 357
320 320 318 321 323 323 326 327 328 328 329 328 326 325 326 329 329 328 331 332 332 334 335 335 337 339 341 340 337 334 331 331 332 333 334 333 333 339 344 349 352 348 345 347 348 342 335 336 343 346 344 345 349 352 355 355 355 356 357 355 354 355 357
320 319 319 320 320 321 324 326 327 329 329 329 330 328 328 330 330 331 334 336 337 336 335 336 340 344 342 335 333 336 340 342 345 349 349 348 347 352 354 354 354 355 356 357 351 343 338 338 343 347 345 346 349 351 354 356 356 357 357 357 355 353 357
319 318 318 319 319 321 325 326 327 329 330 331 332 328 327 332 335 336 335 335 335 336 337 341 345 344 336 328 333 347 351 349 350 353 355 355 354 355 352 353 357 357 351 345 340 339 341 344 349 351 347 346 349 352 354 355 356 357 358 359 358 356 358
318 318 318 319 320 322 327 327 326 329 330 331 329 325 327 336 338 338 336 336 337 340 343 345 345 340 334 331 340 350 349 348 350 353 356 354 353 352 352 354 355 351 346 348 353 355 358 359 359 359 355 350 350 354 356 354 357 358 358 359 361 360 360
317 317 317 318 320 322 325 326 328 329 327 327 327 326 333 341 340 338 338 339 339 342 344 344 343 342 341 341 345 346 346 347 350 351 352 354 353 352 354 355 353 350 353 362 363 361 360 358 354 355 357 356 353 354 356 355 355 358 359 360 362 362 361
316 317 317 317 319 323 324 325 327 327 325 326 330 332 337 340 339 338 338 339 341 342 343 344 344 344 344 344 344 345 345 346 348 349 350 352 352 352 354 356 356 356 360 364 362 361 360 359 357 356 355 356 357 357 357 357 357 357 359 361 362 363 363
314 315 317 317 320 323 324 322 325 327 327 329 332 334 335 336 336 337 338 338 340 343 343 343 344 343 344 344 345 345 346 347 348 348 349 351 353 353 354 357 357 357 358 360 360 360 359 360 363 363 360 358 359 359 358 359 358 357 359 362 363 364 364
314 314 316 319 321 323 323 323 324 327 328 329 329 330 333 335 336 337 338 338 339 342 342 342 342 342 343 344 345 345 346 347 347 349 350 352 353 353 354 356 355 355 357 358 359 359 358 356 356 361 363 362 360 362 364 363 361 360 359 361 364 364 365
317 317 317 319 321 321 322 322 323 324 325 325 325 327 331 334 334 337 338 339 340 341 342 340 341 342 343 343 344 345 345 345 347 348 349 351 351 352 354 355 354 354 357 357 357 358 358 355 352 357 366 366 366 368 367 364 363 364 363 363 366 367 367
317 317 318 319 320 321 321 321 321 321 321 323 324 325 327 330 332 334 336 338 340 341 341 341 341 342 343 343 343 344 345 346 347 347 349 349 350 351 353 353 354 355 356 356 355 356 356 355 354 356 360 363 365 366 364 363 364 364 364 366 367 367 367
315 316 317 318 319 320 319 319 319 320 319 321 322 323 325 328 330 332 334 335 337 339 341 341 342 342 342 344 344 345 346 347 347 347 348 349 350 350 352 352 353 354 355 355 354 354 355 356 356 356 356 358 360 360 360 361 360 358 358 362 364 364 366
314 315 316 317 317 317 317 317 318 319 318 320 322 323 325 326 327 329 332 333 334 337 340 341 342 342 343 343 343 344 345 345 346 347 348 349 350 350 351 352 352 352 353 353 353 353 354 355 355 356 357 358 358 359 360 360 359 357 356 360 363 365 365
314 314 315 315 315 315 315 316 316 317 319 321 322 322 323 323 325 327 330 331 332 334 337 340 341 342 342 342 342 343 344 345 345 346 348 349 349 350 351 350 350 350 350 351 352 352 353 353 353 354 355 356 356 358 360 360 362 362 360 361 364 365 365
312 313 314 314 314 315 316 316 316 317 319 320 321 321 322 323 323 323 325 328 329 331 333 338 341 341 342 342 342 343 344 344 345 346 348 349 349 350 350 349 349 348 348 349 349 350 350 351 352 352 353 354 355 356 357 359 360 362 362 363 363 364 363
313 313 314 314 314 315 316 317 317 317 318 318 319 320 321 321 322 322 323 326 327 328 331 334 338 341 342 342 343 344 344 344 344 345 347 348 349 349 348 349 349 348 348 347 348 348 348 349 350 350 352 352 352 353 354 356 357 359 360 362 362 362 363
313 313 313 313 314 315 315 315 316 316 317 317 318 319 319 320 321 321 321 323 326 328 330 332 336 340 342 342 343 344 344 344 345 345 346 347 348 348 349 350 350 350 349 349 348 348 348 348 349 350 350 350 350 351 351 353 354 355 356 357 357 357 357
313 313 313 313 314 314 314 315 315 316 316 317 317 317 318 319 320 320 320 323 325 326 328 331 334 339 341 342 343 344 344 345 345 345 345 346 346 347 348 348 349 350 349 349 349 349 348 348 348 348 348 348 348 349 349 350 352 353 354 354 354 354 354

ECMWFFLT2_850_thetae_030.txt.gz
Theta_e
330 329 329 331 327 324 325 323 320 322 326 326 319 318 319 317 316 317 318 318 321 325 328 331 332 332 333 334 335 336 339 342 345 347 345 340 342 348 349 349 348 350 351 352 353 355 359 364 362 361 361 359 358 358 357 355 351 344 339 338 339 339 339
330 330 329 330 329 328 325 320 321 325 327 326 322 319 319 318 316 317 317 317 318 319 322 329 332 332 333 334 333 334 337 339 343 347 346 342 340 344 348 349 350 351 351 352 355 356 359 364 363 362 361 360 358 358 357 356 354 349 340 337 337 337 337
329 332 329 327 329 330 328 324 326 325 320 320 321 319 318 319 318 318 318 318 318 318 321 327 331 332 333 334 334 334 335 336 340 344 346 344 340 341 347 349 349 350 351 354 358 359 361 365 364 362 362 361 359 359 359 357 353 347 341 339 338 337 335
328 330 328 324 324 328 329 328 329 326 322 320 321 320 320 320 319 320 319 318 319 322 327 330 332 333 334 334 336 336 334 335 338 342 346 345 341 341 347 349 348 348 349 352 358 362 362 363 364 363 361 361 361 361 362 360 356 350 345 342 340 339 337
327 326 327 325 325 326 326 325 324 324 324 324 323 321 320 320 320 320 320 318 319 327 334 334 333 335 334 334 337 337 335 335 337 342 345 344 340 341 346 348 348 349 352 354 357 361 360 359 363 364 362 362 362 363 365 363 359 355 350 345 342 341 339
322 324 328 329 328 327 326 324 324 324 323 322 320 319 320 319 319 319 320 317 319 329 336 335 335 336 334 334 335 336 335 335 336 339 343 344 343 342 344 345 345 348 352 353 352 355 356 356 361 364 363 362 362 364 366 364 362 359 355 350 345 341 339
325 328 329 329 329 329 328 327 328 329 325 321 317 317 319 319 318 320 320 317 321 331 337 335 335 336 334 334 336 335 335 335 336 337 339 343 344 341 342 343 344 345 348 349 348 351 352 353 360 364 364 363 363 364 366 365 365 362 358 354 349 344 342
331 329 329 329 329 328 327 326 328 329 326 325 322 322 322 320 317 318 318 317 322 332 338 335 334 336 334 334 335 336 335 335 335 336 335 342 343 340 341 343 346 347 347 349 349 349 351 354 360 364 365 364 363 363 365 366 366 364 360 355 352 347 343
326 324 324 326 326 327 326 326 328 328 328 328 326 325 326 321 319 319 317 316 321 332 338 335 332 333 333 334 334 335 335 334 337 340 339 341 342 341 342 342 345 348 348 349 349 349 353 358 362 365 365 365 364 364 364 365 366 366 363 361 359 354 346
322 319 319 321 323 325 325 326 327 327 328 328 325 323 321 320 323 323 318 317 323 333 337 334 332 332 333 335 334 334 335 336 341 348 347 344 343 340 341 342 344 345 344 345 346 348 354 360 362 363 364 365 364 364 364 364 365 366 365 365 365 360 353
324 324 326 327 327 325 322 324 325 326 328 328 327 322 319 322 325 322 323 326 327 330 334 334 331 331 333 335 334 337 341 339 341 347 348 347 345 342 342 344 345 345 344 345 346 347 352 359 362 363 364 365 365 364 364 364 363 364 365 364 364 363 360
329 333 334 332 331 326 323 324 324 326 327 327 326 322 322 329 324 319 331 340 329 328 334 334 332 334 336 335 335 340 342 339 340 343 344 345 346 345 345 344 344 345 345 348 350 350 353 359 361 362 363 365 365 364 364 364 363 363 363 363 362 363 363
329 333 333 332 332 330 328 327 325 326 326 326 325 323 327 333 326 323 337 342 331 330 334 332 333 336 336 335 336 338 337 336 338 339 339 341 343 345 346 345 342 341 341 343 349 355 360 361 361 361 362 363 364 364 364 364 363 362 362 363 362 361 362
327 330 331 331 332 329 329 329 327 327 327 326 326 327 329 332 330 330 336 337 333 333 332 331 334 336 335 335 337 335 334 335 335 337 338 339 339 342 346 346 344 345 347 349 353 359 361 361 361 361 360 362 363 363 363 363 363 363 361 362 361 361 360
325 329 331 331 331 330 327 328 329 327 327 327 326 327 328 330 330 331 334 336 335 334 335 335 336 336 336 337 336 334 334 334 334 335 335 336 337 341 347 349 348 350 352 355 359 361 360 359 360 360 359 360 361 362 363 362 362 363 362 361 361 360 360
324 327 329 329 330 330 326 325 329 328 326 326 326 327 329 329 329 330 330 331 333 336 338 336 336 337 336 335 335 334 333 332 333 334 333 334 336 339 346 350 351 352 350 346 347 355 359 359 359 360 359 359 359 360 361 361 362 362 361 361 361 361 360
323 326 328 328 328 326 323 325 329 329 329 330 327 328 330 330 330 329 327 330 336 340 339 335 336 336 334 335 335 333 333 334 333 334 334 334 334 333 337 342 346 351 351 343 340 348 356 357 358 359 359 359 359 359 358 359 360 360 360 360 360 361 361
322 324 326 327 324 322 324 329 330 330 330 330 328 328 329 330 330 330 331 336 339 339 336 335 336 335 335 336 335 334 335 334 333 334 334 334 336 337 336 336 341 348 351 351 351 352 355 355 356 357 356 356 356 357 357 357 358 358 359 359 359 361 361
322 324 325 324 322 324 328 330 330 330 330 330 330 331 330 329 330 331 334 336 337 337 335 336 335 334 335 335 334 334 335 334 335 335 333 334 334 334 334 338 346 350 349 351 351 350 350 351 351 352 355 356 356 355 356 356 357 358 358 357 358 358 360
322 323 323 323 325 327 328 330 330 330 330 329 329 329 330 332 331 332 334 335 336 337 334 334 335 335 335 335 336 337 336 334 334 329 330 337 339 340 344 348 350 350 348 348 345 343 346 349 345 344 346 351 355 356 356 356 356 357 357 357 356 357 358
322 321 321 323 325 325 327 329 330 330 330 329 329 327 329 331 331 331 334 333 333 332 331 334 336 335 338 339 339 338 335 336 339 338 342 351 352 352 354 354 353 351 349 349 346 342 345 347 346 348 347 345 348 352 355 356 356 356 356 356 356 356 357
322 321 321 322 322 322 324 327 329 331 329 329 331 327 327 333 334 330 331 333 335 335 332 334 337 340 343 341 340 342 343 345 351 353 354 356 355 353 353 357 361 358 351 347 340 337 344 348 348 350 352 348 347 348 352 355 355 356 356 355 356 356 356
320 321 321 321 321 322 327 329 329 329 328 331 331 324 328 340 343 337 334 334 337 339 337 336 340 343 343 341 342 347 348 348 352 353 354 355 355 353 354 359 361 354 347 349 347 348 359 365 363 360 357 352 348 346 349 354 355 356 356 355 356 357 357
319 320 320 321 322 324 327 328 328 328 330 332 327 323 330 341 343 339 339 338 337 340 341 342 343 343 343 342 345 347 347 347 350 350 351 353 353 353 354 357 356 349 349 359 364 363 364 365 364 364 362 358 354 348 348 353 355 356 357 356 357 357 357
318 319 320 320 324 325 324 326 330 331 328 327 326 327 335 341 340 339 341 340 341 343 343 343 344 344 344 344 344 346 347 347 349 349 350 351 352 352 351 352 355 354 355 363 366 364 360 358 360 364 362 358 355 352 350 352 354 356 358 357 357 357 357
317 319 319 319 325 327 324 326 331 331 331 334 333 334 338 338 338 341 341 341 343 344 343 344 344 343 343 343 345 346 347 347 348 349 351 352 353 354 351 352 358 358 357 360 361 361 361 361 362 367 367 362 357 353 352 355 356 356 358 359 359 358 359
316 318 318 320 326 327 325 327 331 330 332 334 333 333 335 336 338 339 340 341 343 342 342 343 342 342 343 344 345 346 346 348 348 349 351 352 354 354 353 355 358 356 357 360 360 361 362 359 355 357 365 367 362 358 357 359 359 357 358 360 360 359 360
315 317 319 321 323 324 323 326 327 327 328 329 328 329 331 334 335 335 337 339 340 341 342 341 340 341 343 343 344 345 346 347 348 349 350 351 352 353 353 354 356 355 357 360 360 360 362 359 351 349 361 367 364 363 364 362 360 359 358 359 361 361 361
317 318 319 320 320 322 322 323 323 323 324 324 325 326 328 329 332 333 335 337 337 339 341 341 340 341 342 342 343 344 345 347 347 349 350 350 352 353 353 355 356 355 356 359 358 357 359 358 354 354 364 368 366 367 369 365 363 361 359 360 363 363 362
318 318 318 319 320 321 322 321 320 321 322 322 323 325 327 328 329 329 331 333 335 337 338 340 341 342 342 342 343 344 345 346 347 348 348 350 351 351 352 354 354 354 356 358 357 356 357 359 357 358 364 368 367 368 370 367 365 364 363 363 365 365 365
316 317 318 319 319 320 321 320 319 320 321 321 323 325 325 326 326 327 328 329 331 333 336 337 339 341 342 343 343 343 344 345 346 347 347 349 351 351 352 353 353 354 356 356 356 356 356 357 358 359 361 363 363 363 365 365 364 363 364 367 368 367 368
316 317 318 318 317 317 318 318 318 318 319 320 323 324 324 323 324 325 326 327 327 330 332 334 336 338 341 343 343 343 343 344 346 347 347 349 351 351 352 353 352 353 354 355 355 356 355 355 357 357 358 359 360 360 361 362 362 361 363 366 368 367 368
315 316 317 316 316 316 317 317 317 318 319 320 321 322 322 322 323 323 324 325 325 326 329 331 334 336 338 341 343 344 344 344 345 346 346 348 350 351 352 352 351 351 352 353 354 354 353 353 355 355 356 357 358 360 360 361 362 362 362 363 366 366 366
314 315 315 316 316 316 317 317 317 317 319 320 320 320 321 321 322 322 322 324 325 325 325 327 330 334 336 338 341 343 345 345 345 346 345 346 350 352 351 351 350 349 349 351 352 351 351 352 353 354 355 356 357 358 360 361 363 363 361 362 364 365 364
314 314 315 315 316 316 316 316 316 316 317 318 319 319 320 320 321 322 322 322 324 324 324 324 327 331 334 335 338 341 344 345 346 346 345 346 350 352 350 350 351 350 348 349 350 349 350 352 353 353 353 353 353 355 357 359 361 362 363 364 365 364 364
313 314 314 314 315 315 315 316 316 316 316 317 318 319 319 320 320 320 320 321 322 323 323 323 325 329 331 333 335 339 343 345 346 346 346 347 348 350 351 351 352 351 350 350 350 349 350 351 351 351 351 351 351 352 355 357 359 360 361 363 363 363 364
313 313 313 314 314 315 315 315 316 316 316 317 318 318 318 319 319 319 319 320 321 322 322 323 324 325 328 330 333 337 341 344 345 346 346 346 345 347 350 351 352 351 351 351 350 350 350 350 350 349 349 349 350 351 353 354 356 357 358 358 358 359 361

ECMWFFLT2_850_thetae_033.txt.gz
Theta_e
328 328 328 329 328 325 326 325 322 324 326 326 323 321 321 321 320 322 319 317 321 325 328 331 332 332 332 333 335 336 341 348 347 346 349 350 351 352 353 353 354 355 354 354 354 353 354 356 357 358 358 357 357 356 356 355 354 353 352 350 348 344 340
328 328 328 329 330 328 325 321 323 327 326 326 326 323 321 321 319 320 319 318 319 318 321 329 331 331 331 332 334 335 339 344 346 346 348 349 349 350 351 352 352 354 354 354 353 353 354 355 356 358 358 358 358 357 356 356 355 354 352 350 349 346 342
328 329 329 327 329 330 327 324 327 326 321 320 322 321 321 322 319 319 319 318 319 318 320 326 329 330 331 332 333 334 338 342 343 346 348 348 349 350 350 352 352 354 354 354 354 354 354 354 355 356 357 358 358 357 357 357 356 355 353 351 349 348 346
328 328 328 323 324 329 330 327 327 326 322 321 323 321 320 322 322 321 320 319 320 323 326 326 328 330 331 333 334 333 336 342 343 343 347 348 348 350 350 350 351 352 353 354 354 354 354 354 354 355 357 358 359 358 358 358 357 356 354 352 351 349 348
326 325 327 326 325 327 327 325 323 322 323 324 324 322 320 322 323 324 323 321 324 332 333 328 329 332 332 334 338 336 334 342 346 343 344 348 349 349 350 350 350 349 350 352 353 353 354 354 354 355 356 358 359 359 359 358 358 357 356 354 352 351 349
322 324 329 330 329 328 327 326 322 321 322 321 320 320 321 319 320 324 326 324 330 342 336 330 330 332 332 334 341 341 335 339 347 345 342 346 348 348 349 349 349 348 349 350 350 351 352 354 355 355 356 358 359 360 360 359 359 359 358 356 354 352 350
324 327 330 330 329 330 329 328 327 326 323 320 318 320 323 320 319 322 323 321 333 347 342 334 332 333 333 332 337 342 335 335 345 346 342 345 347 346 347 347 348 348 348 348 349 349 350 353 356 358 359 360 360 360 360 359 360 359 358 357 355 352 351
328 329 330 330 330 331 328 327 329 327 324 323 323 327 329 323 319 321 320 319 333 350 345 337 334 334 334 332 334 337 333 334 345 346 341 343 345 345 346 347 348 349 349 350 350 350 351 352 355 357 360 361 361 361 361 360 360 360 359 358 356 354 351
325 327 328 327 328 329 327 328 329 327 329 326 325 330 331 325 321 322 320 320 333 351 351 341 337 336 335 334 333 333 333 336 344 345 342 342 344 346 347 347 348 349 350 351 350 350 351 352 354 355 358 361 362 362 362 361 361 361 360 359 358 356 353
325 327 327 324 325 327 327 328 328 328 329 326 325 326 325 326 327 324 321 323 332 345 349 343 339 338 337 336 335 334 336 339 344 345 343 342 343 347 348 348 349 349 349 349 348 349 352 355 357 357 357 360 362 362 362 362 362 362 361 360 359 358 356
330 333 337 334 327 326 324 326 326 327 328 327 327 324 323 332 333 326 330 335 332 335 341 340 340 339 341 343 345 346 346 346 345 344 343 342 343 348 349 349 349 348 348 348 348 349 353 357 359 358 357 359 362 363 362 361 362 363 363 363 362 360 359
332 334 338 336 329 326 323 325 325 326 327 328 326 321 328 343 333 323 337 347 335 334 341 343 343 342 345 347 348 347 347 348 346 344 344 342 343 347 348 347 348 349 349 350 351 352 355 359 360 358 357 358 360 362 362 361 362 363 364 365 364 363 362
329 331 332 332 332 330 327 327 326 325 326 326 324 323 333 345 335 329 345 350 339 338 341 342 343 342 342 343 343 343 345 347 347 344 343 343 343 345 346 346 348 349 351 353 353 354 356 357 359 357 355 356 360 362 362 363 362 363 365 366 365 365 364
329 331 332 332 331 331 330 329 327 328 327 325 326 327 332 341 339 340 352 352 344 338 336 338 339 337 336 338 338 341 343 345 346 345 345 346 346 347 346 345 346 347 349 351 350 350 352 352 352 353 354 357 361 363 363 363 363 363 364 365 366 366 365
332 333 332 332 331 330 330 330 330 331 329 326 326 327 329 336 337 339 348 348 341 336 336 337 335 333 335 336 337 339 339 339 342 344 345 348 348 348 348 347 347 347 346 346 346 347 349 348 350 354 358 360 361 363 364 364 364 363 363 365 365 366 366
336 335 331 330 329 328 328 329 331 332 329 326 325 326 328 334 336 337 340 338 337 337 337 337 336 334 337 338 336 335 335 334 336 341 345 349 349 349 349 349 348 348 348 347 347 347 347 348 351 358 362 364 364 363 364 364 364 364 363 364 365 365 366
332 330 327 328 328 327 329 330 331 332 332 331 327 326 329 334 338 340 339 338 341 342 338 337 337 337 340 341 336 333 334 334 335 337 341 346 348 347 348 350 349 348 347 347 346 346 347 349 353 359 361 362 363 364 364 364 364 364 364 364 363 364 365
325 324 327 331 328 326 331 333 333 332 332 331 330 329 329 329 333 340 342 344 343 341 340 341 340 337 338 337 335 335 335 335 340 343 341 342 345 348 349 351 354 354 352 353 353 354 357 357 358 361 362 361 362 362 362 364 364 364 364 363 363 363 363
323 326 332 333 328 329 333 333 333 333 331 330 332 336 340 339 338 339 339 341 342 341 341 341 338 336 336 338 343 347 344 343 349 351 350 350 352 355 354 352 355 357 356 357 359 359 360 360 359 359 360 360 360 361 361 363 363 363 364 363 363 363 363
325 330 333 331 329 332 333 333 332 331 333 333 334 338 340 341 341 342 340 338 340 340 338 338 337 337 339 344 351 354 352 352 354 353 355 360 360 360 359 356 353 353 352 351 353 355 356 354 352 352 352 352 354 357 358 360 361 362 362 362 363 362 363
325 326 327 326 328 332 333 332 330 328 330 333 335 339 339 340 340 343 343 339 337 336 336 337 338 341 345 348 350 350 352 353 354 353 355 360 361 360 360 359 355 352 349 346 344 346 350 351 350 350 350 350 352 353 354 355 356 358 360 361 362 362 362
322 325 327 326 327 331 330 327 327 328 329 330 334 341 340 339 339 343 344 343 341 339 339 339 340 345 350 351 349 349 350 351 351 353 353 354 357 358 357 355 352 349 345 342 340 339 339 339 341 344 348 351 354 355 356 355 352 352 354 357 359 360 361
320 326 330 328 327 330 329 325 326 329 331 332 334 343 341 338 339 342 344 343 344 344 344 343 344 347 351 353 350 347 348 350 350 352 352 351 352 353 352 351 350 348 346 348 350 348 345 342 341 341 342 347 351 353 355 358 356 352 350 352 354 357 358
321 324 327 327 327 328 325 324 327 329 330 331 338 347 342 337 337 341 342 342 343 344 343 343 344 347 350 350 349 347 348 350 350 352 354 353 351 350 351 353 351 348 351 354 352 350 354 358 357 353 347 346 349 353 353 355 358 358 354 351 351 352 355
319 321 323 324 327 326 322 323 327 328 330 337 345 345 340 335 336 339 339 340 342 342 342 343 344 345 346 346 346 348 349 349 350 351 353 353 351 351 354 357 355 352 352 351 344 342 346 348 348 352 351 347 347 350 351 351 354 358 358 356 354 352 352
317 320 321 324 328 327 322 324 326 326 334 342 342 338 334 332 335 338 336 338 340 340 341 342 342 343 343 344 345 346 347 348 349 349 350 350 350 349 352 356 357 354 352 348 343 345 343 337 338 347 353 352 348 345 346 347 349 353 356 358 357 355 354
317 318 320 327 331 326 321 323 326 327 332 336 334 331 330 330 332 334 334 335 337 339 340 341 342 343 342 343 344 343 344 347 348 348 349 351 352 351 352 355 355 355 355 354 353 353 351 345 342 344 349 356 358 353 347 344 344 348 354 357 358 358 357
319 321 324 329 330 323 319 323 325 324 326 329 329 328 329 328 327 329 331 331 332 336 338 339 340 342 342 343 344 343 343 345 346 347 347 349 351 352 352 354 355 355 357 359 357 356 355 351 347 348 356 364 366 362 356 351 348 350 353 356 359 359 358
321 322 323 323 322 320 319 321 321 321 321 323 326 327 326 325 326 327 328 328 329 332 334 336 337 339 340 343 344 343 343 343 344 345 346 347 349 351 352 352 352 352 356 358 357 356 355 353 353 357 363 368 368 365 363 359 356 356 356 356 358 360 360
319 319 319 319 319 318 318 318 319 319 319 321 324 325 324 323 324 325 325 326 327 329 331 333 335 336 338 341 342 343 344 343 342 343 344 345 348 350 352 353 351 350 353 356 356 355 354 354 357 359 362 366 367 366 366 365 362 359 357 357 358 360 362
317 318 319 319 318 316 316 316 317 317 318 321 322 323 322 322 323 323 324 324 325 326 328 329 331 333 335 337 339 342 344 344 344 343 342 343 345 349 352 353 351 350 351 354 355 354 352 353 357 358 359 362 364 364 365 367 366 362 359 360 361 363 364
316 317 317 316 316 316 316 316 316 317 318 321 321 321 321 322 322 322 322 322 324 325 326 325 327 330 332 334 335 338 341 343 344 344 343 342 344 348 351 352 351 349 349 351 354 353 351 352 354 354 355 357 359 359 359 360 361 362 363 364 365 366 365
315 316 316 316 316 317 316 316 316 317 317 318 319 319 320 321 321 321 321 321 322 324 324 324 324 326 329 330 332 334 338 340 343 345 345 343 344 348 352 352 351 350 348 349 352 351 350 352 354 354 355 356 357 358 358 358 359 361 363 365 367 368 367
315 316 316 316 316 315 315 315 316 315 316 316 317 318 318 319 320 321 320 320 320 321 321 321 322 323 326 328 329 330 332 336 341 344 345 344 345 349 351 351 351 350 348 348 348 348 350 352 353 354 355 355 355 357 359 362 363 361 361 364 366 366 366
315 315 315 315 315 315 315 315 315 315 315 315 316 317 317 318 319 319 320 320 319 319 320 320 321 322 323 324 325 325 327 332 338 343 345 345 345 346 349 351 352 350 349 348 347 348 351 351 351 352 353 353 354 356 359 362 364 361 360 363 366 365 363
314 314 314 314 314 315 315 315 315 315 314 314 315 316 317 318 318 318 318 318 318 319 321 321 321 321 320 319 319 322 325 328 333 339 344 345 344 345 346 350 352 351 350 350 349 349 350 350 350 350 350 350 353 355 356 359 361 362 363 366 368 366 364
312 312 313 313 313 314 314 314 314 314 315 315 315 315 316 316 316 316 317 318 319 320 321 321 320 319 318 317 317 320 323 325 329 336 341 343 345 345 345 348 351 351 351 351 350 349 350 350 349 349 349 350 350 351 353 356 358 359 361 364 366 365 363

ECMWFFLT2_850_thetae_036.txt.gz
Theta_e
325 327 327 326 326 326 327 326 323 325 330 328 323 323 325 322 321 322 322 323 325 326 330 332 329 332 335 334 340 344 342 344 345 346 348 349 351 351 352 353 353 354 353 352 353 352 352 353 352 352 352 351 352 351 351 351 351 351 350 350 350 349 350
325 326 327 325 327 329 326 323 323 327 327 326 328 326 324 321 320 324 323 319 319 321 325 333 331 328 331 332 340 346 345 344 347 347 349 350 351 352 352 353 353 353 353 352 352 352 352 353 352 352 352 352 352 352 352 352 351 351 351 350 350 350 350
327 325 326 325 326 328 327 326 327 328 324 321 325 326 323 320 319 322 323 320 321 322 324 330 329 327 330 329 336 346 347 346 348 349 349 350 351 352 353 353 353 353 353 353 352 352 352 352 352 352 353 352 353 353 352 352 351 352 351 351 350 350 350
326 327 324 322 323 326 327 327 328 330 326 321 323 324 323 323 321 321 320 321 324 327 327 328 327 327 329 327 333 346 348 347 348 348 350 351 352 353 353 354 354 353 353 353 352 352 352 351 352 353 353 353 353 353 353 353 352 352 352 351 351 351 350
324 324 325 323 323 325 324 323 324 325 324 324 323 322 324 328 328 324 320 319 325 330 328 328 327 327 327 325 331 343 347 347 348 349 349 350 352 353 353 354 353 354 353 353 352 352 351 351 353 353 353 354 354 354 354 354 354 353 353 352 352 351 351
321 322 326 327 326 325 325 323 323 324 323 321 321 321 322 323 328 333 328 322 328 336 332 328 327 326 327 326 328 338 348 348 347 349 350 350 352 352 353 353 353 353 353 353 353 352 352 353 353 354 354 354 354 355 355 354 355 354 354 354 353 353 352
322 324 326 328 327 327 327 326 325 326 325 321 317 320 322 317 322 332 329 322 329 345 340 331 327 327 326 326 324 333 345 347 347 349 349 350 351 351 353 353 353 354 353 353 353 353 353 353 354 354 354 354 354 355 355 355 355 355 355 355 354 354 353
325 326 326 327 328 328 326 326 327 325 324 323 321 327 330 322 318 323 322 318 325 344 350 336 330 330 326 326 325 331 343 347 346 347 348 350 350 350 352 352 352 353 353 353 353 352 352 353 354 354 354 354 355 355 356 355 356 356 355 355 355 354 354
325 323 326 326 326 327 325 327 327 324 326 326 323 329 331 322 319 322 322 319 325 346 357 343 335 332 327 327 325 329 341 345 344 346 347 348 349 349 350 351 352 353 353 353 353 352 353 353 353 354 354 355 356 356 356 356 357 357 356 356 356 355 355
328 326 330 328 326 326 325 327 327 324 327 324 323 327 325 321 324 325 321 320 329 348 354 340 336 331 326 329 328 330 340 344 344 345 346 347 348 348 349 350 350 351 353 353 353 353 353 352 352 353 353 355 356 357 357 357 357 357 357 357 356 355 356
327 328 331 331 328 327 324 325 326 326 326 323 325 327 324 328 333 326 324 327 330 339 348 344 341 334 330 335 335 333 339 342 343 345 345 347 347 347 349 349 349 350 352 353 354 352 352 352 352 353 353 355 355 356 357 356 357 357 357 357 357 356 356
321 321 323 324 327 328 326 324 325 326 326 325 323 322 327 338 333 322 332 340 328 332 348 350 347 345 348 352 346 337 337 341 342 344 345 347 346 347 349 348 348 349 350 351 353 353 352 352 353 353 354 354 354 356 356 356 357 358 358 358 358 358 357
315 316 319 323 329 330 328 327 326 326 327 326 322 322 330 340 331 324 339 345 333 335 348 347 344 347 349 354 349 338 337 342 342 342 345 346 346 346 348 348 349 348 349 350 351 351 352 352 353 353 354 354 354 355 356 356 357 357 358 358 359 359 359
314 318 324 328 331 331 328 327 327 327 327 326 324 325 332 338 335 336 345 345 339 339 342 340 339 337 338 343 343 339 339 343 341 340 343 345 346 346 346 348 348 348 348 349 349 350 351 351 352 352 352 354 354 355 357 357 358 358 358 360 360 360 360
316 323 330 332 330 329 328 330 329 327 328 328 325 326 330 333 336 343 346 342 337 337 336 336 334 331 334 338 339 339 341 341 342 341 341 343 345 346 345 346 347 347 347 348 349 349 349 349 349 349 350 353 355 356 358 359 359 360 360 360 360 361 361
317 323 327 328 328 330 330 330 332 331 329 326 325 328 333 334 336 341 341 336 334 334 334 335 334 333 335 338 336 338 340 341 342 341 340 342 344 344 345 345 345 347 347 348 349 348 348 348 348 348 349 351 353 355 357 358 360 360 361 361 361 361 361
317 319 321 325 329 334 331 327 330 336 339 340 340 342 344 342 340 338 336 335 338 338 337 342 346 345 345 346 342 342 343 343 343 342 341 342 343 344 345 346 345 346 347 347 349 347 347 348 346 347 349 351 353 355 355 357 359 360 362 362 361 362 361
315 316 321 325 331 334 331 327 328 333 340 343 343 343 342 341 343 342 339 339 339 339 344 351 354 353 351 352 352 353 354 353 351 350 348 346 346 346 346 345 346 347 348 348 348 349 350 349 348 350 352 354 354 355 355 357 358 359 361 361 361 361 361
315 321 329 333 335 335 331 326 326 328 332 337 340 342 340 339 342 344 345 345 339 342 350 352 350 351 351 351 353 356 358 358 357 358 356 353 351 349 348 348 348 348 349 349 349 350 351 352 353 354 356 357 357 356 356 356 357 358 360 360 361 362 361
318 325 331 335 338 336 329 324 325 325 327 330 337 343 340 336 340 342 345 349 346 343 348 349 348 350 350 349 351 352 354 356 355 355 357 357 356 355 354 354 353 353 352 351 351 351 351 352 353 355 356 356 355 354 354 354 355 357 359 360 362 362 362
322 323 327 333 340 339 330 325 324 324 325 327 333 343 341 335 336 339 341 348 348 343 344 347 347 349 350 350 351 351 352 353 353 355 357 358 358 358 358 357 357 357 355 355 355 355 355 355 356 356 355 355 354 354 354 356 357 359 360 362 362 362 363
320 322 328 335 341 340 330 323 322 323 325 324 327 339 342 335 333 337 338 342 344 343 344 345 345 348 352 352 351 350 351 352 353 356 357 356 358 359 359 357 356 355 355 354 354 355 356 358 358 357 358 358 359 360 362 363 363 362 362 363 363 363 363
316 321 328 331 334 333 326 322 322 323 325 324 326 339 344 335 331 335 337 338 341 342 343 344 345 350 353 351 349 349 350 351 353 356 356 356 356 356 357 358 356 355 354 353 353 352 352 354 355 354 355 356 358 360 361 362 363 363 364 363 363 363 364
316 321 326 328 328 326 322 322 323 322 323 326 333 344 344 334 331 332 333 336 339 340 343 344 345 348 349 349 347 348 349 350 351 353 355 356 355 354 353 353 350 348 346 344 344 345 345 349 352 352 352 352 354 355 357 357 359 360 361 362 362 362 362
316 318 321 326 326 323 321 322 322 322 326 332 338 342 338 332 331 330 329 333 337 338 341 343 343 344 345 345 345 347 348 349 350 351 352 354 354 355 354 350 345 341 339 336 334 333 334 337 341 343 345 347 350 353 354 355 356 357 357 359 359 359 359
317 317 319 325 326 323 320 321 322 323 330 336 336 334 330 328 329 328 327 330 333 335 338 340 341 343 343 343 344 345 346 347 349 350 350 350 351 353 353 352 347 341 337 336 335 333 332 331 330 332 334 337 342 348 350 352 353 354 354 356 357 357 358
321 322 323 326 326 322 318 321 324 325 329 332 331 329 326 325 326 326 326 326 328 331 334 336 338 340 341 343 344 343 344 345 346 349 350 350 350 350 351 353 353 350 343 340 340 341 340 338 334 332 330 330 334 341 346 350 350 350 350 352 353 356 357
322 324 324 324 324 321 318 321 324 323 325 327 326 325 325 324 323 324 325 325 325 326 330 332 334 335 337 340 342 343 344 343 344 346 349 350 349 349 348 350 352 353 352 349 348 346 345 343 340 338 338 339 341 346 350 353 352 349 348 347 348 351 356
320 321 321 319 319 319 318 318 320 321 322 323 322 322 323 323 322 323 323 324 324 324 325 328 330 331 332 335 339 341 344 344 344 345 347 349 350 348 345 345 347 349 351 353 352 351 349 347 345 346 350 353 356 360 361 360 358 356 352 349 347 348 352
318 318 318 315 315 316 317 318 318 318 320 321 320 321 322 322 321 321 321 321 323 321 321 323 326 328 328 329 333 338 342 344 344 344 345 348 350 349 346 345 344 345 347 349 349 350 348 347 346 350 355 358 361 364 364 364 364 361 358 356 353 352 354
316 316 317 314 314 315 315 316 316 316 316 317 317 319 321 321 320 321 320 319 319 319 319 320 323 326 325 323 326 333 339 342 343 343 345 347 350 350 349 347 346 346 345 344 345 347 348 347 348 350 354 357 359 361 362 364 365 364 362 361 358 357 357
314 315 316 314 314 314 314 315 315 315 315 314 315 317 318 319 319 320 320 318 318 318 319 320 321 322 321 319 319 325 333 339 342 343 344 347 349 350 349 348 347 348 348 345 345 347 349 351 351 352 353 355 357 358 358 360 361 362 363 363 363 361 359
313 314 314 313 313 314 314 313 314 314 314 313 313 314 316 317 318 319 319 318 317 317 319 321 321 320 318 317 316 318 324 332 339 342 343 345 346 348 349 349 348 348 349 347 345 347 350 351 352 354 355 355 356 356 356 356 357 358 359 363 366 367 364
312 312 312 312 312 313 313 312 312 313 313 313 312 313 314 316 317 317 317 317 316 318 320 321 320 319 318 316 315 316 318 324 333 339 342 342 344 345 347 350 350 350 350 347 345 347 349 351 351 353 354 355 355 354 355 357 358 358 357 361 366 368 366
310 310 310 311 311 311 311 311 311 311 311 312 312 312 313 315 316 316 316 315 316 319 320 320 319 318 318 317 317 317 317 319 325 333 338 340 342 343 345 347 350 350 350 348 346 346 350 350 350 350 352 353 353 353 353 356 359 361 360 361 365 368 367
309 309 309 309 309 309 309 309 310 310 310 311 311 311 312 315 316 315 315 315 316 318 319 318 317 317 317 319 318 317 318 319 321 326 334 338 341 343 344 345 347 349 350 349 347 347 349 350 349 349 350 351 352 353 353 354 358 360 360 360 363 366 367
307 307 308 308 308 308 308 309 310 310 310 311 311 311 312 315 315 315 316 316 316 317 317 317 317 317 317 319 318 316 318 321 320 323 330 336 339 343 344 344 345 347 349 350 349 348 348 349 348 348 348 349 350 351 351 352 354 358 361 362 363 364 365

ECMWFFLT2_850_thetae_039.txt.gz
Theta_e
327 330 330 327 327 328 328 328 327 327 328 326 324 326 327 321 321 324 322 323 326 325 329 331 327 331 336 337 340 341 341 343 343 343 345 344 346 348 349 350 350 351 350 350 350 350 350 350 349 350 350 351 351 351 351 351 351 351 351 351 351 351 351
326 327 329 328 327 329 328 325 326 328 327 327 326 323 323 320 320 325 324 321 320 320 329 335 330 329 332 335 339 340 340 342 342 343 345 344 347 348 349 350 349 350 351 350 350 350 350 350 350 350 350 351 351 351 351 351 351 352 351 351 351 350 350
324 325 327 327 326 328 327 326 327 328 325 323 325 324 323 321 320 323 324 324 322 321 327 334 328 326 329 332 338 339 339 340 341 342 344 344 346 348 349 350 350 350 351 350 351 350 350 350 350 350 350 350 351 351 351 351 351 351 351 351 351 350 350
320 323 325 323 324 326 326 326 327 329 326 323 324 324 323 322 323 323 320 321 324 326 329 329 328 329 328 330 338 341 337 339 340 342 343 345 346 347 348 349 350 350 351 351 351 351 351 350 351 350 350 351 350 351 351 351 351 351 351 351 351 350 350
319 324 325 324 325 324 324 324 323 324 325 324 324 323 323 326 328 327 320 317 324 333 333 329 330 332 328 328 338 343 338 336 340 341 342 344 346 347 347 349 350 351 350 351 351 351 350 351 351 350 350 350 351 351 351 351 351 351 351 351 351 350 350
321 323 323 324 324 324 324 323 323 324 324 323 322 322 324 325 326 330 324 317 324 333 331 326 328 332 329 327 334 341 340 337 339 341 342 343 345 347 348 349 350 350 351 351 351 351 351 351 351 351 350 351 351 351 351 351 351 351 351 351 351 351 350
319 319 320 321 322 323 324 323 324 326 324 323 321 321 324 322 323 330 327 319 322 331 334 329 326 328 327 323 327 336 339 339 339 341 342 343 344 345 347 348 349 350 350 351 352 351 351 351 351 351 351 351 350 351 351 351 351 351 351 350 350 350 350
319 320 322 321 322 323 323 323 324 325 325 323 323 327 329 323 321 323 323 320 321 331 343 338 329 327 326 322 323 328 335 340 341 340 342 343 344 344 347 347 349 350 350 351 351 351 352 352 351 351 351 351 351 351 351 351 351 351 350 351 351 350 350
325 320 321 324 327 325 322 323 324 323 327 325 325 330 328 323 321 321 321 320 321 331 346 342 334 334 332 326 323 325 332 338 341 341 342 343 344 344 347 348 349 350 351 352 351 351 352 352 352 352 351 352 351 351 351 351 351 351 351 351 351 350 351
326 323 324 326 326 322 319 323 324 323 327 324 324 327 322 322 325 322 320 320 322 328 336 333 331 336 337 330 324 324 330 337 340 342 342 344 345 345 347 347 349 350 350 351 351 351 352 351 352 352 352 352 352 351 352 352 351 351 351 351 351 351 351
318 319 320 319 317 316 316 320 320 322 326 323 327 326 322 327 329 323 323 326 323 324 328 326 329 336 341 338 327 325 332 336 339 343 342 345 346 346 347 348 350 350 350 350 351 351 351 352 352 352 352 352 352 352 352 352 352 352 352 351 351 351 352
314 314 315 314 315 315 315 316 317 321 325 324 324 322 324 331 327 321 331 337 325 323 327 327 327 333 343 342 329 327 333 337 341 342 343 346 346 346 349 349 350 351 351 350 351 352 351 352 351 352 352 353 353 353 353 353 353 353 352 352 352 352 352
313 314 314 314 315 315 315 316 319 322 326 324 322 322 328 333 325 321 337 343 329 324 327 330 331 334 340 340 330 326 333 338 342 343 344 345 347 347 349 350 350 351 352 351 352 352 351 352 352 352 352 353 353 353 353 353 354 353 353 353 353 353 353
313 313 314 314 315 318 319 321 324 326 327 325 321 324 330 332 329 329 338 341 335 332 333 336 336 331 331 334 331 328 333 340 341 343 345 345 346 348 348 349 351 351 351 351 352 352 352 352 352 352 352 352 352 353 354 353 354 354 354 354 354 353 354
314 313 314 315 316 319 324 327 328 333 336 327 318 328 334 330 330 336 335 336 341 342 337 336 338 337 341 349 345 334 332 339 341 342 344 345 345 348 347 348 350 351 351 352 351 352 353 352 352 352 351 352 352 353 354 354 354 354 354 354 354 354 354
314 314 314 315 315 320 327 327 325 332 342 337 333 342 344 340 343 343 332 332 342 342 339 345 350 351 358 364 356 342 333 336 342 341 343 345 345 347 347 348 349 350 351 351 352 352 352 351 351 351 350 352 353 353 354 354 355 355 354 355 355 355 355
314 313 313 315 321 330 335 329 324 329 339 340 339 341 340 340 347 346 332 333 342 345 348 355 356 353 355 357 353 348 342 336 339 341 342 343 345 345 347 348 348 350 350 350 351 351 351 351 350 349 350 350 351 352 353 354 355 355 356 356 356 355 355
314 313 315 323 332 338 336 327 322 325 333 337 337 338 336 336 341 343 340 341 346 350 352 354 353 351 351 352 351 352 350 342 338 341 343 342 344 345 346 347 347 348 349 350 351 351 351 350 349 350 350 350 350 351 353 355 355 355 356 357 356 356 354
314 314 322 335 340 335 329 324 321 322 324 327 332 336 335 332 335 339 342 344 345 348 349 348 350 351 350 350 352 353 354 351 345 341 342 343 344 344 345 346 347 347 348 348 350 350 350 351 351 351 351 351 352 352 352 354 354 355 356 356 355 355 354
317 316 323 335 337 330 326 323 321 321 322 323 329 338 336 330 331 334 338 341 342 342 344 345 347 350 350 351 352 352 355 357 354 349 346 344 344 344 344 345 346 347 348 348 348 349 350 351 352 352 352 352 352 352 352 353 354 355 355 356 356 356 355
320 316 317 326 333 332 327 323 319 319 320 321 326 336 337 330 328 331 334 338 341 342 343 345 345 346 350 351 350 349 353 356 357 357 355 350 345 345 345 346 346 346 347 347 348 348 349 349 350 350 351 352 352 352 353 354 355 355 356 357 357 357 357
320 316 317 325 336 336 327 320 317 317 321 320 321 331 337 330 327 329 331 334 339 342 344 345 345 348 353 353 350 348 350 353 355 357 357 356 354 351 347 347 347 347 347 347 348 349 349 350 350 350 350 350 350 351 352 352 354 355 357 357 357 357 357
315 315 319 325 331 330 322 317 316 318 321 320 322 333 339 331 327 330 329 330 334 339 343 344 345 349 355 353 348 346 350 351 353 355 357 357 358 357 355 353 351 351 352 351 351 351 351 352 352 351 351 352 352 352 353 353 354 354 356 357 357 357 358
315 316 319 323 325 323 319 317 318 320 321 323 328 339 339 330 327 329 329 327 329 335 341 342 342 347 350 349 345 345 349 351 352 354 356 356 357 357 357 357 357 358 357 356 356 355 354 356 356 355 354 355 354 355 355 355 356 355 356 356 357 357 357
317 317 319 323 323 319 317 318 319 322 325 328 333 336 331 327 327 327 326 326 326 329 335 338 338 340 342 343 344 345 348 350 351 352 354 356 356 355 353 353 354 356 358 357 357 357 357 359 360 359 358 358 358 359 359 359 358 359 359 359 358 359 359
320 320 321 324 322 318 317 320 321 323 327 331 331 329 325 325 325 323 323 324 323 324 329 331 332 333 335 340 343 344 346 349 350 350 352 354 355 355 353 351 347 348 349 349 349 349 350 354 356 357 359 359 360 361 360 360 361 360 360 361 361 360 361
320 321 321 322 321 318 318 320 321 322 325 327 326 326 324 322 322 321 321 321 321 322 325 326 326 327 330 336 340 342 345 348 348 350 350 351 352 353 353 352 349 345 341 340 339 338 338 340 342 346 348 352 355 356 358 358 359 358 358 358 359 359 360
317 318 319 318 318 318 318 319 319 319 319 319 320 323 324 322 320 320 319 318 318 320 323 323 321 320 323 329 335 339 343 345 347 349 349 349 350 349 349 350 350 348 345 342 339 336 334 332 331 332 334 336 339 343 346 350 353 354 354 354 355 355 354
315 317 317 316 316 317 316 316 316 315 314 314 314 317 321 321 320 319 318 317 317 320 322 321 319 317 318 322 328 334 339 341 344 347 348 349 349 349 348 347 347 347 347 345 342 339 337 335 333 331 330 329 330 334 339 341 344 347 348 349 349 350 350
315 317 317 314 314 314 314 315 314 313 312 312 312 313 315 317 319 319 318 316 317 320 321 319 318 317 317 318 322 329 335 338 342 344 346 349 350 349 349 348 346 345 345 343 341 339 338 337 335 334 333 332 333 336 340 343 346 348 349 350 349 347 347
314 317 317 314 312 312 313 314 314 312 311 311 310 310 311 313 316 318 317 315 315 319 321 319 317 317 317 316 318 323 330 335 338 341 343 346 348 350 349 348 347 346 346 345 345 343 342 342 340 338 337 338 338 340 342 345 348 351 354 356 356 352 350
313 314 314 311 310 310 313 314 313 312 310 310 309 309 309 310 312 315 317 315 315 318 322 321 318 317 317 317 317 318 324 330 334 337 340 343 346 349 350 349 348 346 346 348 349 348 349 350 349 348 347 347 347 347 348 347 348 350 352 357 359 359 356
311 312 311 310 309 311 313 314 313 311 310 309 309 309 309 309 310 312 315 314 314 317 320 319 318 318 318 318 317 316 317 322 329 334 338 341 344 347 348 349 350 348 346 348 350 350 350 350 352 352 351 350 350 348 347 346 346 346 347 351 357 360 359
310 310 310 308 309 310 311 311 311 310 309 309 309 309 309 309 309 311 313 314 314 316 317 317 317 318 319 318 316 315 314 316 322 329 335 339 343 345 346 349 350 349 348 347 348 350 349 349 350 350 350 350 350 348 346 346 346 347 348 350 353 358 362
308 308 308 308 308 309 309 309 309 309 308 308 309 308 309 309 309 310 312 313 315 315 315 314 315 317 318 318 316 315 314 314 316 321 328 335 341 343 344 346 348 350 349 348 347 348 349 349 349 349 349 349 349 349 348 348 348 350 353 353 353 359 364
307 307 307 307 307 307 308 308 308 308 308 308 309 309 309 310 310 309 311 314 315 315 314 314 314 315 317 318 317 315 316 316 314 315 320 327 335 341 343 344 346 348 348 348 347 347 347 348 348 349 348 348 348 348 349 349 348 350 353 354 356 359 364
306 307 306 307 307 307 308 308 309 309 309 309 309 310 310 310 310 311 311 312 314 314 313 313 313 312 314 318 318 317 318 318 315 314 316 319 326 336 341 343 344 345 345 346 347 347 346 346 347 348 348 348 348 348 348 348 348 347 348 351 355 359 362

ECMWFFLT2_850_thetae_042.txt.gz
Theta_e
319 322 325 324 326 326 326 326 326 327 329 329 327 328 328 322 323 325 323 324 327 326 329 330 327 329 329 330 334 336 338 339 340 342 343 344 345 346 347 348 348 348 348 347 348 347 347 348 348 349 349 349 349 349 349 350 350 350 350 349 350 349 349
319 318 321 325 325 328 328 325 326 328 329 329 327 326 325 322 324 328 326 322 321 322 328 333 331 331 331 331 334 336 337 339 340 341 342 343 345 346 346 347 348 348 348 348 348 348 348 348 348 348 349 349 349 349 349 350 349 350 350 349 350 350 350
319 316 320 326 326 327 328 327 327 329 329 327 326 326 326 326 326 327 326 324 323 323 327 332 330 331 333 332 333 336 338 339 340 341 342 343 344 345 345 347 347 348 348 348 348 348 348 348 348 348 349 349 349 349 349 349 349 349 349 350 350 350 350
318 318 320 324 326 326 327 327 328 331 330 326 326 327 327 328 328 327 323 321 324 328 329 330 329 332 334 333 334 337 337 339 340 340 342 342 343 344 345 345 347 347 348 348 348 348 348 348 348 348 349 349 349 350 349 350 349 349 349 350 350 350 350
318 321 322 323 325 326 326 325 326 328 328 326 327 326 325 327 329 328 322 321 328 335 333 331 331 331 332 333 336 336 335 337 339 341 342 342 342 344 344 345 346 346 348 348 348 349 349 348 348 349 349 349 349 349 350 350 350 350 350 350 350 350 350
319 320 319 319 321 321 321 323 325 326 326 325 327 326 324 323 327 330 327 321 329 337 332 328 328 328 327 329 334 335 333 334 338 340 341 342 343 343 344 344 345 346 347 348 348 349 349 349 349 349 349 349 349 350 350 350 350 350 350 350 350 350 350
316 316 315 316 316 317 319 321 323 326 327 324 325 326 326 323 324 329 328 321 327 338 334 328 327 326 323 324 328 331 331 332 336 340 340 342 343 343 344 344 344 346 346 347 348 349 349 349 349 349 349 349 349 349 349 350 350 350 349 350 349 350 350
317 317 316 315 316 317 319 321 320 321 324 323 324 329 329 325 322 324 326 322 325 334 334 328 326 326 322 320 323 327 330 331 334 337 339 341 342 342 344 344 344 345 346 347 348 349 349 349 349 349 349 349 349 349 350 349 350 350 349 350 350 350 350
323 320 320 322 322 318 316 317 317 317 320 322 324 329 326 324 323 323 325 323 323 332 336 329 325 326 326 324 322 323 328 330 333 335 337 339 341 342 343 343 344 345 346 348 348 349 350 349 349 349 349 350 349 349 350 350 350 350 349 350 350 350 350
325 322 323 323 321 316 313 315 315 315 318 317 320 324 321 323 326 324 323 323 323 330 336 332 331 332 331 330 324 322 324 327 331 334 336 337 339 341 342 342 344 345 346 348 348 349 350 349 350 349 349 349 349 349 350 350 350 350 350 350 350 350 350
320 319 318 315 314 314 314 315 315 315 316 315 319 322 320 326 330 324 325 327 324 328 332 330 333 335 335 338 333 326 323 324 327 331 334 336 338 339 341 342 343 345 346 347 348 349 350 349 350 349 349 349 350 350 350 350 350 350 350 350 350 350 350
314 313 313 312 313 314 314 315 315 315 316 316 319 321 321 328 328 321 327 332 324 324 329 330 331 331 334 340 336 326 324 325 326 328 329 334 337 338 340 342 343 345 346 347 349 349 349 350 350 349 350 350 350 350 349 350 350 350 350 350 350 350 350
313 312 313 312 313 313 313 314 315 315 317 318 320 321 322 327 325 321 331 340 329 324 333 337 336 334 331 332 329 325 325 327 326 326 326 331 336 338 339 341 343 344 346 347 348 349 349 350 350 350 350 350 350 350 350 350 350 350 350 350 350 350 350
313 312 312 312 313 314 314 316 318 319 323 326 325 323 323 324 323 324 336 343 333 329 337 342 344 342 339 338 339 340 338 332 327 326 325 329 336 339 339 341 343 344 346 347 348 349 350 349 350 350 350 350 350 350 350 350 350 350 350 350 350 350 350
314 313 313 313 313 314 315 320 324 325 330 336 332 328 331 332 329 327 330 332 332 335 339 344 347 347 348 347 347 349 348 342 332 327 328 331 337 339 340 341 342 343 346 347 348 349 350 349 350 350 350 351 351 350 350 350 350 350 350 350 350 350 350
317 316 315 314 314 317 321 325 326 324 330 339 337 333 336 339 339 338 330 329 338 343 345 348 348 347 350 350 349 351 351 349 340 332 333 336 338 340 341 341 343 344 345 347 348 349 350 350 349 350 351 351 351 351 351 351 351 351 351 351 351 351 350
319 317 313 314 318 326 330 328 324 322 326 333 335 334 332 332 337 342 339 338 341 343 345 350 351 349 349 349 349 350 351 351 346 337 336 339 339 340 342 342 343 345 346 347 348 348 349 350 349 350 351 350 351 351 351 351 351 351 351 351 351 351 351
318 315 313 318 326 332 331 324 320 321 324 326 330 332 330 328 332 336 337 338 339 341 343 347 349 350 349 349 349 349 350 352 350 343 337 340 342 341 343 344 343 345 346 347 348 349 349 349 349 350 350 350 351 351 351 351 351 351 352 352 351 351 351
315 315 318 328 334 330 326 321 318 320 322 321 325 330 328 326 328 329 331 333 335 338 343 344 344 347 350 350 350 349 350 352 353 350 340 339 343 343 344 346 345 346 348 348 348 349 349 349 350 350 350 351 351 351 351 352 352 352 352 352 352 352 351
315 316 321 331 334 328 324 322 319 319 320 319 323 331 329 324 325 327 328 330 331 335 342 344 344 347 349 350 350 350 350 352 354 353 347 339 341 344 344 345 346 346 347 348 349 349 349 350 350 350 351 351 351 351 352 352 352 352 352 352 352 351 352
316 317 319 325 330 328 326 324 319 317 318 318 321 329 331 324 323 325 327 328 328 331 339 344 345 348 349 349 349 349 349 351 354 355 352 343 340 343 344 345 347 348 348 349 349 350 350 350 350 350 351 351 351 352 352 352 352 352 352 352 352 352 352
316 317 319 326 332 332 326 321 316 315 319 318 318 325 330 326 323 324 325 326 325 327 334 339 343 348 350 349 348 347 347 350 353 355 354 349 344 343 344 345 346 347 349 349 350 350 350 350 351 351 351 351 351 352 352 352 352 352 352 352 351 352 352
313 315 320 325 330 329 321 316 315 317 320 320 321 328 331 326 323 323 324 323 322 324 328 333 338 346 351 350 346 343 346 349 351 354 355 353 349 345 344 345 346 347 348 349 350 350 350 351 351 351 351 351 351 351 352 352 352 353 352 351 351 351 351
313 315 319 322 324 322 317 315 316 318 319 321 326 333 332 325 322 323 322 322 321 322 325 328 332 338 342 343 341 340 345 349 351 352 354 354 353 351 347 346 346 346 347 348 349 349 349 350 351 351 351 351 351 351 351 352 352 352 352 350 350 350 350
315 316 317 320 321 318 315 316 317 317 320 324 329 331 327 323 322 322 321 321 320 321 322 324 326 328 331 333 335 339 345 349 350 351 352 353 355 354 352 351 348 347 347 347 348 348 348 349 349 350 350 350 351 352 352 352 352 352 351 351 350 350 351
318 319 320 322 321 316 315 316 316 317 322 326 326 324 321 320 321 321 320 320 319 319 321 322 322 322 323 327 333 339 345 347 348 350 351 352 354 355 356 355 353 351 350 349 348 348 348 348 348 348 349 349 350 351 351 352 352 352 351 352 352 352 352
318 320 321 323 321 316 315 316 315 316 318 319 317 317 317 316 316 317 319 319 317 318 319 321 321 320 320 324 331 337 342 345 347 349 350 350 351 353 356 357 357 356 355 354 354 352 351 350 349 349 349 350 350 351 351 352 352 352 352 353 353 354 355
316 318 318 318 317 314 313 315 316 315 314 313 313 313 313 312 312 313 316 317 317 317 317 319 321 320 318 320 325 332 338 341 344 347 348 349 349 350 352 354 356 358 358 358 359 359 358 356 354 353 352 352 353 353 353 354 355 355 355 356 356 356 357
313 316 316 314 313 311 311 313 315 313 312 311 310 311 311 310 310 310 312 313 314 315 316 318 320 320 318 316 318 324 331 335 339 345 347 348 348 348 349 350 352 354 357 358 358 360 361 361 360 358 356 356 357 358 358 359 359 359 359 359 359 359 359
311 315 315 312 311 310 309 311 313 311 309 309 309 309 310 310 309 309 309 310 312 314 315 317 318 318 318 316 314 319 326 331 336 343 347 347 348 348 349 349 349 350 352 354 355 357 358 360 360 360 359 359 360 360 360 360 360 360 360 359 359 359 359
312 315 314 310 309 309 308 311 313 312 310 309 308 308 309 309 308 308 308 309 312 313 315 316 316 316 317 317 314 315 322 327 331 337 343 347 348 348 349 349 350 350 350 351 352 353 354 355 356 356 356 356 357 357 357 357 356 357 357 356 356 355 354
311 312 310 308 309 311 311 312 313 312 310 309 308 307 308 309 308 308 308 309 311 313 315 315 314 314 316 317 315 314 319 324 326 329 337 344 347 348 348 349 350 351 351 352 352 352 352 352 352 351 350 349 349 349 348 348 348 350 351 351 351 350 349
309 309 308 307 309 312 313 311 310 310 308 308 308 308 308 309 309 309 309 309 310 312 315 315 314 314 314 315 315 313 316 320 321 322 328 338 345 348 348 348 348 349 350 351 351 351 351 351 350 350 349 347 347 346 343 342 342 341 342 344 346 347 347
308 308 308 307 308 309 309 308 308 308 307 307 307 308 308 309 309 309 309 309 309 311 314 314 313 313 313 313 315 314 313 316 318 316 319 328 339 346 347 347 348 348 347 348 349 348 349 349 348 349 349 348 348 347 346 346 346 343 342 342 345 348 349
308 308 307 307 307 307 307 307 307 308 308 307 308 308 309 309 310 310 309 308 309 311 313 313 311 312 311 312 315 315 313 313 315 314 314 319 330 340 345 346 347 348 347 347 348 348 347 347 347 347 348 348 347 347 347 348 348 348 348 347 348 353 355
308 308 307 307 307 307 307 308 308 308 309 309 309 309 310 310 310 310 309 309 309 311 313 312 310 310 311 312 314 316 313 312 314 314 313 314 321 333 343 345 345 347 347 347 347 347 347 347 347 347 346 346 346 346 345 344 344 346 350 351 353 357 360
308 308 307 307 307 307 307 308 308 309 310 310 310 310 311 311 311 310 309 309 309 311 312 311 310 310 311 312 314 315 313 312 313 314 313 313 316 325 336 342 344 345 346 346 346 346 347 347 346 346 345 344 344 343 342 341 340 341 346 351 356 359 362

ECMWFFLT2_850_thetae_045.txt.gz
Theta_e
317 318 320 321 323 323 324 324 322 324 326 326 322 322 323 322 321 323 321 320 323 324 326 327 326 328 329 330 332 332 334 338 342 344 346 348 349 350 350 350 349 349 348 348 348 348 348 347 347 347 347 346 345 346 347 347 348 348 348 348 348 348 348
318 318 319 320 321 323 323 322 323 325 327 326 324 322 324 323 322 323 321 319 320 320 323 327 327 327 328 330 330 331 333 337 340 341 343 345 346 348 349 349 349 349 349 348 348 348 347 347 347 347 347 346 346 346 346 347 347 348 348 348 348 348 348
318 318 320 321 322 323 323 323 326 326 324 324 325 324 324 323 323 323 321 320 320 319 321 325 327 328 329 329 331 331 332 335 337 338 342 343 344 347 349 349 349 349 349 348 348 348 348 347 347 347 347 347 347 347 346 347 347 347 347 348 348 348 348
318 318 319 320 322 323 323 324 326 325 324 324 325 324 324 324 324 324 322 320 319 321 324 325 327 329 328 330 332 332 331 334 337 338 341 343 344 347 348 348 349 349 348 348 348 348 348 348 347 347 347 347 347 347 347 347 347 348 348 348 348 348 348
317 319 320 320 321 323 323 323 323 324 324 324 325 325 323 323 323 324 323 321 320 324 328 327 326 329 329 330 333 334 333 334 336 338 340 343 344 344 345 347 348 348 348 348 348 348 348 348 348 348 347 347 348 348 348 348 348 348 348 348 348 348 348
318 319 320 319 319 319 320 320 322 323 323 323 323 324 323 322 322 323 324 322 322 325 330 328 326 329 330 331 333 334 335 334 335 338 340 341 341 341 343 345 347 348 347 348 348 348 348 348 348 348 348 348 348 348 348 348 348 348 348 348 348 348 348
317 318 318 317 316 316 316 318 321 323 323 323 322 323 324 323 322 323 323 322 324 328 332 329 328 329 330 331 333 334 335 335 334 336 339 340 339 339 341 343 346 347 346 347 349 348 348 348 348 348 347 348 348 347 348 347 348 348 348 348 348 348 348
316 316 317 316 316 317 317 318 319 319 320 321 321 322 325 324 323 323 323 323 324 328 335 334 329 330 328 327 330 332 334 335 333 334 338 340 339 338 341 343 345 347 347 348 349 348 348 348 348 348 347 348 348 347 348 348 348 348 348 348 348 348 348
318 318 319 319 318 318 318 318 318 317 318 319 320 322 325 324 323 323 324 323 325 330 340 338 332 329 327 325 326 326 328 332 333 334 338 341 340 340 341 343 344 346 348 348 348 348 348 348 348 348 347 348 348 348 348 348 348 348 348 348 348 348 348
320 321 321 319 318 318 317 316 316 316 317 318 320 322 322 322 324 325 323 323 325 330 335 335 331 329 328 329 328 325 325 327 328 330 333 337 340 341 342 343 344 345 346 346 346 347 348 348 348 348 347 348 348 348 348 348 348 348 348 348 348 348 348
319 319 317 314 314 316 317 317 317 317 317 317 320 322 322 323 325 323 325 326 326 327 330 332 332 331 331 331 330 329 329 328 326 326 326 330 335 339 341 343 343 344 345 345 346 346 347 347 347 348 348 348 348 348 348 348 348 348 348 348 348 348 349
315 315 314 313 313 314 315 316 316 316 317 318 320 322 322 325 323 321 327 333 327 324 331 336 338 340 340 337 335 335 335 334 334 331 328 329 332 335 339 342 343 343 344 345 346 346 347 347 348 348 348 348 348 348 348 348 349 348 348 349 348 348 349
313 313 313 313 313 314 314 315 316 316 318 320 323 325 324 326 325 323 330 335 330 331 340 343 344 348 348 347 346 345 346 346 346 342 337 334 333 334 337 339 341 343 343 344 345 346 346 347 348 348 348 348 348 348 348 348 348 349 348 348 348 348 349
313 313 313 313 313 314 314 315 315 316 320 325 329 330 329 328 327 325 329 332 332 340 347 346 347 351 350 351 351 351 352 354 353 350 347 341 335 334 335 335 337 340 342 343 344 345 346 347 347 348 348 348 348 348 349 348 348 349 348 348 348 349 349
314 314 314 314 314 314 314 315 317 320 326 332 334 333 333 333 331 329 329 328 331 340 345 347 349 351 350 351 351 352 352 352 353 354 354 349 341 336 334 333 333 335 339 342 344 345 346 347 347 348 347 348 348 348 348 348 349 348 348 348 348 349 349
315 314 315 315 314 314 315 315 320 327 331 334 334 332 332 333 335 335 332 329 333 339 342 346 350 350 349 350 350 351 351 350 352 353 355 354 349 341 336 333 332 333 337 341 344 345 345 346 347 347 347 348 348 348 349 348 349 349 348 348 348 349 349
315 315 314 314 315 318 319 318 322 329 331 331 331 329 327 328 331 336 335 333 335 336 336 343 349 348 348 351 350 350 350 350 351 351 353 356 353 345 337 334 332 333 336 339 341 343 344 346 346 347 347 348 348 348 349 349 349 349 349 348 349 349 349
315 315 314 315 319 323 324 322 323 328 328 327 329 327 324 324 326 329 330 330 330 330 332 338 345 346 349 351 350 349 350 350 351 351 352 355 355 347 338 335 335 335 335 337 340 342 343 345 346 347 347 348 348 349 349 349 349 349 349 349 349 349 349
314 314 315 320 324 325 323 321 322 324 324 324 327 325 322 322 322 323 325 325 325 326 328 332 339 346 349 351 349 347 347 348 349 351 352 354 355 350 342 339 338 335 335 337 341 343 344 346 348 348 348 349 349 349 349 349 349 349 349 349 349 349 349
313 313 316 322 325 324 323 321 320 321 323 324 327 328 323 320 320 321 322 323 323 324 326 329 335 342 348 350 349 345 343 344 346 349 352 354 354 351 345 341 339 336 335 338 341 343 345 347 348 348 348 349 349 349 349 349 349 349 349 349 350 350 350
313 315 316 318 321 324 324 321 319 319 321 322 325 329 326 320 319 321 321 321 320 322 325 327 331 339 347 349 347 343 340 341 343 347 351 353 354 350 344 342 341 338 338 341 343 346 348 348 348 348 348 349 349 350 350 349 349 350 349 350 350 349 350
313 315 315 317 323 326 323 319 317 317 319 320 320 326 328 322 320 321 320 320 319 320 323 325 329 340 349 348 343 338 336 338 341 344 349 352 353 350 343 342 343 340 341 343 344 346 348 348 348 348 349 350 350 350 350 349 350 350 350 350 350 350 350
313 314 315 318 323 324 319 316 316 317 319 319 321 328 330 322 319 319 319 319 319 319 322 324 326 334 341 339 334 330 330 334 339 344 349 352 352 351 345 344 345 342 342 344 344 346 347 348 348 348 349 350 350 350 350 350 350 350 350 350 350 349 350
312 314 315 317 320 320 315 314 316 317 318 319 326 335 331 320 317 317 317 318 318 318 320 322 323 325 328 327 325 323 326 332 339 345 350 351 351 351 348 346 346 345 344 345 345 347 347 347 348 349 349 350 350 350 350 350 350 350 350 349 349 349 350
312 314 315 317 319 316 313 313 315 316 319 324 330 331 323 315 315 315 315 316 316 316 318 320 321 322 323 322 320 321 325 331 338 346 351 351 352 352 350 348 347 347 347 346 346 347 347 347 348 349 349 350 349 350 350 350 350 349 348 348 349 349 350
314 316 316 319 320 315 311 313 315 316 321 326 324 318 314 313 314 313 313 314 314 314 316 318 319 321 320 319 318 319 323 328 336 345 349 350 351 352 352 351 348 348 349 348 348 349 348 348 349 349 349 350 350 350 350 349 349 348 348 348 349 349 349
316 317 318 321 320 314 311 313 314 315 317 318 314 312 312 313 312 311 312 313 312 313 314 316 318 319 318 316 317 317 320 326 336 344 347 348 350 352 352 352 351 350 350 349 350 350 349 349 350 349 350 350 350 350 350 349 349 348 349 349 349 349 350
315 318 317 316 315 312 311 313 313 313 312 311 310 311 312 311 310 311 311 311 311 311 313 314 317 318 316 315 315 315 318 325 333 340 344 348 350 351 353 354 353 353 352 351 350 351 350 351 350 350 351 350 350 350 350 349 349 349 349 350 349 350 350
312 314 313 311 310 310 311 312 313 312 311 310 310 310 310 310 309 309 309 310 310 310 311 313 315 316 316 314 313 314 316 320 326 335 342 347 349 351 353 354 355 355 354 353 352 351 351 351 351 350 351 351 351 351 351 350 350 349 349 350 350 350 350
311 312 310 309 309 310 311 312 313 311 311 311 310 309 309 310 309 308 309 309 309 309 310 311 313 314 315 314 313 313 314 316 321 331 341 346 347 350 352 354 355 357 357 355 353 352 351 351 351 351 351 351 351 351 351 351 351 350 350 350 350 350 351
311 311 310 308 308 310 312 312 311 310 309 309 309 308 308 308 308 308 308 309 309 309 309 311 312 313 314 314 313 313 314 314 317 325 335 342 346 348 350 353 354 356 358 358 357 355 354 352 351 351 351 352 352 352 352 351 351 351 351 351 351 352 353
309 310 310 308 308 310 311 310 309 309 309 308 308 308 308 308 308 309 309 309 309 309 309 310 312 312 312 312 312 313 315 314 314 319 325 333 342 347 349 352 353 354 355 357 357 357 357 356 355 354 353 353 353 353 353 352 352 352 353 353 354 355 355
309 309 309 308 309 310 310 309 308 308 308 308 309 309 309 308 309 309 309 309 309 309 309 310 311 312 312 311 311 314 315 314 314 316 318 324 335 344 347 349 350 351 352 353 354 355 355 356 357 358 357 358 358 358 358 358 357 357 358 358 359 359 359
309 309 308 308 309 309 309 308 308 308 308 308 309 309 309 310 310 309 309 309 309 310 309 309 310 311 312 311 311 313 315 314 313 314 315 319 328 339 345 347 348 348 349 349 350 351 351 352 354 354 356 357 358 359 361 361 361 361 360 360 360 360 360
309 308 308 308 308 308 308 308 308 308 308 308 309 309 310 310 310 310 310 309 309 310 309 309 310 310 311 311 311 312 313 314 313 313 313 315 320 330 340 345 346 347 347 347 347 348 348 349 349 349 351 352 353 354 355 356 357 358 358 359 359 358 358
308 308 307 307 308 308 308 308 308 308 308 309 309 309 310 310 311 311 311 310 310 310 310 310 310 310 310 311 311 311 311 312 312 312 312 312 316 325 336 343 345 346 346 346 346 346 346 346 346 346 346 346 347 349 349 350 351 351 351 351 351 351 352
307 307 307 307 307 307 308 307 307 308 308 308 308 309 309 310 311 311 312 312 312 312 311 311 310 309 310 310 311 311 311 311 312 312 311 312 315 323 334 342 344 344 345 345 344 345 346 345 344 344 343 342 342 344 346 349 352 353 351 349 347 347 349

ECMWFFLT2_850_thetae_048.txt.gz
Theta_e
321 323 324 324 323 321 322 322 319 320 323 322 320 320 321 321 321 322 321 321 324 325 328 329 328 329 329 330 332 332 333 334 337 340 342 344 346 348 351 354 354 355 356 356 357 356 357 357 356 355 354 352 350 349 348 345 345 346 347 347 347 347 347
321 323 324 324 324 324 322 321 321 323 324 324 322 320 320 320 321 322 320 320 321 321 323 328 328 328 328 328 329 331 331 333 334 337 340 342 344 346 349 353 354 354 356 356 356 356 356 356 354 353 352 351 350 349 347 345 344 344 345 346 347 347 346
321 322 322 322 324 325 323 323 325 324 320 320 322 321 321 321 320 320 319 319 319 319 322 327 328 327 327 328 329 329 330 331 332 333 337 341 343 344 348 352 354 355 355 355 355 356 356 355 354 353 353 352 352 350 347 345 344 344 344 345 346 346 346
320 321 321 320 321 323 323 325 326 325 322 321 321 322 322 322 321 320 320 318 319 322 325 327 329 329 329 329 329 329 329 330 332 332 334 338 340 342 345 349 352 354 355 355 355 354 354 355 355 355 355 354 353 351 347 346 346 345 344 345 346 346 346
319 319 320 320 321 322 322 322 322 323 324 324 323 323 322 322 321 321 322 320 319 325 329 328 329 330 329 330 330 329 330 330 331 331 333 336 340 340 341 345 350 353 354 354 354 354 354 355 356 356 356 355 354 353 351 348 348 347 344 344 345 345 346
317 318 320 321 322 322 322 321 321 322 323 322 322 322 322 321 321 321 322 320 321 326 330 328 328 329 328 329 329 330 331 331 330 331 333 335 339 340 340 342 345 350 354 354 353 354 354 354 355 356 355 355 355 355 354 352 350 349 348 346 344 344 345
317 318 320 321 321 322 322 322 323 324 324 322 320 320 321 321 321 322 321 320 323 328 331 329 329 330 328 329 330 330 330 331 331 331 334 335 337 341 342 341 342 348 353 354 354 354 354 353 355 355 355 355 355 355 355 354 352 350 350 350 347 344 344
317 318 319 319 320 321 321 321 323 325 324 324 323 323 323 322 321 321 322 320 324 329 332 330 330 330 330 330 331 331 331 331 331 331 332 335 339 343 343 340 343 348 352 354 354 354 355 354 354 355 355 355 355 355 355 355 353 352 352 354 352 347 344
318 318 317 319 320 320 320 322 324 325 325 326 325 325 325 324 322 322 322 320 323 330 332 331 330 330 330 330 331 331 331 331 332 334 335 336 341 345 344 342 345 348 351 354 354 354 355 354 354 355 355 355 356 355 355 354 355 355 354 355 355 352 347
318 318 318 319 320 320 321 322 323 324 324 325 324 324 323 323 324 324 323 321 324 331 334 332 332 330 328 330 331 331 331 331 332 336 339 341 345 350 349 348 349 348 350 354 355 355 355 354 354 354 354 355 355 355 355 355 354 356 356 355 356 355 352
319 320 321 320 319 319 320 320 322 322 323 324 325 324 323 324 324 324 325 325 326 329 333 333 331 332 335 338 340 341 340 339 338 338 338 338 340 346 349 348 349 350 352 355 356 355 355 354 354 354 355 355 354 355 355 355 355 356 356 356 357 356 355
316 317 319 318 317 318 318 319 320 320 322 323 323 323 324 327 325 323 327 330 327 327 332 336 339 344 347 348 350 351 351 349 349 349 346 340 337 340 344 347 348 350 353 356 357 356 355 355 354 355 355 354 354 355 355 355 356 356 356 357 357 357 356
313 314 315 316 316 317 317 317 318 319 320 321 322 323 325 327 326 325 329 332 329 329 333 340 345 349 350 351 353 354 354 353 354 354 353 348 343 340 341 346 349 352 353 356 359 356 354 355 355 354 355 354 354 355 355 355 355 355 357 357 357 357 356
312 312 313 314 315 316 317 317 318 318 319 320 322 324 325 326 327 327 330 331 331 334 339 342 347 350 349 352 354 353 355 355 355 355 355 354 352 350 347 346 348 350 353 356 357 355 353 354 355 355 355 355 355 355 355 356 355 355 357 357 357 357 355
312 312 313 314 315 316 317 317 318 318 319 319 321 323 326 326 326 327 330 329 329 336 341 341 345 349 349 350 353 353 354 354 354 355 355 355 357 358 358 354 351 349 351 354 357 355 350 351 354 354 355 355 355 355 356 356 355 356 356 356 356 355 354
312 312 313 315 315 316 317 317 318 318 318 319 323 327 330 329 329 330 328 327 329 335 338 339 343 346 346 348 352 353 352 352 353 354 354 355 356 357 359 360 359 355 350 350 356 356 350 349 352 354 355 356 355 355 356 356 356 356 356 357 356 354 354
311 312 314 315 316 317 317 317 319 319 318 323 329 331 331 331 332 333 330 328 332 334 333 336 340 342 345 349 352 351 350 349 349 349 350 352 354 356 358 359 360 359 353 348 352 355 352 350 352 352 354 355 354 355 356 356 356 356 357 358 356 354 354
311 313 314 316 317 317 319 320 321 319 319 328 332 331 329 329 330 331 331 330 330 330 329 332 336 339 342 349 351 348 345 343 343 343 345 346 349 352 355 357 359 360 356 348 347 353 355 352 351 352 353 354 354 355 356 356 356 356 357 359 357 354 352
311 312 315 317 319 319 321 324 325 322 322 328 330 329 327 328 328 328 329 328 326 327 328 330 334 336 339 347 349 343 339 337 337 338 340 342 344 348 353 357 358 359 357 350 343 349 355 353 352 354 354 355 355 355 356 356 357 357 357 359 358 354 351
311 312 314 318 320 322 325 326 324 325 328 328 328 328 326 325 325 325 326 325 324 324 327 330 333 336 339 346 347 339 335 335 335 334 336 339 341 345 350 355 357 358 358 351 343 344 352 354 353 354 355 356 355 355 356 356 356 357 358 358 358 355 351
311 312 314 317 319 322 325 325 322 323 325 325 327 330 326 322 322 323 323 323 321 321 325 329 332 335 340 346 346 337 331 331 333 334 336 338 341 345 350 354 357 358 355 351 345 344 351 353 352 353 355 355 355 355 355 356 357 357 357 357 356 353 350
312 313 314 317 319 320 323 322 318 317 320 321 322 328 327 321 320 322 322 320 318 319 323 327 331 337 344 346 342 333 327 328 331 334 338 340 342 346 351 355 357 357 354 350 347 348 352 353 352 353 355 355 355 355 355 356 357 357 357 356 353 351 349
312 313 314 316 318 320 320 318 315 315 318 319 321 329 330 321 319 321 320 318 317 318 321 325 329 337 344 342 333 326 323 324 326 328 333 339 342 346 352 355 356 357 356 351 348 350 354 353 351 354 355 354 355 356 356 357 357 358 357 354 351 348 348
311 313 314 315 318 320 317 315 315 314 316 318 324 332 330 320 317 319 318 317 317 316 319 322 324 328 332 329 324 320 320 321 323 326 330 335 340 347 353 354 354 357 357 353 351 352 353 353 353 355 355 355 355 356 357 358 358 357 354 350 348 348 348
311 313 314 314 317 318 315 314 315 314 316 322 329 329 323 318 317 318 316 316 316 314 316 319 320 320 321 321 320 320 319 320 323 326 331 336 341 347 352 353 354 357 358 355 352 352 353 353 354 355 355 355 356 356 356 356 355 354 352 349 348 349 348
311 312 313 315 317 316 313 313 315 314 318 325 325 319 315 315 316 316 315 315 314 314 315 316 316 317 318 318 319 319 319 319 320 324 329 335 340 345 351 353 354 357 359 356 352 352 354 354 355 355 355 355 357 356 354 352 351 352 354 351 349 348 348
312 313 314 316 317 315 312 313 314 314 316 318 315 313 315 315 315 315 315 314 313 313 314 314 315 315 316 317 317 318 318 318 319 321 325 332 339 345 349 352 354 356 359 359 356 353 355 356 354 355 357 356 355 353 349 349 352 354 354 351 349 348 348
314 314 314 315 314 312 312 312 313 313 313 312 312 313 315 314 314 314 314 314 313 313 313 314 314 315 316 316 316 318 318 317 318 321 325 332 339 344 348 352 354 356 358 361 361 356 355 357 356 357 358 357 353 351 350 351 354 355 354 351 349 349 349
311 312 312 312 311 311 312 312 312 312 311 311 311 312 313 314 314 313 312 313 313 312 312 313 314 314 315 314 315 317 318 316 317 319 324 330 336 341 347 351 354 356 357 359 361 360 358 357 357 358 360 358 353 353 354 351 352 355 355 353 351 349 349
311 311 311 311 310 311 311 311 311 311 310 310 310 311 312 313 313 313 312 312 312 312 313 313 313 314 314 314 314 316 317 316 315 317 321 328 336 342 346 350 354 357 358 357 359 361 360 359 359 359 360 360 356 354 354 352 352 355 355 352 350 350 349
311 311 311 310 310 310 311 311 310 310 310 309 309 310 311 312 313 313 313 312 312 313 313 314 314 313 313 314 314 315 316 315 314 316 319 325 334 341 344 346 351 355 358 358 358 360 360 361 361 361 362 363 360 356 353 352 353 355 355 352 350 350 349
311 311 310 310 309 310 312 311 309 309 309 309 309 310 310 311 312 313 313 313 313 313 313 313 314 313 314 314 313 313 315 315 313 314 317 322 331 340 344 345 348 351 355 357 357 357 358 359 361 363 363 364 363 358 353 352 353 353 353 352 350 350 351
310 310 309 309 309 311 311 309 309 309 309 309 309 309 310 311 312 313 313 313 313 313 313 313 314 313 314 313 312 313 315 315 312 313 315 319 326 336 342 345 346 348 352 355 356 357 358 357 359 361 360 359 359 356 352 352 352 351 351 351 351 352 354
309 309 308 308 308 309 309 309 308 309 308 308 309 309 310 311 312 313 313 313 313 313 313 314 314 314 314 312 311 313 314 314 312 312 314 317 323 332 341 345 345 346 348 351 354 357 358 357 358 358 356 355 355 355 355 354 353 352 352 352 353 356 359
308 308 308 307 308 308 308 308 308 308 308 308 308 309 309 310 311 312 313 313 314 313 313 314 314 315 314 312 311 312 313 313 312 312 315 316 319 328 339 344 344 345 346 347 350 352 354 356 357 357 358 358 358 358 359 359 357 357 358 356 357 361 364
307 307 307 307 307 308 308 308 308 307 308 308 308 308 309 310 311 312 312 313 314 314 314 314 314 315 315 314 313 312 312 313 312 312 316 317 317 323 334 341 343 344 344 345 347 348 348 351 353 354 356 358 358 358 361 361 362 363 362 360 360 364 366
307 307 307 307 307 307 307 307 307 307 307 307 307 308 309 309 310 311 312 313 313 314 313 313 313 315 316 315 313 312 313 313 312 313 316 318 317 320 331 340 342 343 344 344 345 347 347 348 349 349 351 354 356 356 358 360 362 362 363 363 363 364 365

ECMWFFLT2_850_thetae_051.txt.gz
Theta_e
323 323 323 324 322 321 323 323 321 321 324 324 320 319 320 320 319 321 320 320 324 326 327 331 330 330 330 331 335 338 339 339 339 342 345 346 345 347 351 353 353 354 355 359 361 360 361 362 360 359 359 359 359 360 361 358 353 348 343 341 340 339 339
322 323 323 323 324 322 321 320 322 324 325 324 322 319 320 320 319 321 320 319 321 322 323 329 331 330 330 330 332 334 338 338 338 342 344 346 346 345 349 351 353 355 356 358 362 360 361 362 361 361 360 360 360 360 361 360 356 351 345 341 342 342 341
321 322 323 322 324 325 322 321 324 325 320 319 320 319 318 319 320 321 320 320 321 320 323 328 331 330 330 330 331 332 333 337 338 340 342 345 345 344 347 349 352 356 355 356 362 361 360 362 362 361 360 360 361 361 361 361 357 352 347 345 343 343 343
319 320 320 319 320 323 324 323 325 324 322 319 319 320 319 319 320 321 320 320 320 324 328 331 332 332 331 330 331 331 332 334 337 336 338 341 343 344 346 348 352 355 354 354 360 361 360 362 362 361 361 361 361 361 361 361 361 358 355 350 345 343 344
317 317 318 318 319 321 322 320 321 321 323 322 320 320 320 320 320 321 321 319 320 326 332 333 333 332 331 330 331 331 331 332 334 333 335 336 339 343 345 347 349 351 353 353 355 359 359 361 362 362 361 361 361 361 361 362 362 362 359 354 349 345 345
315 316 319 320 320 322 322 321 320 321 323 322 320 319 320 319 320 321 321 320 320 329 333 331 332 332 331 332 331 331 331 331 332 332 332 332 336 340 344 347 348 349 352 352 353 356 357 358 361 361 360 361 361 361 362 361 362 362 361 358 354 347 344
316 319 320 320 320 321 321 322 322 323 324 322 319 318 319 319 319 320 321 319 323 330 333 332 331 331 331 332 331 330 331 331 331 331 332 332 334 338 342 345 346 347 349 351 352 354 356 358 360 360 361 361 361 361 361 362 363 362 360 360 357 350 345
317 318 319 320 320 320 320 321 323 324 323 323 323 322 322 320 319 320 320 319 324 330 333 332 332 333 331 333 332 331 331 331 331 331 331 333 333 336 340 343 345 346 346 348 350 353 356 358 359 360 361 361 360 361 361 361 362 361 360 360 360 355 349
317 317 317 318 319 319 319 321 323 324 323 325 324 325 325 322 319 322 321 319 323 330 335 332 331 331 331 331 331 331 332 331 331 332 331 333 333 334 338 341 343 345 345 347 351 355 357 358 359 360 360 361 361 360 361 361 360 361 360 359 360 359 354
317 316 316 317 318 320 321 321 321 323 324 324 322 321 322 321 322 324 323 321 323 331 335 333 332 331 331 331 331 332 334 331 334 338 337 333 333 335 338 341 343 341 343 347 351 356 358 357 357 360 360 360 361 360 360 360 360 361 360 359 359 360 359
317 317 318 319 320 320 321 321 322 323 324 324 324 320 319 321 323 323 325 326 325 330 332 332 334 333 331 331 332 335 339 337 336 341 340 336 335 337 339 340 340 340 340 346 350 354 358 358 357 358 360 360 359 359 360 360 360 359 359 359 358 360 360
315 316 318 318 318 319 319 320 321 322 323 324 324 322 320 323 322 321 327 331 327 329 334 337 339 340 338 338 339 342 344 343 343 344 342 338 338 340 342 344 345 344 344 350 355 357 358 359 357 358 359 359 358 360 360 359 360 360 358 359 359 360 361
313 314 315 314 315 316 317 318 319 320 322 322 322 322 324 326 324 322 328 332 328 330 337 341 343 344 343 344 345 346 347 347 348 348 344 341 341 341 343 346 348 349 351 354 359 361 360 359 358 356 358 358 358 359 360 360 359 359 359 358 358 360 361
312 312 312 313 313 314 315 317 318 319 321 321 322 323 324 325 326 326 330 331 330 334 339 341 343 343 342 344 346 347 349 351 350 349 349 349 349 347 347 350 350 350 351 355 360 361 361 359 357 357 357 358 359 359 360 360 359 358 359 358 359 360 361
312 312 312 312 313 313 314 315 317 318 319 320 322 322 324 325 325 327 329 329 331 337 341 341 340 341 341 341 344 348 350 350 349 350 350 352 353 353 354 356 357 355 353 353 358 362 362 359 358 357 358 358 359 359 360 359 359 358 359 359 360 360 361
312 312 312 312 312 314 314 314 316 317 319 320 321 322 323 324 324 326 327 326 330 337 340 339 340 340 340 342 346 350 350 349 349 348 348 349 350 352 353 356 359 360 357 353 356 360 361 361 358 356 357 359 358 358 358 359 358 359 359 360 360 361 362
311 312 312 312 313 314 314 314 316 317 318 320 321 322 323 324 324 325 325 326 332 338 337 337 339 338 339 343 347 348 348 347 348 347 346 347 347 348 350 351 354 358 359 358 358 359 360 361 359 357 357 358 359 358 358 359 358 359 360 361 361 361 363
311 312 312 312 314 315 315 315 316 318 320 321 321 322 323 324 324 327 328 330 334 336 335 336 337 338 339 341 344 344 343 343 344 344 344 344 344 345 346 348 351 355 358 361 362 361 360 359 359 358 356 357 359 358 357 358 359 358 360 360 362 362 363
311 311 312 313 314 315 316 317 321 322 323 323 322 321 322 324 326 328 330 333 333 333 333 333 336 338 339 340 343 341 338 338 339 339 339 340 341 343 345 346 348 351 355 359 361 361 360 358 357 358 357 357 358 358 358 359 358 358 359 360 362 363 363
311 311 311 312 315 317 317 321 324 323 324 325 326 327 325 325 328 329 330 332 332 331 333 332 334 337 338 341 342 337 334 334 334 335 336 337 338 340 341 343 345 349 354 358 359 361 361 359 356 357 356 356 357 357 357 359 359 359 359 361 363 363 364
312 312 311 312 314 315 318 324 324 321 321 322 323 328 330 328 329 329 329 330 330 329 331 332 333 335 336 339 340 335 331 332 331 332 333 334 335 337 339 342 343 347 353 358 359 360 361 358 354 355 357 355 356 357 357 358 359 360 359 360 363 364 364
312 312 312 312 313 315 319 323 322 320 320 320 320 324 329 329 327 327 327 327 327 328 330 331 333 335 334 335 336 332 328 329 329 330 331 332 334 336 338 343 345 346 352 358 358 359 362 358 352 352 356 355 355 357 358 358 359 360 360 362 363 364 364
311 312 313 313 314 317 320 321 319 319 321 319 320 325 329 327 325 325 324 324 325 326 327 329 333 336 335 335 334 328 325 326 326 327 329 331 335 338 340 343 345 346 351 355 357 357 360 358 352 351 355 357 356 357 357 358 360 361 361 362 364 365 364
312 312 313 314 315 318 319 318 318 319 319 319 323 329 328 322 321 322 322 322 322 323 325 328 332 333 333 332 329 324 323 324 325 326 326 328 333 338 342 345 347 350 352 355 357 359 359 356 351 350 355 357 357 357 358 359 360 360 361 362 365 366 365
312 311 312 313 315 318 317 317 318 318 318 321 326 326 320 317 319 320 319 319 320 320 322 326 328 328 326 325 323 322 322 323 324 325 325 327 331 335 339 345 349 351 352 355 359 360 358 355 351 351 356 358 357 358 358 359 360 360 361 363 365 366 366
312 312 312 312 314 316 315 316 317 317 319 323 321 316 314 315 317 318 318 318 318 318 319 322 323 323 323 322 321 320 320 321 322 322 323 327 332 336 341 346 349 350 353 356 359 360 356 355 354 354 355 357 357 359 359 359 360 361 362 363 366 366 366
313 312 312 314 315 315 314 315 316 316 317 317 314 312 313 315 316 317 317 317 317 317 317 318 319 320 321 320 320 319 319 320 320 321 322 324 328 332 338 343 347 350 353 356 360 361 357 355 355 355 355 357 358 359 359 359 360 361 362 364 365 366 365
314 314 314 314 314 313 314 315 315 315 314 313 311 312 313 313 313 315 316 316 316 316 316 317 317 318 319 319 319 319 318 318 318 320 321 322 325 329 335 341 346 350 354 357 360 362 360 356 355 355 357 359 359 359 359 359 361 362 364 364 366 366 365
313 313 314 313 312 312 313 313 313 313 313 312 312 312 312 312 312 313 315 315 316 315 315 316 317 318 318 318 318 318 317 317 317 318 319 321 323 328 333 340 346 350 354 358 360 361 361 357 354 355 358 359 359 359 360 361 360 363 364 365 366 367 366
312 313 313 312 312 311 312 313 312 312 312 312 312 312 312 312 311 312 313 314 315 315 315 316 317 317 318 318 318 317 316 315 316 317 318 320 323 327 332 338 344 351 356 358 359 361 362 358 355 356 358 359 360 362 363 362 361 362 364 366 367 367 366
311 312 312 312 311 311 312 312 312 311 311 311 312 312 312 312 311 311 312 313 315 316 315 316 317 317 317 318 318 316 315 314 315 316 316 319 323 327 330 335 341 349 355 357 359 362 363 360 358 358 358 360 363 364 364 364 363 363 365 366 367 367 367
311 312 311 310 310 311 312 311 311 311 311 311 311 311 311 311 311 311 312 313 315 315 316 316 316 316 317 318 318 316 315 313 314 315 315 318 323 326 329 334 339 345 353 357 359 361 363 362 361 361 360 362 364 365 366 365 364 366 367 367 367 368 367
310 310 310 310 310 311 311 310 310 311 311 310 310 311 311 311 311 311 312 313 314 315 316 316 316 316 317 318 318 318 316 314 313 314 315 317 321 324 327 333 338 342 349 355 357 360 363 362 363 364 364 364 365 366 366 365 364 367 368 367 367 368 368
309 309 309 309 309 309 309 309 310 310 310 310 310 310 310 311 311 311 312 313 313 314 316 316 316 317 318 318 318 319 317 314 313 314 315 316 320 322 326 333 338 340 346 352 356 359 361 361 363 364 364 364 366 366 365 365 366 367 367 367 368 368 368
308 309 308 308 308 308 309 309 310 310 309 310 309 309 310 310 310 311 312 312 313 314 315 316 317 317 317 318 318 319 319 316 314 314 314 316 319 321 325 331 337 340 344 350 354 357 359 361 362 362 363 364 364 364 365 365 366 367 367 367 368 368 367
308 308 308 308 308 308 308 309 309 309 309 309 309 309 309 310 310 310 311 312 312 313 314 315 317 317 317 318 318 318 319 317 315 314 315 316 318 320 322 326 334 339 342 346 350 353 355 358 359 360 361 362 363 364 365 365 365 366 367 366 366 366 366
307 307 307 308 308 308 308 308 308 309 309 309 309 309 309 309 310 310 311 311 312 313 314 315 316 317 317 317 318 318 318 317 314 314 316 317 318 320 321 324 331 337 341 343 347 350 351 353 355 357 359 360 362 363 364 365 366 365 365 365 364 363 365

ECMWFFLT2_850_thetae_054.txt.gz
Theta_e
322 322 323 323 322 321 323 323 319 321 325 323 319 318 320 319 319 321 320 320 324 325 326 329 329 329 330 330 331 336 337 338 348 352 352 352 353 352 351 354 354 357 357 355 354 354 355 355 357 356 354 355 355 356 357 357 356 353 348 342 338 335 332
322 322 323 324 323 323 321 320 321 324 325 324 321 318 319 319 318 320 320 319 320 320 322 329 330 328 329 331 330 332 337 335 345 352 353 351 352 352 352 354 354 355 357 353 354 357 357 357 357 356 356 356 356 356 357 358 358 356 351 346 342 338 335
322 323 322 321 323 324 322 321 324 323 320 320 321 318 318 319 318 319 319 320 320 319 322 327 330 329 330 332 330 331 334 336 339 348 354 352 349 350 353 353 355 357 356 354 356 359 358 358 357 357 356 356 357 357 358 360 359 356 353 349 346 341 337
320 320 320 318 320 323 323 323 324 323 320 320 320 320 319 318 318 319 319 319 319 322 328 330 331 332 331 332 333 331 332 337 339 340 348 348 348 352 354 354 355 356 355 354 357 358 359 358 358 358 357 357 358 357 359 362 361 359 357 354 349 345 340
317 317 318 318 318 320 321 321 321 321 321 322 321 321 319 318 318 318 319 318 319 325 332 333 334 333 332 332 334 333 332 335 338 337 338 341 349 354 353 353 355 354 353 354 356 358 358 357 358 359 358 357 357 357 360 363 363 362 361 357 353 349 343
314 315 318 319 319 320 320 320 319 320 321 320 319 319 320 318 318 318 319 318 320 329 333 333 333 334 333 333 333 332 332 332 334 336 337 339 346 352 353 353 353 352 353 355 357 358 357 357 357 358 359 357 357 358 360 363 364 364 363 360 357 352 347
315 317 319 320 320 320 321 320 321 322 322 320 317 318 320 318 317 318 318 317 322 331 336 333 333 333 334 335 334 333 331 333 333 333 335 337 340 348 353 352 352 352 354 355 357 358 356 356 356 358 358 358 357 359 359 362 364 365 364 362 358 354 351
316 317 318 319 320 320 319 319 321 321 321 320 320 321 322 320 318 318 318 316 321 331 336 335 335 334 333 333 333 334 333 331 333 332 334 337 337 341 348 351 351 353 355 357 358 357 356 355 355 357 358 358 357 357 359 361 364 366 364 362 360 357 352
317 317 316 316 317 318 318 319 320 321 321 322 321 322 323 322 321 320 319 317 320 328 336 334 333 332 334 333 332 333 333 331 333 333 330 334 336 336 339 346 350 353 356 356 355 354 354 353 354 355 357 359 357 358 359 360 363 366 365 365 363 359 353
316 316 316 315 316 319 320 320 321 322 321 321 321 320 321 321 323 323 322 320 322 329 335 336 337 335 331 333 334 331 332 332 335 338 337 334 336 335 333 341 350 353 352 352 351 352 352 353 354 354 357 359 359 358 358 358 361 366 366 365 364 362 359
317 317 318 318 318 318 320 321 321 322 323 323 323 322 321 322 324 323 325 326 325 328 336 339 343 343 335 333 336 337 342 340 339 345 346 341 336 336 336 338 347 352 351 349 349 350 352 353 355 356 357 359 359 358 357 357 361 365 366 365 364 363 363
315 316 317 317 317 317 318 319 319 320 321 322 322 322 322 325 324 322 328 332 327 327 336 341 343 345 344 345 346 346 349 347 346 350 350 347 339 335 336 338 343 350 351 350 349 350 352 353 354 356 357 358 359 358 358 360 361 364 366 365 363 363 363
313 313 314 314 314 315 315 316 317 318 319 320 321 322 322 324 324 323 327 330 327 329 338 342 343 344 345 348 349 349 350 350 349 351 351 350 349 345 349 352 351 351 351 352 352 351 351 352 354 356 357 358 360 360 361 361 362 363 365 364 363 363 363
311 311 312 313 313 313 313 314 316 317 317 318 319 321 322 323 323 324 326 327 328 333 340 341 343 343 344 347 348 348 350 349 347 348 348 349 349 350 353 355 356 356 354 353 353 352 351 351 354 357 357 360 361 361 362 362 362 363 364 364 363 363 363
312 312 312 312 313 313 313 313 315 315 316 316 317 318 321 322 322 324 326 326 328 337 342 339 341 342 342 346 348 348 349 348 346 346 346 346 347 348 349 350 352 356 358 355 354 357 357 356 356 356 358 361 361 361 361 362 363 362 363 363 362 362 362
312 312 312 312 313 313 312 313 314 314 315 316 317 319 320 321 322 324 324 323 329 339 342 339 341 342 342 344 347 348 347 346 345 344 344 345 345 346 348 348 348 351 355 357 357 357 358 359 359 358 359 360 360 361 361 361 362 362 362 363 362 362 362
312 312 312 312 313 313 313 313 313 315 315 316 316 317 319 321 323 323 323 325 331 337 338 338 339 340 341 344 345 344 343 343 342 341 342 343 343 345 347 347 346 344 345 352 358 359 359 359 357 356 357 358 358 359 360 360 361 361 361 362 362 361 362
313 312 312 313 314 314 314 314 315 317 317 318 319 319 319 321 322 323 324 326 329 333 336 336 336 337 339 342 342 340 339 339 339 339 340 340 341 343 343 344 346 344 340 344 352 357 360 359 355 354 354 354 356 359 357 358 361 360 361 361 362 361 362
313 312 313 314 314 314 314 315 320 322 321 322 324 324 322 322 323 324 326 327 326 330 334 335 335 335 337 338 338 336 335 336 336 337 337 337 338 339 340 341 342 343 343 342 345 352 357 359 357 355 354 352 354 358 357 357 359 360 360 361 361 361 361
313 313 314 315 315 314 313 317 322 323 324 325 325 325 323 323 325 327 327 328 329 331 332 333 333 334 335 337 335 332 331 332 332 334 334 335 335 336 337 338 340 342 344 345 347 350 356 358 358 357 355 353 352 354 356 357 358 359 360 361 361 361 361
314 312 312 314 314 313 315 320 322 322 322 324 325 326 326 324 324 325 325 326 327 329 329 330 331 331 333 336 333 329 328 329 329 331 331 331 332 334 335 337 338 341 343 344 346 348 353 357 359 359 357 353 349 351 355 356 357 358 359 360 361 361 361
312 312 313 313 313 314 318 320 321 321 322 322 322 325 326 322 321 323 324 323 324 325 325 327 328 330 333 335 333 328 326 327 327 329 329 329 330 331 333 334 336 339 343 344 345 346 348 352 356 359 358 354 349 350 353 355 355 356 357 359 360 361 361
313 312 313 313 313 316 319 320 319 319 321 322 322 325 326 321 319 321 321 321 322 323 323 324 327 332 334 334 330 326 325 325 326 327 327 328 328 329 331 333 335 339 343 345 346 348 349 351 355 359 360 357 351 350 352 354 355 355 357 359 361 361 361
313 313 313 312 314 318 318 318 318 319 320 320 323 327 325 319 318 320 320 321 321 321 321 322 325 328 329 328 326 325 324 324 324 325 325 326 327 328 330 334 339 342 344 345 347 349 351 353 357 360 361 361 357 353 353 354 355 355 357 359 361 361 361
313 313 313 312 315 317 316 316 318 319 318 319 321 324 321 317 317 319 319 319 320 320 320 321 322 323 323 323 323 324 324 323 323 323 323 325 326 327 328 334 340 342 344 346 347 349 351 354 359 361 362 361 359 355 354 354 355 356 358 360 361 362 362
313 312 313 313 315 315 315 315 317 317 318 319 319 318 316 315 317 317 317 318 319 319 319 319 319 320 320 320 322 322 322 322 322 322 322 324 327 329 332 337 339 340 343 345 347 349 350 354 359 360 361 360 357 354 355 355 356 357 359 360 361 362 364
313 312 312 314 315 315 314 315 316 317 317 317 316 314 314 315 316 316 315 316 317 317 317 317 318 318 318 320 321 321 321 321 321 320 321 322 325 328 332 336 338 339 341 344 347 349 350 354 359 361 362 360 355 353 355 357 356 357 359 361 361 361 364
314 314 314 314 314 314 313 314 315 316 316 315 314 314 315 315 315 315 315 315 315 315 316 316 317 317 318 319 320 320 321 321 320 319 319 321 324 326 329 333 335 338 340 342 346 350 352 355 359 361 363 363 355 353 357 357 356 358 359 361 361 362 363
314 313 314 314 314 313 313 314 314 315 315 314 314 314 314 314 314 315 315 314 314 315 315 316 317 317 318 318 319 320 320 320 320 318 317 319 323 325 327 331 334 337 339 341 344 349 353 357 359 360 363 364 358 355 358 357 357 358 359 361 362 362 364
312 313 314 314 313 313 313 314 314 313 313 313 313 313 313 313 313 314 314 314 314 314 315 316 317 317 318 318 318 319 320 320 321 319 316 318 323 324 326 330 333 336 338 342 345 349 354 358 361 361 360 361 358 356 358 358 358 358 359 361 362 363 365
311 313 313 312 312 312 312 313 312 312 312 312 312 312 312 312 312 313 313 313 313 314 314 316 316 317 317 318 318 319 320 320 321 320 317 317 320 323 324 327 330 332 336 340 344 349 354 358 361 360 360 361 360 358 359 359 358 359 361 361 362 363 365
311 311 311 311 311 311 312 311 310 311 311 311 311 312 312 312 312 312 312 313 313 314 314 315 316 316 317 318 318 318 319 320 320 320 319 317 318 321 323 325 329 331 333 336 342 347 353 358 361 361 361 364 364 360 360 360 359 359 361 362 363 364 366
310 311 310 310 310 311 311 310 309 310 310 311 311 311 311 311 311 311 312 312 313 313 314 315 315 316 317 318 318 319 320 320 320 321 319 317 317 320 322 324 328 330 330 333 340 346 352 358 361 362 364 366 365 362 360 360 359 360 362 363 364 365 366
309 310 310 309 309 309 310 309 309 310 310 310 310 311 311 311 311 311 311 312 312 313 314 314 315 316 316 317 318 318 319 320 320 321 320 317 317 320 321 323 327 329 330 333 338 344 351 356 359 362 364 366 366 364 362 361 361 361 363 364 364 365 367
309 309 308 309 309 309 309 309 309 309 310 310 310 310 310 311 311 311 311 311 312 312 313 314 314 315 316 317 318 318 319 319 319 320 320 317 317 320 321 322 325 328 332 334 337 343 349 353 356 361 363 364 366 366 364 362 361 361 364 366 365 366 367
308 308 308 308 308 309 309 309 309 309 309 309 310 310 310 310 310 310 310 311 311 312 313 313 314 314 315 316 317 318 319 319 319 320 320 318 317 319 321 321 323 327 330 332 335 342 348 350 353 359 361 361 363 365 363 362 361 361 362 363 365 366 366
307 307 307 308 308 308 308 308 308 308 309 309 309 309 309 310 310 310 310 310 311 312 313 313 314 314 315 316 317 318 319 319 319 320 319 317 317 320 321 320 322 326 329 330 333 340 346 348 351 355 357 358 361 362 362 362 362 361 360 360 362 363 365

ECMWFFLT2_850_thetae_057.txt.gz
Theta_e
320 320 321 322 322 321 323 323 321 322 324 323 320 321 321 319 319 321 321 322 325 327 330 330 327 328 327 325 334 347 351 350 351 352 352 352 354 353 353 355 354 354 354 353 353 352 352 353 354 355 355 355 354 355 355 354 351 349 344 339 334 329 326
318 318 320 322 323 322 320 319 322 325 326 323 321 320 320 322 321 321 320 321 323 323 326 330 328 328 329 326 329 342 350 350 350 352 351 351 354 353 353 354 354 354 354 353 353 352 352 353 353 354 354 354 355 354 355 354 353 351 348 343 339 333 329
317 317 320 321 323 323 322 321 322 325 323 322 322 321 319 321 321 320 321 321 320 323 326 327 328 328 329 331 327 336 349 351 350 351 352 352 353 352 352 353 354 354 353 353 353 353 353 354 353 355 355 354 354 354 354 355 354 352 350 347 343 338 333
315 317 318 318 320 323 323 322 322 323 323 321 322 322 320 320 321 321 322 322 321 326 330 327 330 331 330 333 331 332 345 351 351 351 351 351 351 352 353 354 354 354 354 354 354 354 354 354 354 355 355 355 354 354 355 354 354 354 352 350 347 343 338
314 316 317 317 317 318 320 320 319 320 321 322 322 322 320 320 321 320 321 322 323 329 332 330 333 334 329 332 337 333 335 346 351 350 350 351 351 352 354 355 355 355 356 356 355 355 356 354 355 355 355 355 354 354 355 354 355 354 353 352 350 347 344
315 315 316 316 316 316 317 317 317 318 319 320 320 322 322 320 319 320 322 321 322 329 333 333 336 341 336 328 338 340 331 340 351 351 349 351 351 353 354 354 355 356 356 357 356 356 356 355 355 355 355 355 354 354 354 354 355 355 354 354 353 351 348
316 316 317 317 317 317 317 317 318 319 319 317 317 321 325 322 319 320 323 320 321 326 333 335 339 345 344 331 332 337 331 339 349 350 349 352 352 353 354 353 354 355 355 356 355 355 355 355 354 354 354 355 355 354 355 355 355 355 355 355 354 354 351
317 316 316 317 317 317 316 317 318 319 319 319 319 322 324 322 320 321 323 321 323 328 335 340 345 347 347 344 340 337 331 337 346 349 350 353 353 352 352 351 352 353 353 355 356 356 355 355 354 354 355 355 355 355 355 356 356 356 356 356 356 355 354
320 318 319 322 321 318 317 318 319 319 321 321 322 322 323 324 323 324 324 324 326 330 334 340 346 346 346 350 349 345 344 344 347 349 349 351 352 352 352 351 352 354 354 355 356 356 355 354 355 356 355 356 355 356 356 356 357 357 357 358 357 356 356
320 320 322 322 320 318 317 318 317 319 319 320 321 322 323 327 328 326 326 326 328 329 329 335 345 346 346 349 349 348 347 347 348 349 348 349 352 352 351 351 353 354 355 356 356 356 355 355 357 357 356 356 356 354 356 357 358 358 358 359 360 359 358
317 317 318 318 316 315 316 315 315 316 317 318 320 322 324 327 328 326 328 330 328 326 327 336 344 345 345 347 348 348 346 345 346 347 347 349 351 353 353 352 352 354 355 355 355 355 355 355 356 357 357 356 355 355 356 357 357 358 359 359 361 361 360
314 314 314 313 314 314 313 314 313 314 316 317 318 321 322 325 326 326 331 334 328 323 329 339 343 343 345 347 347 346 345 343 343 345 345 348 350 352 354 356 355 354 353 353 353 353 354 354 355 356 355 355 355 356 356 357 357 357 358 359 361 362 362
312 312 313 312 312 313 312 313 313 313 314 314 315 318 320 321 323 324 327 330 326 326 335 341 341 341 343 346 346 344 343 342 341 342 343 345 347 349 349 353 356 356 354 354 354 353 354 355 356 355 355 354 355 356 357 357 357 357 357 358 360 362 363
312 312 312 312 312 312 312 312 312 312 314 313 314 317 317 319 320 320 322 325 326 332 340 341 340 341 343 343 343 341 340 340 340 340 341 342 343 344 344 346 349 353 355 357 357 357 356 356 356 356 356 355 355 356 358 358 357 357 357 358 360 362 363
313 312 312 312 312 313 312 312 313 312 313 314 314 315 317 318 320 320 322 324 328 337 342 339 338 341 343 341 339 338 337 337 338 338 338 338 340 341 341 341 342 345 350 355 357 357 358 356 355 355 355 356 356 356 357 358 358 358 358 358 360 361 363
313 312 312 312 312 312 312 312 313 312 312 313 313 315 317 318 320 320 320 324 331 339 340 338 337 338 341 340 337 336 334 334 334 335 335 336 336 338 339 339 339 342 345 348 353 356 358 358 356 354 355 356 357 357 358 358 358 358 358 359 360 361 362
314 312 313 313 313 313 313 313 313 314 314 315 315 315 317 318 318 319 320 324 331 334 335 335 336 337 338 336 334 333 332 331 331 332 332 332 333 334 336 337 338 340 341 342 345 349 353 357 357 357 357 356 356 358 358 358 358 357 357 358 359 361 363
315 313 313 314 315 314 314 313 317 320 321 322 322 321 321 322 323 323 324 326 328 329 331 331 332 334 334 331 329 329 329 329 329 329 330 330 330 331 332 333 335 337 338 339 341 343 349 355 357 357 357 357 357 358 359 358 359 357 357 357 358 361 363
315 314 315 316 315 315 313 314 321 323 323 323 324 323 323 324 324 325 326 326 325 326 328 327 327 330 331 328 326 326 327 326 327 327 328 328 328 329 329 331 332 333 335 339 341 342 346 352 357 357 357 357 357 358 358 358 359 357 354 355 357 360 363
314 314 315 316 317 315 312 316 322 323 322 323 325 326 325 322 322 323 323 323 324 324 324 324 325 328 330 329 327 325 325 325 325 325 326 326 326 327 328 329 329 330 334 338 341 342 343 347 353 355 357 358 358 357 357 356 356 357 355 355 356 359 362
314 314 315 315 315 314 315 321 323 321 321 322 324 326 325 320 319 321 321 321 322 322 322 323 324 328 331 331 327 324 324 324 324 324 324 324 324 325 327 328 327 329 335 339 341 342 342 343 345 348 352 355 357 357 357 355 353 353 355 357 356 358 362
314 313 315 315 314 314 318 321 321 319 320 320 321 324 325 319 317 319 320 319 321 321 321 322 323 328 336 336 326 322 322 323 323 323 322 322 322 323 325 327 328 331 335 339 341 342 342 342 343 345 349 354 356 356 358 357 354 351 352 355 357 357 359
314 314 315 314 313 316 319 319 318 317 319 320 320 322 324 319 316 318 319 318 320 320 320 321 321 327 335 333 324 320 321 322 322 322 322 321 321 321 323 326 328 331 334 337 340 342 342 342 343 344 347 351 355 355 357 359 358 355 351 351 355 357 357
315 315 314 313 315 318 317 316 316 317 317 319 320 322 323 318 315 317 318 317 318 318 319 320 320 322 324 323 320 319 321 321 321 321 321 321 320 320 321 324 327 330 332 335 338 341 341 341 343 345 346 348 352 355 356 357 358 358 355 352 354 357 357
315 314 314 314 316 317 315 314 315 316 316 319 321 321 320 316 314 316 317 316 317 317 317 318 318 319 319 319 319 319 319 320 321 321 321 321 321 319 319 322 326 329 331 334 337 339 341 342 343 345 347 348 351 354 357 357 357 357 356 356 355 356 357
315 314 313 314 316 315 314 314 315 315 318 320 320 318 316 314 315 316 316 316 316 316 316 316 316 317 317 318 318 318 319 320 320 320 321 321 321 321 320 321 324 326 330 333 336 338 341 342 343 345 346 347 350 354 357 358 356 354 355 356 356 355 356
315 314 313 314 316 315 313 313 315 316 318 318 316 315 314 314 315 315 315 315 316 315 315 315 315 316 316 317 318 319 318 319 319 320 320 321 321 321 320 320 322 325 327 331 334 336 338 340 343 345 346 347 349 353 357 358 358 357 356 355 356 355 354
314 315 315 314 315 313 311 313 315 316 316 316 314 314 314 314 314 314 314 314 314 314 314 314 314 315 315 316 318 318 318 319 319 319 320 320 321 321 319 319 321 323 325 330 333 335 337 338 341 344 346 347 349 352 357 358 359 360 358 357 358 357 353
313 314 313 313 313 312 311 313 314 314 314 314 313 314 314 313 313 313 313 313 313 313 314 314 314 314 315 316 317 317 318 318 319 319 320 321 321 321 319 318 320 322 325 329 333 335 336 338 341 344 346 347 349 353 357 359 360 361 360 360 362 359 355
313 312 312 312 312 312 311 312 313 312 312 312 312 312 312 312 312 312 312 312 313 313 313 313 314 314 314 315 316 316 317 318 318 319 320 320 321 321 319 318 320 322 325 328 332 335 336 338 341 344 346 348 350 354 357 360 361 361 360 361 364 361 355
312 312 313 312 311 310 311 311 311 310 310 310 310 311 311 311 311 312 312 312 312 312 312 313 313 314 314 315 315 316 316 318 318 319 319 320 320 321 319 318 320 323 325 328 332 334 336 338 341 344 347 349 351 354 358 360 361 362 360 360 364 362 355
310 312 312 310 309 309 310 310 309 309 310 310 310 310 310 311 311 311 311 311 311 311 312 312 312 313 313 314 315 315 316 317 318 319 319 319 320 319 318 318 320 322 324 328 331 333 335 338 341 344 346 350 353 356 359 360 363 364 360 359 364 363 357
310 311 310 309 309 309 310 310 309 309 309 309 309 310 310 310 311 311 311 311 311 311 311 311 312 312 313 313 314 315 315 316 317 318 319 319 319 319 318 318 320 321 323 327 330 332 335 338 342 345 347 350 354 357 359 361 365 366 363 361 365 364 358
310 310 310 309 309 309 309 309 309 309 309 309 309 310 310 310 310 310 310 310 310 310 310 311 311 311 312 313 313 314 315 315 316 318 318 318 319 319 318 318 319 321 323 327 330 331 334 338 341 345 348 351 353 356 358 361 364 365 365 366 366 363 360
309 309 308 308 308 309 309 308 308 308 308 308 309 309 309 309 309 309 310 310 310 310 310 310 310 311 311 312 313 314 315 315 315 317 318 318 319 319 318 318 319 321 324 328 331 331 333 335 338 343 347 350 352 354 356 359 363 364 365 366 367 363 361
309 308 308 307 308 308 308 308 308 308 308 308 309 309 309 309 309 309 309 309 309 310 310 310 310 310 311 312 313 313 314 315 315 317 318 319 319 319 318 318 319 320 324 327 330 330 330 332 334 339 343 347 350 353 355 358 362 363 364 366 368 366 363
308 308 307 307 307 308 308 308 307 308 308 308 308 308 308 308 308 308 309 309 309 309 309 309 310 310 311 312 313 313 314 315 316 317 319 319 320 319 318 318 319 320 322 325 328 329 328 329 333 336 340 345 349 352 354 357 360 362 362 364 365 366 366

ECMWFFLT2_850_thetae_060.txt.gz
Theta_e
316 315 314 316 319 323 324 323 322 324 327 326 323 324 328 323 319 325 326 324 332 332 331 335 329 326 329 333 343 345 344 349 352 352 355 353 353 353 352 352 351 350 350 350 350 350 350 351 350 350 350 350 350 349 350 349 348 346 343 341 341 339 336
316 314 315 317 317 319 322 319 320 326 326 326 327 323 324 324 323 328 326 322 329 329 328 336 335 327 326 330 337 343 344 347 350 353 353 352 353 352 352 352 351 350 350 349 350 350 350 351 350 351 351 350 350 350 350 350 349 348 346 344 342 339 337
315 315 317 319 317 316 317 317 319 324 322 323 328 324 321 323 323 324 326 325 326 325 329 340 343 337 339 339 337 340 345 347 349 352 352 352 353 352 352 352 351 350 350 349 350 350 350 351 350 351 351 351 351 351 351 351 350 350 348 347 344 342 339
315 316 316 317 316 315 316 316 316 321 321 320 324 325 324 325 323 323 327 327 324 329 337 345 346 348 348 347 342 338 340 347 349 350 351 351 352 352 352 353 352 351 350 350 350 350 351 351 351 351 351 352 352 351 351 351 351 351 350 349 347 344 341
316 317 316 315 315 315 315 316 316 317 320 320 320 323 324 326 327 326 325 324 325 333 343 346 347 347 347 347 345 339 337 345 349 349 351 351 351 352 352 352 353 352 351 350 349 350 351 351 352 351 352 352 352 352 352 352 352 352 351 350 349 347 344
316 315 315 315 316 316 314 315 316 317 319 319 318 321 324 324 325 326 324 323 324 329 336 342 343 345 345 345 344 342 341 344 347 349 350 351 350 352 351 352 353 353 352 352 351 350 351 351 351 352 351 352 352 353 353 353 353 353 352 352 351 349 347
315 314 315 316 316 317 316 316 316 316 317 317 317 320 324 322 322 328 328 324 324 326 330 340 342 342 345 344 342 342 343 345 348 348 349 350 351 351 351 351 351 352 353 353 352 352 350 350 351 351 352 352 353 353 353 354 353 353 353 353 352 351 349
316 313 315 317 316 316 316 315 314 314 314 315 317 319 322 323 325 329 328 325 325 325 328 336 341 343 344 343 340 340 341 343 346 347 349 349 350 350 351 351 351 351 352 353 353 352 351 351 351 352 353 353 353 353 353 353 354 354 354 354 353 352 351
316 317 322 323 318 314 314 314 313 314 314 313 316 320 323 328 329 325 325 328 327 324 327 337 340 341 343 341 339 339 338 339 341 344 348 349 349 350 350 350 352 351 352 353 353 353 352 352 352 352 353 353 353 354 354 354 354 354 354 353 353 353 352
318 320 323 322 317 313 312 313 312 313 313 312 315 318 324 330 328 322 324 328 325 320 326 339 341 339 341 340 337 337 337 336 338 339 342 347 349 350 350 350 352 351 352 353 353 353 353 353 353 352 353 353 353 353 354 354 354 354 355 354 354 353 353
318 319 317 316 315 313 312 312 311 312 312 313 314 316 320 325 323 322 327 327 321 318 326 339 342 341 342 341 337 336 336 334 334 335 337 340 343 347 350 351 352 353 353 353 353 353 353 353 353 353 353 353 353 353 354 353 354 354 354 354 354 354 353
316 315 314 313 313 312 311 311 311 311 312 313 314 315 316 318 319 324 333 330 319 318 328 338 341 341 341 341 339 335 333 333 332 332 333 334 336 340 344 347 350 352 354 354 355 355 354 354 353 353 354 354 353 353 353 354 354 354 354 354 354 354 353
313 312 312 313 313 312 311 312 311 311 312 312 313 314 314 315 316 320 328 327 320 323 334 338 338 339 339 339 339 335 332 332 331 330 330 331 332 333 336 339 342 346 349 352 354 355 355 355 355 354 354 355 354 354 354 354 355 354 355 355 354 355 355
312 312 313 312 312 312 311 312 311 311 312 311 312 314 313 314 316 317 320 324 324 329 337 338 336 336 335 335 336 334 331 330 330 329 329 329 329 330 331 332 335 338 342 346 349 352 354 356 356 356 355 355 355 355 354 355 354 354 355 356 355 356 355
314 312 312 312 312 313 312 312 312 312 312 312 312 312 313 315 317 316 318 327 331 331 333 334 333 332 331 331 332 331 329 329 328 328 327 327 327 328 328 329 330 333 337 341 344 347 351 353 355 356 356 357 356 356 355 355 355 356 356 356 357 356 356
315 313 313 313 312 313 313 312 313 312 312 313 312 313 317 320 321 321 326 333 335 331 327 329 330 329 328 328 328 328 327 326 327 326 325 325 326 326 326 327 328 331 334 338 340 343 346 348 351 354 356 357 357 357 356 355 355 356 356 357 358 358 357
316 313 313 314 313 315 315 313 315 317 318 318 319 320 323 324 324 329 333 332 328 326 324 325 326 327 327 326 326 326 325 324 325 324 323 323 324 324 324 325 327 330 333 335 337 340 342 344 346 350 353 355 356 357 357 357 356 356 356 357 357 358 359
316 315 314 316 316 315 315 315 320 323 322 322 323 323 323 322 323 326 327 324 322 322 322 322 322 325 326 324 323 324 324 323 322 322 322 322 322 322 322 323 325 329 332 335 337 339 340 341 343 346 350 353 355 356 356 357 357 357 356 356 356 357 358
316 316 316 316 316 315 312 315 322 324 322 322 324 322 320 320 320 321 321 321 320 320 320 321 321 322 323 322 321 321 322 322 322 321 321 321 321 322 321 321 323 326 330 333 335 337 339 339 341 345 350 352 354 355 356 356 357 357 357 356 356 357 357
315 316 316 316 317 315 311 314 322 323 321 322 323 324 321 318 318 319 319 319 319 319 319 319 319 320 322 322 320 319 319 321 321 321 321 321 321 322 322 321 322 323 326 329 332 335 337 338 339 342 348 352 354 355 356 356 357 357 357 357 357 357 357
315 315 315 315 314 313 313 317 321 320 319 320 322 325 323 317 316 318 318 317 318 318 317 318 318 319 322 325 322 319 318 319 319 320 321 321 321 322 323 323 322 323 325 327 330 333 335 337 339 340 344 349 353 354 354 356 356 356 356 357 357 357 357
314 314 315 315 313 313 317 321 319 316 315 316 318 323 323 317 314 316 317 317 317 317 317 317 317 319 325 329 325 318 317 318 318 319 320 320 320 321 323 324 323 322 324 326 328 331 334 336 338 339 341 345 349 351 353 354 355 355 356 356 356 357 357
314 313 314 314 312 314 319 322 317 314 314 316 317 321 323 317 313 315 316 316 316 316 316 316 316 319 324 326 321 317 316 317 318 318 319 319 320 320 321 323 324 323 323 325 327 330 332 334 336 338 339 341 344 347 349 352 354 355 356 357 356 356 356
314 314 314 313 312 315 318 318 315 314 314 317 319 322 321 316 313 314 315 315 315 316 316 316 316 318 319 318 316 315 315 316 317 318 318 319 319 320 321 322 324 323 322 324 326 329 331 332 334 335 337 339 341 343 346 349 351 352 354 356 357 357 356
314 314 314 314 315 316 314 313 313 313 314 318 320 320 318 314 313 314 314 314 315 315 315 315 315 316 316 315 314 315 314 315 316 317 317 318 319 319 320 322 323 323 323 323 325 328 330 332 333 334 335 336 338 340 343 346 348 349 352 354 355 357 358
314 315 314 314 315 314 311 311 313 314 316 319 318 316 314 313 313 314 314 314 314 314 313 314 314 314 314 313 313 313 314 314 315 316 317 317 318 319 320 321 321 322 323 323 325 327 329 331 333 334 335 335 337 339 341 343 346 347 349 352 354 356 358
315 314 314 315 316 314 311 311 314 315 317 318 315 313 313 313 313 313 313 313 313 313 312 313 312 313 313 312 313 313 313 314 314 315 316 317 318 319 319 320 320 321 321 322 324 326 328 331 333 334 335 336 337 339 340 342 345 345 347 349 352 355 357
314 314 315 315 313 312 311 312 314 315 315 313 312 312 312 312 312 312 312 312 312 312 312 312 312 312 312 312 312 312 313 313 314 314 315 315 318 319 318 319 320 319 319 321 323 326 328 331 333 334 336 336 337 338 340 342 344 345 345 347 350 353 356
314 314 315 313 311 310 310 311 313 313 312 311 311 311 310 310 311 311 311 311 311 311 311 311 311 311 311 311 312 312 312 313 313 313 314 314 316 318 318 319 319 319 319 320 323 325 328 330 333 334 335 337 337 338 340 341 344 346 347 347 349 352 356
311 311 312 311 310 311 310 310 311 311 310 310 310 310 310 310 310 310 310 310 310 311 311 311 311 311 311 311 311 311 311 312 312 313 313 314 315 317 318 318 319 319 318 319 322 325 328 330 332 334 335 337 338 339 341 342 345 347 349 350 350 353 355
309 310 312 311 310 310 309 309 310 310 309 309 309 309 309 309 308 309 309 310 310 310 310 311 311 311 311 311 311 310 311 311 312 312 313 313 314 315 316 318 318 319 318 319 321 324 327 330 332 334 336 337 339 341 342 344 346 349 352 353 353 354 356
310 310 311 310 309 309 308 309 309 308 308 309 308 308 308 308 308 309 309 309 310 310 310 310 310 310 310 310 310 310 310 310 311 311 312 313 313 314 315 317 318 319 319 319 319 322 327 330 331 334 335 337 339 341 343 344 347 349 352 353 354 355 356
310 310 310 308 308 308 308 309 308 308 307 308 308 307 307 307 308 309 309 309 309 309 309 309 309 309 310 310 310 310 309 310 310 310 311 312 313 313 314 316 318 319 318 318 318 321 326 329 331 334 335 337 339 341 343 345 346 348 350 352 354 356 357
311 310 310 309 309 309 308 308 308 307 307 307 307 307 307 307 308 308 307 308 308 308 308 309 309 309 309 309 309 309 309 309 310 310 310 311 312 313 314 316 319 319 319 318 318 320 324 328 331 334 336 337 338 340 343 344 345 347 349 351 353 355 359
311 309 308 308 308 308 308 307 307 307 307 307 307 307 307 307 307 306 306 307 307 308 308 308 308 308 308 309 309 309 309 309 309 310 310 311 312 313 314 317 319 319 318 318 318 319 323 328 331 333 335 337 338 340 342 343 345 346 348 350 352 356 360
309 308 308 308 308 307 307 307 307 307 307 307 307 307 307 307 306 306 306 306 307 308 308 308 308 308 308 308 308 308 308 309 309 310 310 311 313 314 315 317 319 319 319 318 317 319 323 327 329 333 335 337 338 340 342 343 345 346 348 349 352 355 359
308 308 308 307 307 307 307 307 307 307 307 307 307 306 306 306 306 305 306 306 307 307 307 307 307 307 307 307 308 308 309 309 310 310 311 312 314 315 316 317 318 319 319 319 317 318 322 325 328 332 335 337 338 340 341 343 345 346 348 349 351 353 357

ECMWFFLT2_850_thetae_063.txt.gz
Theta_e
314 314 315 315 316 319 323 321 320 318 318 327 328 323 330 331 323 324 324 325 332 333 334 344 344 343 345 343 342 342 341 342 346 351 352 351 352 352 351 351 351 351 350 350 351 350 351 350 350 349 348 348 348 347 347 348 347 347 345 343 341 339 339
315 313 314 316 313 317 321 318 317 319 317 325 329 324 328 330 323 324 326 330 338 342 343 345 345 345 343 341 340 340 340 341 342 347 352 352 353 352 352 352 350 351 350 350 351 350 350 351 350 350 349 349 348 348 348 349 347 347 346 345 343 340 340
316 314 314 317 315 314 317 316 317 321 321 324 327 324 323 323 324 323 322 332 341 340 339 344 345 345 343 340 338 338 339 340 340 344 348 352 354 352 353 353 351 351 350 350 350 350 350 350 350 350 349 349 348 348 348 348 348 348 347 346 345 343 342
315 316 315 315 315 315 316 316 315 318 321 321 321 324 324 323 327 325 321 330 338 333 333 340 346 345 341 338 338 337 337 337 339 341 345 349 353 352 353 353 352 352 351 351 350 349 350 350 350 350 349 349 349 348 348 348 348 348 348 347 346 345 344
315 316 316 314 315 315 314 314 313 313 317 319 318 320 320 322 327 328 329 332 333 329 327 333 343 344 338 337 336 335 335 335 336 338 343 348 350 353 353 352 353 352 350 351 350 350 350 350 350 350 350 350 349 348 348 348 348 348 347 347 347 346 346
315 316 315 314 315 314 312 313 313 312 314 317 322 322 321 323 325 326 331 331 330 330 324 326 340 342 336 336 334 334 334 333 334 335 340 346 349 352 353 352 352 352 351 351 350 350 349 349 350 350 350 350 349 349 349 348 348 347 347 348 347 348 347
314 314 314 313 313 313 313 312 311 312 312 313 320 324 323 324 324 326 331 329 330 333 323 326 340 340 335 336 333 333 333 331 332 333 335 342 348 350 352 352 352 352 351 351 350 350 349 349 350 350 350 350 350 350 349 348 348 347 347 348 347 348 348
315 314 315 314 312 312 313 313 311 312 312 310 314 318 322 325 324 326 331 328 329 332 323 327 341 340 337 336 332 332 332 330 331 331 332 335 340 346 350 350 352 352 351 351 350 350 350 349 349 350 350 350 350 350 350 349 349 348 348 348 348 349 349
317 317 323 321 315 312 313 312 311 311 311 312 313 315 324 331 323 320 326 329 329 326 322 330 340 339 339 337 332 331 331 330 330 330 331 331 332 338 344 348 350 351 351 351 350 350 349 349 350 350 350 350 350 350 350 350 350 349 349 349 349 349 349
318 319 322 321 315 313 313 312 311 312 311 312 314 315 324 330 322 318 324 329 326 320 323 335 338 336 338 337 333 331 330 329 329 328 329 330 330 332 334 339 345 348 350 351 351 350 350 349 350 350 350 350 350 351 350 350 350 350 350 349 349 349 349
319 317 317 317 315 313 313 312 311 312 312 313 314 316 320 321 318 320 326 324 319 319 328 336 335 333 335 335 333 331 329 329 328 327 327 327 328 330 331 334 338 342 345 347 349 351 350 349 350 349 350 351 351 351 350 351 351 351 351 350 350 350 350
315 315 315 314 314 312 311 312 311 311 313 313 313 314 316 316 315 323 330 323 318 322 330 334 332 331 331 331 331 330 328 327 327 326 326 325 326 328 331 333 335 337 340 342 345 349 350 351 350 350 351 351 351 352 351 351 352 351 352 351 351 352 351
312 313 313 313 312 311 311 311 311 311 312 312 312 312 314 315 314 319 323 320 321 326 329 329 329 328 328 328 328 327 326 326 325 324 325 324 324 325 327 329 331 333 336 339 341 344 347 350 351 351 352 351 352 352 351 352 353 352 353 352 352 353 352
313 313 312 312 312 311 311 311 311 312 312 312 312 312 313 314 315 317 316 318 324 325 324 326 327 326 325 325 325 325 325 324 324 323 324 323 323 323 323 325 327 329 332 335 338 341 343 346 349 351 352 352 352 353 352 352 353 352 353 353 353 353 352
315 314 313 312 312 313 312 312 312 311 312 313 312 311 313 314 316 319 318 322 329 325 321 323 324 324 325 323 323 324 323 323 323 323 323 322 322 323 323 324 326 328 329 330 332 337 340 343 345 348 351 352 353 353 353 353 353 352 353 353 354 353 353
315 314 314 313 312 312 311 312 314 314 314 316 315 316 320 319 321 324 323 327 332 325 320 321 322 322 324 322 322 323 322 323 323 322 322 321 321 322 323 323 325 327 329 328 328 330 334 338 342 345 348 351 353 354 354 353 354 353 353 353 353 353 353
317 315 315 315 312 311 313 314 316 320 321 321 322 325 326 324 324 326 326 325 325 321 319 321 320 321 322 320 320 321 320 321 322 322 322 321 320 321 321 322 323 325 326 327 327 326 327 331 337 342 344 347 350 353 355 355 354 354 353 354 353 353 354
318 317 317 316 314 314 316 316 318 323 324 324 326 329 326 322 321 323 323 321 320 319 319 319 319 320 320 319 318 319 318 319 320 320 322 321 320 320 320 321 322 323 325 325 326 327 327 326 329 335 340 343 347 350 353 355 355 355 354 354 354 354 354
317 319 318 317 317 316 314 314 317 321 321 323 326 326 322 320 319 321 322 319 318 317 317 318 318 318 319 319 318 317 317 318 318 319 320 320 320 319 320 321 321 322 323 324 324 326 326 326 326 327 334 341 344 346 351 354 355 355 355 354 355 354 354
316 317 317 316 317 315 312 312 317 320 321 322 323 322 322 320 318 320 321 318 317 316 316 316 316 316 318 319 318 318 317 316 316 317 318 319 319 319 319 320 321 321 323 322 323 324 326 327 326 325 329 336 339 342 347 351 353 354 355 354 355 356 356
315 315 315 315 314 313 313 316 319 319 320 320 319 321 323 319 315 316 318 317 316 315 315 316 315 315 318 320 319 318 317 315 315 316 316 317 318 318 318 319 320 321 322 322 322 324 326 327 328 327 329 331 333 337 342 347 350 352 354 355 355 355 357
315 314 315 315 315 315 317 318 317 315 315 315 315 320 322 317 313 314 316 315 315 315 315 316 314 315 321 324 322 318 315 314 314 314 315 316 316 317 317 319 320 320 322 322 322 323 325 327 329 330 330 330 331 333 337 343 348 350 351 353 355 355 356
315 314 314 315 314 315 318 318 315 312 313 314 314 319 322 317 312 313 314 314 314 314 315 315 314 317 323 325 320 315 313 313 313 312 313 314 315 315 316 318 319 320 320 322 322 322 324 327 329 330 329 330 332 333 334 337 344 348 349 351 353 354 355
315 314 314 314 313 314 316 316 313 312 313 314 315 319 320 315 312 313 314 313 313 313 314 314 314 316 319 318 315 313 312 312 311 311 312 313 314 315 315 317 319 319 319 321 321 321 322 325 329 330 329 330 332 333 334 334 338 343 346 348 350 352 353
314 314 314 313 314 316 315 313 312 312 313 315 317 319 317 312 312 313 313 313 313 312 312 313 313 314 314 313 312 312 311 311 311 311 312 312 313 314 314 316 317 319 319 320 320 320 321 323 327 330 330 329 330 332 333 333 334 337 340 345 347 349 351
313 314 314 313 315 315 312 311 311 312 314 317 316 315 312 311 312 312 312 312 312 311 311 312 312 312 312 312 312 311 311 311 311 311 311 311 312 313 314 315 316 317 318 319 320 320 320 322 325 328 330 330 331 332 333 334 334 334 336 340 343 346 349
313 313 313 314 315 313 310 311 313 314 316 316 313 311 310 311 311 311 310 311 310 310 311 311 310 311 311 311 311 311 311 311 311 311 311 310 310 311 313 315 315 316 317 318 319 319 320 321 324 327 329 331 332 333 334 334 334 334 334 337 340 343 347
313 313 313 315 315 311 309 311 313 314 314 313 311 309 310 309 309 309 309 309 309 309 310 310 310 310 310 310 311 311 311 311 311 310 310 310 310 310 311 313 314 315 316 317 318 318 319 320 323 325 328 330 332 333 334 335 335 335 335 336 337 339 344
314 314 315 313 311 309 309 310 311 311 311 311 310 310 309 308 309 308 308 308 308 308 309 309 310 310 310 310 310 310 310 311 310 310 310 310 309 309 309 311 313 314 315 316 317 318 319 320 322 325 327 329 331 333 334 335 336 337 337 337 336 337 340
311 311 312 309 308 309 310 310 310 310 310 310 310 309 308 308 307 307 307 307 307 308 309 309 309 309 310 309 309 309 310 310 310 310 309 309 309 309 309 309 311 313 314 315 316 318 319 320 321 324 327 329 331 333 335 335 336 338 339 339 338 337 338
310 311 312 309 309 310 310 309 310 309 309 310 309 309 308 307 306 306 306 306 307 307 308 308 308 308 308 308 309 309 309 309 309 308 309 309 308 308 309 309 309 311 313 314 315 317 319 320 321 323 326 329 330 333 335 336 337 338 339 339 339 338 338
310 311 311 308 308 310 309 308 309 308 308 309 308 308 307 306 306 306 306 306 306 307 307 307 306 306 307 307 307 308 308 308 308 308 308 308 308 308 308 308 309 310 312 313 315 316 319 320 321 322 325 328 330 332 335 336 337 338 338 339 339 339 339
310 310 309 307 308 309 308 307 308 308 308 308 307 307 307 306 306 306 306 306 306 306 306 306 305 305 306 306 306 307 307 308 308 307 307 307 307 307 308 308 309 310 311 313 315 316 318 320 320 322 324 325 328 332 335 336 337 337 338 338 338 338 340
312 311 309 309 310 310 308 307 308 307 307 307 307 307 307 307 307 307 306 306 306 305 305 305 305 305 305 305 306 307 307 307 308 307 307 307 307 307 308 308 309 310 312 313 315 317 318 318 319 322 323 324 326 331 334 336 336 337 338 339 338 337 338
312 310 308 308 309 309 308 307 307 307 307 307 307 307 307 307 307 307 306 306 305 305 305 305 305 305 305 305 306 307 307 307 307 307 307 307 307 307 308 309 309 310 312 314 315 317 318 318 318 320 322 323 326 331 334 336 336 337 338 339 339 338 336
310 309 309 308 308 307 308 308 307 307 307 307 307 307 307 307 307 306 306 305 305 305 305 305 305 305 305 305 306 306 306 307 307 307 307 307 307 308 309 309 310 311 312 314 316 317 318 318 318 319 321 322 326 331 334 335 336 337 338 339 340 339 337
310 310 309 309 308 308 308 307 307 307 307 307 307 307 307 307 306 306 305 305 305 305 305 305 305 305 305 305 305 306 306 306 307 307 307 307 308 309 309 309 311 312 313 315 317 318 318 319 318 318 319 321 326 331 334 336 336 338 338 339 340 340 340

ECMWFFLT2_850_thetae_066.txt.gz
Theta_e
314 313 313 314 314 318 319 319 322 319 320 331 329 324 330 329 320 319 325 333 338 336 332 333 338 337 335 335 334 334 334 334 335 335 339 343 346 350 350 349 350 350 350 351 351 351 350 349 349 349 349 348 349 349 348 348 347 347 347 347 346 346 344
316 312 313 315 312 316 320 318 320 317 316 326 327 323 328 329 321 321 331 338 337 334 331 330 337 339 335 334 333 333 333 333 333 334 335 339 343 347 350 350 350 350 350 350 351 351 351 351 350 349 349 348 349 348 348 349 348 347 347 347 346 346 346
315 312 314 319 315 313 316 316 317 319 321 324 323 323 324 322 323 325 330 335 333 331 328 327 337 340 334 334 333 331 332 332 332 332 333 337 341 344 348 350 350 350 349 350 350 351 350 350 350 350 349 349 349 349 349 349 348 348 348 348 348 347 347
314 315 316 318 316 314 314 314 314 316 322 322 318 324 323 320 328 330 329 333 333 329 324 326 338 339 333 334 332 330 331 331 331 332 331 333 338 342 347 349 351 350 350 350 349 350 351 350 350 350 350 349 349 349 348 348 348 348 348 348 348 348 347
314 316 315 312 312 313 313 314 314 312 317 319 317 320 322 322 329 332 334 334 328 323 322 328 338 338 333 333 331 330 331 329 330 330 330 331 335 340 346 349 351 350 350 351 349 350 350 349 350 350 350 350 349 349 349 348 349 348 348 348 348 348 348
314 314 313 311 311 311 310 311 312 311 313 321 324 320 319 324 328 329 335 332 322 319 324 332 339 337 333 332 330 330 330 328 328 328 328 331 333 337 342 347 350 351 350 351 350 350 350 349 350 349 349 350 349 349 349 348 349 348 348 349 348 348 348
313 312 311 312 311 311 311 310 310 311 311 317 327 325 322 325 326 326 333 330 320 320 328 334 339 337 334 332 330 329 329 328 327 327 328 330 333 336 340 343 347 349 350 350 350 350 349 349 350 349 349 349 349 349 349 348 349 348 349 349 349 348 348
319 316 313 312 312 311 312 311 310 311 310 310 318 322 323 327 324 324 335 332 319 320 329 334 335 335 333 331 329 328 328 327 327 326 327 328 331 336 338 340 343 345 348 349 349 349 349 349 350 349 349 349 349 349 348 348 349 348 349 349 348 349 348
319 320 318 316 315 313 313 312 310 310 310 311 314 318 325 329 322 321 334 335 321 319 328 331 330 331 330 329 328 327 325 326 326 325 326 326 328 331 335 337 341 342 344 345 346 348 348 348 349 349 349 349 349 349 348 348 348 348 349 349 348 348 348
323 323 320 318 317 314 313 313 311 311 311 311 314 318 324 329 322 320 328 328 320 322 328 328 327 326 326 326 326 325 324 325 325 325 325 325 326 327 329 333 335 338 340 342 343 345 346 348 348 348 349 349 349 349 348 348 348 347 348 348 348 348 348
324 320 315 315 316 314 313 313 311 312 312 312 316 319 319 322 321 320 323 319 318 325 329 327 325 324 324 324 325 324 324 324 323 324 324 324 324 325 327 329 331 333 335 337 340 342 344 346 347 348 349 348 349 349 349 349 348 348 348 347 348 348 348
315 316 314 313 316 313 311 312 311 312 313 313 316 316 315 319 320 321 323 320 321 326 327 326 325 324 323 323 323 323 323 323 323 323 323 323 323 325 327 329 329 329 329 330 335 339 342 345 346 347 348 349 349 349 349 349 349 348 348 348 348 348 348
312 314 313 313 314 312 311 312 312 312 314 314 314 314 315 318 320 322 322 321 324 326 324 323 324 323 323 323 323 323 323 323 323 322 322 322 322 323 325 326 327 328 328 327 329 332 337 341 344 346 347 348 349 349 349 350 350 349 349 349 349 349 348
311 312 312 312 313 312 313 314 314 313 314 313 313 314 314 314 317 320 318 320 327 324 320 322 323 322 322 321 321 322 322 322 322 322 322 322 321 321 322 323 324 326 327 328 327 327 330 335 339 342 345 346 348 349 350 350 350 350 350 350 350 349 349
312 312 314 313 312 313 313 314 314 313 312 313 311 311 313 313 315 318 315 320 328 323 318 321 321 320 320 319 319 320 320 321 322 321 322 322 321 320 320 321 322 324 325 327 327 327 327 328 331 336 341 344 345 348 349 350 350 350 351 351 350 350 350
313 312 314 315 313 313 313 316 318 316 315 316 316 316 317 317 318 320 319 322 327 322 318 320 319 318 319 317 317 317 317 318 319 320 321 321 321 319 319 320 321 322 323 324 325 326 327 327 327 329 334 340 342 345 347 349 350 350 351 351 351 351 351
316 313 315 316 313 312 315 318 320 320 320 321 321 322 323 322 321 324 324 323 323 319 318 320 319 318 318 317 316 315 315 315 316 317 318 318 319 319 318 319 320 321 322 322 323 325 326 328 327 326 328 334 338 341 344 347 349 350 351 351 352 352 352
317 315 317 317 315 314 314 315 316 318 320 321 320 321 323 322 321 324 324 321 319 317 318 319 318 317 317 317 316 315 315 314 314 314 314 315 317 317 317 318 319 320 321 322 323 324 326 327 327 326 326 328 331 335 338 343 348 349 350 351 351 352 352
315 317 320 318 316 315 312 311 314 315 316 319 321 322 324 322 320 322 322 319 318 316 316 317 316 315 315 316 316 316 315 314 313 312 312 313 314 316 316 317 318 319 321 322 322 323 324 326 327 327 326 326 327 329 333 338 344 347 349 351 351 352 353
314 316 318 315 313 313 313 313 315 315 318 320 320 321 323 321 318 320 321 318 315 315 315 315 314 314 314 315 316 316 315 314 312 312 311 311 312 314 315 316 316 318 319 321 322 322 323 325 326 327 327 326 326 326 328 333 339 344 347 350 351 353 353
314 315 315 315 314 314 316 317 316 315 317 318 317 320 322 317 314 316 318 316 314 314 314 314 313 313 315 317 317 316 316 314 312 311 311 310 311 312 313 314 315 316 317 319 321 322 323 324 325 326 327 326 326 326 327 330 335 341 345 348 350 352 353
316 315 315 318 320 319 318 317 315 314 313 313 314 319 321 315 311 313 315 315 313 313 313 313 313 313 317 322 320 317 314 313 311 311 311 311 310 310 311 312 313 314 316 317 319 321 322 323 323 325 327 326 326 326 326 327 332 336 341 345 347 350 352
316 315 316 318 319 319 319 317 314 312 312 312 313 316 318 314 310 312 313 313 312 313 313 313 312 313 317 320 318 314 312 312 311 311 311 310 310 310 310 310 311 312 314 315 317 319 321 323 323 324 326 326 326 326 326 327 330 332 335 339 343 347 349
316 314 316 316 314 315 318 317 314 311 312 313 315 317 318 314 310 312 313 312 312 312 312 311 312 313 315 315 313 312 311 311 311 310 311 310 310 310 310 310 310 310 312 314 316 317 319 322 322 322 324 326 326 327 328 328 329 330 331 334 338 342 345
315 315 315 314 313 316 317 315 313 312 312 314 316 317 315 312 311 311 311 312 311 311 310 311 311 312 312 312 311 311 311 310 310 310 310 310 310 309 310 310 310 310 310 312 313 315 317 320 321 321 323 325 326 327 329 330 330 329 330 332 334 337 340
313 315 314 312 313 315 314 312 311 311 314 316 316 314 311 310 311 311 310 311 310 309 309 309 309 309 310 309 309 310 309 309 310 310 309 309 309 309 309 310 309 309 310 310 311 313 315 318 319 320 321 323 325 327 329 330 331 329 328 330 332 334 335
312 312 311 312 316 315 311 312 313 313 315 317 314 310 310 310 310 310 309 309 309 308 308 307 307 307 307 307 308 308 308 308 308 308 308 308 309 309 309 309 309 309 309 310 310 311 313 315 318 319 320 321 324 325 328 330 330 328 327 329 330 332 334
312 313 311 312 315 312 309 312 314 313 313 313 311 309 310 310 309 309 309 308 307 307 306 306 306 307 306 307 307 307 307 307 307 307 307 307 308 308 308 309 309 309 309 310 310 311 311 313 315 317 318 320 322 324 326 329 330 329 328 328 329 331 334
313 314 314 311 310 310 310 310 311 310 309 310 309 310 310 309 309 309 308 307 307 306 306 306 306 306 306 306 307 306 307 306 306 307 307 307 307 308 308 308 308 308 308 309 310 311 311 311 313 315 317 319 321 323 325 327 329 330 328 325 325 329 334
310 311 311 308 307 309 310 309 309 309 309 310 310 310 309 309 310 309 308 307 307 306 306 306 306 306 306 306 306 306 305 305 305 306 306 306 306 307 307 307 308 308 308 309 309 310 311 311 312 314 316 318 320 322 324 325 327 330 330 326 323 328 334
311 312 311 307 307 309 309 308 309 309 309 309 309 308 308 308 308 308 307 307 306 306 306 306 306 306 305 305 305 305 305 305 305 305 305 305 306 306 306 307 307 307 308 308 309 310 311 312 312 313 315 317 318 321 323 324 325 328 331 332 329 330 334
310 312 311 307 307 309 308 308 309 309 308 308 307 307 308 308 308 308 307 306 307 306 306 306 306 306 305 305 305 305 305 305 305 305 305 306 306 306 306 306 307 306 307 308 309 309 311 312 312 313 315 316 318 320 322 323 324 326 329 331 333 334 335
310 311 310 307 308 309 309 308 309 308 308 308 307 307 307 307 307 307 306 307 307 306 306 306 305 305 305 305 305 305 305 305 305 306 306 306 306 306 306 306 306 306 307 308 308 308 310 311 311 312 314 316 317 320 321 322 323 325 329 331 333 334 336
312 311 310 309 310 311 310 308 308 308 307 307 307 307 307 307 307 307 307 307 307 306 306 306 305 305 305 305 305 305 305 305 305 306 306 305 305 305 306 306 306 306 307 307 308 308 309 310 311 312 314 315 317 319 321 321 322 325 329 331 332 334 335
312 310 309 309 309 310 309 308 308 308 307 307 307 307 307 307 307 307 307 307 306 306 306 306 305 305 305 304 305 305 304 305 305 305 305 305 305 305 306 306 306 306 307 308 308 308 309 310 311 312 314 315 316 319 321 321 321 325 329 331 332 334 334
310 310 310 309 308 309 309 309 308 308 307 307 307 307 307 307 307 307 307 306 306 306 306 305 305 305 304 304 304 304 304 305 305 305 305 305 305 306 306 306 306 307 307 307 308 308 309 309 311 313 314 315 316 318 320 321 321 325 330 331 333 334 334
310 311 311 310 309 310 309 308 308 308 307 307 307 307 307 307 307 307 306 306 306 306 306 305 305 304 304 304 304 304 304 304 304 305 305 305 305 306 306 306 306 307 307 307 308 308 309 309 311 313 315 315 316 318 320 320 321 324 329 332 333 335 335

ECMWFFLT2_850_thetae_069.txt.gz
Theta_e
313 314 314 313 315 318 319 319 319 318 319 321 321 319 320 319 317 319 325 331 334 334 332 334 337 335 334 334 334 335 335 336 336 336 336 337 339 342 345 348 350 352 351 351 351 351 351 350 350 350 350 350 350 350 350 350 349 349 348 348 348 347 347
314 313 313 314 314 316 318 318 318 317 318 321 321 320 320 318 317 323 329 329 328 331 332 334 337 335 333 332 333 334 334 334 334 335 335 336 337 340 342 345 348 350 352 351 351 351 351 350 350 350 350 350 350 350 350 350 350 349 349 348 348 348 348
313 313 314 315 314 315 316 316 316 317 318 320 321 320 320 317 320 327 329 326 324 328 332 335 338 337 333 332 332 332 332 332 332 333 333 334 335 338 341 343 345 349 351 351 351 351 351 350 350 350 350 350 350 350 350 350 349 349 349 349 348 348 348
313 313 314 314 314 315 315 315 315 316 318 320 319 320 319 318 323 327 328 327 325 328 334 338 339 336 333 332 331 330 331 330 329 330 331 332 333 335 338 341 345 348 351 351 351 351 351 351 351 350 350 349 350 350 349 349 349 349 349 349 349 348 348
313 314 313 312 312 314 315 315 315 315 316 318 318 319 318 318 324 326 327 328 326 329 336 340 338 335 331 331 330 330 330 329 328 328 329 330 331 332 335 339 344 347 349 350 350 350 351 350 350 351 350 349 349 349 349 348 349 349 349 349 349 349 348
314 313 311 311 311 311 313 313 313 313 314 316 318 319 318 319 323 325 325 326 325 329 334 336 335 333 331 330 330 329 329 329 328 327 327 328 328 330 332 336 341 345 348 349 349 350 351 351 350 350 350 350 349 348 348 348 348 348 348 349 348 349 349
312 312 311 312 311 311 312 312 312 312 313 315 318 320 319 320 321 323 324 325 327 330 331 332 333 331 330 329 328 328 328 328 327 327 326 326 327 327 330 334 338 341 344 346 348 350 350 350 351 350 350 350 349 348 347 346 346 347 347 347 348 348 348
312 312 312 312 311 311 312 312 312 313 312 313 315 318 320 321 320 321 324 324 327 329 330 330 330 329 329 328 327 327 327 327 326 327 326 325 325 326 328 332 336 340 342 345 346 347 348 349 350 350 350 350 350 349 348 347 347 346 346 346 346 347 347
314 314 313 313 313 312 312 312 311 312 312 313 314 317 320 320 319 320 323 323 326 328 329 328 328 328 328 327 327 327 326 326 326 326 325 325 324 326 327 330 333 337 340 342 343 344 345 347 348 349 349 349 349 349 349 349 348 348 347 347 346 346 347
315 316 315 314 314 313 312 311 311 311 312 312 314 318 321 320 318 320 321 324 326 329 328 327 327 327 327 327 326 326 326 325 325 325 325 324 324 325 325 327 330 332 334 337 340 342 343 345 346 347 348 348 348 348 349 349 348 348 348 348 348 347 347
315 316 314 312 313 312 312 311 311 311 312 312 315 318 319 318 318 318 320 324 328 328 327 326 326 325 325 326 326 326 326 325 325 325 324 324 324 323 324 325 328 329 330 332 335 338 341 343 344 345 347 348 347 348 347 347 347 348 347 348 347 347 346
312 312 312 311 311 311 311 311 310 310 311 312 314 316 316 317 318 318 319 325 329 327 326 326 326 325 325 325 325 325 325 325 324 325 324 324 323 323 322 323 325 327 328 329 330 333 336 340 342 343 344 346 347 347 347 346 346 346 347 347 346 347 347
310 310 310 310 310 310 310 310 310 310 311 311 313 314 313 314 318 317 317 323 327 326 325 325 325 325 324 324 324 323 323 323 324 323 323 323 322 322 322 322 322 323 324 327 328 329 331 334 338 341 343 344 346 346 346 346 346 346 346 346 347 347 347
310 310 311 310 311 311 311 310 310 309 310 311 311 312 312 313 315 314 315 323 326 324 324 324 324 324 323 322 322 321 321 322 322 321 321 321 321 321 320 320 321 322 322 323 325 327 328 329 332 336 339 341 343 345 346 347 347 347 347 346 347 347 347
311 310 311 311 311 311 311 313 313 312 312 313 312 313 313 313 314 314 317 324 325 322 322 324 323 322 322 321 320 320 319 319 319 319 319 319 319 320 319 318 319 321 322 322 323 325 327 328 328 330 333 337 339 342 345 347 347 347 348 347 347 347 347
311 311 311 311 311 312 314 318 318 316 317 317 318 320 319 317 318 316 316 322 324 322 322 323 321 321 321 320 319 319 318 317 317 316 316 316 317 318 318 317 317 318 320 321 322 322 324 326 327 328 329 331 334 337 341 345 347 347 348 348 348 348 348
312 311 311 312 311 311 314 318 317 315 315 316 318 320 319 319 322 320 318 321 323 322 322 321 320 321 321 320 319 318 317 317 316 315 315 315 315 315 315 315 315 316 317 319 320 321 322 323 324 326 327 328 329 331 334 339 345 347 347 348 349 349 349
312 312 312 312 310 309 313 314 313 313 313 313 314 316 316 318 321 321 321 321 320 320 321 320 319 320 319 319 318 317 316 315 315 315 314 314 313 313 313 313 313 314 315 317 318 320 321 322 322 324 327 327 327 328 329 333 340 345 347 348 349 349 349
312 313 312 310 309 311 312 311 312 315 314 314 314 316 317 319 320 320 320 319 318 319 319 318 318 317 317 318 317 316 315 314 314 314 314 313 313 313 312 312 311 311 312 314 316 318 320 321 321 323 325 327 327 327 327 328 334 340 344 347 348 349 349
312 312 311 310 310 311 311 311 314 316 316 315 316 317 318 318 319 320 319 317 318 318 317 317 317 316 316 317 317 316 314 313 313 313 313 312 312 312 311 311 310 310 310 311 313 315 317 319 320 322 323 325 326 327 327 327 329 334 339 344 347 348 349
313 312 312 312 312 311 313 314 316 316 316 316 316 316 317 317 317 319 318 317 317 317 316 316 315 315 317 318 318 316 314 313 312 312 312 312 311 311 310 310 310 310 310 310 310 312 314 316 319 320 322 324 325 326 326 326 328 331 335 340 345 347 349
313 312 312 311 310 311 314 316 316 315 315 316 316 316 316 316 316 317 317 316 316 316 316 316 315 316 317 319 319 316 314 313 312 312 311 311 311 310 310 309 309 309 309 309 309 310 312 314 316 318 321 323 324 325 326 326 327 330 332 335 340 343 346
313 312 312 311 310 312 314 315 316 315 314 315 316 314 315 315 314 315 316 316 316 315 315 315 315 316 317 318 318 315 312 312 311 311 310 310 310 309 309 309 309 309 309 309 309 309 310 311 313 316 318 321 322 324 326 326 326 327 328 330 333 337 340
313 312 311 312 312 313 313 314 315 314 313 315 315 313 315 315 314 314 315 315 315 315 314 314 315 315 316 316 315 313 311 310 310 310 310 309 309 309 309 309 309 309 309 309 309 309 309 310 311 312 315 318 321 322 324 325 327 327 326 326 328 331 333
313 313 312 312 312 313 313 314 314 313 313 314 313 314 316 315 313 314 314 314 314 313 313 313 314 314 313 312 312 310 310 310 309 309 309 309 309 309 308 309 309 309 309 309 309 309 309 310 310 310 312 315 318 321 322 323 325 326 325 324 324 326 330
313 313 313 313 312 313 314 314 314 314 313 314 314 314 314 313 313 313 313 313 313 312 312 312 312 311 311 310 309 309 309 308 308 307 307 308 308 309 309 308 308 308 309 309 309 309 309 309 309 310 310 311 314 317 320 321 323 325 326 324 323 324 326
312 312 312 311 311 312 313 313 313 314 314 314 314 313 312 312 312 312 312 312 311 311 310 310 310 309 309 308 308 308 307 307 307 306 306 306 306 307 308 308 307 307 308 309 310 309 309 309 309 309 309 310 311 313 317 319 321 323 325 324 323 323 324
311 312 312 311 311 313 313 313 313 314 314 313 312 311 312 312 311 311 312 311 310 310 309 309 309 308 308 308 308 307 307 307 307 306 305 305 305 305 306 306 306 306 306 308 309 310 309 309 309 309 309 310 310 311 314 317 319 321 324 325 324 323 324
311 312 312 311 311 312 312 312 311 312 312 310 309 310 311 312 311 311 311 310 310 309 308 308 308 308 308 308 308 308 307 307 306 306 305 304 305 305 305 305 305 305 305 306 308 309 310 309 309 309 309 309 310 310 311 314 317 319 321 324 325 324 324
311 310 311 310 309 310 311 310 310 310 310 309 309 309 310 311 310 309 309 310 309 308 308 308 308 308 308 308 308 307 307 306 306 305 305 304 304 305 305 305 305 306 306 306 307 308 309 309 309 309 309 309 309 310 311 312 315 318 319 322 324 324 324
310 311 312 311 310 311 311 311 310 310 309 308 308 308 309 309 308 308 308 308 308 307 307 307 308 308 308 308 307 307 306 306 306 305 304 304 305 305 306 306 306 306 306 306 306 307 308 309 308 308 309 309 309 309 310 311 313 316 318 320 323 324 324
310 312 312 311 309 310 309 310 310 309 309 309 308 308 308 308 307 307 307 307 307 307 307 307 307 307 307 307 307 307 306 306 306 305 304 304 305 305 306 306 307 307 307 307 307 307 308 308 308 308 309 309 309 309 309 310 313 315 317 319 321 323 324
311 311 312 311 310 310 309 309 309 309 309 309 309 308 308 307 307 307 307 307 307 307 307 307 307 307 307 306 306 306 306 306 305 304 304 304 305 305 306 307 307 307 307 307 307 307 307 308 308 308 308 309 309 309 309 309 311 314 316 318 320 322 323
312 312 313 312 311 311 311 310 309 309 309 308 308 308 307 307 307 307 307 307 307 307 307 307 306 306 306 306 305 306 306 305 305 304 304 305 305 307 307 306 307 307 307 307 307 307 308 308 308 308 308 308 309 309 309 309 311 313 316 318 319 320 322
313 312 313 312 311 311 311 310 309 309 309 308 308 308 308 307 307 307 307 307 307 307 307 307 306 306 306 306 306 306 305 305 304 304 305 305 306 306 307 306 307 307 307 308 308 308 308 308 308 308 308 309 309 309 309 309 310 313 316 317 319 320 321
312 312 312 311 310 311 311 310 309 309 308 308 308 308 308 308 307 307 307 307 307 307 307 306 306 306 305 305 305 305 305 305 305 305 305 306 306 307 307 307 307 307 308 308 308 308 308 308 308 309 308 309 309 309 309 309 310 313 315 317 319 320 320
312 311 311 311 310 310 310 310 309 309 308 308 308 308 308 308 307 307 307 307 307 307 306 306 306 305 305 305 305 305 305 305 305 305 306 306 306 306 307 307 307 307 307 307 307 307 307 307 308 308 309 309 309 308 309 309 309 312 315 317 318 319 319

ECMWFFLT2_850_thetae_072.txt.gz
Theta_e
318 318 319 319 320 320 323 323 321 323 326 324 320 319 320 319 318 319 324 330 333 335 337 338 338 338 338 339 340 340 339 340 341 342 343 343 344 346 347 348 350 353 354 355 355 354 354 354 354 354 354 354 353 351 349 350 350 350 350 349 349 348 348
317 318 318 320 320 321 321 321 322 324 325 325 322 320 320 318 318 321 326 330 330 330 334 337 338 338 337 337 338 338 338 338 338 339 340 341 342 343 344 347 349 351 353 355 355 354 354 353 354 354 353 354 353 351 351 351 349 350 349 350 350 349 348
318 318 318 318 319 321 321 320 323 323 320 319 321 321 319 318 318 321 324 327 328 329 334 338 338 338 337 336 336 336 335 335 335 336 336 338 340 341 343 345 348 350 351 354 355 354 353 354 354 354 354 353 352 352 353 353 353 353 351 351 351 349 348
318 318 318 317 317 320 321 321 322 323 320 320 320 320 320 317 317 322 324 326 330 334 338 340 338 337 337 336 335 334 334 334 333 333 334 335 336 338 341 343 346 349 350 351 353 354 354 355 354 354 354 354 353 353 353 352 353 353 351 351 352 351 350
317 317 317 317 317 318 319 319 320 321 321 322 321 320 321 318 317 322 325 325 331 337 339 339 337 335 335 335 334 333 333 333 332 331 332 332 333 335 338 341 343 345 347 349 351 353 354 354 354 354 354 354 353 353 353 351 351 351 349 351 352 353 352
315 316 315 316 316 317 318 319 319 320 320 321 320 319 321 320 318 321 322 326 334 336 335 335 335 334 335 335 335 333 332 332 331 331 330 330 331 332 334 337 339 341 343 345 348 351 352 352 354 354 353 353 352 352 352 352 352 351 350 351 352 353 353
316 315 315 316 315 315 318 318 319 321 320 320 318 318 320 319 320 322 321 329 336 334 333 335 335 335 336 335 335 334 332 331 331 330 329 329 330 330 332 334 336 338 341 344 347 349 350 351 352 353 353 352 352 352 352 352 352 351 351 351 350 350 351
316 315 316 316 316 316 317 318 319 319 320 320 319 321 324 319 319 321 320 330 337 333 333 336 335 334 335 333 334 334 333 331 330 329 329 329 329 329 330 332 333 336 340 344 346 347 348 350 351 352 353 352 351 352 351 351 351 351 351 352 351 349 349
316 316 316 316 316 317 317 317 318 317 318 321 319 322 325 321 321 322 318 328 335 333 332 335 334 335 335 333 334 334 333 332 330 329 329 329 329 329 329 330 332 334 338 341 342 343 345 347 350 351 351 351 351 350 350 350 350 350 350 351 351 351 350
316 318 318 317 316 317 316 315 316 316 318 320 320 321 321 320 324 326 322 328 334 333 331 333 332 333 333 333 333 332 332 332 330 330 329 329 328 328 328 328 329 331 333 336 338 339 341 343 347 349 350 350 350 350 349 348 348 349 350 349 350 351 351
317 319 319 317 317 317 315 314 314 315 316 319 321 321 321 321 323 326 329 333 334 332 332 332 331 331 331 332 332 331 330 330 329 329 328 327 327 327 327 327 327 329 331 332 334 335 337 340 342 345 347 346 347 348 348 348 347 348 349 350 350 350 351
316 317 316 316 316 316 314 313 313 315 316 319 321 320 322 324 322 325 332 335 332 331 332 332 331 330 331 331 330 329 328 328 327 327 326 326 326 325 325 325 324 326 327 329 331 333 334 337 339 341 344 345 345 345 345 346 346 347 348 349 349 350 350
314 315 314 314 315 314 313 313 313 313 314 318 320 318 320 323 324 327 333 334 331 330 330 330 330 330 330 329 328 327 326 326 325 325 324 324 325 324 324 323 322 323 324 325 328 329 331 333 336 338 340 343 344 343 342 343 344 345 347 348 348 349 349
314 313 313 313 314 313 313 313 312 313 314 315 317 317 318 321 324 328 332 331 330 328 327 328 330 329 328 327 326 325 325 324 323 323 323 322 322 323 323 322 321 320 321 323 324 326 328 330 332 335 337 340 342 343 344 344 344 345 345 347 348 348 349
314 313 312 312 312 312 313 313 311 312 313 313 314 316 317 318 321 326 329 330 328 326 327 328 328 327 327 326 326 326 324 323 322 321 321 321 320 321 321 321 320 319 319 320 322 324 325 326 328 330 333 335 337 340 343 344 345 345 345 346 347 348 349
314 313 313 312 312 312 314 316 314 314 315 316 316 318 319 318 319 323 326 327 326 325 326 326 326 327 327 326 326 325 324 323 322 321 320 320 319 319 319 320 320 319 318 317 318 320 322 324 325 327 328 331 332 335 339 342 344 345 346 346 346 348 349
314 313 313 312 312 312 315 317 318 317 319 321 320 320 321 321 320 321 323 325 326 325 325 325 325 325 326 325 324 323 323 323 321 320 319 319 319 318 318 318 319 318 318 316 315 316 319 321 322 324 326 327 328 330 333 338 342 344 345 346 346 347 347
314 314 313 313 313 314 315 317 317 317 319 320 320 319 320 322 322 323 324 325 325 325 324 323 324 325 325 324 322 321 321 321 320 320 319 318 318 318 318 318 317 317 317 315 313 313 315 318 320 322 324 325 326 327 328 332 337 340 344 346 346 347 347
315 315 315 314 314 315 317 317 317 317 317 318 319 319 319 321 323 323 324 323 323 324 324 323 323 323 322 322 321 320 320 319 319 319 319 318 318 317 317 317 317 317 316 315 313 312 312 314 317 319 321 323 324 326 326 329 332 336 340 344 346 347 347
315 314 313 314 316 317 316 316 316 317 316 316 318 319 319 320 321 321 321 321 322 322 322 322 322 321 321 322 322 320 318 318 318 317 317 317 317 317 316 317 317 316 316 315 314 312 311 312 313 315 317 320 322 324 325 327 329 332 335 339 342 344 347
315 314 312 315 317 317 316 317 318 317 317 317 317 320 320 320 321 321 320 319 320 321 320 320 321 320 320 322 322 320 318 317 316 316 316 316 316 316 316 316 316 316 315 315 313 312 312 313 312 312 314 316 318 320 322 324 327 329 331 333 336 339 343
315 315 314 314 314 315 317 319 318 319 319 319 318 319 321 320 320 321 320 319 319 320 319 320 320 319 319 320 322 320 318 316 316 315 315 315 315 315 315 315 315 315 315 313 312 312 313 314 312 311 312 314 315 317 319 321 324 326 327 328 330 333 337
315 315 314 313 312 316 320 320 318 317 316 317 317 317 318 320 319 319 320 320 319 319 319 319 320 318 318 319 321 319 317 316 315 315 315 315 314 314 314 314 314 314 313 312 312 313 314 314 313 311 311 312 312 314 316 318 320 322 324 326 327 328 331
315 314 314 313 314 319 320 318 317 315 315 316 318 316 317 319 318 318 319 319 318 318 318 318 318 318 318 319 319 317 315 315 314 314 314 314 314 314 314 313 313 313 312 312 313 314 314 313 312 311 311 311 311 312 313 314 316 319 321 323 324 325 327
315 314 314 313 316 319 319 317 316 316 315 317 317 317 318 319 318 317 318 318 317 317 317 317 317 318 318 317 316 314 314 313 313 313 313 313 312 312 312 312 311 311 311 312 312 313 313 313 312 312 311 311 311 311 311 312 313 315 318 320 322 323 324
315 315 315 314 315 317 317 317 317 316 315 316 317 318 318 318 317 317 317 316 316 316 315 315 315 315 315 314 313 312 312 312 312 312 311 311 311 311 311 311 310 311 311 311 311 311 312 312 312 313 312 311 311 311 311 311 311 312 315 317 319 321 322
314 315 314 313 314 316 317 317 316 316 315 317 318 318 317 316 316 316 315 315 315 314 314 314 313 313 313 312 312 311 311 311 311 311 311 311 311 310 310 310 310 310 311 310 309 309 311 311 311 312 311 310 311 311 311 311 311 311 312 314 316 318 320
314 313 314 314 315 316 316 316 316 316 316 317 316 315 315 315 314 314 314 314 314 314 313 313 313 312 312 311 311 311 311 311 311 310 310 311 310 310 310 310 310 310 310 310 308 307 308 310 310 310 310 310 310 311 311 311 310 310 311 311 313 315 317
313 314 315 315 316 316 316 315 316 316 315 315 313 312 313 315 314 313 313 314 314 313 313 312 312 312 312 311 311 311 311 311 311 311 311 310 310 310 310 309 309 310 310 311 310 308 307 307 308 309 309 309 310 310 311 311 311 310 310 310 311 312 314
314 315 315 314 314 315 315 316 316 315 314 314 313 312 312 313 313 313 313 312 313 313 312 312 312 311 311 312 312 311 311 311 311 311 311 311 310 310 310 309 309 309 309 310 310 310 307 306 308 309 309 309 310 310 310 310 310 310 310 310 310 310 311
314 314 314 314 314 314 315 315 315 315 314 314 313 313 313 313 313 313 312 312 312 311 311 311 311 311 311 312 312 311 311 311 311 311 311 311 310 310 310 310 309 309 309 309 310 310 309 307 308 309 309 308 308 309 309 310 310 310 310 310 310 310 310
314 314 315 316 315 314 314 314 314 315 315 314 314 313 313 313 312 312 312 311 311 311 311 311 311 311 311 311 311 311 311 311 311 310 310 310 310 310 310 310 310 310 310 310 311 311 311 309 308 309 309 308 308 308 309 309 309 309 310 310 310 309 310
314 315 316 316 315 314 314 314 314 314 314 314 314 313 312 312 312 312 311 311 311 311 311 311 311 311 310 310 310 310 310 310 310 310 310 310 309 309 310 310 310 310 310 311 311 311 311 310 309 308 308 308 308 308 308 308 309 309 309 309 309 310 310
314 314 315 315 315 314 314 314 314 313 313 313 314 314 313 312 312 312 312 312 311 311 311 311 310 310 310 310 309 309 309 309 309 309 309 309 309 309 309 309 309 310 310 310 310 310 310 310 310 309 309 309 308 309 309 309 310 310 310 310 309 309 310
314 315 315 315 315 314 315 314 313 313 313 313 313 314 314 313 312 312 312 312 312 311 311 311 310 310 310 309 309 309 309 309 309 308 308 308 309 309 309 309 309 309 309 310 310 310 311 311 311 311 312 311 310 310 310 310 310 310 311 311 310 309 310
315 315 315 315 315 314 314 314 313 313 313 313 313 313 313 313 312 312 311 312 312 311 311 310 310 309 309 309 308 308 308 308 308 308 308 308 308 308 308 309 309 309 309 310 310 310 310 311 311 312 312 312 312 311 312 312 312 312 313 313 312 310 311
314 314 315 315 315 314 314 314 313 313 313 313 313 313 313 313 312 312 312 311 311 310 310 309 309 309 308 308 308 307 307 307 307 307 307 307 308 308 308 308 309 309 309 309 309 310 310 310 310 311 311 312 312 312 312 312 312 312 312 312 312 310 310

ECMWFFLT2_850_thetae_075.txt.gz
Theta_e
323 325 325 326 324 322 324 325 323 325 328 327 320 318 319 318 317 316 321 330 337 338 339 340 339 340 340 340 342 342 342 343 344 346 347 347 349 351 351 351 353 353 354 353 353 353 355 355 355 355 355 355 355 356 357 355 353 352 351 350 349 349 348
321 322 322 324 325 324 322 321 324 327 328 327 322 319 319 317 316 316 320 329 333 334 337 341 339 340 339 338 341 342 342 343 343 344 344 345 347 348 349 351 352 353 353 353 353 354 354 354 354 356 355 354 355 357 357 356 355 352 350 350 350 351 351
320 321 321 320 322 324 323 322 325 326 322 321 322 320 319 317 316 317 319 325 330 331 334 339 340 339 339 338 339 340 341 342 342 342 342 343 345 347 349 350 352 353 353 355 356 355 354 354 354 355 354 353 354 355 356 357 356 354 353 351 351 354 354
320 320 319 317 319 322 324 324 325 325 322 321 322 321 322 318 316 318 321 325 331 334 337 340 340 340 340 339 338 338 340 341 340 341 341 340 342 344 347 349 350 351 352 354 356 355 354 354 353 354 354 353 353 354 354 356 356 357 357 354 353 357 357
318 318 318 319 319 320 321 321 322 323 323 323 323 322 322 320 318 318 321 327 335 340 341 341 339 338 338 338 338 339 340 340 339 339 339 338 339 342 344 346 347 348 349 352 353 354 354 353 353 352 352 353 353 353 354 355 356 357 358 356 356 358 358
316 318 320 321 321 321 321 320 321 322 321 321 320 320 321 320 319 319 320 329 338 341 339 338 337 337 338 338 339 339 339 339 338 338 336 336 337 339 341 342 344 345 346 348 350 351 351 353 353 352 351 353 352 352 353 354 355 356 356 356 357 358 359
318 319 322 322 321 322 323 321 323 324 322 321 317 317 319 318 319 319 323 334 339 339 337 338 337 337 339 338 339 339 338 338 338 337 336 336 336 336 337 339 341 343 343 344 345 347 348 350 353 353 352 352 352 351 353 353 354 355 355 355 356 355 357
320 320 321 321 321 321 321 321 324 323 322 323 320 321 323 319 319 318 323 335 340 338 337 339 337 338 338 337 338 338 337 337 336 335 335 335 335 334 335 336 338 340 341 342 344 346 347 349 351 353 352 352 352 352 352 353 352 352 353 354 354 353 353
318 318 318 319 320 320 320 321 323 323 324 324 323 324 325 322 321 317 321 333 339 337 336 338 336 337 338 337 338 337 337 336 335 334 334 334 334 334 334 334 334 336 338 340 341 342 344 345 348 350 350 350 352 353 352 352 351 351 352 352 353 353 353
317 318 318 318 318 319 320 321 322 322 323 323 323 322 321 321 322 322 326 333 337 336 336 335 335 336 335 336 337 336 336 335 333 334 333 332 333 333 332 332 332 334 335 336 338 339 340 343 345 347 348 348 351 352 351 351 350 351 352 352 352 352 354
319 321 321 321 321 319 319 319 320 322 322 323 324 320 319 321 322 324 332 337 336 336 336 336 335 335 334 335 335 335 335 334 332 332 332 331 331 331 331 331 331 332 334 334 335 335 336 340 343 345 347 348 349 349 349 350 350 351 352 352 352 352 353
319 320 321 321 321 320 318 318 319 320 321 323 322 319 322 326 323 325 336 339 334 335 337 335 335 334 333 334 334 333 333 332 331 331 330 330 330 329 329 330 329 330 331 332 333 333 334 336 340 344 346 347 347 346 348 348 349 350 350 351 352 351 352
317 318 318 319 320 319 319 318 318 319 320 322 322 321 325 327 323 328 338 339 334 336 336 334 334 333 333 333 332 331 331 330 329 328 328 329 328 327 327 327 327 328 328 329 330 332 334 335 337 341 344 345 344 344 345 347 347 348 348 350 351 351 351
317 316 316 316 318 317 318 318 318 318 320 322 323 324 326 327 327 331 337 337 336 336 334 334 334 333 332 332 330 330 329 328 328 327 327 327 326 326 326 326 326 326 325 325 326 328 331 331 333 336 339 342 343 343 343 344 345 346 346 348 350 351 351
316 316 316 315 316 317 316 317 317 317 318 320 321 322 324 327 331 332 334 336 336 334 334 334 332 331 331 330 329 329 328 327 327 326 325 325 325 325 324 324 325 325 324 324 323 324 325 326 328 330 332 334 337 340 342 342 344 345 345 346 349 349 350
316 316 315 315 315 315 314 315 316 316 317 318 319 322 323 326 329 331 332 334 333 333 333 332 331 331 331 331 330 329 328 327 326 325 325 325 324 324 324 324 324 324 324 323 322 322 322 322 324 325 326 328 331 333 337 340 342 344 345 346 347 349 350
315 316 315 315 315 314 313 316 317 316 317 319 321 323 323 325 329 330 331 331 332 332 332 330 330 330 331 330 329 328 327 327 325 325 324 324 323 323 323 323 323 323 323 322 321 321 321 320 320 321 322 324 326 327 330 334 338 342 344 345 346 348 350
314 316 316 315 313 313 315 319 321 320 321 322 323 323 324 326 328 328 330 331 330 329 329 329 329 330 330 328 327 326 326 326 325 325 324 323 323 323 322 322 322 322 322 322 320 319 320 320 319 318 318 320 322 323 325 329 331 336 341 344 345 346 348
315 317 317 314 313 316 320 322 321 322 324 324 323 324 325 327 328 329 329 329 328 327 328 328 328 329 328 326 325 324 324 324 324 324 323 322 322 322 321 321 321 321 321 321 319 318 319 320 319 317 316 317 319 320 322 325 326 329 335 338 341 342 343
316 318 315 314 317 321 322 321 321 320 321 322 323 323 324 325 328 328 327 327 327 327 327 327 326 327 326 325 325 323 322 321 322 322 322 322 321 321 321 320 320 320 320 320 318 318 319 320 320 317 314 315 316 316 319 322 322 324 328 332 334 336 339
317 316 313 316 321 322 321 321 320 319 320 321 322 322 323 325 326 327 326 326 326 326 325 325 325 325 324 325 325 323 321 320 320 320 320 320 320 320 319 319 319 320 320 319 318 318 319 320 320 318 314 314 314 315 316 317 318 320 325 330 330 330 333
317 315 314 316 318 318 320 321 321 321 322 322 322 324 324 324 325 326 325 324 325 325 324 324 323 323 323 324 325 323 320 319 319 319 319 319 319 319 318 318 318 319 318 317 316 318 319 319 319 317 316 315 315 315 315 315 316 318 323 328 328 325 327
316 315 315 315 315 318 323 323 321 321 321 320 321 322 322 323 323 323 324 324 323 323 323 323 323 322 322 324 324 323 321 319 319 319 318 318 317 317 317 317 317 317 317 315 316 318 318 318 318 317 317 317 316 316 315 314 316 319 321 323 321 319 321
315 315 314 314 317 323 325 322 319 318 317 317 318 317 319 323 322 321 322 323 322 323 323 322 322 322 323 323 323 321 320 319 318 318 317 316 316 316 316 316 315 315 315 316 316 317 317 317 317 317 317 318 317 317 315 313 316 319 320 319 315 314 316
314 315 314 314 319 324 323 319 318 318 317 318 318 318 321 323 321 320 321 321 321 321 321 321 321 321 322 321 320 319 318 317 316 316 315 315 315 314 314 314 313 313 314 315 315 315 316 316 316 317 317 318 319 318 315 313 314 316 317 315 312 312 314
314 315 314 314 319 323 321 318 318 317 316 318 319 321 322 322 320 320 321 320 320 319 320 320 320 319 319 318 317 316 316 315 315 315 315 314 314 314 314 313 312 312 313 313 313 314 315 315 315 316 317 317 318 318 315 313 314 314 313 313 312 312 313
315 315 314 314 317 321 320 319 318 317 317 320 321 321 321 320 320 319 319 319 319 318 318 318 317 317 317 316 315 315 315 314 315 314 315 315 314 314 314 313 313 313 313 312 311 311 312 314 314 315 316 316 316 316 315 314 313 312 312 312 312 312 312
314 313 314 316 318 320 320 319 318 317 318 321 321 320 319 319 318 318 317 317 317 317 316 317 316 316 316 315 315 315 314 314 314 314 314 315 315 314 314 313 313 313 313 313 312 310 309 311 312 313 314 314 313 312 313 314 313 313 313 312 312 312 312
316 315 317 318 319 319 319 318 319 320 320 320 319 317 317 317 316 316 316 317 317 316 315 315 315 315 315 315 314 314 314 314 314 314 315 315 315 315 314 314 314 313 313 313 313 312 309 308 308 310 311 313 313 313 313 313 313 312 312 311 311 312 312
317 317 318 319 319 318 318 318 319 319 319 317 315 314 315 316 316 316 315 316 317 316 315 315 315 315 315 315 315 314 314 315 315 315 315 315 315 315 315 315 315 314 314 313 313 313 311 308 307 310 312 313 314 312 311 310 310 310 311 312 312 311 311
316 316 317 318 318 316 317 318 318 318 317 316 315 314 314 316 316 316 315 315 315 315 315 315 314 314 314 315 315 315 315 315 315 315 314 314 315 315 314 315 314 314 314 315 315 315 314 311 309 309 310 310 310 309 308 309 309 309 310 311 311 311 310
315 316 317 318 317 316 317 317 318 317 317 316 316 316 315 315 316 316 315 315 314 314 314 314 314 314 314 314 315 315 315 315 315 315 314 314 314 314 313 314 314 314 314 315 315 315 315 314 312 310 307 306 306 307 307 308 309 309 309 309 309 310 311
316 316 317 317 317 317 317 316 316 317 317 317 316 316 315 315 316 315 315 315 314 314 314 314 314 314 315 314 314 314 314 314 314 313 313 313 313 313 313 313 313 313 313 314 314 315 315 315 314 313 310 307 305 305 307 308 310 313 314 313 311 310 311
317 317 318 318 318 318 317 316 316 315 316 316 315 316 316 315 315 315 315 315 314 314 314 314 314 314 314 314 314 314 313 313 313 312 312 312 311 312 312 312 312 312 312 313 313 314 314 315 315 314 313 312 310 309 310 311 313 315 317 318 316 314 313
317 318 318 318 318 318 318 317 316 316 315 315 315 315 316 315 315 315 315 315 315 315 315 314 314 314 313 313 313 313 313 312 312 311 311 311 311 311 311 311 311 311 311 312 312 313 314 314 314 314 314 314 314 314 314 315 316 317 318 319 319 319 318
318 317 317 318 318 318 319 318 316 316 316 315 315 315 315 315 315 315 315 315 315 315 315 314 314 313 313 313 313 312 312 311 311 310 310 310 310 310 310 310 310 311 311 311 312 312 313 313 313 314 314 314 314 315 315 316 316 317 317 318 319 320 320
317 317 317 317 317 318 318 318 317 317 316 315 315 315 315 315 315 314 314 314 314 314 314 313 313 312 312 312 312 311 311 311 310 310 309 309 309 309 309 309 310 310 311 311 311 311 312 312 313 313 313 313 313 314 314 314 315 315 316 316 317 318 319

ECMWFFLT2_850_thetae_078.txt.gz
Theta_e
328 327 329 330 329 327 327 326 323 325 330 327 320 319 319 319 317 318 326 333 337 340 342 342 341 342 342 342 344 345 348 350 350 351 353 353 353 354 353 353 353 353 354 355 355 355 354 355 355 354 353 353 354 355 357 357 358 357 354 349 344 341 339
325 327 328 329 329 329 325 323 325 328 329 327 324 320 319 319 316 318 330 334 334 337 340 342 341 342 341 340 342 343 344 347 347 348 349 350 351 351 351 353 353 354 355 355 355 355 355 356 355 353 351 352 353 353 357 357 355 358 357 353 350 346 343
323 326 325 324 328 330 326 325 327 326 322 321 323 320 319 319 316 320 332 334 332 334 337 341 342 342 340 340 341 342 343 344 345 346 346 347 349 350 351 352 352 353 354 354 355 356 355 355 355 354 353 353 352 350 354 354 352 355 356 354 355 352 349
322 323 322 320 322 326 326 326 325 325 322 321 322 321 321 320 317 321 332 335 333 336 341 343 342 342 340 341 341 341 342 342 343 344 343 346 349 349 350 351 351 353 354 354 354 354 354 355 355 356 354 353 353 352 353 353 352 354 354 354 357 357 356
321 319 320 320 321 324 324 322 321 322 323 323 324 322 321 321 319 321 330 337 339 341 344 343 342 341 340 340 341 341 342 342 341 342 342 344 347 348 348 349 348 350 353 354 354 352 354 356 357 355 354 354 354 353 353 354 354 355 355 355 355 357 359
317 319 322 322 322 323 324 322 321 322 323 321 321 320 320 321 320 320 329 338 341 342 341 341 339 340 339 339 340 340 341 341 340 341 342 342 345 347 346 347 345 346 348 351 352 353 355 357 357 354 353 354 354 353 354 355 355 354 354 354 354 354 356
320 321 323 321 322 324 323 323 324 325 325 321 318 317 319 318 319 324 333 340 343 342 339 341 339 339 340 339 340 340 340 340 340 340 341 341 343 343 344 344 344 344 345 346 349 350 353 356 356 354 353 355 354 354 353 353 354 353 353 353 353 353 354
322 322 323 322 323 323 322 322 324 324 324 324 321 321 324 320 319 327 334 340 343 340 339 341 339 339 340 339 339 339 339 339 339 339 339 339 340 340 341 342 343 343 343 344 345 345 349 353 355 355 355 354 354 353 353 352 352 353 354 353 353 353 353
319 319 320 320 321 321 321 322 324 324 324 325 324 324 326 322 320 326 333 339 342 339 339 340 338 339 339 339 339 338 339 339 338 338 338 337 337 339 340 340 340 340 340 342 343 343 345 348 352 354 354 353 353 352 352 352 352 353 353 353 353 353 353
319 320 320 319 318 319 321 321 322 324 323 324 323 322 322 320 321 327 333 337 340 339 339 338 337 338 338 338 338 338 337 338 337 337 336 335 336 336 337 337 337 337 338 338 339 340 341 343 347 351 353 352 352 352 352 352 351 352 352 352 352 352 351
321 322 323 325 321 319 318 320 322 323 323 325 323 320 321 321 323 331 337 338 338 339 338 338 337 337 337 337 337 337 337 336 336 335 336 335 335 334 334 334 335 335 335 336 336 337 338 340 342 345 349 351 352 352 352 352 352 351 351 352 352 352 349
322 322 323 324 323 320 319 319 321 322 322 324 322 319 322 324 324 331 341 341 337 337 338 337 337 336 336 337 337 335 335 334 334 333 334 335 334 333 333 332 332 333 333 333 333 334 335 337 339 341 343 347 350 352 351 351 351 351 351 351 352 352 351
322 321 321 322 322 321 321 320 320 321 321 322 321 321 325 324 324 331 342 340 337 339 338 337 337 336 336 335 335 333 333 333 333 333 331 331 332 332 331 330 330 330 331 330 331 331 332 334 338 340 340 342 345 348 349 349 350 350 350 351 352 352 352
320 321 320 320 321 320 320 321 321 321 321 321 321 322 323 324 330 338 341 339 339 338 337 337 336 335 334 333 333 332 331 331 331 330 330 330 329 329 329 329 329 328 328 328 328 329 330 331 334 338 339 341 343 344 344 346 348 349 349 350 351 351 351
318 320 319 319 320 319 319 320 321 320 320 320 321 323 323 325 332 337 338 339 340 339 336 336 335 333 333 332 331 332 330 330 329 329 329 328 328 328 327 328 327 326 327 327 326 326 327 326 328 331 334 336 340 343 344 344 346 347 347 348 349 349 350
317 318 319 318 318 319 317 318 320 319 318 320 320 322 324 324 329 334 337 337 338 338 336 335 333 333 333 331 331 331 330 329 329 328 327 327 327 327 326 326 326 325 325 325 325 325 325 324 324 325 327 328 331 336 341 342 344 346 345 346 347 348 350
316 317 319 318 317 316 316 317 320 320 319 320 320 322 324 323 327 335 337 336 337 337 335 333 332 332 332 331 330 330 329 329 328 327 326 326 326 326 326 325 325 325 324 324 324 325 325 324 323 322 324 324 325 329 333 334 337 342 344 344 346 347 348
316 317 318 318 316 315 316 320 323 322 320 320 320 322 325 326 329 334 336 336 336 335 333 333 333 332 331 331 330 329 329 328 327 326 326 325 325 325 324 324 325 324 324 322 323 324 324 324 324 322 322 323 323 325 327 326 329 335 338 339 341 344 346
316 317 318 317 316 317 321 324 324 324 324 323 323 325 327 327 331 334 335 334 334 334 333 332 332 331 330 330 329 329 328 328 327 326 325 324 324 324 323 324 324 323 323 321 321 323 323 324 323 320 320 322 322 323 324 322 324 331 334 335 335 335 339
318 318 317 318 319 321 324 324 323 323 325 324 325 326 326 327 329 332 334 333 333 333 332 332 331 330 329 329 328 327 326 326 325 325 324 324 323 322 322 322 322 322 322 320 320 321 322 324 323 319 319 321 322 323 322 320 321 327 332 334 332 326 329
318 316 316 320 322 322 323 325 324 323 324 324 324 324 325 326 328 331 332 332 332 332 331 330 330 329 328 328 328 326 324 323 323 323 323 322 322 321 321 320 321 322 320 319 320 320 321 322 321 319 320 321 321 323 323 321 321 323 326 329 325 318 319
318 316 316 318 320 319 321 324 324 323 323 324 324 323 324 326 328 329 331 330 330 330 329 330 329 328 328 328 327 325 323 322 321 321 321 321 321 320 319 319 320 319 317 317 319 319 320 321 320 319 320 320 321 323 323 321 322 322 323 324 319 314 314
318 317 316 316 318 321 323 324 324 323 323 323 322 321 322 326 327 328 329 329 329 328 328 328 328 327 327 327 327 325 322 321 322 321 320 320 319 318 318 318 318 317 316 317 318 318 319 319 318 318 319 320 322 323 321 319 321 323 323 322 318 314 313
316 317 315 316 321 325 326 323 322 320 321 321 319 317 319 324 327 326 327 327 326 326 326 326 326 326 325 326 325 323 321 321 321 320 319 318 318 317 317 317 315 315 316 317 317 317 317 317 317 318 319 320 321 321 318 319 322 324 323 322 317 314 313
314 315 314 317 323 326 324 321 319 318 318 317 317 318 321 325 326 325 325 325 324 324 324 324 324 325 325 324 323 321 320 320 319 318 318 317 316 316 316 315 315 315 316 316 316 316 316 316 316 317 318 319 320 319 318 320 322 321 319 317 315 313 313
314 315 313 316 323 326 322 319 319 317 316 317 319 323 324 324 323 324 324 323 323 323 323 323 323 323 322 322 321 319 318 318 318 317 317 317 317 316 316 315 315 315 315 315 316 316 315 315 316 317 317 318 317 315 316 319 321 321 319 316 314 313 312
315 315 313 315 321 324 321 320 319 317 317 321 324 325 324 322 322 323 322 322 322 322 322 321 321 320 320 320 319 318 317 317 317 317 317 317 317 316 316 315 316 316 315 315 315 315 315 315 316 316 316 316 315 316 318 320 321 321 319 316 313 311 311
315 315 316 317 321 323 321 320 320 319 320 323 324 323 322 321 321 322 321 320 321 321 320 320 320 319 319 318 318 317 316 316 316 317 317 317 317 317 316 316 316 316 315 314 313 314 315 316 314 313 314 316 318 320 321 319 316 315 314 313 313 313 313
317 318 319 320 321 322 321 320 321 321 322 322 322 321 321 320 319 320 320 319 319 319 319 319 318 318 318 317 316 316 316 316 317 317 317 318 318 318 317 317 317 316 315 314 313 312 313 313 312 312 312 314 317 318 316 313 311 310 311 312 314 313 312
318 318 320 321 322 321 320 320 322 322 321 321 320 320 320 319 318 318 319 319 318 318 317 317 317 317 317 317 316 316 316 317 317 317 317 317 317 317 317 317 317 316 316 315 315 314 311 310 310 312 311 311 311 311 309 308 308 309 309 309 310 310 311
317 317 319 320 321 320 320 320 321 321 319 318 317 317 318 319 318 317 318 319 319 317 317 316 316 316 317 316 316 316 316 317 317 317 317 317 317 317 317 316 316 316 316 316 316 315 313 310 309 308 308 308 308 307 306 305 307 308 310 311 313 314 316
317 317 318 319 319 319 319 319 320 320 318 317 317 316 316 318 318 317 317 318 317 317 316 316 316 315 315 316 316 317 316 317 317 317 316 316 316 316 315 315 315 315 315 315 315 315 315 313 311 309 307 307 306 305 305 306 306 307 310 313 316 318 319
319 318 318 318 319 318 319 318 319 319 318 318 318 317 316 317 318 318 317 317 316 316 316 315 316 316 315 316 317 316 316 316 316 315 315 315 315 315 314 314 314 314 314 315 315 315 315 315 314 313 312 310 309 308 308 310 311 311 312 313 314 316 318
321 320 320 320 320 319 318 318 318 318 318 318 318 318 317 317 317 317 317 317 316 316 316 316 316 316 316 316 316 316 316 315 315 315 314 314 314 314 314 313 313 313 313 314 314 314 314 314 315 315 315 314 314 313 314 314 314 314 315 315 314 315 318
321 321 319 319 320 321 320 319 318 318 317 317 317 318 318 317 317 316 316 316 316 316 316 316 315 316 316 316 315 315 315 314 314 314 314 313 313 313 312 312 312 312 312 312 313 313 314 314 314 314 315 315 315 315 315 315 315 315 316 316 316 316 318
321 320 319 318 319 320 320 320 319 319 318 317 317 317 317 317 317 316 316 316 316 316 316 316 315 315 315 314 314 314 314 313 313 313 313 312 312 312 311 311 311 312 312 312 312 312 313 313 313 314 314 314 314 314 315 314 315 315 315 315 316 316 317
319 320 319 318 318 319 319 319 319 319 318 318 317 316 316 316 317 316 316 316 316 315 315 315 315 314 314 313 313 313 313 313 312 312 312 311 311 311 311 311 311 311 311 311 311 312 312 312 312 313 313 313 313 313 314 314 314 314 314 315 315 316 316

ECMWFFLT2_850_thetae_081.txt.gz
Theta_e
327 328 327 327 327 326 329 327 325 329 331 329 326 322 323 322 322 330 339 342 344 345 346 347 347 348 350 351 350 351 353 354 354 355 356 356 357 357 357 356 356 357 358 356 355 351 350 352 352 351 350 349 350 350 350 351 351 351 349 343 336 333 333
326 328 327 327 328 328 328 324 326 330 329 329 328 324 324 321 322 334 341 339 340 342 343 345 346 348 349 349 350 350 351 351 350 352 354 355 356 357 358 358 357 357 356 355 355 353 352 352 351 352 352 351 350 351 351 351 352 352 350 344 339 336 334
326 327 327 327 328 329 329 327 328 329 325 326 327 324 324 321 325 341 345 340 341 342 342 343 343 347 350 348 348 347 347 347 346 349 352 352 353 355 356 356 356 355 354 354 356 355 354 354 352 352 353 353 352 352 352 352 352 352 350 346 344 342 339
324 325 325 324 326 329 330 328 328 327 325 326 326 324 325 322 328 345 347 343 346 347 347 350 346 345 348 347 344 343 343 344 344 348 351 351 350 351 352 353 353 353 354 356 356 355 355 354 354 353 353 353 353 352 352 352 353 354 353 350 350 349 345
322 322 323 323 324 327 327 326 324 324 325 326 324 325 324 322 330 342 344 343 347 348 348 352 351 345 342 342 342 341 341 342 342 346 349 349 348 348 348 349 351 353 354 356 356 354 354 354 354 355 354 353 353 351 351 351 353 354 354 353 352 352 351
318 320 324 324 324 325 325 326 325 323 324 323 321 326 326 321 329 337 341 345 349 347 344 347 348 343 340 341 341 341 341 342 342 343 345 345 346 345 345 346 348 350 352 354 355 355 354 354 354 355 354 353 352 351 351 352 353 354 355 355 354 354 355
320 321 323 322 323 324 324 326 327 325 325 323 320 323 326 324 329 337 341 344 349 347 343 344 344 341 340 341 341 340 340 341 342 341 341 343 344 343 343 344 346 347 348 351 354 354 354 354 354 355 355 354 353 352 353 353 354 356 356 355 354 354 355
327 323 324 324 323 323 323 324 325 324 324 323 324 326 328 329 334 341 344 346 349 347 343 342 341 340 341 340 340 340 340 340 340 340 340 341 341 341 341 341 343 344 346 349 352 353 353 354 354 354 354 354 353 353 354 354 354 356 357 355 353 352 353
326 324 325 328 326 322 322 323 323 324 323 323 328 331 332 335 336 339 344 346 348 347 345 343 341 340 340 339 339 339 339 339 338 338 339 340 340 339 339 339 340 342 344 347 351 352 353 354 354 354 355 354 354 354 354 354 354 355 357 356 355 355 355
327 328 328 328 327 324 322 321 322 324 322 323 328 328 331 338 339 340 342 344 345 345 345 346 343 339 338 339 339 339 339 338 336 337 338 338 338 338 338 338 338 339 342 344 347 350 352 353 354 355 355 354 354 354 354 354 354 355 355 355 355 356 356
327 330 332 330 327 323 320 320 321 322 322 324 329 329 332 340 344 343 342 342 342 342 342 343 341 337 338 339 339 339 338 337 336 336 336 336 336 337 337 336 336 336 339 341 342 345 347 349 350 352 354 355 354 354 354 353 353 353 353 352 353 353 353
326 327 327 324 324 321 319 319 320 321 323 323 326 327 330 339 347 346 344 342 341 340 341 340 339 338 338 338 337 338 337 337 336 335 334 334 333 334 334 334 333 334 335 337 340 341 342 344 346 348 350 352 352 352 352 352 352 352 351 351 352 352 352
324 324 324 322 322 321 320 321 320 321 322 321 323 324 325 335 346 346 345 343 340 340 340 340 339 338 337 336 336 336 335 336 336 335 334 333 332 331 331 331 331 331 332 333 336 338 338 339 342 343 344 347 349 349 350 350 350 350 348 349 351 351 352
322 322 322 322 321 320 320 321 321 321 321 320 321 322 325 337 345 345 344 344 342 339 339 339 338 336 335 335 334 334 333 334 334 334 333 331 331 330 329 328 328 328 329 329 330 333 334 335 337 339 340 342 344 345 346 348 348 347 346 348 350 351 351
321 320 321 322 320 321 320 319 320 321 320 320 321 320 328 341 344 342 343 344 342 340 338 337 335 333 333 333 332 332 331 330 330 330 330 329 329 328 327 327 327 326 326 325 325 327 329 330 332 335 338 339 340 341 343 344 344 344 344 347 349 350 351
321 320 320 320 320 320 318 318 322 322 320 321 321 321 329 338 342 341 342 342 341 340 336 334 333 331 331 331 330 329 329 328 329 328 327 327 327 326 326 326 326 326 325 325 324 324 324 325 326 328 331 334 335 336 339 340 342 343 345 346 347 348 349
321 320 319 319 320 321 319 320 323 324 324 322 319 322 330 336 340 342 341 341 340 337 334 333 332 330 330 330 329 328 328 328 327 327 327 326 326 326 325 324 324 325 325 325 324 323 323 323 323 324 326 327 327 329 333 337 340 342 343 344 345 346 347
322 322 322 321 320 319 320 324 324 324 325 324 321 326 333 337 339 341 341 339 337 335 333 333 332 330 329 329 328 327 327 326 326 326 326 325 325 325 323 322 322 323 324 324 324 323 322 322 323 323 323 323 322 324 330 335 336 337 337 339 342 344 345
322 324 324 321 321 322 323 326 325 324 325 326 327 330 335 337 338 339 339 337 335 333 332 332 331 330 329 328 328 327 326 325 325 324 324 324 324 324 323 321 321 321 322 323 323 323 321 320 321 322 323 323 321 322 328 332 335 334 328 326 331 337 341
322 323 321 320 324 327 328 327 326 326 327 328 329 331 333 337 337 337 338 338 335 333 332 332 331 330 329 329 328 328 327 326 324 323 323 323 323 323 323 321 320 320 321 322 322 322 321 319 319 320 322 323 322 321 324 327 329 329 322 316 318 323 329
322 321 321 324 328 328 328 329 327 326 327 328 329 330 332 335 336 335 336 337 334 332 331 331 331 330 329 329 328 326 327 326 324 323 322 321 321 322 321 319 318 318 320 321 320 321 320 319 319 320 321 322 322 322 322 323 324 323 320 316 314 315 317
324 322 321 325 327 326 328 331 327 324 324 323 327 332 331 331 333 334 334 334 332 331 331 331 330 328 329 329 327 324 324 324 323 322 321 320 320 320 319 318 316 316 318 319 318 319 319 318 318 320 321 322 322 319 320 323 323 323 322 318 314 314 313
323 322 321 321 325 329 332 331 325 323 322 321 324 329 329 329 332 333 333 332 331 331 330 330 329 330 332 331 326 322 322 322 321 321 319 318 318 318 318 316 315 316 317 317 317 317 317 317 318 320 320 321 320 317 317 321 323 324 323 318 314 313 313
320 322 320 321 327 332 332 327 321 319 319 320 324 326 327 328 330 331 331 330 330 330 330 329 329 331 333 331 325 322 322 321 320 319 318 317 317 317 316 315 315 316 316 316 316 316 316 317 318 318 318 319 318 315 316 319 322 322 321 317 315 313 311
319 320 317 321 328 330 327 323 319 316 317 320 323 326 327 326 326 327 329 329 328 329 328 327 326 326 326 325 322 321 321 319 318 318 317 317 317 316 316 316 316 315 315 315 315 315 315 316 317 316 316 316 314 313 315 318 320 320 320 318 316 313 310
319 318 317 322 330 328 322 320 316 314 320 324 324 325 326 323 322 324 326 326 326 326 326 324 322 321 321 321 320 319 319 318 317 317 317 317 316 316 316 316 316 315 315 314 313 314 316 316 315 314 314 313 313 314 317 319 318 317 315 313 312 311 309
319 318 316 321 329 326 320 320 319 318 323 327 326 324 323 322 322 322 322 324 324 324 323 322 320 319 319 318 318 318 318 317 317 317 317 317 316 316 317 317 316 316 314 313 313 315 317 316 314 313 314 315 316 316 317 316 314 311 309 308 308 308 308
320 321 320 322 326 324 319 322 324 323 324 326 324 322 322 322 321 321 321 322 322 321 321 320 319 319 318 317 317 317 317 317 318 318 317 317 317 317 317 317 316 315 314 314 315 317 317 316 315 316 316 317 317 315 313 311 308 307 307 307 306 306 307
322 325 325 323 322 322 321 322 324 323 323 323 322 321 321 320 320 320 320 319 320 320 320 319 319 318 317 317 317 316 316 317 318 318 318 317 317 317 317 317 316 314 314 315 316 317 316 315 316 316 316 315 315 314 312 308 306 307 307 307 307 307 308
321 322 323 322 321 321 322 322 322 322 322 321 321 321 320 319 319 319 319 318 318 319 318 318 318 317 316 316 316 316 317 318 318 318 318 317 317 317 316 316 315 313 313 313 314 315 315 314 314 314 313 313 313 313 311 309 309 311 311 311 311 311 310
321 321 323 323 322 322 322 321 322 321 320 320 320 320 320 319 318 319 319 318 318 317 317 317 317 317 317 317 317 317 317 316 317 317 318 317 316 316 315 314 314 313 313 313 314 313 313 312 312 311 312 312 312 312 311 312 314 315 314 313 314 313 312
324 322 322 321 319 320 321 321 322 320 319 318 317 318 319 318 317 318 319 318 318 317 317 317 317 317 317 316 316 316 315 316 317 317 317 316 315 315 314 313 314 313 313 313 313 311 311 310 311 311 312 313 313 313 314 315 315 315 315 314 313 313 312
324 323 322 321 321 321 320 320 321 320 318 317 316 317 317 317 317 318 318 318 318 317 316 316 316 316 316 316 316 316 316 317 317 316 315 315 314 314 314 313 313 313 313 312 311 311 311 311 311 312 312 312 313 314 315 316 315 315 315 314 313 313 313
324 324 322 322 325 325 322 320 320 319 318 317 316 316 316 317 318 318 317 317 317 316 315 315 315 315 316 316 316 316 316 316 315 315 314 314 314 313 313 313 312 312 311 311 311 312 312 312 312 312 312 312 313 313 313 314 314 314 314 314 313 313 313
323 323 320 319 321 322 321 319 319 319 319 319 318 317 317 317 318 319 317 317 316 315 316 316 315 316 316 316 316 316 315 315 314 314 314 314 313 313 312 312 311 311 311 311 312 311 311 311 311 312 312 312 312 312 312 312 312 312 312 313 313 313 313
321 321 320 320 320 319 319 318 318 318 319 319 319 318 318 317 317 318 317 317 316 316 316 316 316 316 315 315 315 315 315 314 314 314 313 313 312 312 312 311 311 311 311 311 311 310 310 311 311 311 311 310 310 310 311 311 312 312 312 312 313 313 312
320 320 320 320 320 319 319 318 318 318 319 319 319 318 318 318 318 318 317 317 316 316 316 316 316 315 315 315 315 315 314 313 313 313 312 312 312 311 311 311 311 311 311 310 310 310 310 310 310 310 310 310 310 310 310 311 312 312 312 312 312 312 311

ECMWFFLT2_850_thetae_084.txt.gz
Theta_e
328 326 327 328 326 330 331 326 329 332 334 338 333 328 327 330 339 343 343 344 346 348 348 349 354 353 349 350 351 352 352 353 353 353 354 353 355 356 355 356 354 353 352 349 346 346 346 346 346 346 347 347 348 347 347 347 347 346 347 343 336 331 331
328 325 327 327 325 330 329 323 328 333 331 333 336 330 325 333 344 344 344 346 345 346 349 349 353 355 352 353 353 351 351 352 353 353 353 354 354 355 353 353 353 352 352 351 348 347 346 347 347 347 348 348 348 348 347 348 347 347 348 348 343 335 331
328 326 326 326 325 328 328 326 328 330 327 329 332 328 324 334 345 347 345 345 343 345 347 348 352 354 352 351 349 347 348 350 352 353 353 353 353 353 352 351 353 353 353 351 349 348 348 348 348 348 348 349 348 348 348 348 348 348 348 349 349 342 334
325 328 327 326 327 327 328 329 329 329 332 333 328 326 328 338 347 348 345 344 346 351 351 351 352 350 347 347 344 343 346 348 350 350 350 350 348 348 349 351 354 354 353 353 351 350 349 348 349 349 349 349 348 348 349 348 348 349 349 350 351 348 339
322 323 327 328 329 330 328 328 326 325 327 329 326 325 328 338 347 347 345 345 347 349 350 349 348 345 344 344 341 341 344 345 346 346 347 347 346 347 348 350 353 353 353 354 353 351 349 349 350 350 349 349 349 348 348 348 349 349 350 350 351 350 347
320 322 326 327 329 330 327 325 327 326 326 326 325 324 326 334 342 342 343 346 346 345 345 344 343 343 343 342 340 341 341 342 343 343 343 344 344 348 350 351 352 353 353 354 353 352 350 350 351 351 351 350 349 349 349 351 351 350 351 354 353 353 352
322 321 324 324 323 325 325 325 325 328 328 328 326 324 327 335 339 339 344 347 346 344 344 343 341 341 342 340 340 340 339 340 341 340 341 342 343 346 348 350 351 353 354 354 354 354 352 351 351 351 351 351 351 351 352 353 353 352 354 355 354 353 351
332 326 326 328 326 324 325 324 324 324 323 326 330 330 335 341 341 342 347 348 347 344 342 342 341 340 340 339 339 339 338 339 339 340 341 342 343 345 346 348 350 351 354 354 355 355 354 354 353 353 353 353 353 353 353 354 351 352 354 354 352 351 350
337 333 332 331 329 327 324 322 322 323 321 325 332 335 343 345 341 343 348 348 346 343 341 341 340 340 340 339 338 339 338 338 338 340 340 340 342 343 345 347 348 349 352 353 354 355 354 354 354 353 353 352 352 352 352 351 349 351 353 354 354 354 353
334 331 329 329 331 329 325 322 321 321 321 325 330 335 345 346 341 343 347 346 345 343 342 341 340 339 340 338 337 337 338 337 337 338 339 339 341 342 344 346 346 347 350 351 353 353 353 353 354 354 354 354 353 353 352 351 352 353 354 354 355 355 354
339 339 338 337 332 325 321 319 319 320 321 326 335 340 343 343 344 347 346 343 344 343 342 342 340 339 339 338 336 337 337 336 336 336 337 337 338 339 341 343 342 343 345 348 350 351 351 352 353 352 352 351 351 352 353 352 353 355 355 353 354 355 355
331 336 338 331 324 321 319 319 319 320 320 325 337 342 340 340 345 348 347 343 343 343 342 341 340 339 339 337 336 336 335 334 334 334 335 335 335 336 338 340 340 340 341 344 346 347 347 348 349 348 348 347 346 348 352 352 353 354 353 353 354 354 354
321 325 326 324 323 321 320 320 321 322 320 320 328 336 340 346 348 346 345 344 342 342 341 340 339 338 338 337 336 335 334 333 332 332 332 332 332 333 334 336 337 338 338 340 342 343 343 344 344 345 346 345 345 346 349 349 351 351 352 352 352 352 352
322 322 320 322 323 320 319 321 323 323 322 322 329 335 341 349 349 344 342 343 343 342 340 338 338 338 337 337 336 335 334 333 332 331 330 329 330 330 330 331 332 334 335 337 339 341 342 342 341 342 342 343 343 345 348 349 349 350 350 351 351 350 351
323 322 320 320 322 320 320 323 324 325 324 324 334 341 341 343 344 342 341 343 344 341 338 336 337 337 336 336 335 335 334 332 331 330 329 328 327 327 327 327 327 329 332 333 333 334 337 339 340 339 339 339 340 343 346 347 348 349 349 349 349 350 351
323 320 319 320 322 323 323 323 323 325 325 321 327 339 343 341 341 341 341 344 343 338 335 335 336 334 334 334 333 333 331 330 329 328 327 327 327 326 326 325 324 326 327 327 326 326 329 333 335 335 336 338 339 341 344 345 345 346 347 348 349 349 350
326 320 319 324 328 327 324 324 323 324 329 328 330 339 341 339 339 341 342 342 339 336 335 335 334 332 331 330 329 329 328 327 327 326 326 326 326 326 326 325 324 324 324 324 323 323 325 327 327 327 332 337 339 340 341 342 344 344 345 346 347 348 349
325 323 326 332 330 324 322 325 325 326 331 335 338 342 340 337 339 340 339 338 337 335 333 332 331 330 328 328 327 327 327 326 326 325 325 325 325 325 325 325 325 324 323 323 323 323 323 324 323 323 329 334 336 337 334 332 336 341 343 344 345 345 346
322 329 333 330 324 323 325 327 326 327 330 335 339 341 338 338 337 336 336 336 334 332 329 328 328 327 327 327 327 327 327 326 326 325 324 323 324 324 325 324 324 323 322 321 322 322 323 323 322 323 326 328 330 331 328 322 322 328 334 338 341 342 342
323 328 331 328 323 325 332 333 328 328 329 334 341 342 338 336 335 333 335 334 330 328 327 326 326 325 325 326 325 326 326 326 326 324 322 321 321 322 323 323 323 324 322 320 320 321 322 323 322 322 324 324 324 324 324 320 317 317 320 326 332 336 339
324 325 329 334 331 327 330 333 329 327 326 329 340 343 337 333 333 332 332 332 330 328 328 327 326 325 325 324 324 325 325 324 324 324 322 320 320 321 321 321 322 323 321 319 319 319 320 322 322 322 323 323 323 322 322 322 319 315 314 315 319 324 329
328 328 329 333 331 326 331 336 329 323 320 322 334 341 336 332 330 329 330 331 330 329 329 329 327 327 328 327 324 323 323 323 323 323 323 321 320 319 319 319 320 320 319 318 318 318 319 320 321 321 322 323 324 323 323 323 321 318 314 313 313 313 316
326 327 325 326 326 327 335 340 330 318 316 319 328 336 334 330 328 328 329 330 329 329 330 328 327 331 333 330 325 322 321 322 322 322 321 320 319 317 318 317 318 318 318 317 317 318 318 319 320 320 320 320 321 322 323 323 320 317 314 313 312 312 312
324 324 321 323 328 330 334 334 325 315 316 321 325 328 328 326 326 328 329 329 329 329 329 328 329 331 330 327 324 321 320 320 321 320 319 318 317 316 317 317 317 317 316 317 316 317 317 318 319 319 318 317 316 316 319 319 316 314 313 312 312 311 311
324 322 317 320 330 334 329 324 318 314 316 321 325 327 326 323 325 328 328 328 328 328 328 328 329 328 325 323 322 321 319 319 318 318 317 317 316 316 316 316 317 316 316 315 315 316 316 317 317 318 317 315 313 312 313 314 313 312 311 310 309 310 310
323 323 318 319 329 330 323 318 316 315 317 320 324 326 323 321 323 328 328 328 329 328 327 328 328 324 321 321 320 319 318 318 317 317 317 316 316 315 315 315 315 315 315 314 314 315 316 316 316 315 314 313 312 313 313 313 312 311 309 308 307 308 309
324 324 318 318 324 324 320 320 320 320 321 323 323 321 319 321 325 328 328 328 328 328 326 325 324 322 319 319 318 317 317 316 316 316 316 316 316 315 315 315 315 315 314 313 313 314 315 315 314 313 312 312 313 315 316 314 311 308 306 306 306 307 308
323 326 324 323 322 322 321 321 322 322 323 324 322 320 319 321 324 327 328 328 328 327 324 321 320 319 318 318 318 317 317 316 316 316 316 316 316 316 316 316 315 314 313 312 313 314 314 313 313 313 313 312 312 313 313 311 308 306 305 305 306 306 307
323 327 330 326 321 320 322 322 322 322 322 321 320 320 319 321 322 324 325 325 323 323 322 320 319 318 318 318 317 317 317 317 317 317 317 317 316 316 316 315 315 313 312 311 311 312 312 312 311 311 311 310 309 308 309 308 307 307 306 306 305 305 306
322 323 323 320 318 321 322 321 321 321 320 320 320 319 319 320 321 321 321 320 319 319 319 319 318 317 318 317 317 317 317 317 317 317 317 317 317 316 315 315 313 312 310 310 310 310 310 310 309 309 309 308 307 307 307 308 310 310 309 308 307 306 306
321 321 321 318 319 321 322 320 320 320 320 320 320 319 319 319 319 320 320 319 318 317 317 318 317 317 317 317 317 317 317 317 317 317 317 317 316 316 315 313 312 310 309 309 310 309 309 309 309 308 309 309 310 310 311 311 311 311 311 310 308 307 306
322 322 321 319 318 320 321 320 320 318 317 319 319 318 318 318 318 319 319 319 319 318 317 317 317 317 317 317 317 318 318 317 317 317 317 317 316 315 314 312 311 310 310 310 310 309 309 310 310 310 310 311 311 313 314 314 313 313 312 312 311 309 308
324 323 320 318 318 320 320 320 320 318 316 317 318 318 318 318 318 318 317 318 318 318 317 317 316 316 316 316 317 317 317 317 317 317 316 316 315 313 312 312 312 312 311 310 310 310 311 311 311 311 311 311 311 312 313 313 314 314 313 313 312 311 310
326 325 320 318 320 322 321 319 319 319 318 316 316 317 318 318 318 317 317 317 317 317 317 317 316 316 316 316 316 316 316 316 316 316 316 314 313 313 312 312 312 312 311 311 311 311 311 311 311 310 310 310 310 310 311 311 311 311 311 311 311 310 310
327 323 320 318 320 321 320 318 318 318 319 318 317 317 317 317 317 317 317 317 317 316 316 316 316 316 316 316 316 316 316 316 316 315 315 314 313 313 312 312 312 311 311 311 311 311 311 311 310 310 309 309 309 308 308 309 309 310 310 310 310 310 309
322 320 320 320 320 319 319 319 318 318 318 318 318 318 318 318 317 316 317 317 316 316 315 315 315 315 315 315 316 316 316 316 315 314 314 313 313 312 312 312 311 311 311 311 311 310 310 310 310 309 309 309 308 308 308 309 309 310 310 310 310 310 309
319 320 320 320 320 319 319 319 319 318 317 318 318 318 318 318 318 317 317 316 316 316 316 315 315 315 315 315 315 315 315 315 314 314 314 313 313 312 312 311 311 311 311 311 310 310 310 310 309 309 308 308 308 309 309 309 309 309 309 309 309 309 308

ECMWFFLT2_850_thetae_087.txt.gz
Theta_e
327 326 325 327 326 326 326 324 326 332 334 334 333 328 328 339 345 343 344 348 352 352 350 350 352 352 351 352 351 352 353 353 353 353 352 351 350 352 351 351 352 346 342 342 343 342 342 343 343 343 343 344 344 344 344 343 339 338 337 335 333 333 332
325 323 324 326 324 327 328 324 327 329 325 330 336 329 332 345 348 345 347 350 351 349 349 352 356 355 352 352 352 351 353 353 353 351 351 350 351 352 352 351 351 348 343 342 343 343 343 343 343 343 344 344 345 344 345 345 343 341 340 340 337 333 332
325 325 326 325 323 325 329 326 326 328 324 326 330 328 334 345 348 347 347 347 346 347 348 351 354 353 351 351 351 351 351 352 350 349 350 350 351 352 353 351 351 349 345 343 343 343 343 343 343 344 344 344 345 345 345 346 346 345 345 344 343 339 335
322 329 329 327 326 324 327 329 327 327 330 330 327 327 336 345 346 347 347 347 348 348 349 352 351 348 349 350 350 349 349 349 349 349 350 350 351 352 352 352 352 350 347 345 343 344 344 344 344 344 344 345 345 345 346 346 347 347 346 345 345 344 342
322 326 328 328 331 327 326 329 326 324 326 326 323 324 333 344 347 346 346 348 349 346 346 350 349 345 346 347 345 343 344 346 348 349 350 351 351 351 352 352 353 352 350 348 345 344 344 345 346 345 345 346 345 345 347 347 347 346 346 346 346 345 346
320 323 325 325 328 329 330 328 324 324 323 324 325 321 325 341 346 342 345 350 350 345 344 346 345 343 344 343 341 341 341 343 345 347 349 350 351 351 351 352 353 353 352 351 349 347 346 345 346 346 346 347 346 347 347 347 346 346 346 347 346 346 346
324 323 323 322 322 324 328 324 322 325 325 326 330 326 327 339 343 341 346 351 349 345 345 345 342 341 342 341 340 340 339 341 343 346 347 348 350 351 351 350 351 352 352 353 352 350 349 348 347 348 348 347 347 348 348 347 346 346 347 347 346 346 347
336 330 326 326 325 324 325 323 322 323 320 323 332 335 339 345 344 346 349 350 348 344 343 342 339 339 340 339 340 339 339 341 343 345 348 349 350 351 351 351 351 352 352 352 353 352 351 351 350 349 349 348 347 348 349 348 347 347 348 347 347 347 347
334 332 330 327 326 326 327 324 321 321 322 326 332 338 348 348 343 346 348 347 347 345 343 340 338 339 339 338 339 338 338 340 342 345 347 347 349 350 351 352 352 352 352 353 353 352 351 351 351 350 350 349 348 348 350 350 348 348 348 347 348 348 348
327 327 327 324 323 326 328 325 321 321 322 325 329 338 349 348 341 343 346 346 346 345 343 342 339 338 337 337 338 338 338 339 340 342 344 345 347 348 349 351 351 352 352 351 350 350 350 352 351 350 349 350 350 349 350 351 349 348 349 348 349 348 349
329 329 332 332 328 323 322 322 323 325 323 326 336 341 345 347 344 345 347 345 345 345 343 342 339 337 337 336 336 336 336 337 337 339 341 343 345 346 347 349 349 349 349 349 348 348 349 350 351 352 351 350 351 350 350 350 348 349 351 350 350 351 351
323 325 329 330 326 321 320 322 325 326 323 330 344 341 336 342 345 346 347 345 345 345 343 342 340 337 336 336 336 335 335 335 336 337 338 340 342 344 345 347 347 347 347 346 346 345 347 348 350 352 352 351 352 351 350 350 350 351 351 350 351 353 353
319 320 320 321 322 322 323 324 324 326 328 335 345 342 339 344 345 346 346 344 344 344 342 341 339 336 335 335 335 335 335 334 334 334 336 337 338 340 342 343 344 345 345 344 343 343 344 346 348 350 351 351 351 351 352 352 352 351 350 349 350 352 353
321 320 319 321 322 323 325 325 323 325 330 339 345 343 344 347 346 345 344 343 345 344 340 339 338 336 335 334 334 334 334 332 332 333 332 333 335 337 338 339 340 341 341 341 341 341 342 344 344 345 347 348 349 351 352 352 350 350 351 351 352 352 351
323 321 319 320 322 324 326 325 324 324 328 338 344 345 346 346 344 342 342 344 345 341 338 337 336 335 334 333 332 332 332 331 331 330 329 329 331 334 335 336 337 338 338 339 340 340 340 341 343 345 346 347 347 349 349 349 348 349 351 352 352 351 351
324 321 320 320 324 326 327 325 324 324 326 329 335 342 346 345 343 342 343 345 344 339 337 336 335 335 333 332 332 331 330 330 329 328 327 328 329 330 332 333 333 334 335 336 338 338 339 341 343 345 346 347 346 348 348 348 348 349 349 349 348 348 349
327 322 321 326 330 329 330 328 323 323 328 332 336 342 344 341 340 343 345 345 341 337 336 336 335 334 333 332 331 330 329 328 327 326 326 326 326 326 327 327 328 328 329 331 333 335 337 339 339 341 342 343 343 345 347 348 347 348 348 348 348 348 348
334 327 326 331 333 329 328 329 324 323 330 338 340 341 339 338 340 342 342 341 338 337 336 336 335 334 333 332 330 329 329 328 326 326 325 325 325 324 324 324 324 325 325 326 327 329 334 338 339 340 341 342 343 344 345 345 346 346 347 347 348 348 348
332 335 335 327 326 328 327 328 326 325 329 335 337 336 334 334 339 340 340 338 336 334 333 333 332 331 330 330 329 328 329 328 327 326 325 325 324 323 323 323 323 323 324 324 324 326 332 337 337 336 334 333 336 339 342 343 344 344 344 345 345 346 345
323 334 337 329 325 327 329 332 328 324 327 331 338 342 335 331 336 338 337 335 330 327 327 328 328 328 327 327 327 327 328 327 327 326 325 325 324 323 322 322 322 323 322 323 323 325 330 333 333 330 325 321 322 326 332 337 340 340 341 342 342 342 342
323 330 332 331 331 329 332 336 329 323 322 322 332 343 337 329 332 333 332 330 326 324 325 325 326 326 325 325 324 325 326 326 326 326 325 324 324 322 321 321 321 322 322 322 323 323 325 327 327 326 323 320 318 318 320 324 330 334 337 338 337 336 337
329 334 330 328 328 329 334 337 327 321 318 315 323 340 340 331 329 329 328 328 325 323 324 324 324 326 326 326 324 323 324 324 324 324 322 322 323 323 321 320 320 320 321 322 323 323 323 323 324 324 323 321 321 320 318 317 318 322 326 329 330 330 330
329 334 330 325 324 326 333 335 325 318 316 314 322 340 343 333 328 328 328 327 325 324 324 324 324 327 329 328 324 322 322 322 321 322 321 320 321 322 321 320 319 319 319 320 321 323 323 322 323 323 323 322 321 320 320 319 316 314 315 316 317 318 319
329 330 326 324 326 327 329 329 323 317 316 316 323 336 338 330 327 328 328 327 327 326 324 325 327 327 327 325 323 322 322 321 320 320 320 319 320 321 321 319 319 318 318 318 319 320 321 321 321 321 321 321 320 318 318 317 315 313 313 312 312 312 312
326 325 318 317 324 327 326 325 321 317 317 318 323 329 328 325 327 329 327 327 328 326 325 327 329 325 323 322 322 323 322 321 319 318 318 319 319 319 319 318 318 318 318 317 317 317 318 319 319 319 318 317 316 315 315 315 314 312 311 311 310 310 310
319 322 320 317 322 324 321 320 319 317 318 320 324 324 321 321 327 329 327 327 327 326 326 326 327 325 323 322 322 323 322 321 319 317 317 318 318 318 317 317 317 317 316 316 315 314 315 316 316 317 316 314 313 312 312 312 312 311 310 309 309 308 309
320 325 323 320 322 322 319 320 322 320 320 321 322 320 318 321 326 329 328 328 326 326 326 326 325 326 324 323 322 321 321 320 318 317 317 317 317 317 316 316 316 316 315 314 313 312 312 313 313 313 313 311 310 309 310 311 311 309 308 307 307 307 307
324 328 326 322 322 321 320 321 321 322 323 322 321 320 320 321 324 327 329 328 326 326 326 326 326 325 322 320 321 320 318 318 317 317 317 317 316 316 316 315 315 315 315 313 312 312 312 311 310 310 310 309 308 308 309 309 309 307 306 306 306 306 306
320 324 327 324 320 318 320 321 320 321 321 320 320 321 321 322 324 327 328 328 327 327 327 325 324 322 320 319 319 318 317 317 317 317 317 317 316 316 315 315 315 315 315 313 311 311 312 312 310 309 308 309 309 308 307 307 306 306 305 305 305 305 306
317 319 320 319 318 319 320 319 319 320 319 319 320 320 321 323 325 327 327 328 327 326 324 322 319 318 317 317 317 317 317 316 316 316 317 317 316 316 316 316 315 315 313 311 310 311 312 312 311 310 309 308 308 308 307 306 306 305 305 305 305 305 305
320 320 319 317 318 320 319 317 318 319 319 319 319 319 320 322 324 326 328 328 327 325 324 323 320 317 316 316 317 316 316 316 316 317 317 317 317 316 316 316 315 314 312 310 309 309 310 310 310 309 308 308 308 308 308 308 308 306 306 306 306 306 306
322 322 321 318 318 319 318 318 318 318 318 319 318 318 320 319 322 325 327 327 326 325 323 324 322 319 317 316 316 316 316 316 316 316 317 317 316 316 316 315 314 312 310 309 308 308 308 309 309 309 309 309 309 310 310 310 311 310 309 308 307 307 307
323 321 319 317 318 320 319 318 318 317 318 318 318 318 319 319 320 322 323 322 323 322 322 323 321 318 317 316 316 316 316 316 317 317 317 317 316 316 315 314 313 311 310 308 308 308 308 309 309 310 309 309 310 310 310 310 311 311 310 309 308 307 307
327 324 319 317 319 320 319 318 318 318 317 317 317 317 317 318 319 319 318 318 318 318 319 319 318 317 317 316 316 317 317 317 317 317 317 317 316 316 315 313 312 310 309 309 309 309 309 310 310 310 309 309 309 309 309 308 308 308 309 308 307 307 307
326 322 319 318 319 320 319 318 318 318 317 318 317 317 317 317 317 318 318 318 317 317 317 317 317 317 317 317 317 317 317 317 317 317 317 317 316 315 313 312 311 310 309 310 309 309 309 310 310 310 309 309 309 308 308 307 307 308 308 308 308 308 307
321 319 319 319 319 319 318 318 319 318 318 317 317 317 317 317 316 316 317 317 317 318 317 317 317 317 317 317 317 317 317 317 317 317 317 316 315 313 312 312 311 310 310 310 310 309 309 309 310 309 309 309 309 308 307 307 307 307 307 307 307 307 306
319 319 319 319 319 319 319 319 319 318 318 318 317 317 317 318 317 316 316 316 316 317 317 317 317 317 317 317 316 316 317 317 316 316 316 315 314 313 312 311 311 311 311 311 310 310 310 310 310 309 309 309 308 307 307 306 306 306 306 306 306 306 305

ECMWFFLT2_850_thetae_090.txt.gz
Theta_e
322 322 321 321 321 320 322 328 335 339 342 344 341 336 335 339 342 344 343 347 354 351 345 348 350 349 349 350 350 351 352 351 350 349 348 349 349 350 350 347 344 341 341 342 342 342 342 342 343 342 342 341 341 342 342 342 342 340 337 334 334 335 336
321 319 321 321 321 323 324 324 328 330 330 335 340 338 340 342 340 341 344 349 353 349 345 348 353 354 353 352 351 351 351 351 350 349 348 349 349 349 349 349 348 345 342 341 342 342 342 342 342 342 341 342 342 342 342 342 342 342 339 335 334 334 334
322 323 323 322 321 322 325 325 325 327 328 330 331 335 341 342 341 346 348 346 348 349 350 352 352 352 354 355 353 352 351 351 351 349 348 348 348 348 348 349 349 349 347 344 342 342 342 342 342 342 342 342 342 342 342 343 343 343 341 338 336 334 333
320 326 327 324 324 322 323 324 322 326 333 332 327 330 340 344 344 349 349 345 349 353 353 354 351 348 351 354 354 352 352 351 351 349 349 349 347 347 348 348 348 349 349 348 344 342 342 342 343 343 342 342 342 342 343 343 343 343 343 342 339 337 335
320 326 327 325 328 325 323 324 323 323 326 327 326 327 335 346 349 348 346 346 352 351 347 349 349 346 348 352 353 352 350 350 351 350 350 350 348 347 347 347 347 347 348 349 346 343 342 342 342 342 342 342 342 342 343 343 343 343 343 343 341 340 340
319 323 325 324 325 327 330 328 324 326 325 325 327 324 327 343 349 346 345 349 351 346 342 344 345 345 346 348 349 350 350 350 350 350 351 350 350 349 348 348 348 347 347 349 348 345 343 342 342 343 343 342 342 342 343 343 343 343 344 344 344 343 344
324 323 323 320 319 322 327 325 322 327 326 328 333 329 330 340 344 343 343 347 347 342 341 343 343 343 345 345 347 348 348 348 348 349 350 350 351 351 351 350 349 349 349 349 349 346 344 344 343 343 344 343 343 343 343 343 343 343 344 345 345 345 345
330 329 327 323 321 323 324 323 322 321 320 327 336 339 343 344 345 346 343 344 347 342 339 341 341 342 342 342 345 346 344 345 347 348 349 349 351 351 351 351 351 351 351 350 350 348 346 345 344 344 344 344 344 343 343 343 343 344 345 345 346 346 345
320 326 330 326 325 328 326 325 323 321 325 334 335 340 349 348 344 345 342 342 347 342 338 340 339 340 341 340 342 343 341 343 344 346 347 348 349 350 350 351 351 351 352 351 351 350 348 346 345 345 345 344 344 344 344 344 344 344 345 345 345 346 346
322 325 328 325 324 327 326 325 325 324 328 337 338 339 346 345 341 342 343 345 346 341 339 340 339 339 339 338 340 340 340 341 342 343 346 347 349 350 349 350 350 350 351 351 352 352 351 349 348 347 346 345 344 344 344 344 344 345 346 346 346 346 346
327 326 329 331 328 325 324 324 325 324 324 333 343 341 340 342 341 343 348 347 345 344 341 340 339 338 338 338 338 338 337 338 339 341 344 346 347 348 348 349 349 349 350 350 351 351 352 351 350 350 348 345 345 345 345 344 345 346 347 347 347 346 346
320 321 326 329 327 323 322 324 325 326 329 337 343 337 333 339 341 344 347 346 345 345 342 339 340 339 338 338 337 336 335 336 338 341 343 344 344 345 346 347 347 348 349 348 349 350 351 351 351 351 350 349 348 347 346 346 346 347 347 348 348 348 347
319 319 319 321 325 324 322 323 323 326 335 344 345 341 338 340 342 344 347 344 344 345 341 339 339 338 338 338 335 334 335 336 339 342 342 342 343 344 345 346 346 347 348 348 348 348 349 350 350 351 351 351 350 349 349 349 348 348 348 349 350 351 351
321 320 319 319 324 325 324 324 321 323 333 342 347 347 344 343 343 344 343 343 344 343 340 338 338 338 338 336 334 334 334 335 338 341 341 341 342 343 343 344 345 346 347 348 348 348 347 347 349 350 350 350 350 350 350 349 349 349 349 349 349 350 352
324 322 322 320 322 326 325 324 322 322 329 337 342 344 345 346 345 340 340 345 345 340 338 337 336 336 335 334 333 332 331 334 337 338 339 339 340 341 341 341 342 344 345 346 346 346 346 346 347 349 349 349 350 351 350 350 350 350 350 349 348 349 351
327 324 325 324 326 330 326 323 323 324 327 332 333 335 340 344 345 342 342 347 344 338 336 336 335 334 334 332 331 330 330 333 336 336 337 338 338 338 338 339 340 341 343 343 343 344 345 345 346 346 346 347 349 349 349 349 349 349 349 348 348 349 349
327 326 328 329 333 334 329 324 322 323 329 335 336 337 337 337 339 342 343 343 340 336 335 335 334 333 332 331 330 330 330 331 334 335 335 335 336 336 336 337 338 339 341 342 342 343 344 345 346 346 346 347 348 348 349 348 347 347 347 347 347 347 348
331 332 332 333 336 334 327 323 322 324 329 336 339 338 334 332 335 338 339 340 338 336 335 334 333 332 331 331 331 332 332 331 331 332 332 332 331 331 332 335 336 337 338 340 341 342 343 343 344 346 346 347 347 347 347 347 346 346 347 347 347 347 347
331 335 336 331 332 331 326 323 323 323 324 326 333 335 330 331 335 336 336 337 335 334 334 333 332 331 331 331 331 330 331 332 331 330 328 328 327 327 329 330 332 333 334 336 339 340 340 340 341 343 344 345 346 346 346 346 345 345 345 346 346 346 345
328 335 335 331 329 328 328 328 324 321 319 319 331 340 333 330 334 336 334 332 329 330 331 331 330 330 330 329 328 328 328 330 331 329 326 326 326 326 327 327 327 328 330 335 337 338 338 338 339 341 343 343 343 343 343 343 343 343 344 344 343 343 344
326 332 331 332 330 324 327 331 323 319 319 316 324 338 337 329 329 331 330 328 326 326 327 328 328 328 327 326 325 325 326 327 328 327 325 325 325 325 325 325 325 325 329 334 336 335 333 331 330 332 335 338 341 340 339 338 338 339 340 340 340 340 342
326 331 330 330 329 327 329 330 323 319 318 314 318 333 339 331 326 326 326 326 325 324 325 326 327 327 328 327 324 324 325 325 325 325 324 324 324 323 323 324 323 325 329 333 334 332 328 324 322 321 323 327 332 334 335 334 335 336 336 336 337 337 338
327 333 332 327 328 330 330 328 323 320 317 314 318 330 337 331 326 325 325 324 324 324 325 325 326 328 329 328 324 323 324 325 325 324 323 323 323 322 322 322 323 323 325 327 328 327 325 323 322 321 320 320 321 323 325 326 327 329 330 329 329 329 332
331 332 327 324 326 328 327 325 323 320 317 317 324 333 333 328 326 326 324 323 324 325 325 325 327 328 329 327 323 322 324 325 325 325 323 321 321 321 321 322 323 323 323 323 323 323 323 323 323 323 322 321 320 318 318 318 318 319 319 318 318 317 319
329 325 318 316 321 324 323 322 321 318 317 320 329 333 327 323 326 327 324 324 325 325 325 328 328 328 328 325 323 323 324 324 324 324 322 320 320 320 320 321 322 322 323 323 323 322 322 322 322 322 322 321 319 317 315 315 316 314 313 313 313 311 311
319 320 320 318 320 320 318 319 320 318 318 321 325 325 321 321 326 327 325 325 325 325 326 328 327 327 326 324 323 323 323 323 323 323 322 321 320 319 319 319 320 320 320 321 322 322 321 321 321 321 320 319 317 315 312 312 313 313 311 311 310 309 308
317 324 327 323 322 319 317 320 322 321 320 321 320 320 319 321 325 327 326 325 325 326 326 326 325 326 324 324 323 322 321 321 321 321 322 322 321 319 319 318 318 318 318 317 318 319 319 320 319 319 318 317 315 313 311 310 311 311 311 310 308 307 307
323 329 329 324 321 318 317 320 321 320 321 320 319 320 321 321 323 326 327 326 325 326 326 324 324 325 323 322 322 320 320 320 320 320 321 321 320 319 318 318 317 316 316 315 314 314 314 315 315 315 314 313 311 310 309 310 310 310 309 307 306 306 306
320 324 327 323 319 317 317 318 319 319 319 319 319 320 320 321 322 324 326 327 326 325 325 323 323 324 323 322 320 318 318 318 318 319 319 319 319 318 317 317 316 316 315 315 314 312 311 310 310 310 309 309 309 309 309 310 309 309 308 306 305 305 305
317 317 319 318 317 317 317 317 317 318 318 318 319 319 319 321 323 324 325 327 327 326 325 324 324 324 323 321 318 317 317 317 317 318 318 317 317 317 316 316 316 315 315 315 314 311 310 309 308 308 308 307 308 308 309 309 308 307 306 305 305 306 305
320 319 317 315 317 318 317 317 318 318 318 319 319 318 319 320 322 324 325 326 327 326 325 325 324 323 323 322 319 318 317 317 317 316 317 316 316 316 316 315 315 315 315 315 313 312 310 310 309 308 307 307 307 307 307 307 307 307 307 306 306 307 307
321 320 317 316 317 318 317 317 318 317 318 318 318 318 319 318 320 323 325 326 327 327 326 325 325 323 322 321 321 319 317 317 316 316 316 316 315 315 315 315 315 316 315 314 312 310 310 309 308 307 307 307 306 306 306 306 307 307 307 307 308 308 308
323 319 316 316 318 319 317 317 317 317 317 317 317 318 319 318 318 321 323 325 326 326 326 326 324 322 320 320 320 320 319 318 317 316 316 316 316 316 316 315 315 315 313 312 311 310 309 308 307 307 307 307 307 306 306 306 306 306 306 307 307 307 307
326 323 318 317 319 320 319 317 317 317 317 317 316 317 317 317 318 319 320 323 325 325 326 325 323 322 322 321 320 320 319 318 317 317 317 316 317 317 316 315 314 314 313 312 311 309 308 308 307 308 308 307 307 307 307 307 306 306 306 306 306 306 306
326 322 318 317 318 319 318 317 318 318 317 317 317 316 317 317 317 317 318 319 321 322 323 324 323 322 322 322 320 319 319 318 318 317 317 316 316 317 316 315 315 314 314 313 311 309 308 308 308 308 308 308 308 308 307 307 307 307 306 306 306 306 305
320 319 319 318 318 318 318 318 318 318 318 318 317 317 317 317 317 316 316 316 317 319 320 320 321 321 321 321 320 319 318 318 317 316 316 316 316 316 316 315 316 315 314 312 310 308 308 308 309 309 309 309 309 308 307 306 306 306 305 305 305 305 304
318 319 319 319 319 319 319 319 318 318 318 318 318 317 317 317 317 317 317 316 316 316 317 317 318 318 319 320 320 319 318 317 316 316 316 316 316 316 316 316 315 314 313 311 309 309 309 309 310 310 309 309 308 307 307 306 305 305 305 304 304 304 304

ECMWFFLT2_850_thetae_093.txt.gz
Theta_e
320 321 321 320 320 319 320 324 326 328 333 334 331 330 332 332 332 336 338 336 338 339 340 347 349 345 345 347 350 353 352 351 350 349 350 350 351 349 347 347 347 346 345 344 345 345 345 345 345 345 344 343 343 343 342 341 341 342 342 342 342 341 340
320 321 321 320 321 322 321 321 326 329 331 332 331 330 332 332 330 333 336 334 335 335 337 347 351 347 347 348 349 353 353 352 350 349 350 350 350 349 347 347 347 347 346 345 344 344 344 345 344 344 343 343 343 343 342 341 341 342 342 342 341 339 339
320 320 320 319 320 322 320 322 328 329 326 326 328 329 330 331 330 332 334 336 336 334 336 346 352 350 349 349 350 351 352 352 351 350 350 349 349 348 348 348 348 346 345 344 343 343 343 344 344 344 343 343 343 343 343 342 341 342 342 343 342 340 339
319 320 320 319 319 320 321 324 326 325 324 325 326 328 327 328 330 330 332 336 336 336 340 348 352 351 351 350 350 350 352 352 351 350 349 349 349 348 348 349 348 346 344 342 342 342 342 343 343 343 343 343 343 343 343 342 342 342 342 343 342 341 340
318 320 321 320 321 321 320 322 322 321 323 325 326 328 328 328 331 330 329 330 334 339 342 347 351 350 349 351 350 351 353 352 351 350 349 349 349 348 348 349 348 347 344 342 341 341 341 342 342 342 343 343 343 343 342 342 341 342 343 343 343 342 341
317 320 320 320 322 322 321 323 322 321 323 323 322 324 329 331 331 332 329 327 332 339 339 343 347 348 350 351 351 352 353 352 352 351 349 349 348 347 348 348 348 348 346 344 343 342 341 341 341 342 342 342 342 342 342 342 342 342 342 343 343 343 342
320 320 320 319 318 320 321 321 322 323 324 324 319 320 328 332 332 334 330 327 334 340 340 342 346 348 351 352 352 352 352 352 352 351 350 349 348 348 348 347 347 348 347 346 345 344 343 342 342 341 342 342 342 342 342 342 342 341 342 342 343 343 343
321 320 319 319 317 319 320 319 320 321 321 323 322 325 331 330 330 333 329 327 337 342 341 344 346 348 350 351 352 352 351 351 351 351 350 349 349 349 348 348 348 348 348 347 346 346 346 346 344 343 342 342 342 342 342 342 342 342 342 342 342 343 343
319 318 318 319 320 321 321 321 321 320 322 327 329 332 335 331 332 335 327 325 337 342 341 344 345 347 349 349 349 349 349 349 349 350 351 350 350 350 349 349 349 348 348 347 346 346 347 347 347 346 345 344 343 343 343 342 342 342 342 343 343 343 343
318 320 319 319 321 322 321 322 324 323 325 329 330 332 331 330 336 338 328 328 340 342 341 343 344 346 347 347 346 347 346 347 347 348 349 350 351 351 350 350 350 349 349 348 348 348 347 347 347 347 347 347 346 345 344 343 342 342 343 343 343 343 344
319 320 321 319 322 324 323 324 327 327 327 329 332 332 328 330 336 337 334 338 343 344 343 343 344 343 343 344 344 344 344 344 345 345 346 348 350 350 351 350 350 350 350 350 350 350 349 348 347 347 347 347 345 345 343 342 343 343 343 343 343 343 343
319 320 320 320 323 325 325 326 328 330 331 330 331 330 330 335 334 331 340 345 344 344 343 343 344 342 341 342 342 342 342 341 342 343 345 347 349 349 350 350 350 350 349 350 350 351 351 350 348 348 347 346 345 344 344 344 344 344 344 343 343 343 343
319 319 319 320 324 325 327 329 328 331 333 333 333 332 334 339 333 330 341 347 343 344 343 342 343 342 341 342 341 340 340 340 341 343 344 345 347 348 349 349 349 348 347 348 349 349 350 351 350 350 348 348 347 347 346 346 345 345 345 345 344 344 345
321 321 319 321 324 324 326 329 329 331 333 334 336 336 336 340 339 336 341 345 344 343 341 341 342 342 341 341 339 339 340 341 342 342 342 342 344 346 347 347 347 347 347 346 347 348 349 349 350 350 350 350 349 349 349 348 348 347 346 346 346 345 346
319 321 321 320 323 324 324 325 327 330 333 334 336 337 337 339 341 340 341 344 344 341 341 342 341 340 340 338 338 339 340 341 341 341 341 342 343 345 346 346 347 346 346 346 346 347 348 348 349 349 350 350 350 350 349 349 349 349 348 348 348 347 348
321 321 322 322 323 324 323 322 324 327 332 334 334 335 336 338 341 342 342 342 342 340 341 341 339 338 338 338 338 339 338 340 341 340 340 342 343 344 344 345 345 343 343 345 345 346 346 346 348 348 348 349 349 350 349 349 349 349 349 349 349 349 350
325 322 322 324 324 324 324 321 320 323 328 332 335 335 335 335 337 340 341 339 339 340 340 339 338 337 337 337 337 337 336 337 338 338 339 340 342 343 344 344 343 341 342 343 344 344 345 345 346 346 347 347 347 348 348 348 348 348 349 349 349 349 349
329 325 324 326 326 325 323 320 319 321 323 328 335 335 333 333 335 336 337 336 337 339 339 338 338 337 335 335 334 334 335 335 335 336 336 337 340 342 342 342 343 342 342 343 344 345 345 345 345 346 346 346 346 347 347 347 347 347 348 348 348 348 348
332 332 328 325 325 326 323 319 320 321 318 320 330 333 331 332 334 334 336 336 337 339 339 338 338 335 333 332 331 331 333 336 337 337 336 337 339 340 341 341 342 342 341 342 343 344 344 345 345 345 346 345 345 345 346 346 346 346 347 347 347 347 347
327 332 329 325 325 325 322 321 321 321 318 319 327 333 332 330 331 333 335 336 338 338 337 336 334 331 330 329 328 329 332 335 336 337 337 335 335 337 339 339 340 340 340 340 340 341 341 342 343 343 343 343 344 344 344 344 344 344 345 346 345 346 346
322 327 326 324 325 323 322 323 322 321 320 319 322 330 332 329 329 332 334 335 336 336 333 331 330 329 329 329 327 326 330 333 333 333 334 333 332 334 335 335 336 337 337 337 338 338 339 340 341 341 341 341 342 342 341 341 340 340 342 343 342 343 342
321 324 323 322 323 323 323 323 321 321 321 319 319 325 330 330 329 330 333 336 335 333 332 330 329 331 332 332 328 325 328 331 330 330 331 331 331 331 330 331 333 334 334 334 334 335 336 336 335 335 337 338 340 339 339 339 338 338 338 337 337 338 338
321 323 322 322 324 325 324 322 321 322 320 318 319 322 325 328 328 329 332 335 335 333 332 331 332 334 335 334 329 325 325 326 326 327 327 326 326 326 325 327 331 332 330 328 327 327 327 326 324 324 326 328 330 331 331 331 332 333 334 331 329 329 331
320 321 321 321 323 324 323 321 322 322 319 318 321 322 321 324 327 328 329 333 334 333 332 332 334 337 337 334 329 325 325 325 325 325 325 324 323 324 324 327 332 331 328 325 324 322 322 321 321 321 321 321 320 319 319 319 320 321 323 324 323 321 322
318 318 319 320 321 321 321 321 321 320 318 319 323 324 321 320 324 327 328 330 332 331 331 332 334 334 334 332 329 328 327 326 325 325 324 323 323 323 323 327 330 330 327 325 324 322 322 322 323 323 323 321 318 316 314 315 315 314 314 315 316 316 316
315 316 317 318 319 319 318 320 321 320 320 321 322 322 320 319 323 327 327 327 329 330 330 331 330 330 330 329 328 328 327 326 325 324 323 322 322 322 323 324 325 325 325 325 324 323 323 323 323 322 321 319 317 315 313 312 313 312 312 311 310 311 312
315 316 315 315 318 319 317 319 322 323 323 322 321 321 321 319 321 326 327 327 327 328 329 328 328 329 329 328 327 327 326 326 325 323 322 321 321 322 322 323 322 322 323 323 323 322 322 322 321 321 320 319 317 315 313 311 311 311 311 310 308 307 308
316 317 316 317 319 319 317 320 322 322 321 320 319 320 321 320 320 324 327 327 326 326 328 327 327 328 327 326 326 326 325 325 324 322 320 320 321 321 322 322 322 322 322 322 321 321 321 320 319 319 317 316 314 312 311 311 311 311 310 308 306 306 306
317 318 318 318 319 318 317 318 319 318 318 318 318 319 320 321 321 323 326 327 326 326 327 326 326 326 325 324 325 326 325 324 324 322 320 319 319 320 320 321 321 321 320 319 317 317 317 316 315 314 313 311 310 310 309 310 310 310 309 308 306 305 306
318 317 318 319 320 319 317 317 317 317 317 318 318 318 319 321 322 323 325 326 326 326 326 325 325 324 323 321 322 323 324 324 323 323 321 319 319 320 319 319 319 318 317 315 314 313 313 312 311 310 310 309 309 308 308 309 309 308 307 307 306 306 306
318 319 319 320 320 319 317 317 317 317 317 318 318 318 318 319 321 323 324 326 326 326 326 325 324 324 322 321 320 320 321 322 322 322 321 319 319 319 319 318 317 316 315 315 314 313 311 311 310 310 309 309 309 308 308 308 308 307 306 306 306 306 306
318 320 320 319 318 318 317 317 317 317 317 318 318 318 318 318 319 321 324 325 326 327 326 324 324 323 323 322 322 321 320 321 321 321 320 320 319 318 317 317 316 315 315 315 315 314 313 312 311 309 309 308 308 308 308 308 307 307 307 306 306 306 306
319 319 319 318 318 319 318 317 317 317 317 317 317 317 318 317 318 320 323 324 325 325 325 325 325 324 323 323 323 322 320 320 320 320 320 319 319 317 317 316 315 315 315 315 315 314 313 311 310 309 308 307 307 307 307 307 307 307 307 306 306 306 306
320 320 320 319 320 320 319 318 317 317 317 317 317 317 317 317 317 318 320 322 323 324 324 324 324 325 324 323 323 322 320 319 319 319 319 318 318 317 316 316 317 316 315 315 315 314 312 310 310 308 307 306 307 307 307 307 307 307 307 307 306 306 306
319 319 319 318 319 320 320 318 317 318 317 317 317 317 317 317 317 317 317 318 319 321 322 323 323 323 323 323 322 321 320 319 319 318 318 318 317 316 316 317 318 318 316 316 315 313 311 310 308 307 307 307 307 307 307 307 307 306 306 306 306 306 306
319 318 318 318 318 319 319 318 318 318 318 318 318 317 317 317 317 317 317 317 317 317 319 320 321 322 322 322 321 321 320 320 320 319 318 317 317 317 317 318 319 318 318 317 315 312 310 309 308 307 308 308 308 308 307 307 306 306 305 305 305 305 304
318 319 319 318 318 319 318 318 318 318 318 318 318 317 317 317 317 317 317 317 317 316 316 318 319 320 320 320 320 320 320 321 320 319 318 317 316 317 318 318 318 317 317 316 315 312 310 309 308 309 309 309 308 308 308 307 307 306 305 304 303 303 303

ECMWFFLT2_850_thetae_096.txt.gz
Theta_e
324 324 324 326 323 321 323 323 324 328 330 331 327 326 328 329 328 330 331 330 333 339 342 346 347 346 347 348 349 353 355 356 355 353 353 353 354 354 354 353 352 351 351 350 350 350 351 351 352 352 351 349 348 346 344 343 342 341 341 341 342 342 343
323 324 323 324 324 323 322 320 323 329 332 331 329 326 327 328 326 327 329 328 328 329 335 347 351 347 347 347 347 352 355 355 354 354 353 352 353 353 354 354 352 351 351 351 350 351 351 351 351 351 348 347 346 346 346 344 343 342 341 341 343 344 344
321 323 322 321 323 324 323 323 325 327 326 326 326 326 326 327 325 326 327 328 326 325 333 344 349 349 348 347 348 351 355 355 354 354 354 352 352 353 354 354 353 351 351 351 351 351 351 350 351 350 348 346 347 346 346 345 344 343 342 344 347 346 346
321 321 320 318 319 323 323 324 325 326 326 325 324 325 325 325 324 324 325 325 324 329 339 347 350 352 351 350 350 350 354 356 354 354 354 353 353 353 354 355 353 352 351 351 352 351 350 348 348 349 347 347 348 347 346 346 345 344 343 346 348 346 346
320 319 320 319 319 321 320 320 322 323 324 324 325 325 323 323 323 324 324 322 324 337 351 355 354 354 352 351 351 351 354 355 353 353 354 354 354 354 355 355 354 352 351 351 352 350 349 347 346 347 346 346 348 347 346 344 344 344 343 345 346 344 345
317 318 321 322 322 322 321 320 320 322 322 321 323 323 323 324 323 323 322 321 328 342 349 351 353 351 351 352 352 352 354 354 353 353 353 353 354 353 354 354 354 353 351 350 351 350 349 348 347 345 344 344 345 345 344 343 343 343 343 343 342 342 343
320 322 323 323 324 324 323 322 322 324 324 320 319 320 322 324 323 324 323 321 332 345 345 347 352 351 351 352 352 353 353 352 352 352 352 353 351 349 350 350 350 349 349 348 348 349 348 348 347 343 342 343 343 343 343 342 342 342 342 342 342 342 343
323 323 323 324 325 324 322 322 323 324 323 322 322 321 323 323 321 324 324 321 332 346 347 348 352 352 353 352 351 353 352 352 352 351 352 353 351 348 348 348 347 346 347 347 346 346 346 347 346 343 342 342 341 341 342 342 342 343 343 343 342 342 343
320 320 321 321 322 322 322 322 323 325 325 324 324 323 325 324 321 324 322 319 332 346 347 348 350 350 353 352 352 353 352 353 353 351 351 352 352 350 348 347 347 347 347 347 346 345 344 344 343 342 344 344 342 342 341 341 342 342 343 344 343 343 344
317 318 319 319 320 321 323 324 325 325 325 324 324 323 322 321 321 324 321 321 336 347 345 345 347 349 351 352 352 352 353 353 353 353 352 351 352 351 348 348 348 348 348 347 347 347 346 344 343 343 344 344 344 343 342 342 342 342 343 344 343 342 342
321 322 324 324 324 322 321 323 326 325 325 327 326 322 319 320 323 324 324 326 337 345 347 346 347 348 350 351 351 351 351 351 352 353 353 352 352 352 350 350 350 349 348 348 348 347 347 347 346 346 345 344 345 345 343 343 343 343 344 344 344 343 342
324 327 328 328 327 325 323 325 326 326 327 328 326 321 323 326 322 321 328 330 331 340 349 347 346 349 349 349 349 349 349 349 350 351 351 351 352 352 351 351 351 350 349 348 348 347 347 347 347 347 346 345 345 345 345 346 345 345 345 345 344 344 342
325 327 328 329 330 329 329 329 329 329 329 329 326 326 333 337 328 325 337 340 334 341 348 346 346 349 348 348 348 347 347 348 348 349 350 350 351 350 350 350 350 350 348 348 349 348 348 348 348 348 347 347 346 347 347 347 347 347 346 345 344 343 342
325 327 328 330 330 329 330 332 332 333 333 333 333 335 338 341 338 337 344 348 345 346 346 345 346 348 347 347 346 345 346 347 348 349 349 349 349 349 349 349 348 348 348 348 349 349 350 350 350 349 349 348 348 348 347 347 347 347 347 346 345 343 343
322 325 327 328 329 328 328 329 332 334 335 336 337 339 340 341 343 344 346 348 347 345 345 346 346 347 347 346 345 345 346 346 348 348 348 348 347 346 347 348 347 346 346 346 347 348 349 349 349 349 349 350 349 348 348 348 348 348 348 348 347 345 344
320 322 324 325 327 327 325 325 328 332 335 336 337 339 339 340 343 344 342 342 343 343 345 345 345 346 346 345 345 345 345 346 347 347 347 347 345 345 345 346 346 345 345 345 346 346 346 347 348 348 349 349 349 349 349 349 349 349 349 349 348 347 347
320 321 323 323 323 324 323 323 325 329 335 338 337 337 338 339 341 342 340 339 342 344 344 343 344 344 345 346 346 345 345 346 346 346 346 345 345 345 345 345 345 344 344 344 344 344 344 346 347 348 348 348 349 349 349 349 350 350 349 350 350 349 349
320 323 324 322 322 322 322 323 323 326 332 336 336 335 337 338 339 340 340 340 342 342 342 342 343 344 345 346 345 345 345 345 345 345 346 345 345 344 344 344 343 342 343 343 343 343 344 344 345 346 347 347 348 348 348 348 349 349 349 349 350 350 350
322 324 322 320 322 323 323 323 324 324 327 333 334 334 336 337 336 337 339 339 340 342 342 342 342 343 343 342 342 344 344 343 344 344 344 344 344 342 342 342 342 342 343 344 344 344 344 344 345 346 346 346 347 347 347 347 347 347 348 349 349 350 350
323 321 320 321 324 325 324 324 325 324 325 330 332 331 332 335 335 336 339 340 341 342 342 341 340 339 337 336 337 340 341 341 342 342 342 342 341 340 340 341 341 341 341 342 344 343 343 343 344 344 345 345 345 345 346 346 347 346 347 348 348 348 348
323 320 321 323 325 326 326 326 325 325 325 327 329 329 330 333 335 337 338 339 341 341 341 340 338 337 336 334 333 334 336 337 338 338 339 339 339 338 339 340 340 339 338 339 341 340 340 341 341 342 342 342 342 343 343 344 345 344 344 345 345 345 345
323 322 322 323 323 324 327 327 324 325 324 324 326 328 328 330 335 337 338 339 340 340 340 339 337 338 341 339 334 332 332 333 333 334 334 335 336 336 336 337 337 336 336 338 339 338 339 338 338 339 339 339 340 340 340 341 341 340 340 340 340 341 340
323 322 320 321 322 325 327 326 324 324 324 322 325 327 326 327 332 336 337 338 340 340 339 339 340 341 343 340 333 329 330 330 330 331 331 331 332 333 334 335 334 333 335 336 336 335 334 333 334 334 334 333 334 335 335 335 336 338 338 337 337 338 337
321 322 320 321 324 326 325 324 324 324 323 322 323 324 323 325 329 333 336 338 339 339 339 339 339 340 341 338 331 328 330 330 329 330 329 329 330 332 333 333 332 331 331 331 329 327 325 324 326 326 323 321 322 324 324 323 325 328 330 330 330 330 329
319 320 320 321 324 325 323 323 325 325 323 323 323 323 323 324 327 331 334 336 337 338 339 339 338 337 337 334 331 331 331 329 328 328 328 327 329 331 332 331 329 329 328 327 326 323 321 322 323 322 319 317 316 317 317 315 315 316 318 320 320 319 317
319 319 319 321 323 324 323 325 327 327 326 324 324 325 325 325 326 329 332 334 336 337 337 337 336 335 333 331 331 331 329 327 327 327 327 326 326 328 331 330 328 328 327 325 324 323 323 324 322 320 319 317 315 315 314 313 312 311 311 313 314 314 313
319 317 317 320 322 324 325 327 328 328 327 325 325 326 327 327 327 329 330 332 334 335 336 335 334 333 331 330 330 330 329 328 327 327 327 326 324 326 329 330 328 328 327 326 325 325 324 323 321 319 318 317 315 314 312 312 311 310 309 308 310 311 311
319 317 318 321 322 323 325 326 326 325 324 324 325 326 326 326 327 329 331 331 331 333 335 334 333 333 331 329 329 329 328 328 327 326 327 327 326 326 327 327 326 326 326 325 325 324 323 322 321 320 317 315 313 312 311 311 311 309 308 307 307 307 308
321 321 322 323 323 323 324 324 325 325 323 322 323 325 325 325 327 328 331 332 331 331 333 332 332 333 332 330 329 328 327 327 327 327 327 327 327 327 326 325 325 324 324 323 322 322 321 319 318 316 313 312 311 310 310 310 310 309 307 307 306 306 306
322 323 324 324 325 324 324 323 323 323 323 322 323 324 325 325 327 328 330 332 331 331 331 331 332 333 332 330 329 328 326 326 326 326 326 326 326 325 324 323 322 322 322 321 318 317 316 314 313 311 310 310 310 309 308 308 308 307 307 307 307 307 306
321 323 325 326 326 325 325 324 323 322 322 321 322 323 322 323 325 328 329 331 331 330 330 330 331 331 330 330 329 327 326 325 325 324 324 324 324 323 322 321 321 321 320 318 315 314 313 312 311 310 309 309 309 309 310 310 308 307 307 307 307 307 307
322 324 325 325 325 324 324 324 324 323 323 322 321 321 321 321 323 325 326 329 331 331 330 330 330 329 328 328 328 327 326 325 324 324 322 321 322 322 322 321 321 320 317 315 314 314 312 312 311 310 309 308 307 308 310 310 309 307 306 308 309 309 311
323 323 323 323 324 324 324 324 323 323 323 323 323 322 321 321 323 324 325 326 328 329 329 329 328 327 327 327 327 327 326 325 324 323 323 321 321 321 321 321 319 317 316 315 315 313 312 312 311 309 308 307 307 308 308 307 307 306 306 307 308 309 312
322 323 323 323 322 323 324 324 323 322 322 323 324 323 322 322 321 322 323 324 325 327 328 328 328 327 326 326 326 326 326 325 324 323 322 322 321 320 320 320 318 316 315 316 315 315 314 312 310 308 307 307 308 310 309 307 306 307 306 307 307 309 311
323 324 324 322 321 322 324 323 323 323 322 323 323 323 322 322 321 321 322 323 323 325 325 326 327 328 327 326 325 325 325 324 323 322 322 321 321 320 319 319 318 316 316 316 316 317 316 313 309 308 308 308 308 309 308 307 307 307 305 306 309 312 312
322 322 322 321 321 322 323 323 323 323 322 322 323 323 323 322 321 321 321 321 321 322 323 323 324 325 327 326 325 325 325 325 323 322 321 321 321 320 319 318 318 316 316 317 318 318 317 313 309 309 309 309 308 308 308 307 307 307 306 306 308 311 312
322 321 322 321 321 323 323 322 323 322 320 321 322 322 322 321 321 322 322 320 319 320 321 322 322 321 323 325 325 324 325 325 323 321 321 321 321 320 319 318 317 316 317 318 318 318 317 314 311 309 310 309 309 309 309 308 308 307 307 306 307 308 308

ECMWFFLT2_850_thetae_099.txt.gz
Theta_e
326 325 326 327 326 325 327 328 325 328 334 332 326 326 328 328 330 334 333 333 340 343 343 345 345 346 346 347 350 353 354 356 355 354 354 355 356 354 352 351 350 351 351 351 351 351 352 351 351 351 350 351 351 352 353 352 351 352 350 349 352 353 352
326 326 326 326 327 327 325 324 327 330 334 332 328 327 326 328 332 334 330 330 336 335 337 344 345 345 345 345 349 354 354 356 355 354 355 356 355 353 352 351 351 352 351 351 352 351 352 351 351 351 351 352 353 353 353 352 350 351 351 350 351 353 353
325 325 325 323 325 327 326 325 328 331 327 326 327 327 327 328 330 331 327 329 334 334 337 344 345 346 346 344 349 352 354 355 354 354 355 355 355 355 355 354 353 352 351 352 353 352 352 352 351 352 353 353 354 354 354 353 350 350 350 350 349 351 352
324 324 323 320 321 325 326 326 327 328 328 326 327 327 328 328 329 331 329 328 332 338 342 344 345 348 347 345 347 351 353 355 354 355 356 356 358 357 356 357 354 352 351 351 352 352 352 351 351 353 354 353 353 355 356 355 353 351 350 349 347 350 352
322 320 322 320 321 322 322 322 323 324 325 326 327 328 327 327 327 329 329 330 336 345 348 347 348 350 347 345 348 351 353 355 353 355 356 357 358 356 355 358 356 352 352 351 352 352 352 351 352 353 355 355 355 355 357 357 355 354 351 349 348 348 349
318 320 323 322 323 324 323 322 320 323 323 322 323 324 325 326 325 325 325 329 338 348 350 350 348 349 349 348 351 351 353 354 353 354 355 356 356 356 356 357 357 355 353 352 353 353 354 353 352 351 352 354 355 355 356 357 356 355 353 350 349 348 349
320 323 324 323 323 324 325 324 323 325 324 321 320 320 323 322 323 324 322 325 337 346 349 351 349 347 350 350 352 353 354 355 354 354 355 354 355 357 356 357 356 356 354 353 353 353 354 355 353 349 347 351 356 356 357 358 357 356 356 353 350 350 349
324 324 324 324 323 323 323 324 324 323 323 325 324 323 325 323 321 324 321 324 337 348 349 351 352 351 350 350 352 352 353 354 352 353 354 354 356 357 356 356 355 354 353 352 352 353 354 355 354 352 350 352 356 356 357 357 356 358 358 356 355 352 349
321 322 321 321 321 322 322 323 324 324 323 325 325 324 325 322 320 324 321 322 337 349 350 351 351 350 350 351 352 351 353 353 351 352 353 354 356 356 355 355 354 352 351 351 351 352 354 356 355 353 352 353 353 354 356 356 356 358 357 355 354 350 348
318 319 319 319 320 320 323 324 324 324 324 323 323 321 320 318 320 323 320 323 339 350 350 350 350 349 350 351 352 352 352 352 351 352 352 352 354 354 354 353 351 349 347 346 347 347 349 353 354 352 351 352 352 350 351 353 354 354 352 349 347 346 345
320 321 324 325 324 320 319 321 322 323 324 324 325 321 318 319 321 321 322 329 338 344 348 350 349 349 350 351 353 353 353 353 352 352 352 352 353 352 352 352 350 348 347 346 347 346 344 346 348 347 348 350 349 346 347 349 349 349 348 345 344 344 344
325 326 328 328 325 321 320 319 321 324 325 325 325 320 321 327 322 319 329 333 331 338 347 349 348 349 350 352 354 353 353 353 354 353 352 353 352 351 352 352 350 349 349 348 349 347 346 345 345 346 345 345 345 344 345 346 345 345 346 345 345 345 345
325 326 326 326 326 324 322 322 321 324 325 324 324 322 324 329 323 322 334 338 334 340 347 346 348 351 351 352 352 352 353 354 354 354 353 353 352 351 351 352 351 350 350 350 348 347 347 346 345 346 346 345 345 344 345 345 344 346 346 346 346 346 347
324 325 326 327 326 324 324 326 325 326 326 325 324 324 325 329 329 329 339 344 345 347 347 347 350 351 350 350 350 350 351 352 353 354 354 353 353 352 352 353 352 351 351 350 349 348 348 347 348 347 346 346 346 345 345 345 345 345 345 346 347 348 348
324 325 327 327 326 327 326 328 329 328 326 325 326 328 331 333 332 334 340 345 347 347 348 349 349 349 350 349 349 350 350 351 352 353 353 353 352 352 351 351 350 350 350 351 350 350 350 349 350 349 348 348 347 346 346 346 345 345 344 345 346 347 348
326 325 326 328 328 328 327 327 331 333 330 329 331 334 337 337 334 337 341 342 345 346 347 348 348 349 350 349 349 350 349 351 352 352 352 350 348 348 348 348 349 349 349 349 350 349 349 349 350 350 351 350 349 349 348 347 347 346 345 345 346 347 349
325 324 324 328 328 326 325 326 330 335 335 336 337 337 338 338 338 339 340 341 344 346 346 346 347 348 350 349 350 349 350 350 350 350 348 345 344 346 347 347 348 348 347 347 347 348 347 348 349 349 350 350 350 350 349 348 349 348 347 348 348 349 351
324 327 326 326 327 327 326 327 330 335 336 337 338 338 337 338 339 341 341 343 345 344 343 344 346 347 349 349 349 349 348 347 347 345 343 343 346 348 347 346 346 345 345 345 345 345 345 345 347 347 348 349 349 350 350 349 349 349 350 350 350 350 351
326 330 326 322 326 328 328 328 329 333 335 335 336 337 337 337 339 341 342 343 344 343 344 346 346 346 347 346 346 346 344 343 343 343 342 344 347 347 345 344 344 343 343 343 343 343 342 343 344 345 346 348 348 348 349 348 347 348 349 350 349 350 350
326 327 324 324 327 328 327 329 329 330 333 334 334 336 336 337 338 340 342 342 344 345 344 344 345 344 344 343 343 343 342 342 342 343 343 344 344 345 345 344 343 342 342 342 342 343 343 344 343 344 345 346 347 347 346 346 347 347 348 349 349 349 349
326 323 323 327 329 328 329 330 328 328 330 331 333 334 335 336 338 340 341 342 344 345 343 342 342 341 342 341 340 339 339 340 342 341 342 342 343 343 343 342 341 341 340 341 341 342 343 343 342 343 343 343 343 344 343 344 344 345 346 346 344 345 346
325 322 323 326 328 330 331 330 327 327 327 329 331 331 330 334 339 340 341 342 343 343 342 341 341 341 342 339 336 336 336 336 339 339 339 340 341 341 340 340 340 339 338 339 339 340 341 341 340 340 340 339 340 340 340 341 341 342 342 342 340 341 344
326 324 323 321 325 331 332 328 327 327 326 326 330 329 327 330 335 338 340 343 343 342 341 341 342 343 342 337 334 334 334 333 335 336 336 337 338 338 338 338 337 337 337 337 337 338 338 338 336 335 335 336 337 338 337 337 338 338 338 338 337 338 339
327 327 323 321 324 329 329 327 327 327 326 325 327 327 326 328 332 335 338 340 342 343 342 342 341 342 341 337 333 332 333 332 333 334 335 336 336 336 336 335 335 335 335 334 333 333 331 330 327 325 325 326 328 328 328 329 333 334 334 334 334 335 334
325 325 324 326 327 326 327 327 327 328 328 326 324 325 327 329 331 334 336 337 339 341 341 340 339 340 339 336 332 332 333 332 331 332 334 335 335 335 334 333 333 332 331 330 329 326 324 322 319 318 320 321 319 318 317 318 322 325 326 327 329 330 328
324 322 325 329 327 326 326 328 328 329 330 328 326 327 329 330 331 334 335 336 338 339 339 340 340 339 337 335 334 334 333 332 332 332 333 335 334 333 333 332 331 330 329 328 328 326 324 322 320 319 319 316 315 317 317 316 315 316 317 318 320 321 320
323 320 324 327 326 326 329 329 330 330 330 329 330 329 329 329 331 333 334 335 337 338 337 339 338 337 336 335 335 334 332 331 332 332 333 334 333 332 332 331 330 329 328 327 328 327 325 323 320 318 315 313 314 315 316 317 317 315 312 311 311 312 312
323 320 323 325 325 327 328 328 328 328 328 329 330 329 328 329 331 333 334 334 336 336 337 338 337 336 336 335 334 333 332 332 332 332 332 332 333 333 332 330 329 329 328 328 327 326 326 324 319 313 310 311 311 311 310 312 313 311 310 311 313 313 312
325 324 325 326 325 326 327 327 326 325 325 326 327 327 327 328 330 332 333 334 335 335 336 337 337 336 335 335 334 333 332 332 332 332 331 331 332 332 331 330 329 328 327 327 326 326 327 325 319 313 309 309 309 310 308 307 307 306 308 313 317 317 314
324 324 326 326 325 325 325 326 326 325 325 325 325 326 327 327 329 331 332 333 333 333 334 336 336 336 336 334 333 332 331 331 332 332 331 331 331 331 330 330 329 327 326 325 325 325 325 323 320 318 316 311 308 307 307 306 307 306 305 307 308 309 309
322 324 326 326 326 325 324 324 325 325 325 324 325 325 326 327 327 328 331 332 332 332 333 334 335 336 335 334 333 331 331 331 331 331 331 331 330 330 329 328 327 326 324 324 323 323 322 322 323 321 317 311 307 309 312 312 309 305 306 310 310 307 308
324 326 327 325 325 325 325 325 325 325 325 324 324 324 325 326 327 327 328 330 330 331 333 333 334 334 334 334 334 332 331 331 331 332 331 331 330 330 329 327 326 326 325 323 321 320 318 318 318 316 314 312 310 313 317 316 310 305 309 316 319 318 317
325 326 325 324 324 324 324 325 326 325 325 325 324 324 324 325 325 326 326 327 328 329 330 332 332 332 332 333 333 333 332 331 331 331 331 331 330 330 329 327 326 326 324 321 319 317 316 315 313 311 310 310 311 314 314 310 308 307 307 310 316 320 322
324 325 324 324 324 325 326 326 325 324 324 325 325 325 324 324 324 325 325 326 326 327 328 329 330 331 331 332 333 333 332 332 330 330 331 330 331 330 329 327 326 325 322 318 316 316 316 316 314 310 308 310 315 318 315 310 309 309 308 312 317 319 320
325 326 325 323 323 325 327 326 325 324 324 324 325 325 324 324 324 324 325 326 326 326 327 327 328 330 330 330 331 331 332 331 331 332 331 331 331 330 329 328 327 325 321 317 316 316 318 317 315 312 310 311 316 317 313 309 309 308 309 316 321 320 319
325 325 325 323 321 324 327 326 325 325 324 324 326 325 325 324 324 324 324 325 325 326 326 326 326 328 329 329 329 329 330 330 331 332 331 330 330 329 328 328 327 323 319 317 316 316 318 317 315 314 312 311 313 313 310 308 310 308 308 314 319 320 319
325 324 324 323 322 325 326 325 324 324 323 323 324 325 325 324 323 324 324 325 324 325 326 326 325 326 326 327 328 328 328 329 330 330 330 330 328 327 328 328 326 322 318 316 316 317 318 317 316 317 318 315 314 314 312 309 309 309 308 313 317 317 317

ECMWFFLT2_850_thetae_102.txt.gz
Theta_e
326 327 327 329 329 326 328 328 325 328 333 332 327 327 333 331 329 337 341 340 345 349 347 349 349 349 350 349 351 353 353 355 356 356 355 354 352 351 351 351 350 349 349 348 348 349 350 349 348 348 348 350 352 353 354 350 348 348 348 348 349 347 348
326 328 326 327 330 329 326 325 326 331 332 332 330 326 327 326 326 334 336 336 341 342 343 348 349 350 353 350 350 353 354 356 356 355 355 355 353 351 351 351 350 350 350 349 349 350 350 349 349 349 348 349 351 352 354 352 349 351 349 348 351 349 349
326 327 325 324 327 329 327 327 329 331 327 327 329 327 327 327 328 332 329 332 343 342 340 346 350 352 353 351 350 353 353 355 356 354 355 355 354 353 352 351 350 351 350 350 350 350 351 350 349 349 348 350 351 352 354 354 352 352 351 351 353 352 351
326 326 324 321 322 326 328 328 328 329 327 327 329 328 327 328 331 336 333 332 340 343 342 349 352 352 352 350 350 351 353 354 355 356 356 356 355 354 353 351 350 350 350 350 351 350 351 350 350 351 350 350 352 352 353 354 354 354 353 352 353 353 353
323 323 323 322 322 323 324 324 324 325 326 328 330 329 327 328 332 337 339 337 338 341 347 353 351 351 352 350 350 353 354 355 355 356 356 356 356 354 354 353 351 351 351 351 351 351 351 351 351 351 352 352 352 353 353 353 352 353 352 351 350 352 352
319 322 325 326 325 325 325 324 323 325 325 325 326 326 326 326 329 331 334 336 339 344 351 351 347 350 351 351 353 355 355 356 355 354 355 356 357 356 354 354 353 351 350 351 351 352 352 352 352 352 352 352 353 353 352 352 351 350 349 349 348 349 350
322 324 326 326 325 326 326 326 327 327 326 325 321 321 323 324 327 327 325 331 340 346 350 350 348 349 350 351 353 353 354 355 353 354 356 356 356 356 354 352 352 350 349 351 352 352 352 351 352 353 352 352 352 352 353 353 351 350 349 348 347 348 349
325 326 327 326 325 326 324 324 328 326 325 327 324 324 326 324 324 325 324 330 341 347 350 352 350 350 350 350 351 352 353 354 354 355 356 355 354 354 354 353 351 351 350 352 352 351 351 352 351 352 353 353 352 351 354 354 352 351 350 349 348 348 348
322 322 323 323 322 323 323 323 326 326 326 327 326 325 327 325 324 325 323 326 337 345 350 351 349 350 351 349 351 353 354 354 354 355 354 354 353 352 354 354 352 352 352 352 352 352 352 351 350 349 351 354 354 352 353 354 352 351 353 352 350 349 349
320 320 321 321 321 321 322 323 324 326 326 325 324 322 322 323 324 324 323 327 339 349 352 349 347 349 350 349 351 353 354 354 354 354 352 353 352 351 354 355 353 353 353 352 352 352 351 351 350 349 350 352 354 352 351 352 352 353 355 354 352 350 350
323 323 326 328 325 321 320 320 322 325 324 325 325 319 320 323 321 323 332 339 343 347 350 349 347 347 347 347 349 351 353 354 353 352 351 352 351 350 352 354 353 353 352 352 352 352 351 351 350 350 350 350 352 352 351 353 355 356 355 354 353 352 351
326 327 328 329 327 323 321 319 321 324 324 326 323 318 322 327 321 327 343 348 340 342 349 350 347 347 347 346 347 348 351 352 353 352 351 351 350 348 350 352 352 351 350 351 353 352 352 353 352 351 351 350 350 351 352 352 352 353 352 352 352 351 350
326 327 327 328 327 325 326 324 322 323 324 324 322 319 326 325 323 334 348 345 341 344 347 348 347 348 348 348 348 349 350 351 352 351 352 352 351 351 351 350 349 349 349 349 351 348 349 353 354 353 353 352 350 349 351 351 349 348 347 347 348 348 345
325 327 326 327 327 325 326 325 324 324 324 324 323 322 326 325 329 344 350 346 347 348 346 348 350 350 351 351 351 350 349 349 351 351 352 352 351 352 353 351 350 349 349 349 349 348 347 349 350 349 351 353 352 351 353 353 351 351 350 347 345 345 345
324 327 327 326 326 325 324 326 329 331 331 333 332 327 325 325 329 342 349 349 350 350 348 351 351 350 351 351 350 350 349 347 348 350 350 350 351 352 353 352 352 352 351 350 350 350 349 347 346 346 348 350 350 350 351 351 351 352 354 353 352 349 348
322 325 328 329 328 326 326 328 333 336 336 337 338 336 335 334 333 337 343 345 347 349 350 351 351 351 351 350 350 350 348 346 346 347 348 348 349 351 351 351 352 351 352 351 350 351 350 349 348 348 349 349 349 348 348 348 348 349 350 351 351 351 351
323 324 327 328 329 329 328 329 332 336 339 339 338 339 340 340 339 338 339 342 347 348 347 348 349 349 349 350 351 350 348 346 345 345 345 346 347 349 349 351 351 350 351 351 350 350 351 351 351 350 351 352 352 351 350 349 349 348 347 347 347 347 349
323 326 327 326 330 332 331 332 333 335 338 339 339 340 340 341 343 342 342 345 346 346 345 346 347 347 348 348 348 348 348 346 343 343 343 344 347 348 348 349 349 349 349 348 348 348 348 348 349 350 351 352 352 352 352 351 350 350 349 349 348 347 347
323 326 326 326 330 332 331 331 333 334 335 336 337 339 340 340 341 341 343 345 345 345 346 345 345 344 346 346 344 344 344 343 342 342 344 346 347 347 347 346 346 346 346 346 346 345 344 343 345 347 348 349 350 350 350 350 350 350 350 349 349 350 349
325 326 327 328 330 330 329 331 332 333 334 335 336 339 339 338 339 339 341 342 344 345 345 344 343 342 343 344 343 342 342 343 343 345 346 347 345 345 345 344 344 344 343 343 343 342 342 342 342 344 346 346 347 347 347 347 348 348 349 348 349 349 350
326 325 328 330 330 330 331 332 330 331 333 334 336 338 338 337 338 338 338 340 342 343 342 342 342 340 340 341 342 343 344 344 344 345 346 345 344 343 343 342 342 342 341 341 341 341 341 342 341 342 343 343 344 345 345 345 345 345 345 346 346 347 348
327 325 326 328 329 331 332 331 329 329 330 331 334 335 334 337 339 337 336 337 340 341 341 342 341 339 339 339 339 341 342 342 343 343 343 342 342 341 341 341 341 341 340 341 341 340 340 340 339 340 340 340 341 342 342 342 342 342 343 343 343 344 345
326 326 327 327 329 333 333 332 329 327 328 330 330 330 330 333 338 337 337 337 338 338 338 340 341 340 338 337 336 337 338 340 340 339 339 339 339 339 339 339 338 339 339 340 340 340 338 335 333 333 335 336 337 338 339 339 338 339 340 340 340 342 342
324 326 328 330 331 332 332 330 329 329 329 328 327 329 330 332 334 337 338 340 340 338 336 336 337 339 339 337 335 335 336 338 338 337 337 337 337 337 337 336 336 336 336 336 336 335 333 330 327 325 326 328 328 329 332 334 335 336 337 338 339 339 340
323 324 327 331 332 331 328 329 330 330 331 329 327 329 332 332 333 335 337 340 340 340 340 338 337 338 338 337 336 336 336 337 338 338 337 336 336 336 334 333 333 333 332 330 328 326 325 324 323 321 319 318 318 319 323 326 328 330 333 334 334 335 337
327 328 328 331 332 330 327 329 331 331 333 331 329 330 331 332 334 334 335 338 339 340 341 340 339 338 336 336 336 336 335 336 337 338 337 336 335 334 332 332 331 330 328 327 325 323 322 322 319 315 313 313 313 313 315 317 319 322 325 326 326 326 327
329 329 329 329 330 330 328 330 332 332 333 332 331 330 331 333 334 334 335 336 337 338 339 339 338 337 336 335 335 334 334 335 336 336 336 335 335 334 332 331 330 329 329 328 326 326 326 324 319 314 312 312 312 314 316 316 313 313 314 314 315 315 316
328 328 328 328 329 329 328 330 332 332 331 331 331 330 331 333 333 333 334 336 336 337 338 338 337 337 336 335 334 334 334 333 334 335 335 334 334 333 332 331 330 330 329 328 327 326 323 318 314 313 312 311 311 312 315 314 311 310 311 312 311 310 312
330 328 328 328 328 327 327 328 329 329 329 329 329 329 330 332 333 333 334 335 336 337 337 337 336 336 336 335 334 334 333 333 333 334 334 335 334 333 331 331 330 329 328 328 328 327 320 312 309 310 310 309 309 310 310 310 311 314 318 317 312 308 309
328 327 327 327 327 327 327 327 327 327 327 328 328 328 329 330 331 333 333 333 333 336 337 337 336 335 335 335 334 334 333 333 333 333 333 334 333 332 331 330 330 328 328 327 327 325 319 315 312 310 309 308 308 306 305 305 307 310 312 311 308 306 306
326 326 326 327 326 325 326 326 326 326 326 326 327 327 327 328 329 331 332 332 332 333 334 336 336 335 335 334 333 333 333 333 332 332 332 332 332 332 331 330 329 327 326 327 326 325 324 323 318 310 307 307 308 311 312 309 306 306 308 310 309 309 310
326 327 327 326 326 326 326 326 326 325 325 325 326 327 327 327 327 328 328 329 331 332 333 334 334 335 335 334 333 332 332 332 332 332 332 331 331 331 330 329 328 326 325 326 325 324 324 322 315 308 306 308 312 318 319 314 307 308 315 321 320 319 318
327 327 325 325 325 325 327 328 327 326 326 325 325 326 326 326 326 327 327 327 328 329 331 332 333 333 334 334 334 333 332 332 333 333 332 331 331 331 329 328 327 326 325 324 322 319 318 316 312 310 309 308 310 313 313 309 306 308 314 320 324 324 323
326 325 325 325 326 326 327 327 326 326 326 326 326 326 326 325 326 327 327 327 327 327 328 329 332 333 333 334 334 333 332 332 332 333 333 332 332 331 329 328 328 326 325 323 320 317 317 316 314 312 310 312 314 314 309 307 309 307 309 315 320 322 322
326 326 325 325 327 328 327 326 325 325 326 326 326 325 325 325 325 326 327 327 327 326 326 327 329 331 332 332 332 333 333 332 332 332 332 332 333 331 330 329 329 327 326 324 321 317 317 317 315 313 314 318 321 318 311 309 310 309 311 318 322 322 321
326 326 325 324 327 329 328 326 326 325 325 326 327 326 325 325 325 325 325 325 326 327 326 326 327 328 329 330 330 331 331 331 331 332 332 332 332 332 330 330 330 328 327 325 321 317 317 318 317 317 319 321 321 318 312 309 310 310 313 321 324 323 321
326 326 325 325 327 329 328 326 326 324 323 325 327 327 325 323 323 324 325 325 325 326 326 326 326 326 327 328 329 329 330 330 330 331 332 332 332 331 330 330 330 329 328 326 322 317 317 318 319 320 320 318 317 317 314 311 310 310 313 320 323 320 320

ECMWFFLT2_850_thetae_105.txt.gz
Theta_e
325 326 326 327 329 328 330 329 327 329 335 338 338 340 342 340 344 350 349 351 358 359 355 353 353 352 349 350 351 351 353 353 352 353 353 353 352 351 350 348 347 346 344 345 347 347 347 347 348 348 348 349 350 351 351 347 346 346 345 344 341 340 340
325 326 326 327 328 329 329 326 328 332 334 334 337 340 341 338 339 347 347 346 352 354 355 358 357 354 351 351 351 351 353 353 352 353 353 353 353 351 351 349 347 346 345 345 347 347 347 347 348 348 349 349 349 351 351 347 346 345 345 345 342 341 340
326 327 326 326 326 328 330 327 330 335 331 333 335 334 337 337 337 345 345 343 347 349 351 354 352 353 354 354 353 352 353 353 352 352 352 353 354 353 352 350 348 346 345 346 347 347 348 347 348 348 349 350 349 351 351 348 345 343 343 345 344 342 342
326 326 325 323 323 326 328 327 329 333 332 334 337 333 336 339 339 344 345 344 347 348 350 350 350 354 356 355 356 353 353 354 353 353 353 353 354 354 352 351 350 348 347 348 347 348 348 348 348 349 348 350 349 350 351 350 347 344 343 346 346 345 344
324 324 323 324 324 324 326 325 324 327 329 333 337 334 333 340 342 343 346 347 348 348 352 352 350 355 355 353 354 354 352 354 354 354 353 354 355 354 352 351 352 350 348 349 349 348 349 348 348 349 349 350 350 351 352 351 349 347 346 346 347 347 347
321 322 324 325 326 325 326 325 324 326 328 329 332 332 329 335 342 342 344 347 349 351 356 356 352 354 353 351 352 352 350 352 355 356 354 354 354 353 351 350 351 351 349 349 349 348 349 349 348 349 350 351 351 352 352 352 351 350 350 350 348 348 348
323 325 327 326 327 326 326 327 327 328 328 328 329 330 330 330 336 341 342 344 349 354 356 355 352 351 350 350 350 349 349 350 353 355 353 353 353 353 352 351 351 351 350 350 349 348 349 350 348 349 351 352 352 352 352 353 353 353 353 352 351 349 348
328 326 326 327 327 326 324 326 328 327 327 330 330 332 334 333 335 337 339 342 350 354 354 352 349 347 348 349 349 349 349 349 351 352 353 353 354 353 353 353 351 350 350 350 350 350 350 350 349 349 351 351 352 352 353 353 354 353 353 353 352 350 348
329 330 332 331 328 326 324 325 326 326 326 328 329 332 334 334 333 329 330 338 347 351 353 351 349 352 351 349 349 349 349 349 350 351 353 354 355 354 354 353 351 350 349 349 350 350 350 349 349 350 351 351 351 352 352 352 352 352 351 351 351 350 348
327 331 335 333 329 328 326 326 325 325 326 325 325 326 326 329 333 332 335 343 349 350 351 351 352 356 356 351 349 348 349 349 351 352 351 352 354 354 353 352 351 351 350 348 350 350 349 349 349 350 351 351 351 352 352 351 350 350 350 350 349 348 348
329 330 333 333 329 327 325 325 325 323 324 325 325 324 323 329 338 340 345 351 351 350 351 352 353 355 356 354 350 347 348 349 351 352 350 351 352 352 352 351 350 350 349 349 350 350 350 350 350 351 351 351 351 352 352 352 351 350 350 349 349 348 348
329 328 329 328 328 326 323 324 329 330 329 328 324 322 325 337 344 343 348 352 350 351 353 353 353 352 353 351 348 346 347 349 350 350 349 350 351 351 351 351 350 350 348 349 350 351 350 350 350 351 351 350 351 351 352 353 353 352 351 350 349 349 349
326 326 327 327 327 327 325 329 334 337 338 337 333 330 334 340 343 344 350 352 349 352 352 352 352 350 349 349 347 346 346 347 349 349 348 349 350 348 349 351 351 351 350 351 351 350 351 351 350 350 350 351 352 352 352 354 354 353 352 351 350 350 350
325 325 327 327 328 329 331 336 339 339 340 342 342 343 345 344 343 346 351 352 351 351 350 351 352 350 350 349 347 346 346 347 348 349 348 348 348 348 348 349 351 352 351 351 351 351 351 351 351 350 350 353 354 355 355 355 354 354 355 354 354 353 353
326 326 326 327 330 332 333 335 339 339 340 343 344 345 347 351 351 351 351 352 354 353 350 350 351 351 350 347 344 346 347 346 348 348 348 347 348 349 348 348 349 351 351 351 351 352 353 353 354 354 353 355 356 357 357 355 353 355 356 356 355 354 353
328 325 327 329 329 332 332 333 338 340 341 343 344 344 345 347 349 351 352 353 355 355 351 349 350 351 349 346 344 345 346 347 348 348 347 348 348 349 348 348 349 350 350 350 350 350 350 351 352 353 354 355 356 356 356 354 354 355 355 355 355 352 350
328 327 328 329 331 336 335 334 337 340 342 342 342 343 343 342 344 348 351 350 350 350 349 349 349 349 348 348 346 344 345 346 346 347 347 348 348 348 348 348 349 350 350 349 349 349 348 349 349 348 349 351 352 354 354 354 353 353 353 354 354 352 351
328 329 330 331 337 340 337 334 335 338 341 342 342 342 342 341 342 344 346 347 346 347 347 348 347 346 347 347 345 344 345 344 344 346 346 347 347 347 347 348 349 349 349 348 349 349 349 349 348 347 347 347 348 350 350 350 350 350 348 348 349 349 349
329 332 333 334 337 337 334 333 335 335 338 340 341 340 339 340 339 340 343 344 343 343 344 344 344 343 343 344 343 343 342 342 344 346 346 346 347 347 347 347 347 348 348 347 348 349 349 349 349 348 348 348 348 349 348 349 348 348 347 347 347 347 347
333 336 335 334 336 336 332 334 334 333 336 339 340 340 340 339 339 339 341 341 342 342 341 342 342 342 341 342 342 342 342 342 344 347 346 345 345 345 346 346 346 347 348 348 348 348 348 348 348 348 348 348 349 349 349 350 350 349 350 349 349 349 348
336 339 337 334 335 336 336 337 335 331 334 338 339 341 340 339 339 340 340 340 340 340 340 340 340 340 339 339 340 342 344 344 345 345 345 344 344 344 344 344 344 345 346 347 346 346 346 346 347 347 347 347 348 348 348 348 349 348 348 348 348 349 349
335 340 340 336 335 337 339 339 334 330 332 333 333 338 340 339 339 340 339 340 340 338 338 338 337 339 341 339 338 339 341 342 343 343 342 342 341 340 341 342 343 343 344 345 344 344 344 344 344 345 345 345 346 346 346 346 346 346 346 346 346 347 347
333 336 339 337 335 337 340 338 333 330 331 329 328 336 339 339 339 340 340 339 339 338 338 336 336 342 345 340 337 338 340 340 340 341 341 340 339 338 340 341 342 342 342 342 341 341 341 341 341 342 342 342 343 343 342 343 343 343 343 344 344 344 344
332 332 335 336 334 336 339 338 334 331 329 329 333 338 339 337 338 341 341 339 337 337 337 336 337 343 343 339 337 338 338 337 338 339 339 338 337 338 338 338 338 337 336 334 332 332 333 333 334 335 336 337 338 338 339 339 339 340 340 340 341 341 341
334 333 333 334 333 335 336 333 331 330 330 332 337 339 338 336 337 340 341 340 339 337 337 337 338 339 338 336 336 337 337 336 336 337 338 336 335 335 336 335 334 332 331 329 328 328 328 327 326 326 327 330 332 333 335 336 336 336 336 337 337 338 338
334 334 333 333 333 333 331 329 328 331 335 336 336 336 335 334 337 338 339 340 341 340 338 338 337 336 336 335 337 338 338 337 336 336 336 334 333 333 332 331 329 327 326 325 325 326 326 324 321 318 318 321 323 326 328 330 331 331 330 330 330 330 331
334 333 331 333 334 333 330 332 334 334 336 336 334 333 333 334 335 337 338 339 340 339 338 337 336 336 336 336 337 337 337 337 336 335 334 333 332 332 331 328 327 326 326 326 326 325 324 322 321 319 316 316 317 318 319 320 321 321 320 320 320 321 322
335 334 332 333 334 332 330 333 335 334 333 333 332 333 333 333 334 336 337 338 338 338 337 336 336 335 335 334 334 335 336 337 336 335 334 332 331 331 330 329 328 327 327 327 325 322 319 317 317 316 314 313 312 312 312 312 312 313 313 313 315 316 316
334 335 335 332 329 329 329 330 331 330 330 331 332 333 333 333 333 335 336 337 337 337 336 336 335 335 335 334 333 334 336 336 335 335 334 333 331 330 330 329 328 327 327 325 319 314 312 311 311 311 309 309 309 309 309 309 310 311 310 310 312 312 313
332 332 332 329 327 328 327 327 328 329 329 330 331 332 333 333 332 333 334 335 336 336 336 336 335 335 334 334 333 333 334 335 335 335 334 333 331 330 330 329 328 328 327 322 314 310 311 310 310 310 309 308 308 307 307 307 307 308 307 307 307 308 311
332 332 330 328 328 327 325 326 327 327 327 328 329 330 331 331 331 332 333 334 334 335 335 335 335 334 334 334 333 333 333 334 334 334 334 332 331 330 330 329 328 328 327 321 317 318 315 310 309 309 308 308 307 307 306 306 306 307 309 310 311 310 310
332 332 329 326 326 325 325 325 326 326 327 327 327 328 328 329 330 330 331 332 333 334 335 335 334 334 333 333 333 333 333 333 334 334 333 332 331 330 330 328 327 328 326 322 321 323 318 310 308 308 307 308 308 306 306 306 306 308 313 317 319 318 314
331 330 328 327 327 327 326 325 325 326 327 326 326 327 327 327 327 328 329 330 331 332 333 334 334 334 334 332 332 332 332 332 332 333 332 332 331 330 329 328 327 327 326 321 319 321 317 310 308 307 308 309 308 307 306 306 306 310 317 321 324 322 318
331 330 328 328 330 330 327 325 325 325 325 326 325 326 326 327 327 327 327 327 329 331 332 333 333 334 334 333 332 332 332 332 332 332 332 332 330 329 328 327 326 327 326 321 317 318 317 314 312 310 309 310 309 308 308 308 308 311 316 320 323 322 320
331 329 327 327 329 328 326 325 326 326 326 326 325 325 326 326 326 326 326 326 327 329 331 332 332 333 333 333 333 332 332 332 332 332 332 332 331 329 328 327 327 327 325 320 316 317 318 317 316 314 314 314 314 312 311 312 311 311 314 318 321 321 321
328 328 328 327 326 326 326 326 326 326 326 325 325 325 326 326 325 326 326 326 326 326 327 329 330 331 330 331 332 332 332 332 332 332 332 332 332 331 329 328 328 327 325 321 318 317 317 317 317 317 317 318 318 315 313 313 313 312 314 319 322 322 320
327 328 328 326 325 325 326 325 325 326 327 325 325 325 324 324 325 325 325 326 326 326 326 326 327 329 330 330 330 331 331 331 331 332 332 332 332 331 330 330 329 329 327 325 322 319 317 317 317 318 318 319 318 317 316 315 313 313 314 317 320 321 319

ECMWFFLT2_850_thetae_108.txt.gz
Theta_e
326 325 326 325 329 334 334 331 330 333 339 344 344 343 342 345 349 348 348 351 355 358 360 353 346 348 349 349 349 349 350 351 351 351 349 347 347 347 346 343 341 342 340 341 342 343 346 349 349 350 350 349 349 350 350 350 347 341 340 342 341 340 343
325 323 325 324 326 333 332 326 328 333 334 338 346 346 343 343 345 347 348 349 350 351 356 357 353 352 350 349 350 349 349 351 352 352 350 348 347 347 347 345 342 342 342 341 342 343 345 348 348 349 349 349 348 349 349 349 349 343 340 341 341 339 340
324 324 323 324 326 328 328 328 331 336 336 335 336 339 341 341 342 347 348 347 348 350 354 358 355 352 351 351 352 350 350 352 352 351 351 349 349 348 348 347 344 343 343 342 343 344 345 347 348 348 348 348 348 349 349 349 348 343 340 341 342 340 339
324 327 324 324 328 327 326 327 327 336 343 340 335 334 339 341 342 347 347 345 348 351 355 361 356 352 352 353 354 352 350 352 352 351 351 350 350 350 349 348 346 344 344 344 344 345 345 346 346 348 348 348 349 348 348 349 346 342 340 341 342 341 339
324 326 325 324 327 325 325 325 323 328 335 335 336 335 336 342 345 346 345 346 351 353 354 357 353 353 355 353 355 354 351 351 352 351 351 350 350 350 350 350 347 345 345 345 345 346 345 345 346 347 348 347 348 348 348 349 348 344 341 341 342 341 340
323 325 326 325 326 324 327 327 325 330 333 330 335 334 333 341 344 343 344 346 354 357 356 354 350 352 354 350 351 351 349 350 350 349 351 351 352 351 350 351 349 347 345 345 346 346 345 346 346 347 348 347 348 348 348 349 349 347 342 340 342 342 341
324 325 325 325 326 326 327 326 325 332 335 334 336 334 331 336 339 342 343 344 354 362 361 358 353 350 351 349 349 348 347 350 350 349 350 351 352 353 351 352 350 347 347 346 346 346 346 347 347 347 348 347 348 349 348 349 349 348 344 341 341 343 343
335 332 332 328 327 328 328 328 327 329 331 333 338 338 338 339 338 340 340 343 353 360 357 354 350 349 350 349 349 348 347 350 351 350 351 350 351 352 352 352 351 349 348 347 347 347 347 347 347 347 348 348 348 349 349 349 349 349 346 342 341 342 343
337 339 340 333 328 329 328 329 331 333 336 335 332 335 341 341 336 334 335 339 348 354 353 352 349 349 351 348 349 349 348 350 351 350 351 351 351 352 352 351 350 349 349 349 348 347 347 348 348 347 347 348 349 349 349 349 349 349 348 345 342 341 343
330 332 333 331 329 329 328 330 334 340 343 336 328 329 334 335 333 334 337 343 351 355 354 353 352 352 352 350 349 351 350 350 350 350 350 351 351 352 352 350 349 349 349 350 350 349 348 347 348 348 348 349 349 349 349 349 349 350 349 346 343 342 344
331 333 333 333 332 328 329 334 339 343 344 341 334 329 328 332 334 338 347 354 357 357 354 354 355 354 354 351 349 350 352 351 350 350 350 351 351 351 351 350 350 349 349 349 349 350 351 350 349 349 349 350 350 350 351 351 350 350 351 350 348 347 348
329 331 330 329 330 331 335 339 341 343 344 345 344 336 332 336 336 340 354 359 353 352 354 353 353 352 350 349 348 350 351 350 350 351 351 351 351 351 351 350 349 349 349 348 348 349 350 351 351 352 353 353 354 354 354 354 354 353 353 353 352 352 352
326 328 329 329 332 337 340 340 341 343 343 344 346 344 343 344 340 342 354 356 350 352 352 350 350 349 347 347 348 349 350 349 350 351 351 351 351 351 351 350 349 349 348 348 349 348 349 350 350 351 352 353 354 355 355 355 354 354 354 352 351 352 353
327 327 331 333 334 338 340 341 342 343 343 343 344 344 345 347 348 349 353 353 352 351 349 349 348 347 346 346 347 349 349 349 350 350 350 350 350 350 350 350 349 349 348 348 349 349 349 349 349 349 350 351 353 353 353 353 352 352 352 351 350 352 352
329 329 332 332 333 337 339 341 343 342 344 346 344 342 344 348 351 351 350 352 352 348 346 348 347 344 346 346 347 349 349 349 349 349 349 349 349 350 350 350 350 349 349 349 349 349 350 349 349 348 349 350 350 350 350 351 350 350 349 350 351 352 352
330 328 330 330 333 336 336 337 341 343 345 346 343 340 341 344 349 350 350 351 351 348 347 348 347 345 345 345 346 347 348 348 349 348 348 348 348 349 350 350 350 350 349 349 349 349 349 349 349 349 349 350 350 349 349 349 349 350 350 349 349 349 350
332 330 331 333 336 340 340 337 338 341 344 344 342 341 339 340 345 349 350 349 348 348 348 348 347 346 345 345 345 345 346 347 348 348 348 348 348 348 350 350 350 350 350 350 350 349 349 350 351 350 350 350 351 351 350 350 350 350 351 352 351 350 351
333 335 337 339 341 342 341 338 338 340 341 341 343 342 338 338 342 345 347 346 344 345 346 346 346 345 344 345 344 343 345 346 346 348 348 348 348 348 348 349 349 350 350 350 349 350 350 351 352 352 351 351 352 353 352 351 351 351 350 352 353 353 352
333 340 342 340 340 341 339 335 337 338 337 337 340 340 337 338 340 340 341 342 342 341 342 343 343 342 342 342 341 342 344 345 346 347 346 347 347 347 347 348 348 348 348 349 349 349 349 349 349 350 351 351 351 352 352 352 352 351 350 350 351 351 349
332 341 342 336 337 341 339 334 333 334 335 338 342 343 339 338 339 340 340 340 340 340 340 341 341 341 341 341 340 341 343 345 346 345 344 344 345 346 347 347 346 346 347 348 348 348 348 348 348 348 348 348 347 348 348 349 348 348 348 347 346 347 346
334 342 340 336 336 337 337 338 334 332 334 337 341 344 340 337 338 339 338 339 339 339 339 340 339 339 341 340 340 342 342 343 344 343 343 343 344 345 346 345 345 346 346 347 348 348 348 348 348 348 348 347 347 347 347 348 348 347 347 347 347 346 347
338 344 340 339 338 336 339 342 336 331 331 332 335 340 338 336 337 337 337 338 338 337 339 339 337 338 340 340 340 341 341 341 342 342 341 341 342 343 343 343 343 344 345 346 346 346 347 347 347 347 347 347 347 347 347 347 348 348 348 348 348 348 348
338 343 342 341 339 339 347 346 334 329 329 328 332 338 337 335 336 336 336 337 336 336 338 338 336 339 342 340 339 339 340 340 339 340 340 340 340 341 341 342 342 342 343 344 344 344 344 345 345 345 345 345 345 345 345 345 345 345 346 346 346 346 347
337 340 341 340 336 338 346 344 334 328 328 329 335 341 339 335 335 335 335 336 336 335 336 336 336 339 341 340 339 339 339 338 338 339 338 338 339 340 341 341 341 341 341 342 342 342 341 342 343 342 343 343 343 343 343 342 343 343 343 343 343 343 343
338 338 338 337 338 341 341 337 331 326 330 337 342 342 338 334 335 336 334 334 335 335 335 336 337 338 338 338 338 339 338 337 337 337 337 337 339 339 339 339 340 339 340 341 341 340 339 338 339 338 339 340 340 340 341 340 340 340 340 339 339 339 340
336 340 339 336 338 339 332 329 327 326 335 343 341 336 335 334 335 336 334 333 335 335 335 336 336 336 337 337 338 337 337 336 336 336 337 338 338 338 337 336 336 336 336 336 336 334 333 331 330 331 332 334 335 337 338 337 337 337 336 337 336 337 337
335 337 336 335 338 338 329 328 332 333 338 341 335 332 336 336 336 337 336 336 337 336 335 335 336 337 337 337 337 337 336 335 334 334 334 334 332 332 331 329 329 329 329 327 326 324 322 321 320 320 322 325 328 330 331 332 332 331 330 330 330 331 332
336 336 334 335 339 337 330 330 335 335 334 334 333 334 336 337 338 339 338 337 337 335 335 336 336 337 337 336 336 336 335 334 333 332 332 330 328 327 327 326 326 325 323 319 316 316 315 314 315 315 315 317 320 321 321 321 321 320 320 319 321 323 325
334 337 337 332 330 330 330 330 332 332 331 332 334 335 336 337 338 338 337 336 335 334 335 336 335 337 337 337 336 335 335 334 332 331 331 329 328 327 327 327 326 325 320 314 311 311 312 312 312 314 313 312 312 312 312 313 313 313 313 314 315 316 317
331 333 331 327 326 328 329 330 332 333 333 333 333 334 334 336 337 337 336 335 335 335 334 334 334 334 336 337 337 336 335 334 332 330 330 329 328 328 327 326 327 326 320 313 309 310 310 309 310 311 311 311 309 310 311 310 309 308 309 311 313 313 312
334 333 327 325 327 327 328 331 332 332 332 332 332 333 333 333 335 336 336 336 335 335 335 334 334 333 334 336 336 335 335 334 332 331 330 329 328 328 328 328 327 324 317 311 311 311 310 309 308 308 309 309 308 308 309 309 308 309 310 311 311 312 313
336 333 327 325 326 326 327 329 329 329 330 331 331 332 332 332 333 334 335 335 335 335 335 334 334 333 333 334 335 335 334 335 333 332 330 329 329 329 329 328 327 323 316 312 313 311 308 308 309 307 308 308 306 306 307 307 310 314 316 315 313 313 316
332 328 326 326 326 326 326 326 326 327 328 328 329 329 330 331 332 333 333 334 335 334 334 334 333 333 333 333 334 335 334 334 334 332 330 330 329 329 328 328 327 325 319 315 315 312 309 308 308 307 308 308 306 306 306 308 311 314 316 317 316 315 316
332 330 327 327 327 327 326 325 326 327 326 326 327 327 328 329 331 332 333 333 334 334 334 333 332 332 332 332 332 333 334 334 333 331 330 330 329 328 328 327 327 327 324 319 317 315 312 308 307 308 308 308 307 307 306 308 312 314 315 317 318 317 316
330 328 326 325 326 326 325 325 326 327 326 327 326 326 326 327 329 331 332 332 333 333 333 333 333 332 332 332 332 332 333 333 332 331 330 330 329 327 327 327 326 327 326 322 318 317 316 313 311 311 311 311 310 310 308 309 312 315 315 316 318 318 318
327 326 326 326 325 325 325 325 325 325 326 327 327 326 326 326 326 329 330 330 331 332 331 332 332 332 332 332 332 332 332 332 332 331 330 330 329 328 328 328 327 327 327 324 319 317 317 317 316 315 316 316 315 314 312 311 311 313 314 315 318 319 318
327 326 326 325 324 325 326 325 325 325 325 325 326 326 326 326 326 326 327 328 328 329 330 330 330 331 332 332 332 332 332 332 332 332 331 331 331 330 330 330 329 328 328 327 323 320 317 317 317 317 317 318 318 317 316 314 313 313 314 315 317 319 319

ECMWFFLT2_850_thetae_111.txt.gz
Theta_e
324 330 340 341 341 344 340 336 339 339 341 346 347 347 347 345 344 346 346 350 355 354 355 356 351 348 349 349 349 349 349 347 346 347 347 347 345 341 338 340 343 345 346 345 345 344 344 344 345 346 347 348 347 345 344 345 347 347 344 342 343 344 345
324 323 334 340 337 338 339 338 340 340 338 341 347 348 346 343 342 343 346 350 351 348 351 356 353 348 347 348 349 348 348 348 348 348 347 347 346 343 340 339 340 343 345 345 345 344 343 343 343 345 346 347 347 347 346 347 348 349 347 343 341 341 343
324 323 329 336 336 331 333 336 337 340 340 337 337 341 343 342 343 345 346 347 349 348 350 356 354 349 346 347 349 348 347 348 348 348 348 347 347 346 344 341 339 341 343 344 345 344 343 342 342 343 344 346 348 348 348 348 348 349 348 344 339 339 341
323 325 327 328 328 326 327 328 328 336 342 339 335 337 340 343 345 345 344 344 348 350 352 359 358 349 346 347 348 348 347 347 347 349 349 348 347 347 346 345 342 340 341 342 344 344 343 342 342 343 345 347 348 347 348 349 349 349 349 345 340 339 340
323 325 326 323 323 325 325 324 323 328 334 335 335 335 338 345 347 345 342 344 350 351 351 358 360 352 347 347 349 349 347 347 347 348 349 348 348 347 347 347 345 343 341 341 343 343 342 342 342 343 345 347 347 348 347 348 349 349 349 347 342 339 339
323 325 325 323 325 324 323 325 325 325 329 333 335 334 334 343 347 345 343 345 349 350 349 353 358 355 349 347 349 349 348 348 348 348 348 348 348 348 347 347 347 345 342 340 342 343 343 343 342 343 346 347 347 348 347 348 348 349 349 349 344 339 339
325 325 325 324 326 325 326 329 327 329 334 335 337 336 333 337 342 343 343 342 343 348 350 352 351 350 348 348 349 349 348 349 349 348 348 347 348 349 348 348 348 346 344 341 342 344 344 344 343 343 345 347 348 348 347 347 348 349 349 348 344 340 339
333 328 327 325 325 329 331 331 331 334 338 336 334 337 340 342 342 341 340 339 341 347 351 350 347 346 348 348 349 349 349 349 349 348 349 349 350 350 349 349 348 347 346 343 342 343 345 346 346 346 345 346 347 348 348 347 347 348 349 347 343 340 340
336 333 332 328 326 329 330 329 332 338 344 345 336 334 341 344 340 338 337 337 340 346 349 349 349 349 350 348 349 349 349 349 348 349 349 350 350 350 350 350 349 348 348 345 343 342 343 345 346 348 350 349 347 347 347 347 347 348 348 348 345 341 340
332 331 331 330 328 328 330 334 338 341 346 348 338 331 335 340 338 337 337 339 343 348 351 350 350 351 351 350 349 349 349 349 349 349 350 350 350 350 350 350 350 349 348 347 345 343 344 344 344 348 350 351 351 350 349 348 347 349 349 349 347 343 341
334 333 333 332 331 330 334 340 342 342 344 345 342 335 332 336 339 338 341 346 349 351 353 351 349 351 351 351 350 350 350 350 349 350 349 350 351 351 351 350 350 349 348 347 346 345 345 344 344 345 347 350 352 353 353 352 349 349 350 351 350 345 342
330 335 335 334 336 337 339 341 341 342 342 346 350 345 336 337 336 334 343 355 355 352 352 350 348 349 349 350 350 350 350 349 349 350 350 350 350 351 351 351 350 350 349 347 347 346 346 345 345 345 345 348 350 352 352 351 350 348 348 350 351 349 345
329 334 334 336 340 340 339 340 340 341 342 344 349 348 344 344 340 335 345 356 356 352 350 349 347 347 348 349 349 349 349 349 350 350 350 350 350 350 350 350 350 350 349 349 348 347 347 347 346 347 346 347 349 350 349 348 349 349 347 348 350 350 348
330 333 334 337 340 340 340 337 336 339 341 342 344 345 346 349 348 347 350 353 353 351 349 348 346 346 347 348 349 349 349 349 350 350 350 350 350 350 350 350 350 349 349 349 349 348 348 348 348 348 349 349 350 350 349 346 347 349 348 348 349 350 348
328 332 334 334 337 340 342 338 334 337 341 341 343 344 345 348 350 350 351 352 353 350 346 346 346 346 348 349 349 349 350 350 351 350 350 350 350 350 350 350 350 349 349 349 349 349 349 349 349 350 350 351 351 352 351 349 348 348 348 347 349 350 348
327 330 332 332 335 338 341 341 336 338 343 342 341 341 342 346 348 349 350 352 353 350 345 345 346 346 347 347 347 348 348 349 350 349 349 350 350 350 350 350 350 349 349 348 348 349 350 350 350 351 352 352 352 352 352 351 350 348 347 349 350 350 349
330 333 334 336 336 334 339 341 335 337 343 342 340 341 340 341 345 349 350 349 349 348 347 346 346 345 344 344 344 346 347 348 348 348 349 349 349 350 350 350 350 350 349 349 348 349 349 349 350 350 351 352 352 353 353 353 352 350 350 351 352 351 349
331 338 340 339 337 334 338 340 337 339 342 340 341 342 340 338 340 342 342 341 342 344 344 344 344 343 342 342 343 345 347 348 348 348 348 348 348 349 350 350 350 350 350 349 348 349 349 349 349 349 349 350 351 352 352 352 352 351 351 351 351 351 348
331 340 344 338 337 339 339 337 337 338 338 339 341 339 337 338 338 337 337 337 338 339 339 340 341 341 342 343 344 346 347 347 348 348 348 348 348 348 349 349 349 349 349 349 349 349 349 349 349 349 349 349 349 349 349 349 349 349 350 350 350 349 348
326 335 338 333 335 339 337 336 336 336 336 339 341 340 339 337 336 337 336 335 337 338 337 338 340 341 343 343 343 345 346 347 347 347 348 348 347 347 347 347 348 348 348 348 348 348 349 349 349 349 350 350 350 349 348 348 348 349 351 352 351 350 349
329 337 337 334 335 335 336 338 338 335 335 335 338 343 343 336 336 338 336 336 338 338 338 338 338 339 341 342 341 342 345 346 347 347 347 347 347 346 345 346 347 348 348 348 348 347 347 348 348 348 348 349 350 350 349 349 350 352 352 352 352 352 352
335 342 339 337 338 338 339 340 336 332 331 330 333 342 343 336 335 338 337 337 339 338 338 338 336 338 342 342 340 340 342 343 344 345 346 346 346 345 345 345 345 345 346 347 346 347 347 347 346 346 346 347 347 348 349 349 349 349 349 349 349 349 350
334 341 340 340 340 340 342 342 334 328 327 328 332 341 344 338 335 336 337 338 338 337 338 336 336 341 345 343 339 339 340 340 340 341 343 344 344 343 342 343 343 343 344 345 345 346 346 346 346 346 346 347 347 347 348 348 347 347 347 347 347 347 347
337 338 338 339 337 335 338 341 335 327 327 330 334 342 344 337 335 336 337 337 337 337 336 335 338 343 343 340 339 338 339 339 339 339 341 341 342 342 341 341 341 341 341 342 343 344 344 345 345 345 345 346 346 347 347 347 347 347 347 347 347 347 347
340 337 335 336 337 336 336 337 332 326 327 332 337 342 340 335 334 337 336 336 336 335 334 336 338 339 337 337 338 338 338 338 338 338 338 338 339 340 339 338 338 338 338 338 339 340 341 341 341 342 342 343 344 344 344 344 345 345 345 345 344 344 344
336 338 338 335 335 334 330 328 327 326 331 337 339 339 335 334 335 336 335 335 336 334 334 335 336 336 336 337 338 337 337 337 337 337 336 335 333 333 332 332 333 333 332 330 330 331 332 334 335 336 338 339 340 340 340 340 341 341 341 341 341 341 341
333 336 336 334 334 332 327 326 330 332 335 338 337 334 334 336 338 336 334 335 335 335 336 336 335 336 336 337 337 336 336 337 336 335 333 331 329 328 327 327 327 326 323 320 319 320 321 325 328 330 332 334 336 337 337 337 337 336 337 337 337 337 337
335 337 337 335 335 332 327 327 332 333 333 334 335 335 335 336 337 337 336 335 335 336 336 335 336 336 335 336 336 335 335 335 333 330 329 327 326 326 325 323 321 318 317 315 315 316 317 319 321 323 325 327 329 330 330 330 329 329 330 331 332 333 334
333 337 338 333 328 327 328 328 329 330 331 333 336 338 337 336 337 338 338 336 335 336 336 335 335 335 334 335 334 333 333 333 329 327 326 326 326 325 323 320 316 312 311 311 312 314 315 315 314 315 316 317 318 319 319 319 319 319 320 323 325 328 330
329 330 330 327 326 327 328 329 329 330 333 335 337 337 337 337 337 337 336 335 336 336 336 336 335 335 334 334 334 333 332 330 328 328 327 327 328 327 324 320 315 311 309 309 310 311 312 311 311 311 311 311 311 311 311 313 313 313 314 316 318 321 324
333 334 329 325 327 328 327 328 330 332 334 335 335 336 337 336 335 335 335 335 336 337 337 336 336 336 335 334 334 332 331 330 329 328 328 328 328 327 323 318 313 311 311 311 311 310 310 310 310 309 309 309 309 308 308 309 310 310 311 312 313 315 316
335 335 329 324 326 328 327 327 327 330 333 334 334 335 336 335 335 335 334 334 335 335 335 335 335 336 336 335 334 332 330 330 330 329 329 329 329 327 324 318 314 313 313 313 312 311 310 309 308 307 307 307 307 307 307 307 307 308 309 310 310 311 312
330 328 326 325 326 328 326 326 326 328 331 333 333 334 336 335 335 335 334 335 334 334 334 333 334 335 336 336 334 333 331 330 330 330 329 329 329 328 326 324 321 317 315 313 312 309 308 308 308 307 307 306 306 307 308 309 310 311 311 311 310 310 312
331 329 327 327 329 329 326 326 327 329 330 330 331 333 334 334 335 335 334 334 334 333 333 333 332 334 336 336 335 334 332 331 330 330 329 329 329 328 327 327 326 324 320 317 314 311 309 307 308 308 307 306 306 307 309 310 311 314 315 315 315 314 315
331 328 325 325 328 327 325 326 327 328 329 330 331 332 333 333 334 334 334 333 333 332 332 332 333 334 335 335 334 334 333 332 331 330 329 329 329 328 327 327 327 327 324 319 316 315 314 312 311 310 310 309 308 308 309 310 311 314 316 317 317 318 318
326 325 325 325 326 325 325 326 326 327 328 329 330 332 332 332 332 333 333 333 333 332 332 332 332 333 334 334 334 333 332 332 331 330 329 329 328 327 327 327 326 327 326 322 318 317 317 316 316 316 315 315 313 311 311 311 312 313 315 316 317 318 319
324 325 325 325 325 326 326 326 325 326 326 327 328 329 330 331 331 331 331 332 332 332 332 332 331 332 333 333 332 331 330 330 330 329 328 328 328 327 327 328 328 328 328 327 324 321 318 316 316 317 318 317 317 316 315 313 313 312 312 313 315 317 319

ECMWFFLT2_850_thetae_114.txt.gz
Theta_e
321 326 339 343 340 345 344 338 339 338 342 351 348 344 347 345 343 346 346 350 355 354 355 356 353 350 348 348 348 347 346 346 345 346 346 344 341 339 338 339 341 342 342 342 342 343 343 344 344 344 344 343 343 345 345 345 343 342 342 342 341 341 341
322 323 335 343 336 342 348 342 341 343 342 348 350 347 347 343 341 344 346 351 351 346 350 356 354 352 351 350 349 347 346 346 345 345 346 345 343 340 339 338 339 341 343 343 343 342 342 343 343 343 343 342 342 344 345 345 344 341 340 340 340 340 341
324 326 338 347 338 336 346 345 343 344 342 341 341 342 345 344 343 346 346 348 350 348 352 358 356 353 352 351 350 348 347 346 345 345 346 345 345 343 340 338 339 341 342 343 342 342 342 342 342 342 342 342 342 343 345 346 344 341 340 339 340 340 340
324 327 336 341 334 328 333 336 339 341 339 338 337 338 341 340 341 345 343 343 351 352 353 362 362 354 352 351 351 350 348 347 346 346 346 345 346 345 342 340 339 339 341 341 342 341 341 342 342 342 342 343 343 343 344 346 345 344 342 340 340 339 339
324 324 326 326 325 326 326 327 332 333 332 335 335 335 339 340 342 345 341 342 354 351 347 356 359 354 352 350 348 348 347 348 347 346 346 346 346 346 344 343 340 339 339 340 341 341 341 342 342 342 343 342 343 343 345 346 346 345 343 342 342 342 341
326 326 325 322 322 323 325 330 332 327 325 330 332 333 338 341 341 344 340 342 352 348 345 351 353 351 351 346 345 346 347 347 347 347 346 346 346 346 345 345 342 340 339 339 340 341 342 343 343 343 343 343 343 343 344 346 346 346 346 346 346 346 344
327 326 325 323 322 323 326 332 334 332 333 336 335 334 338 337 337 342 340 339 344 344 346 351 350 349 349 345 343 344 345 347 347 347 347 346 346 346 345 346 344 342 341 339 340 341 343 344 344 344 344 344 343 343 344 346 346 347 347 347 347 347 346
339 332 330 327 325 329 330 330 334 338 341 342 336 334 340 339 339 342 339 337 342 347 347 349 347 347 348 346 345 344 345 348 347 346 348 347 347 347 346 346 345 343 341 339 339 341 342 343 343 344 345 344 344 344 345 346 346 347 347 347 348 348 348
339 333 336 335 331 333 330 329 336 339 342 343 337 331 335 338 340 341 338 338 343 346 348 348 348 349 350 349 348 347 347 347 347 348 348 347 348 348 347 346 346 345 343 340 339 339 340 341 341 342 343 343 343 344 345 346 347 347 347 347 347 348 348
330 331 339 338 333 335 334 335 340 340 340 344 340 331 331 336 338 339 338 341 345 346 349 351 350 352 354 352 348 346 346 347 347 348 348 348 348 348 348 347 346 346 345 343 342 340 340 340 340 340 341 342 342 343 343 345 346 348 348 348 348 348 348
330 336 344 339 334 339 341 342 343 341 340 342 340 333 333 335 336 339 342 345 349 352 352 351 350 351 353 352 349 346 346 346 346 347 349 349 349 348 349 348 347 347 346 345 344 343 342 341 341 341 341 341 341 342 342 343 345 347 348 348 349 348 349
331 337 341 338 339 343 341 340 343 343 341 342 343 341 339 335 329 332 343 347 350 352 349 348 349 349 349 350 350 348 347 346 345 346 348 349 350 350 349 349 349 347 346 345 343 343 342 342 342 341 341 341 342 342 342 342 344 346 347 348 349 348 349
333 335 334 336 342 343 338 336 342 345 343 343 345 345 345 340 331 332 342 348 351 351 348 347 346 347 348 349 349 349 349 347 346 346 347 348 350 350 349 349 349 348 347 345 343 343 342 342 342 342 342 343 344 345 344 342 344 345 345 347 348 348 348
332 332 333 337 341 342 339 335 337 342 343 342 343 343 344 345 342 343 347 350 351 350 347 347 346 346 348 348 348 349 349 349 349 347 346 347 348 349 350 349 349 349 348 347 345 344 344 343 343 343 343 343 345 346 346 345 345 345 345 346 347 347 348
327 332 335 336 339 341 342 339 339 343 346 345 343 341 343 346 348 348 349 350 352 349 346 346 347 347 348 348 348 350 349 350 350 347 345 346 348 349 350 350 350 349 348 348 347 346 345 345 344 344 344 343 344 345 346 346 346 345 345 346 348 348 348
324 330 335 338 340 337 337 342 343 344 348 348 344 341 341 344 346 348 349 350 350 348 346 346 346 346 345 346 347 349 349 350 350 348 348 348 349 349 349 350 350 350 349 349 348 348 347 347 346 346 345 345 344 345 346 346 347 347 346 346 348 350 349
324 328 336 341 341 334 334 339 338 339 345 345 342 342 341 339 342 347 348 345 345 346 345 345 345 344 344 344 346 348 348 349 349 349 349 349 349 349 349 349 350 350 350 349 349 349 348 348 347 347 347 346 346 346 346 346 346 347 348 349 351 350 348
323 332 339 338 336 335 336 336 334 339 344 343 342 343 340 338 339 341 341 339 339 342 343 343 342 342 343 345 346 347 348 348 349 349 348 349 349 348 349 350 349 349 349 349 349 348 349 348 348 348 348 347 347 347 347 347 347 347 348 350 352 350 346
326 339 341 332 333 338 336 332 334 338 340 340 341 339 338 337 337 337 338 336 336 338 340 340 339 339 341 344 345 346 347 348 348 348 349 349 348 347 348 349 349 349 348 349 349 348 348 348 348 349 349 349 349 349 349 349 350 350 350 351 351 348 346
323 333 334 327 331 335 332 331 334 336 336 337 338 339 340 339 337 339 339 336 336 337 337 339 339 338 339 340 342 343 344 346 346 347 348 348 346 346 348 348 349 349 349 349 349 348 348 348 348 349 350 350 349 349 349 350 351 352 351 350 349 348 348
326 335 335 332 333 333 332 334 335 335 337 338 338 342 345 340 336 338 338 336 337 338 337 339 339 338 339 339 340 341 342 343 345 345 345 345 344 345 346 347 348 348 349 349 348 348 348 348 348 349 349 349 349 349 349 350 351 352 352 350 349 349 350
331 341 339 337 338 338 339 339 334 331 332 332 333 338 343 339 334 336 336 336 339 338 338 338 337 338 342 341 339 339 340 340 341 342 342 342 342 343 344 344 345 346 347 348 347 347 348 347 348 348 348 348 348 348 348 348 349 349 349 348 348 348 349
332 340 339 337 339 341 343 341 332 326 327 329 328 333 340 339 334 335 337 337 338 338 338 337 335 340 346 342 338 339 340 339 339 340 340 340 340 341 342 342 343 344 345 346 346 346 347 347 347 347 347 347 347 347 347 347 347 348 347 348 349 349 350
335 337 337 337 336 335 337 338 332 326 327 329 329 335 343 338 333 335 338 338 338 338 337 335 335 340 344 341 338 339 339 338 338 339 340 340 339 340 340 340 341 342 343 344 345 345 346 346 346 347 347 346 345 345 345 346 346 347 346 347 348 349 349
338 333 331 333 335 334 333 333 330 326 326 329 334 339 340 334 333 337 338 337 338 338 336 335 335 337 339 338 338 338 338 337 338 338 339 339 338 337 336 336 338 340 341 342 343 343 343 343 344 344 345 344 343 343 343 344 345 344 344 344 345 346 346
335 335 333 331 331 330 327 327 327 325 328 334 339 338 334 332 335 337 336 337 338 337 335 335 335 337 338 337 337 338 337 336 336 336 337 337 335 333 331 329 330 333 335 336 338 338 338 340 340 341 342 342 341 341 341 342 342 342 342 342 341 342 343
331 334 334 331 330 327 324 326 330 330 332 335 335 333 332 334 335 335 336 337 336 335 335 335 336 338 337 337 337 336 335 334 333 332 332 331 329 328 326 323 322 323 325 327 329 331 333 335 336 338 339 339 339 339 339 339 338 339 340 339 338 338 339
334 338 337 333 331 327 325 326 330 331 331 331 332 334 335 336 335 335 336 336 334 335 336 336 337 337 336 336 336 334 332 331 328 327 326 324 321 319 317 317 316 316 317 317 319 322 326 328 330 332 333 334 334 334 334 334 334 335 335 335 334 334 335
334 337 336 330 326 325 326 327 327 328 329 331 334 336 337 336 336 336 335 335 335 335 335 336 336 336 335 336 334 331 329 327 326 326 325 323 321 316 313 312 312 312 312 312 312 314 316 318 320 321 322 323 323 323 324 324 326 328 329 330 331 332 332
328 328 328 325 325 326 328 328 327 329 332 333 335 335 335 336 337 336 335 335 335 334 334 335 335 334 335 333 330 327 326 325 326 326 326 325 323 317 312 311 311 310 311 311 310 311 311 312 313 314 315 315 315 315 316 316 317 319 322 324 326 326 325
330 331 328 325 326 327 327 328 330 331 333 335 334 333 335 336 336 336 335 335 335 334 334 334 334 334 333 330 327 326 326 326 327 326 326 326 324 318 313 310 310 309 309 309 309 309 309 309 310 310 310 310 310 311 311 311 312 313 314 316 317 317 317
330 330 327 324 325 326 327 330 331 330 332 335 333 331 333 335 335 335 335 334 334 334 334 333 333 332 331 329 328 328 327 328 327 326 326 325 322 318 314 312 311 309 308 308 308 308 307 307 307 307 307 307 307 308 309 310 311 310 311 312 313 314 315
328 326 326 325 326 327 326 327 327 326 328 331 330 329 331 333 333 333 334 335 335 334 334 334 333 332 331 330 329 329 329 328 328 327 327 325 322 319 318 316 314 311 308 307 307 307 307 307 306 306 307 308 308 309 311 313 314 313 313 312 313 314 316
334 330 328 327 329 330 328 326 327 326 327 328 328 328 330 332 332 331 332 334 335 334 334 335 334 333 332 331 330 330 330 329 329 328 327 326 325 324 324 322 318 314 312 311 309 308 309 309 308 308 308 308 309 310 311 313 315 316 316 316 316 317 318
335 330 326 325 327 329 327 326 325 324 325 328 329 329 329 330 331 331 330 330 333 333 333 334 335 334 333 332 331 331 330 329 329 329 328 327 327 326 327 326 322 317 316 315 314 313 314 314 313 312 311 311 311 310 310 312 313 314 315 316 316 317 318
327 326 326 326 327 327 326 324 320 318 322 328 330 330 329 329 330 330 330 330 331 332 333 334 335 335 334 333 333 331 331 330 329 329 328 327 327 326 327 327 326 323 320 319 317 316 316 317 318 317 316 315 314 313 313 314 314 314 314 314 314 315 317
324 326 326 326 327 327 327 325 322 323 327 330 331 331 331 331 330 330 329 331 332 332 333 334 335 334 334 334 333 332 331 330 329 329 328 327 326 326 326 327 328 328 327 325 323 320 319 320 322 322 321 319 318 317 317 317 316 316 315 314 313 313 314

ECMWFFLT2_850_thetae_117.txt.gz
Theta_e
323 327 336 342 339 339 338 334 333 333 333 335 335 334 338 338 336 339 341 340 343 344 344 348 348 346 346 346 347 348 348 348 347 347 346 342 339 338 338 339 339 340 341 341 341 341 341 343 343 343 344 344 344 345 344 344 344 344 345 345 345 344 343
326 325 331 339 337 336 337 334 333 333 333 334 334 334 336 336 332 335 339 339 341 341 342 349 351 347 347 346 346 348 349 349 347 347 347 343 340 339 338 338 339 339 340 341 340 340 340 341 341 342 343 343 343 344 344 344 344 344 344 344 344 344 343
326 329 335 338 335 333 334 335 334 333 335 335 333 333 334 334 332 333 336 339 339 339 342 348 350 348 348 347 346 348 348 349 348 347 347 345 342 340 338 338 338 339 339 340 339 339 340 340 341 341 341 342 343 344 344 344 345 344 344 345 344 343 343
322 327 334 334 333 331 331 334 332 331 337 337 334 334 331 332 333 332 333 335 334 337 344 347 349 350 349 348 346 347 347 348 348 347 348 347 344 341 339 338 338 338 339 339 339 339 339 339 340 340 341 342 342 343 343 344 345 345 346 346 345 342 341
322 323 326 326 327 327 326 329 329 329 333 334 333 334 330 328 331 332 332 331 329 338 348 348 349 349 348 348 346 346 348 348 347 346 347 347 346 344 341 340 339 339 339 339 338 339 339 339 340 340 341 341 341 342 342 343 344 345 346 346 346 343 342
321 323 323 322 323 325 327 331 333 331 330 328 328 331 330 327 329 331 331 328 328 341 348 348 349 348 347 349 347 346 348 348 346 346 346 346 346 345 343 341 340 339 339 339 339 339 339 339 340 340 341 341 341 342 342 342 343 344 346 346 346 345 342
323 323 323 323 322 326 332 336 338 336 332 327 326 328 329 329 329 332 332 328 332 345 348 347 348 349 349 350 348 347 347 347 346 345 345 346 345 346 346 343 341 340 340 340 339 339 339 340 340 340 340 340 340 341 341 342 342 342 345 346 346 345 342
325 323 324 325 324 327 332 335 339 339 337 336 334 332 330 328 330 333 332 329 334 346 349 349 349 351 351 350 348 347 347 346 346 346 346 346 345 346 346 345 344 342 340 340 339 339 339 339 339 340 340 340 340 340 341 342 341 342 344 346 346 345 342
322 322 323 325 327 330 332 334 338 339 341 341 339 337 334 329 329 333 330 326 333 346 349 348 349 349 351 351 348 345 345 346 346 347 347 346 346 346 346 346 345 343 342 341 339 339 339 339 339 339 339 339 339 340 340 341 341 341 343 346 347 346 345
318 320 322 324 328 332 332 334 338 339 340 339 335 333 330 328 330 333 330 328 336 348 349 346 347 348 349 350 347 345 346 346 346 347 347 347 346 346 346 346 345 343 342 341 340 340 339 339 339 339 339 339 339 340 340 340 341 341 342 345 347 347 347
319 322 327 329 331 332 330 333 337 340 341 339 334 329 328 333 334 332 334 338 341 348 349 346 347 347 348 350 348 346 346 346 346 347 348 348 347 346 346 346 346 345 343 342 341 341 340 340 339 339 339 339 339 339 340 340 341 341 341 344 346 347 347
323 326 329 331 333 333 332 333 336 339 341 340 339 336 337 340 336 329 337 344 344 346 349 347 347 347 348 350 349 348 347 345 345 347 348 348 348 347 347 346 346 346 345 343 342 341 341 340 340 340 340 340 339 340 340 339 341 341 341 342 345 346 347
325 327 328 330 335 335 335 336 337 339 341 340 341 342 341 341 336 334 342 346 346 348 349 346 346 347 348 349 349 349 348 346 345 346 347 349 349 348 348 347 347 346 346 345 344 342 341 340 340 341 341 342 342 342 341 340 340 341 341 341 343 345 346
326 326 327 331 335 334 334 336 338 339 341 340 340 342 342 342 342 342 345 347 348 349 348 346 347 348 348 348 349 349 349 347 347 346 346 347 348 349 349 348 348 348 347 347 346 345 343 342 340 340 341 342 343 343 343 343 342 342 342 342 342 344 346
324 326 327 329 332 332 332 333 336 339 340 340 340 341 342 344 345 345 345 346 348 347 346 347 347 347 348 349 349 349 349 348 347 346 345 345 347 348 349 349 349 349 349 348 347 346 346 344 342 341 340 341 342 344 344 345 345 344 343 343 342 343 345
323 325 327 328 329 330 329 327 332 338 339 338 340 341 341 343 345 345 345 345 346 346 346 346 346 347 347 347 347 347 348 347 347 347 346 346 347 348 348 349 350 350 350 349 349 348 347 346 344 343 341 341 342 343 344 345 346 345 345 345 345 345 346
321 324 327 329 329 326 325 327 332 337 339 339 340 341 341 342 343 344 344 343 343 345 346 345 344 345 345 344 344 345 346 348 349 348 348 348 349 349 349 349 349 350 350 349 349 349 348 347 346 344 343 343 342 343 344 344 345 345 347 347 348 349 348
320 324 327 328 325 322 326 331 332 335 338 338 340 342 341 341 341 341 342 341 339 340 343 343 342 342 341 341 343 343 345 346 347 347 348 349 349 349 349 349 349 349 350 349 349 349 348 348 347 347 346 345 345 344 344 344 344 345 346 346 346 347 348
320 324 325 323 321 323 329 331 332 335 337 336 337 340 339 339 340 341 341 339 338 338 340 341 341 340 340 340 341 342 343 343 343 343 344 346 348 349 348 348 348 348 349 349 349 349 348 348 348 348 348 347 347 346 346 346 345 345 345 346 345 344 345
321 323 322 320 321 326 329 328 329 333 335 334 335 337 338 338 340 341 341 339 339 339 339 340 340 340 340 339 339 339 341 341 340 339 341 343 346 348 348 348 348 348 348 348 348 348 348 348 348 348 348 348 348 348 348 347 347 346 346 347 346 344 344
324 325 324 323 324 325 328 329 330 332 334 334 334 336 337 337 339 341 340 338 339 340 340 341 340 339 340 340 339 338 339 340 339 338 339 341 343 346 347 347 348 348 347 348 348 347 347 347 348 348 348 348 348 349 348 348 348 348 348 348 348 347 347
326 328 327 325 323 322 326 331 330 330 332 332 332 334 335 337 339 340 339 339 340 340 340 340 339 339 341 341 338 337 338 339 339 339 339 340 342 344 345 346 347 347 347 347 346 347 347 347 347 347 347 347 347 348 348 347 348 348 348 348 349 349 349
325 326 325 326 323 322 328 331 328 329 330 330 331 332 332 335 339 339 338 339 340 340 341 340 339 341 344 342 338 337 338 339 340 340 340 341 342 343 344 344 345 345 344 344 346 347 347 347 347 346 346 346 346 347 346 346 346 346 346 346 346 347 349
326 324 324 325 324 325 330 330 328 328 329 329 332 331 330 334 338 339 338 339 339 340 340 339 339 341 343 341 337 336 338 340 340 341 341 340 341 342 342 342 343 343 342 343 345 346 346 345 345 345 344 345 345 345 345 345 345 344 345 345 345 347 348
327 326 323 323 324 326 328 328 328 328 328 329 332 331 330 333 338 339 338 338 339 339 339 338 338 339 339 338 337 336 336 337 338 340 340 339 338 340 340 340 341 342 341 340 341 342 342 343 343 342 343 343 343 343 343 343 343 342 343 344 344 345 346
327 327 325 323 323 325 326 327 327 327 328 330 331 330 330 333 338 339 338 338 339 338 337 337 338 338 338 337 337 336 334 331 331 333 334 332 331 334 336 337 339 339 339 338 337 338 339 340 341 342 342 342 341 341 341 340 339 339 340 340 340 341 341
326 327 326 323 323 324 326 328 329 328 330 330 330 332 334 335 337 339 338 338 339 337 337 337 337 338 337 336 336 334 331 328 326 325 325 323 323 326 329 331 333 334 334 334 335 336 336 337 338 339 340 340 339 339 338 336 335 336 336 336 336 336 337
325 326 325 324 325 326 326 328 329 329 329 329 329 334 337 336 337 338 338 338 338 337 337 338 337 337 336 334 333 330 326 324 321 319 317 317 318 319 320 323 324 325 326 328 329 330 332 333 334 335 336 336 336 335 334 332 332 334 334 333 334 334 333
324 326 326 326 327 327 326 327 328 327 328 329 330 334 336 336 337 338 338 338 337 337 337 337 337 336 335 332 329 326 323 322 319 317 315 314 314 314 314 315 316 316 317 319 320 321 322 322 323 325 326 326 326 326 327 328 329 329 328 327 326 325 323
324 326 327 326 327 329 328 328 328 328 329 332 332 334 335 335 336 336 337 337 336 336 337 337 336 336 333 330 327 324 323 322 319 317 315 313 312 312 312 312 312 312 313 314 314 315 316 316 315 315 315 315 317 318 320 321 322 320 318 317 317 317 316
325 327 329 328 328 329 328 328 329 329 331 333 334 334 333 333 334 334 335 335 336 336 336 336 335 334 331 328 326 325 323 321 317 315 313 312 311 311 310 310 310 310 311 311 312 313 313 312 312 313 313 314 315 316 316 316 316 316 315 316 316 316 316
326 328 329 328 328 328 328 329 330 330 331 333 333 334 333 333 332 332 332 334 335 336 336 335 334 332 329 326 326 325 323 320 316 313 311 310 309 309 309 308 308 308 308 309 309 309 309 309 310 312 314 315 315 316 315 315 315 316 317 317 318 317 317
327 328 327 327 328 328 327 328 329 330 330 331 331 332 333 333 332 331 331 333 334 334 335 334 331 329 328 326 325 325 322 319 317 315 313 311 308 308 308 308 307 307 306 307 307 308 310 311 312 312 313 315 316 317 317 317 316 317 318 318 319 319 318
328 329 329 329 329 330 329 327 327 327 328 329 329 330 331 331 330 330 330 331 333 333 333 333 330 327 327 326 326 324 322 321 321 320 317 314 311 310 310 311 311 310 310 309 310 310 311 312 312 311 311 312 314 315 316 316 316 316 317 317 317 317 316
327 329 330 328 328 330 329 327 327 327 327 327 328 329 328 327 328 329 330 330 332 332 331 331 330 328 326 327 327 325 324 323 324 323 320 317 316 315 314 314 314 315 315 315 315 315 315 315 315 314 314 314 314 315 315 315 315 316 316 316 316 316 315
325 326 328 327 327 328 326 324 325 324 322 323 326 328 328 326 327 329 329 329 331 332 332 331 330 329 328 328 327 327 326 325 325 325 324 323 322 321 319 318 316 316 317 319 320 320 320 319 319 318 317 317 317 317 317 317 317 317 317 317 317 316 316
324 326 327 326 325 323 320 319 320 320 319 319 320 324 327 328 328 329 329 329 330 332 332 331 330 329 329 328 328 327 327 326 326 326 327 327 327 327 326 324 322 321 321 322 324 324 324 324 323 321 320 319 318 318 319 318 318 318 319 319 319 318 318